<?xml version="1.0" encoding="utf-8"?>
<gpx xmlns:xsi="http://www.w3.org/2001/XMLSchema-instance" xmlns:xsd="http://www.w3.org/2001/XMLSchema" version="1.1" creator="Shapelink.com" xmlns="http://www.topografix.com/GPX/1/1" xmlns:gpxtpx="http://www.garmin.com/xmlschemas/TrackPointExtension/v1">
  <metadata>
    <name>Cykling 93.50 km, 2013-08-29</name>
    <desc></desc>
    <author><name>Alexander Engvall</name></author> 
    <time>2013-08-29T17:28:58Z</time>
  </metadata>
  <trk>
    <name>Cykling 93.50 km, 2013-08-29</name>
    <trkseg>
      <trkpt lat="59.332336442866" lon="18.05736940691">
        <ele>22.2</ele>
        <time>2013-08-29T17:28:58Z</time>
      </trkpt>
      <trkpt lat="59.332286319104" lon="18.057388517642">
        <ele>23.4</ele>
        <time>2013-08-29T17:29:01Z</time>
      </trkpt>
      <trkpt lat="59.332242817043" lon="18.057394971705">
        <ele>24.6</ele>
        <time>2013-08-29T17:29:02Z</time>
      </trkpt>
      <trkpt lat="59.332107197901" lon="18.057447023304">
        <ele>24.6</ele>
        <time>2013-08-29T17:29:05Z</time>
      </trkpt>
      <trkpt lat="59.331970153836" lon="18.05753620672">
        <ele>24.6</ele>
        <time>2013-08-29T17:29:08Z</time>
      </trkpt>
      <trkpt lat="59.331907205767" lon="18.057594460925">
        <ele>24.6</ele>
        <time>2013-08-29T17:29:10Z</time>
      </trkpt>
      <trkpt lat="59.331691120385" lon="18.057816748913">
        <ele>24.6</ele>
        <time>2013-08-29T17:29:20Z</time>
      </trkpt>
      <trkpt lat="59.331588274472" lon="18.057927389993">
        <ele>24.6</ele>
        <time>2013-08-29T17:29:23Z</time>
      </trkpt>
      <trkpt lat="59.33154401804" lon="18.057968628941">
        <ele>24.6</ele>
        <time>2013-08-29T17:29:24Z</time>
      </trkpt>
      <trkpt lat="59.331361124982" lon="18.058168621075">
        <ele>24.6</ele>
        <time>2013-08-29T17:29:28Z</time>
      </trkpt>
      <trkpt lat="59.331128611076" lon="18.058409013967">
        <ele>24.6</ele>
        <time>2013-08-29T17:29:33Z</time>
      </trkpt>
      <trkpt lat="59.330982263102" lon="18.058565923135">
        <ele>24.6</ele>
        <time>2013-08-29T17:29:36Z</time>
      </trkpt>
      <trkpt lat="59.330791071963" lon="18.058798437041">
        <ele>24.6</ele>
        <time>2013-08-29T17:29:41Z</time>
      </trkpt>
      <trkpt lat="59.330667355119" lon="18.058952244906">
        <ele>24.6</ele>
        <time>2013-08-29T17:29:45Z</time>
      </trkpt>
      <trkpt lat="59.33052394081" lon="18.059129102996">
        <ele>24.6</ele>
        <time>2013-08-29T17:29:49Z</time>
      </trkpt>
      <trkpt lat="59.330471302478" lon="18.059184255898">
        <ele>24.6</ele>
        <time>2013-08-29T17:29:50Z</time>
      </trkpt>
      <trkpt lat="59.330169721716" lon="18.059490614343">
        <ele>24.6</ele>
        <time>2013-08-29T17:29:55Z</time>
      </trkpt>
      <trkpt lat="59.329911056282" lon="18.059747603397">
        <ele>23.2</ele>
        <time>2013-08-29T17:29:59Z</time>
      </trkpt>
      <trkpt lat="59.329843581987" lon="18.059817340805">
        <ele>21.8</ele>
        <time>2013-08-29T17:30:00Z</time>
      </trkpt>
      <trkpt lat="59.329764456851" lon="18.059885150376">
        <ele>20.6</ele>
        <time>2013-08-29T17:30:01Z</time>
      </trkpt>
      <trkpt lat="59.329691031407" lon="18.059949271911">
        <ele>19.2</ele>
        <time>2013-08-29T17:30:02Z</time>
      </trkpt>
      <trkpt lat="59.3296195338" lon="18.060001994062">
        <ele>17.8</ele>
        <time>2013-08-29T17:30:03Z</time>
      </trkpt>
      <trkpt lat="59.329414009612" lon="18.060147336208">
        <ele>17.8</ele>
        <time>2013-08-29T17:30:06Z</time>
      </trkpt>
      <trkpt lat="59.329083595114" lon="18.060453610834">
        <ele>17.2</ele>
        <time>2013-08-29T17:30:11Z</time>
      </trkpt>
      <trkpt lat="59.329021233778" lon="18.06049501742">
        <ele>16.8</ele>
        <time>2013-08-29T17:30:12Z</time>
      </trkpt>
      <trkpt lat="59.328958537166" lon="18.060532903608">
        <ele>16.2</ele>
        <time>2013-08-29T17:30:13Z</time>
      </trkpt>
      <trkpt lat="59.328894750907" lon="18.060590235804">
        <ele>15.2</ele>
        <time>2013-08-29T17:30:14Z</time>
      </trkpt>
      <trkpt lat="59.328838424539" lon="18.06064505343">
        <ele>15.2</ele>
        <time>2013-08-29T17:30:15Z</time>
      </trkpt>
      <trkpt lat="59.328639102957" lon="18.060802297874">
        <ele>15.2</ele>
        <time>2013-08-29T17:30:19Z</time>
      </trkpt>
      <trkpt lat="59.32859526562" lon="18.060808584299">
        <ele>15.2</ele>
        <time>2013-08-29T17:30:20Z</time>
      </trkpt>
      <trkpt lat="59.328531730818" lon="18.060801459684">
        <ele>15.2</ele>
        <time>2013-08-29T17:30:22Z</time>
      </trkpt>
      <trkpt lat="59.328388065052" lon="18.061113434002">
        <ele>15.2</ele>
        <time>2013-08-29T17:31:37Z</time>
      </trkpt>
      <trkpt lat="59.328364008999" lon="18.06117227494">
        <ele>15.2</ele>
        <time>2013-08-29T17:31:38Z</time>
      </trkpt>
      <trkpt lat="59.328268287701" lon="18.061374781644">
        <ele>15.2</ele>
        <time>2013-08-29T17:31:42Z</time>
      </trkpt>
      <trkpt lat="59.328251104806" lon="18.061325831348">
        <ele>15.2</ele>
        <time>2013-08-29T17:31:43Z</time>
      </trkpt>
      <trkpt lat="59.328217828663" lon="18.061037661626">
        <ele>15.2</ele>
        <time>2013-08-29T17:31:46Z</time>
      </trkpt>
      <trkpt lat="59.328173907507" lon="18.060752509388">
        <ele>14.8</ele>
        <time>2013-08-29T17:31:48Z</time>
      </trkpt>
      <trkpt lat="59.328154796775" lon="18.060603563025">
        <ele>14.4</ele>
        <time>2013-08-29T17:31:49Z</time>
      </trkpt>
      <trkpt lat="59.328135183129" lon="18.060456879775">
        <ele>13.8</ele>
        <time>2013-08-29T17:31:50Z</time>
      </trkpt>
      <trkpt lat="59.328111127076" lon="18.06030307191">
        <ele>13.4</ele>
        <time>2013-08-29T17:31:51Z</time>
      </trkpt>
      <trkpt lat="59.328089166498" lon="18.060153957909">
        <ele>12.8</ele>
        <time>2013-08-29T17:31:52Z</time>
      </trkpt>
      <trkpt lat="59.328065780997" lon="18.060016243292">
        <ele>11.8</ele>
        <time>2013-08-29T17:31:53Z</time>
      </trkpt>
      <trkpt lat="59.328041473487" lon="18.059876517019">
        <ele>11.2</ele>
        <time>2013-08-29T17:31:54Z</time>
      </trkpt>
      <trkpt lat="59.328014819045" lon="18.059754141279">
        <ele>10.6</ele>
        <time>2013-08-29T17:31:55Z</time>
      </trkpt>
      <trkpt lat="59.327968886233" lon="18.059061796339">
        <ele>10.6</ele>
        <time>2013-08-29T17:32:00Z</time>
      </trkpt>
      <trkpt lat="59.327968467138" lon="18.058783181983">
        <ele>10.6</ele>
        <time>2013-08-29T17:32:02Z</time>
      </trkpt>
      <trkpt lat="59.328012472113" lon="18.058530719155">
        <ele>11</ele>
        <time>2013-08-29T17:32:04Z</time>
      </trkpt>
      <trkpt lat="59.328035187062" lon="18.058399374782">
        <ele>11.4</ele>
        <time>2013-08-29T17:32:05Z</time>
      </trkpt>
      <trkpt lat="59.328056560907" lon="18.058265767296">
        <ele>12</ele>
        <time>2013-08-29T17:32:06Z</time>
      </trkpt>
      <trkpt lat="59.328079611132" lon="18.058131237801">
        <ele>12.4</ele>
        <time>2013-08-29T17:32:07Z</time>
      </trkpt>
      <trkpt lat="59.328111127076" lon="18.058006934224">
        <ele>12.8</ele>
        <time>2013-08-29T17:32:08Z</time>
      </trkpt>
      <trkpt lat="59.32817030329" lon="18.057776515793">
        <ele>12.8</ele>
        <time>2013-08-29T17:32:10Z</time>
      </trkpt>
      <trkpt lat="59.328184049606" lon="18.057400252302">
        <ele>12.8</ele>
        <time>2013-08-29T17:32:13Z</time>
      </trkpt>
      <trkpt lat="59.328157814259" lon="18.057037986584">
        <ele>12.8</ele>
        <time>2013-08-29T17:32:16Z</time>
      </trkpt>
      <trkpt lat="59.328145492866" lon="18.056913347731">
        <ele>12.8</ele>
        <time>2013-08-29T17:32:17Z</time>
      </trkpt>
      <trkpt lat="59.328120263347" lon="18.056569689831">
        <ele>13.2</ele>
        <time>2013-08-29T17:32:20Z</time>
      </trkpt>
      <trkpt lat="59.328111043257" lon="18.056447565548">
        <ele>13.6</ele>
        <time>2013-08-29T17:32:21Z</time>
      </trkpt>
      <trkpt lat="59.328099392416" lon="18.056326195636">
        <ele>14.2</ele>
        <time>2013-08-29T17:32:22Z</time>
      </trkpt>
      <trkpt lat="59.328086065195" lon="18.05620180824">
        <ele>14.6</ele>
        <time>2013-08-29T17:32:23Z</time>
      </trkpt>
      <trkpt lat="59.328072318879" lon="18.056075660645">
        <ele>15</ele>
        <time>2013-08-29T17:32:24Z</time>
      </trkpt>
      <trkpt lat="59.327986991137" lon="18.05546336285">
        <ele>15</ele>
        <time>2013-08-29T17:32:29Z</time>
      </trkpt>
      <trkpt lat="59.327954972279" lon="18.055369820846">
        <ele>15</ele>
        <time>2013-08-29T17:32:30Z</time>
      </trkpt>
      <trkpt lat="59.327913314236" lon="18.055005292015">
        <ele>15</ele>
        <time>2013-08-29T17:32:33Z</time>
      </trkpt>
      <trkpt lat="59.327834608195" lon="18.054245891875">
        <ele>15</ele>
        <time>2013-08-29T17:32:39Z</time>
      </trkpt>
      <trkpt lat="59.327766044253" lon="18.053411557549">
        <ele>15</ele>
        <time>2013-08-29T17:32:45Z</time>
      </trkpt>
      <trkpt lat="59.327753136127" lon="18.053286331963">
        <ele>15</ele>
        <time>2013-08-29T17:32:46Z</time>
      </trkpt>
      <trkpt lat="59.327727236056" lon="18.053187760819">
        <ele>15</ele>
        <time>2013-08-29T17:32:47Z</time>
      </trkpt>
      <trkpt lat="59.327609218904" lon="18.053166806069">
        <ele>15</ele>
        <time>2013-08-29T17:32:49Z</time>
      </trkpt>
      <trkpt lat="59.327426912579" lon="18.053236711115">
        <ele>14.6</ele>
        <time>2013-08-29T17:32:52Z</time>
      </trkpt>
      <trkpt lat="59.327365054157" lon="18.053271160724">
        <ele>14.2</ele>
        <time>2013-08-29T17:32:53Z</time>
      </trkpt>
      <trkpt lat="59.327304872115" lon="18.053301000288">
        <ele>13.8</ele>
        <time>2013-08-29T17:32:54Z</time>
      </trkpt>
      <trkpt lat="59.32724829429" lon="18.053322206495">
        <ele>13.4</ele>
        <time>2013-08-29T17:32:55Z</time>
      </trkpt>
      <trkpt lat="59.327190878275" lon="18.053337796829">
        <ele>13</ele>
        <time>2013-08-29T17:32:56Z</time>
      </trkpt>
      <trkpt lat="59.327018462592" lon="18.053311896758">
        <ele>13</ele>
        <time>2013-08-29T17:32:59Z</time>
      </trkpt>
      <trkpt lat="59.326988706847" lon="18.053094470272">
        <ele>13</ele>
        <time>2013-08-29T17:33:01Z</time>
      </trkpt>
      <trkpt lat="59.32697504435" lon="18.052868745705">
        <ele>13</ele>
        <time>2013-08-29T17:33:03Z</time>
      </trkpt>
      <trkpt lat="59.326916454869" lon="18.052370190293">
        <ele>13</ele>
        <time>2013-08-29T17:33:07Z</time>
      </trkpt>
      <trkpt lat="59.326894494291" lon="18.052242533956">
        <ele>12.4</ele>
        <time>2013-08-29T17:33:08Z</time>
      </trkpt>
      <trkpt lat="59.326881669984" lon="18.052116805456">
        <ele>12</ele>
        <time>2013-08-29T17:33:09Z</time>
      </trkpt>
      <trkpt lat="59.326863229804" lon="18.051985963997">
        <ele>11.6</ele>
        <time>2013-08-29T17:33:10Z</time>
      </trkpt>
      <trkpt lat="59.326850489316" lon="18.051849171389">
        <ele>11.2</ele>
        <time>2013-08-29T17:33:11Z</time>
      </trkpt>
      <trkpt lat="59.32683841938" lon="18.051705673261">
        <ele>10.6</ele>
        <time>2013-08-29T17:33:12Z</time>
      </trkpt>
      <trkpt lat="59.326724257902" lon="18.050606387076">
        <ele>10.6</ele>
        <time>2013-08-29T17:33:20Z</time>
      </trkpt>
      <trkpt lat="59.32673196925" lon="18.050473450142">
        <ele>10.6</ele>
        <time>2013-08-29T17:33:21Z</time>
      </trkpt>
      <trkpt lat="59.326768681972" lon="18.050251329792">
        <ele>10.6</ele>
        <time>2013-08-29T17:33:23Z</time>
      </trkpt>
      <trkpt lat="59.326774884578" lon="18.050153010105">
        <ele>10.6</ele>
        <time>2013-08-29T17:33:24Z</time>
      </trkpt>
      <trkpt lat="59.326782093012" lon="18.05007128658">
        <ele>11</ele>
        <time>2013-08-29T17:33:25Z</time>
      </trkpt>
      <trkpt lat="59.326785278134" lon="18.049980510603">
        <ele>11.6</ele>
        <time>2013-08-29T17:33:26Z</time>
      </trkpt>
      <trkpt lat="59.326781254822" lon="18.049883364382">
        <ele>12</ele>
        <time>2013-08-29T17:33:27Z</time>
      </trkpt>
      <trkpt lat="59.326771196542" lon="18.04977372913">
        <ele>12.4</ele>
        <time>2013-08-29T17:33:28Z</time>
      </trkpt>
      <trkpt lat="59.326765413031" lon="18.049663842421">
        <ele>12.8</ele>
        <time>2013-08-29T17:33:29Z</time>
      </trkpt>
      <trkpt lat="59.326765077755" lon="18.049423868624">
        <ele>12.8</ele>
        <time>2013-08-29T17:33:31Z</time>
      </trkpt>
      <trkpt lat="59.326754935656" lon="18.048909722878">
        <ele>12.8</ele>
        <time>2013-08-29T17:33:35Z</time>
      </trkpt>
      <trkpt lat="59.326746637575" lon="18.048797573056">
        <ele>12.8</ele>
        <time>2013-08-29T17:33:36Z</time>
      </trkpt>
      <trkpt lat="59.326744290643" lon="18.048223748182">
        <ele>12.8</ele>
        <time>2013-08-29T17:33:41Z</time>
      </trkpt>
      <trkpt lat="59.326750828525" lon="18.047895429159">
        <ele>12.8</ele>
        <time>2013-08-29T17:33:44Z</time>
      </trkpt>
      <trkpt lat="59.32674370391" lon="18.047619664649">
        <ele>12.8</ele>
        <time>2013-08-29T17:33:46Z</time>
      </trkpt>
      <trkpt lat="59.326712774699" lon="18.046850541505">
        <ele>12.8</ele>
        <time>2013-08-29T17:33:51Z</time>
      </trkpt>
      <trkpt lat="59.326714702536" lon="18.046566311276">
        <ele>12.4</ele>
        <time>2013-08-29T17:33:53Z</time>
      </trkpt>
      <trkpt lat="59.326716211278" lon="18.046428429021">
        <ele>12</ele>
        <time>2013-08-29T17:33:54Z</time>
      </trkpt>
      <trkpt lat="59.326719228762" lon="18.046311836792">
        <ele>11.6</ele>
        <time>2013-08-29T17:33:55Z</time>
      </trkpt>
      <trkpt lat="59.32670430898" lon="18.046183509903">
        <ele>10.8</ele>
        <time>2013-08-29T17:33:56Z</time>
      </trkpt>
      <trkpt lat="59.326683689506" lon="18.045893244706">
        <ele>10.8</ele>
        <time>2013-08-29T17:33:58Z</time>
      </trkpt>
      <trkpt lat="59.326710930681" lon="18.045617899291">
        <ele>10.8</ele>
        <time>2013-08-29T17:34:00Z</time>
      </trkpt>
      <trkpt lat="59.326710930681" lon="18.045028148807">
        <ele>10.8</ele>
        <time>2013-08-29T17:34:04Z</time>
      </trkpt>
      <trkpt lat="59.326709757215" lon="18.043999773496">
        <ele>10.8</ele>
        <time>2013-08-29T17:34:11Z</time>
      </trkpt>
      <trkpt lat="59.326702381143" lon="18.043622923272">
        <ele>10.8</ele>
        <time>2013-08-29T17:34:14Z</time>
      </trkpt>
      <trkpt lat="59.326707410283" lon="18.04340013237">
        <ele>10.8</ele>
        <time>2013-08-29T17:34:16Z</time>
      </trkpt>
      <trkpt lat="59.326701040039" lon="18.042867714082">
        <ele>10.8</ele>
        <time>2013-08-29T17:34:21Z</time>
      </trkpt>
      <trkpt lat="59.326699866573" lon="18.042428334884">
        <ele>10.8</ele>
        <time>2013-08-29T17:34:24Z</time>
      </trkpt>
      <trkpt lat="59.326694502157" lon="18.042277963598">
        <ele>10.4</ele>
        <time>2013-08-29T17:34:25Z</time>
      </trkpt>
      <trkpt lat="59.326679247099" lon="18.042134884565">
        <ele>9.8</ele>
        <time>2013-08-29T17:34:26Z</time>
      </trkpt>
      <trkpt lat="59.326651754467" lon="18.042006390038">
        <ele>9.4</ele>
        <time>2013-08-29T17:34:27Z</time>
      </trkpt>
      <trkpt lat="59.326607498035" lon="18.041891138913">
        <ele>9</ele>
        <time>2013-08-29T17:34:28Z</time>
      </trkpt>
      <trkpt lat="59.326563828336" lon="18.041772618847">
        <ele>8.6</ele>
        <time>2013-08-29T17:34:29Z</time>
      </trkpt>
      <trkpt lat="59.326534324048" lon="18.041631300013">
        <ele>8.6</ele>
        <time>2013-08-29T17:34:30Z</time>
      </trkpt>
      <trkpt lat="59.326547399812" lon="18.041381184117">
        <ele>8.6</ele>
        <time>2013-08-29T17:34:32Z</time>
      </trkpt>
      <trkpt lat="59.32655846392" lon="18.041273392883">
        <ele>9.2</ele>
        <time>2013-08-29T17:34:33Z</time>
      </trkpt>
      <trkpt lat="59.326579837765" lon="18.041165266373">
        <ele>9.6</ele>
        <time>2013-08-29T17:34:34Z</time>
      </trkpt>
      <trkpt lat="59.32659702066" lon="18.041061330813">
        <ele>10.2</ele>
        <time>2013-08-29T17:34:35Z</time>
      </trkpt>
      <trkpt lat="59.326614203555" lon="18.04095597033">
        <ele>10.6</ele>
        <time>2013-08-29T17:34:36Z</time>
      </trkpt>
      <trkpt lat="59.326627279319" lon="18.040850945123">
        <ele>11.2</ele>
        <time>2013-08-29T17:34:37Z</time>
      </trkpt>
      <trkpt lat="59.326733729449" lon="18.040488595586">
        <ele>11.2</ele>
        <time>2013-08-29T17:34:41Z</time>
      </trkpt>
      <trkpt lat="59.32678728979" lon="18.040182488598">
        <ele>11.2</ele>
        <time>2013-08-29T17:34:44Z</time>
      </trkpt>
      <trkpt lat="59.326803885952" lon="18.040067656568">
        <ele>11.2</ele>
        <time>2013-08-29T17:34:45Z</time>
      </trkpt>
      <trkpt lat="59.326879742147" lon="18.039574297934">
        <ele>11.2</ele>
        <time>2013-08-29T17:34:49Z</time>
      </trkpt>
      <trkpt lat="59.326899691069" lon="18.039456029325">
        <ele>11.2</ele>
        <time>2013-08-29T17:34:50Z</time>
      </trkpt>
      <trkpt lat="59.326968171192" lon="18.038959737026">
        <ele>11.2</ele>
        <time>2013-08-29T17:34:54Z</time>
      </trkpt>
      <trkpt lat="59.327028017958" lon="18.038674333331">
        <ele>11.2</ele>
        <time>2013-08-29T17:34:57Z</time>
      </trkpt>
      <trkpt lat="59.327095240796" lon="18.038292956881">
        <ele>11.2</ele>
        <time>2013-08-29T17:35:00Z</time>
      </trkpt>
      <trkpt lat="59.327111082587" lon="18.038147111821">
        <ele>10.6</ele>
        <time>2013-08-29T17:35:01Z</time>
      </trkpt>
      <trkpt lat="59.327133294622" lon="18.038002859322">
        <ele>10.2</ele>
        <time>2013-08-29T17:35:02Z</time>
      </trkpt>
      <trkpt lat="59.327165732575" lon="18.037851901303">
        <ele>9.8</ele>
        <time>2013-08-29T17:35:03Z</time>
      </trkpt>
      <trkpt lat="59.327189034257" lon="18.037700608008">
        <ele>9.4</ele>
        <time>2013-08-29T17:35:04Z</time>
      </trkpt>
      <trkpt lat="59.327218203269" lon="18.03755040436">
        <ele>9</ele>
        <time>2013-08-29T17:35:05Z</time>
      </trkpt>
      <trkpt lat="59.327235972897" lon="18.037383939826">
        <ele>9</ele>
        <time>2013-08-29T17:35:06Z</time>
      </trkpt>
      <trkpt lat="59.327345105235" lon="18.0368178263">
        <ele>9</ele>
        <time>2013-08-29T17:35:10Z</time>
      </trkpt>
      <trkpt lat="59.327447112958" lon="18.036192368922">
        <ele>9</ele>
        <time>2013-08-29T17:35:14Z</time>
      </trkpt>
      <trkpt lat="59.327492542856" lon="18.035881651889">
        <ele>9</ele>
        <time>2013-08-29T17:35:16Z</time>
      </trkpt>
      <trkpt lat="59.327616762614" lon="18.03494698622">
        <ele>9</ele>
        <time>2013-08-29T17:35:22Z</time>
      </trkpt>
      <trkpt lat="59.327658253019" lon="18.034666779303">
        <ele>9</ele>
        <time>2013-08-29T17:35:24Z</time>
      </trkpt>
      <trkpt lat="59.327743413123" lon="18.034232093969">
        <ele>9</ele>
        <time>2013-08-29T17:35:27Z</time>
      </trkpt>
      <trkpt lat="59.327811809427" lon="18.03381794429">
        <ele>9</ele>
        <time>2013-08-29T17:35:30Z</time>
      </trkpt>
      <trkpt lat="59.327929658941" lon="18.032938515342">
        <ele>9</ele>
        <time>2013-08-29T17:35:36Z</time>
      </trkpt>
      <trkpt lat="59.327981459083" lon="18.032697368079">
        <ele>9</ele>
        <time>2013-08-29T17:35:38Z</time>
      </trkpt>
      <trkpt lat="59.328018674719" lon="18.032430656021">
        <ele>9</ele>
        <time>2013-08-29T17:35:40Z</time>
      </trkpt>
      <trkpt lat="59.328032588673" lon="18.032306268625">
        <ele>9</ele>
        <time>2013-08-29T17:35:41Z</time>
      </trkpt>
      <trkpt lat="59.32808396972" lon="18.031991444461">
        <ele>9</ele>
        <time>2013-08-29T17:35:44Z</time>
      </trkpt>
      <trkpt lat="59.328095452923" lon="18.031843587745">
        <ele>9</ele>
        <time>2013-08-29T17:35:45Z</time>
      </trkpt>
      <trkpt lat="59.328160077372" lon="18.031272780355">
        <ele>9</ele>
        <time>2013-08-29T17:35:49Z</time>
      </trkpt>
      <trkpt lat="59.328192180049" lon="18.030997351121">
        <ele>9</ele>
        <time>2013-08-29T17:35:51Z</time>
      </trkpt>
      <trkpt lat="59.32827926799" lon="18.030300982869">
        <ele>9</ele>
        <time>2013-08-29T17:35:56Z</time>
      </trkpt>
      <trkpt lat="59.328314136694" lon="18.029764625088">
        <ele>9</ele>
        <time>2013-08-29T17:36:00Z</time>
      </trkpt>
      <trkpt lat="59.328293684858" lon="18.029614756716">
        <ele>9</ele>
        <time>2013-08-29T17:36:01Z</time>
      </trkpt>
      <trkpt lat="59.328341545507" lon="18.029342931699">
        <ele>9</ele>
        <time>2013-08-29T17:36:03Z</time>
      </trkpt>
      <trkpt lat="59.328369624872" lon="18.029211754964">
        <ele>9</ele>
        <time>2013-08-29T17:36:04Z</time>
      </trkpt>
      <trkpt lat="59.328457970098" lon="18.028833479817">
        <ele>9</ele>
        <time>2013-08-29T17:36:07Z</time>
      </trkpt>
      <trkpt lat="59.328488396395" lon="18.02870833805">
        <ele>9</ele>
        <time>2013-08-29T17:36:08Z</time>
      </trkpt>
      <trkpt lat="59.328612616153" lon="18.028122359421">
        <ele>9</ele>
        <time>2013-08-29T17:36:12Z</time>
      </trkpt>
      <trkpt lat="59.328643377726" lon="18.027981459682">
        <ele>8.6</ele>
        <time>2013-08-29T17:36:13Z</time>
      </trkpt>
      <trkpt lat="59.328671121815" lon="18.027818515546">
        <ele>8.2</ele>
        <time>2013-08-29T17:36:14Z</time>
      </trkpt>
      <trkpt lat="59.32871177403" lon="18.02767149702">
        <ele>7.8</ele>
        <time>2013-08-29T17:36:15Z</time>
      </trkpt>
      <trkpt lat="59.328758796489" lon="18.027532525118">
        <ele>7.4</ele>
        <time>2013-08-29T17:36:16Z</time>
      </trkpt>
      <trkpt lat="59.328811770097" lon="18.027396486881">
        <ele>6.8</ele>
        <time>2013-08-29T17:36:17Z</time>
      </trkpt>
      <trkpt lat="59.329076135223" lon="18.026567936066">
        <ele>6.8</ele>
        <time>2013-08-29T17:36:23Z</time>
      </trkpt>
      <trkpt lat="59.329108740814" lon="18.026420582264">
        <ele>6.8</ele>
        <time>2013-08-29T17:36:24Z</time>
      </trkpt>
      <trkpt lat="59.329200941714" lon="18.026153451111">
        <ele>6.8</ele>
        <time>2013-08-29T17:36:26Z</time>
      </trkpt>
      <trkpt lat="59.329245449603" lon="18.026017915788">
        <ele>6.8</ele>
        <time>2013-08-29T17:36:27Z</time>
      </trkpt>
      <trkpt lat="59.329546359813" lon="18.02501275834">
        <ele>6.8</ele>
        <time>2013-08-29T17:36:34Z</time>
      </trkpt>
      <trkpt lat="59.329740652255" lon="18.024346816385">
        <ele>6.8</ele>
        <time>2013-08-29T17:36:39Z</time>
      </trkpt>
      <trkpt lat="59.329784741049" lon="18.02422485974">
        <ele>6.8</ele>
        <time>2013-08-29T17:36:40Z</time>
      </trkpt>
      <trkpt lat="59.329831679689" lon="18.024114805393">
        <ele>7.2</ele>
        <time>2013-08-29T17:36:41Z</time>
      </trkpt>
      <trkpt lat="59.329871074619" lon="18.0239851374">
        <ele>7.6</ele>
        <time>2013-08-29T17:36:42Z</time>
      </trkpt>
      <trkpt lat="59.329909882816" lon="18.023852032828">
        <ele>8.2</ele>
        <time>2013-08-29T17:36:43Z</time>
      </trkpt>
      <trkpt lat="59.329949948298" lon="18.023734434771">
        <ele>8.6</ele>
        <time>2013-08-29T17:36:44Z</time>
      </trkpt>
      <trkpt lat="59.329992612169" lon="18.023592780661">
        <ele>9</ele>
        <time>2013-08-29T17:36:45Z</time>
      </trkpt>
      <trkpt lat="59.330099732851" lon="18.023194556592">
        <ele>9</ele>
        <time>2013-08-29T17:36:48Z</time>
      </trkpt>
      <trkpt lat="59.330113814443" lon="18.023086010987">
        <ele>9</ele>
        <time>2013-08-29T17:36:49Z</time>
      </trkpt>
      <trkpt lat="59.33017190101" lon="18.022836062729">
        <ele>9</ele>
        <time>2013-08-29T17:36:51Z</time>
      </trkpt>
      <trkpt lat="59.330325625056" lon="18.022237930345">
        <ele>9</ele>
        <time>2013-08-29T17:36:56Z</time>
      </trkpt>
      <trkpt lat="59.330330570377" lon="18.022107256524">
        <ele>9</ele>
        <time>2013-08-29T17:36:57Z</time>
      </trkpt>
      <trkpt lat="59.330258569856" lon="18.021738285286">
        <ele>9</ele>
        <time>2013-08-29T17:37:00Z</time>
      </trkpt>
      <trkpt lat="59.330077269359" lon="18.021291446197">
        <ele>9</ele>
        <time>2013-08-29T17:37:04Z</time>
      </trkpt>
      <trkpt lat="59.330064445052" lon="18.021063877612">
        <ele>9</ele>
        <time>2013-08-29T17:37:06Z</time>
      </trkpt>
      <trkpt lat="59.330085902716" lon="18.020945776641">
        <ele>9</ele>
        <time>2013-08-29T17:37:07Z</time>
      </trkpt>
      <trkpt lat="59.330166285137" lon="18.020523747976">
        <ele>9</ele>
        <time>2013-08-29T17:37:11Z</time>
      </trkpt>
      <trkpt lat="59.330233424156" lon="18.020509834022">
        <ele>9</ele>
        <time>2013-08-29T17:37:12Z</time>
      </trkpt>
      <trkpt lat="59.330458981085" lon="18.020578062688">
        <ele>9</ele>
        <time>2013-08-29T17:37:15Z</time>
      </trkpt>
      <trkpt lat="59.33054657194" lon="18.020554258092">
        <ele>9</ele>
        <time>2013-08-29T17:37:16Z</time>
      </trkpt>
      <trkpt lat="59.330680514702" lon="18.020382261504">
        <ele>9</ele>
        <time>2013-08-29T17:37:18Z</time>
      </trkpt>
      <trkpt lat="59.330831305083" lon="18.019976242268">
        <ele>9</ele>
        <time>2013-08-29T17:37:21Z</time>
      </trkpt>
      <trkpt lat="59.331050491768" lon="18.019368638337">
        <ele>9</ele>
        <time>2013-08-29T17:37:26Z</time>
      </trkpt>
      <trkpt lat="59.331152750948" lon="18.018814175652">
        <ele>9.4</ele>
        <time>2013-08-29T17:37:30Z</time>
      </trkpt>
      <trkpt lat="59.331189296032" lon="18.018680484347">
        <ele>9.8</ele>
        <time>2013-08-29T17:37:31Z</time>
      </trkpt>
      <trkpt lat="59.331221398709" lon="18.018559617349">
        <ele>10.2</ele>
        <time>2013-08-29T17:37:32Z</time>
      </trkpt>
      <trkpt lat="59.331250148626" lon="18.018435313772">
        <ele>10.8</ele>
        <time>2013-08-29T17:37:33Z</time>
      </trkpt>
      <trkpt lat="59.331264733132" lon="18.018306064874">
        <ele>11.2</ele>
        <time>2013-08-29T17:37:34Z</time>
      </trkpt>
      <trkpt lat="59.331252244101" lon="18.018024349215">
        <ele>11.2</ele>
        <time>2013-08-29T17:37:36Z</time>
      </trkpt>
      <trkpt lat="59.331206730384" lon="18.01732823242">
        <ele>11.2</ele>
        <time>2013-08-29T17:37:41Z</time>
      </trkpt>
      <trkpt lat="59.331136238605" lon="18.016374623657">
        <ele>11.2</ele>
        <time>2013-08-29T17:37:48Z</time>
      </trkpt>
      <trkpt lat="59.331097598046" lon="18.015586641238">
        <ele>11.2</ele>
        <time>2013-08-29T17:37:54Z</time>
      </trkpt>
      <trkpt lat="59.331091311621" lon="18.015471222475">
        <ele>11.8</ele>
        <time>2013-08-29T17:37:55Z</time>
      </trkpt>
      <trkpt lat="59.331088629413" lon="18.015358402101">
        <ele>12.2</ele>
        <time>2013-08-29T17:37:56Z</time>
      </trkpt>
      <trkpt lat="59.331082259169" lon="18.015243989166">
        <ele>12.8</ele>
        <time>2013-08-29T17:37:57Z</time>
      </trkpt>
      <trkpt lat="59.33107882259" lon="18.015132928991">
        <ele>13.2</ele>
        <time>2013-08-29T17:37:58Z</time>
      </trkpt>
      <trkpt lat="59.331074547821" lon="18.015018264599">
        <ele>13.8</ele>
        <time>2013-08-29T17:37:59Z</time>
      </trkpt>
      <trkpt lat="59.331061136781" lon="18.014779883363">
        <ele>13.8</ele>
        <time>2013-08-29T17:38:01Z</time>
      </trkpt>
      <trkpt lat="59.331055688546" lon="18.014665554247">
        <ele>14.2</ele>
        <time>2013-08-29T17:38:02Z</time>
      </trkpt>
      <trkpt lat="59.331050575587" lon="18.014551141312">
        <ele>14.8</ele>
        <time>2013-08-29T17:38:03Z</time>
      </trkpt>
      <trkpt lat="59.331040601126" lon="18.014443098621">
        <ele>16</ele>
        <time>2013-08-29T17:38:04Z</time>
      </trkpt>
      <trkpt lat="59.331036745452" lon="18.014326841668">
        <ele>16.4</ele>
        <time>2013-08-29T17:38:05Z</time>
      </trkpt>
      <trkpt lat="59.33103942766" lon="18.01420848924">
        <ele>16.4</ele>
        <time>2013-08-29T17:38:06Z</time>
      </trkpt>
      <trkpt lat="59.33103775128" lon="18.014087454604">
        <ele>17</ele>
        <time>2013-08-29T17:38:07Z</time>
      </trkpt>
      <trkpt lat="59.331038086556" lon="18.013982429397">
        <ele>17.4</ele>
        <time>2013-08-29T17:38:08Z</time>
      </trkpt>
      <trkpt lat="59.33103523671" lon="18.01388410971">
        <ele>17.8</ele>
        <time>2013-08-29T17:38:09Z</time>
      </trkpt>
      <trkpt lat="59.331034063244" lon="18.013784784195">
        <ele>18.4</ele>
        <time>2013-08-29T17:38:10Z</time>
      </trkpt>
      <trkpt lat="59.331031967769" lon="18.013669449251">
        <ele>18.8</ele>
        <time>2013-08-29T17:38:11Z</time>
      </trkpt>
      <trkpt lat="59.331028028276" lon="18.013553946669">
        <ele>18.8</ele>
        <time>2013-08-29T17:38:12Z</time>
      </trkpt>
      <trkpt lat="59.331013108494" lon="18.012937709381">
        <ele>18.8</ele>
        <time>2013-08-29T17:38:17Z</time>
      </trkpt>
      <trkpt lat="59.330953429366" lon="18.012049814714">
        <ele>18.8</ele>
        <time>2013-08-29T17:38:23Z</time>
      </trkpt>
      <trkpt lat="59.330944041638" lon="18.011888630777">
        <ele>18.4</ele>
        <time>2013-08-29T17:38:24Z</time>
      </trkpt>
      <trkpt lat="59.330937419937" lon="18.011719148759">
        <ele>17.8</ele>
        <time>2013-08-29T17:38:25Z</time>
      </trkpt>
      <trkpt lat="59.330939012498" lon="18.011549666741">
        <ele>17.4</ele>
        <time>2013-08-29T17:38:26Z</time>
      </trkpt>
      <trkpt lat="59.330940269783" lon="18.011380939094">
        <ele>17</ele>
        <time>2013-08-29T17:38:27Z</time>
      </trkpt>
      <trkpt lat="59.330955692479" lon="18.01120860723">
        <ele>16</ele>
        <time>2013-08-29T17:38:28Z</time>
      </trkpt>
      <trkpt lat="59.330969438795" lon="18.011038957574">
        <ele>15.4</ele>
        <time>2013-08-29T17:38:29Z</time>
      </trkpt>
      <trkpt lat="59.330983604206" lon="18.010871319574">
        <ele>15</ele>
        <time>2013-08-29T17:38:30Z</time>
      </trkpt>
      <trkpt lat="59.33099667997" lon="18.010699071529">
        <ele>14.4</ele>
        <time>2013-08-29T17:38:31Z</time>
      </trkpt>
      <trkpt lat="59.331011935028" lon="18.010362370606">
        <ele>14</ele>
        <time>2013-08-29T17:38:33Z</time>
      </trkpt>
      <trkpt lat="59.331014533417" lon="18.010185680154">
        <ele>13.6</ele>
        <time>2013-08-29T17:38:34Z</time>
      </trkpt>
      <trkpt lat="59.331013946684" lon="18.010015611403">
        <ele>13</ele>
        <time>2013-08-29T17:38:35Z</time>
      </trkpt>
      <trkpt lat="59.331016209797" lon="18.009842189892">
        <ele>12.6</ele>
        <time>2013-08-29T17:38:36Z</time>
      </trkpt>
      <trkpt lat="59.331024759335" lon="18.009667092001">
        <ele>12</ele>
        <time>2013-08-29T17:38:37Z</time>
      </trkpt>
      <trkpt lat="59.331027693" lon="18.00949869963">
        <ele>11.4</ele>
        <time>2013-08-29T17:38:38Z</time>
      </trkpt>
      <trkpt lat="59.331032973597" lon="18.009327792689">
        <ele>11</ele>
        <time>2013-08-29T17:38:39Z</time>
      </trkpt>
      <trkpt lat="59.331045127352" lon="18.009169123322">
        <ele>10.4</ele>
        <time>2013-08-29T17:38:40Z</time>
      </trkpt>
      <trkpt lat="59.331070356871" lon="18.009007771747">
        <ele>9.8</ele>
        <time>2013-08-29T17:38:41Z</time>
      </trkpt>
      <trkpt lat="59.331154930242" lon="18.008722703328">
        <ele>9.8</ele>
        <time>2013-08-29T17:38:43Z</time>
      </trkpt>
      <trkpt lat="59.331431616761" lon="18.007824582743">
        <ele>10.2</ele>
        <time>2013-08-29T17:38:50Z</time>
      </trkpt>
      <trkpt lat="59.331464809085" lon="18.007710337446">
        <ele>10.6</ele>
        <time>2013-08-29T17:38:51Z</time>
      </trkpt>
      <trkpt lat="59.331501773264" lon="18.007594415769">
        <ele>11.2</ele>
        <time>2013-08-29T17:38:52Z</time>
      </trkpt>
      <trkpt lat="59.331539324176" lon="18.007472459124">
        <ele>12</ele>
        <time>2013-08-29T17:38:53Z</time>
      </trkpt>
      <trkpt lat="59.331614174543" lon="18.00724229215">
        <ele>12.4</ele>
        <time>2013-08-29T17:38:55Z</time>
      </trkpt>
      <trkpt lat="59.33165214455" lon="18.007121006057">
        <ele>12.8</ele>
        <time>2013-08-29T17:38:56Z</time>
      </trkpt>
      <trkpt lat="59.331689444005" lon="18.006994690824">
        <ele>13.2</ele>
        <time>2013-08-29T17:38:57Z</time>
      </trkpt>
      <trkpt lat="59.331726240546" lon="18.006868962324">
        <ele>13.8</ele>
        <time>2013-08-29T17:38:58Z</time>
      </trkpt>
      <trkpt lat="59.331758091766" lon="18.006752370095">
        <ele>14.2</ele>
        <time>2013-08-29T17:38:59Z</time>
      </trkpt>
      <trkpt lat="59.331894465279" lon="18.006115345695">
        <ele>14.2</ele>
        <time>2013-08-29T17:39:04Z</time>
      </trkpt>
      <trkpt lat="59.331962777764" lon="18.00575115214">
        <ele>14.6</ele>
        <time>2013-08-29T17:39:07Z</time>
      </trkpt>
      <trkpt lat="59.331981888496" lon="18.00562207088">
        <ele>15</ele>
        <time>2013-08-29T17:39:08Z</time>
      </trkpt>
      <trkpt lat="59.331993204061" lon="18.005505311013">
        <ele>15.4</ele>
        <time>2013-08-29T17:39:09Z</time>
      </trkpt>
      <trkpt lat="59.332007872386" lon="18.005385449843">
        <ele>15.8</ele>
        <time>2013-08-29T17:39:10Z</time>
      </trkpt>
      <trkpt lat="59.332032012258" lon="18.005266929777">
        <ele>16.2</ele>
        <time>2013-08-29T17:39:11Z</time>
      </trkpt>
      <trkpt lat="59.332103761322" lon="18.004903574412">
        <ele>16.2</ele>
        <time>2013-08-29T17:39:14Z</time>
      </trkpt>
      <trkpt lat="59.332267208372" lon="18.004016350297">
        <ele>16.2</ele>
        <time>2013-08-29T17:39:21Z</time>
      </trkpt>
      <trkpt lat="59.332446664851" lon="18.002989399909">
        <ele>16.2</ele>
        <time>2013-08-29T17:39:29Z</time>
      </trkpt>
      <trkpt lat="59.332470301809" lon="18.002854702776">
        <ele>16.2</ele>
        <time>2013-08-29T17:39:30Z</time>
      </trkpt>
      <trkpt lat="59.332642214578" lon="18.001831021329">
        <ele>16.2</ele>
        <time>2013-08-29T17:39:38Z</time>
      </trkpt>
      <trkpt lat="59.332666522088" lon="18.001708813227">
        <ele>16.6</ele>
        <time>2013-08-29T17:39:39Z</time>
      </trkpt>
      <trkpt lat="59.332684375535" lon="18.001597417776">
        <ele>17</ele>
        <time>2013-08-29T17:39:40Z</time>
      </trkpt>
      <trkpt lat="59.332705078828" lon="18.001465905765">
        <ele>17.4</ele>
        <time>2013-08-29T17:39:41Z</time>
      </trkpt>
      <trkpt lat="59.33273089508" lon="18.001326850044">
        <ele>18.2</ele>
        <time>2013-08-29T17:39:42Z</time>
      </trkpt>
      <trkpt lat="59.332745228129" lon="18.001197601146">
        <ele>18.2</ele>
        <time>2013-08-29T17:39:43Z</time>
      </trkpt>
      <trkpt lat="59.332789903656" lon="18.000922507188">
        <ele>18.6</ele>
        <time>2013-08-29T17:39:45Z</time>
      </trkpt>
      <trkpt lat="59.332810858406" lon="18.000802981294">
        <ele>19</ele>
        <time>2013-08-29T17:39:46Z</time>
      </trkpt>
      <trkpt lat="59.332825862007" lon="18.000700470657">
        <ele>19.4</ele>
        <time>2013-08-29T17:39:47Z</time>
      </trkpt>
      <trkpt lat="59.332841955255" lon="18.000602653884">
        <ele>19.8</ele>
        <time>2013-08-29T17:39:48Z</time>
      </trkpt>
      <trkpt lat="59.332862323272" lon="18.000479272316">
        <ele>20.4</ele>
        <time>2013-08-29T17:39:49Z</time>
      </trkpt>
      <trkpt lat="59.33289518032" lon="18.000229491696">
        <ele>20.4</ele>
        <time>2013-08-29T17:39:51Z</time>
      </trkpt>
      <trkpt lat="59.332923427323" lon="18.000105523395">
        <ele>20.4</ele>
        <time>2013-08-29T17:39:52Z</time>
      </trkpt>
      <trkpt lat="59.332991488351" lon="17.999723308755">
        <ele>20.8</ele>
        <time>2013-08-29T17:39:55Z</time>
      </trkpt>
      <trkpt lat="59.33301923244" lon="17.999593556943">
        <ele>21.2</ele>
        <time>2013-08-29T17:39:56Z</time>
      </trkpt>
      <trkpt lat="59.333039684276" lon="17.999469085728">
        <ele>21.6</ele>
        <time>2013-08-29T17:39:57Z</time>
      </trkpt>
      <trkpt lat="59.333061393397" lon="17.999335897337">
        <ele>22</ele>
        <time>2013-08-29T17:39:58Z</time>
      </trkpt>
      <trkpt lat="59.333084275984" lon="17.99919650634">
        <ele>22.6</ele>
        <time>2013-08-29T17:39:59Z</time>
      </trkpt>
      <trkpt lat="59.333105482191" lon="17.999077148084">
        <ele>22.6</ele>
        <time>2013-08-29T17:40:00Z</time>
      </trkpt>
      <trkpt lat="59.333218386384" lon="17.998278017738">
        <ele>23</ele>
        <time>2013-08-29T17:40:06Z</time>
      </trkpt>
      <trkpt lat="59.33323548546" lon="17.998139297293">
        <ele>24</ele>
        <time>2013-08-29T17:40:07Z</time>
      </trkpt>
      <trkpt lat="59.333251913984" lon="17.998001917952">
        <ele>24.4</ele>
        <time>2013-08-29T17:40:08Z</time>
      </trkpt>
      <trkpt lat="59.333265157386" lon="17.997858503643">
        <ele>24.8</ele>
        <time>2013-08-29T17:40:09Z</time>
      </trkpt>
      <trkpt lat="59.333314442958" lon="17.997329605753">
        <ele>24.8</ele>
        <time>2013-08-29T17:40:13Z</time>
      </trkpt>
      <trkpt lat="59.333330117111" lon="17.997065659722">
        <ele>25.4</ele>
        <time>2013-08-29T17:40:15Z</time>
      </trkpt>
      <trkpt lat="59.333340007753" lon="17.996923754155">
        <ele>25.8</ele>
        <time>2013-08-29T17:40:16Z</time>
      </trkpt>
      <trkpt lat="59.333347970558" lon="17.996791990687">
        <ele>26.2</ele>
        <time>2013-08-29T17:40:17Z</time>
      </trkpt>
      <trkpt lat="59.333351490956" lon="17.996659640486">
        <ele>26.6</ele>
        <time>2013-08-29T17:40:18Z</time>
      </trkpt>
      <trkpt lat="59.333356017182" lon="17.996529301941">
        <ele>27</ele>
        <time>2013-08-29T17:40:19Z</time>
      </trkpt>
      <trkpt lat="59.333359956675" lon="17.996406255649">
        <ele>27</ele>
        <time>2013-08-29T17:40:20Z</time>
      </trkpt>
      <trkpt lat="59.333377893941" lon="17.996031081805">
        <ele>27.4</ele>
        <time>2013-08-29T17:40:23Z</time>
      </trkpt>
      <trkpt lat="59.333383509814" lon="17.995895546482">
        <ele>28</ele>
        <time>2013-08-29T17:40:24Z</time>
      </trkpt>
      <trkpt lat="59.33338216871" lon="17.995762861005">
        <ele>28.4</ele>
        <time>2013-08-29T17:40:25Z</time>
      </trkpt>
      <trkpt lat="59.333390131515" lon="17.995639898532">
        <ele>28.8</ele>
        <time>2013-08-29T17:40:26Z</time>
      </trkpt>
      <trkpt lat="59.333395831207" lon="17.995513918575">
        <ele>29.2</ele>
        <time>2013-08-29T17:40:27Z</time>
      </trkpt>
      <trkpt lat="59.333438495078" lon="17.99455293374">
        <ele>29.2</ele>
        <time>2013-08-29T17:40:34Z</time>
      </trkpt>
      <trkpt lat="59.333455845611" lon="17.99398296454">
        <ele>29.2</ele>
        <time>2013-08-29T17:40:37Z</time>
      </trkpt>
      <trkpt lat="59.333496581645" lon="17.992978393825">
        <ele>29.2</ele>
        <time>2013-08-29T17:40:42Z</time>
      </trkpt>
      <trkpt lat="59.333497336016" lon="17.992587629647">
        <ele>28.8</ele>
        <time>2013-08-29T17:40:44Z</time>
      </trkpt>
      <trkpt lat="59.333494150894" lon="17.992394343033">
        <ele>28.4</ele>
        <time>2013-08-29T17:40:45Z</time>
      </trkpt>
      <trkpt lat="59.333488283564" lon="17.992205834102">
        <ele>28</ele>
        <time>2013-08-29T17:40:46Z</time>
      </trkpt>
      <trkpt lat="59.333477806189" lon="17.992006009606">
        <ele>27.4</ele>
        <time>2013-08-29T17:40:47Z</time>
      </trkpt>
      <trkpt lat="59.333464730425" lon="17.991816159571">
        <ele>27</ele>
        <time>2013-08-29T17:40:48Z</time>
      </trkpt>
      <trkpt lat="59.333345707445" lon="17.990892977105">
        <ele>26.6</ele>
        <time>2013-08-29T17:40:53Z</time>
      </trkpt>
      <trkpt lat="59.333312515121" lon="17.990731876987">
        <ele>26</ele>
        <time>2013-08-29T17:40:54Z</time>
      </trkpt>
      <trkpt lat="59.333278484607" lon="17.9905916478">
        <ele>25.6</ele>
        <time>2013-08-29T17:40:55Z</time>
      </trkpt>
      <trkpt lat="59.333222661153" lon="17.990459884332">
        <ele>24.6</ele>
        <time>2013-08-29T17:40:56Z</time>
      </trkpt>
      <trkpt lat="59.333152756107" lon="17.990354104754">
        <ele>24.2</ele>
        <time>2013-08-29T17:40:57Z</time>
      </trkpt>
      <trkpt lat="59.333068853288" lon="17.990280846948">
        <ele>23.8</ele>
        <time>2013-08-29T17:40:58Z</time>
      </trkpt>
      <trkpt lat="59.332975814198" lon="17.990225945503">
        <ele>23.4</ele>
        <time>2013-08-29T17:40:59Z</time>
      </trkpt>
      <trkpt lat="59.332887552791" lon="17.990152855335">
        <ele>22.8</ele>
        <time>2013-08-29T17:41:00Z</time>
      </trkpt>
      <trkpt lat="59.332813792071" lon="17.990032239794">
        <ele>22.2</ele>
        <time>2013-08-29T17:41:01Z</time>
      </trkpt>
      <trkpt lat="59.332756711332" lon="17.989870888219">
        <ele>21.6</ele>
        <time>2013-08-29T17:41:02Z</time>
      </trkpt>
      <trkpt lat="59.332724860112" lon="17.989692772844">
        <ele>21</ele>
        <time>2013-08-29T17:41:03Z</time>
      </trkpt>
      <trkpt lat="59.332718573687" lon="17.989499821506">
        <ele>20.6</ele>
        <time>2013-08-29T17:41:04Z</time>
      </trkpt>
      <trkpt lat="59.332728129053" lon="17.989321203217">
        <ele>20.6</ele>
        <time>2013-08-29T17:41:05Z</time>
      </trkpt>
      <trkpt lat="59.332865424575" lon="17.988835891207">
        <ele>20.6</ele>
        <time>2013-08-29T17:41:08Z</time>
      </trkpt>
      <trkpt lat="59.332912866129" lon="17.988304981661">
        <ele>20.6</ele>
        <time>2013-08-29T17:41:11Z</time>
      </trkpt>
      <trkpt lat="59.332888139524" lon="17.988136421652">
        <ele>20</ele>
        <time>2013-08-29T17:41:12Z</time>
      </trkpt>
      <trkpt lat="59.332857629408" lon="17.987970962946">
        <ele>19.6</ele>
        <time>2013-08-29T17:41:13Z</time>
      </trkpt>
      <trkpt lat="59.33283483064" lon="17.987800223643">
        <ele>19.2</ele>
        <time>2013-08-29T17:41:14Z</time>
      </trkpt>
      <trkpt lat="59.332816055184" lon="17.987628562331">
        <ele>18.8</ele>
        <time>2013-08-29T17:41:15Z</time>
      </trkpt>
      <trkpt lat="59.332800045755" lon="17.987453296802">
        <ele>18.4</ele>
        <time>2013-08-29T17:41:16Z</time>
      </trkpt>
      <trkpt lat="59.332753442391" lon="17.986799424783">
        <ele>18.4</ele>
        <time>2013-08-29T17:41:20Z</time>
      </trkpt>
      <trkpt lat="59.33274430612" lon="17.986623153426">
        <ele>17.2</ele>
        <time>2013-08-29T17:41:21Z</time>
      </trkpt>
      <trkpt lat="59.332740785722" lon="17.986444618956">
        <ele>16.6</ele>
        <time>2013-08-29T17:41:22Z</time>
      </trkpt>
      <trkpt lat="59.332737349143" lon="17.986268599056">
        <ele>16.2</ele>
        <time>2013-08-29T17:41:23Z</time>
      </trkpt>
      <trkpt lat="59.332738103514" lon="17.986071456768">
        <ele>15.6</ele>
        <time>2013-08-29T17:41:24Z</time>
      </trkpt>
      <trkpt lat="59.332742043007" lon="17.985882109647">
        <ele>15.2</ele>
        <time>2013-08-29T17:41:25Z</time>
      </trkpt>
      <trkpt lat="59.332751766011" lon="17.985685470273">
        <ele>14.8</ele>
        <time>2013-08-29T17:41:26Z</time>
      </trkpt>
      <trkpt lat="59.332767859259" lon="17.985489082356">
        <ele>14.4</ele>
        <time>2013-08-29T17:41:27Z</time>
      </trkpt>
      <trkpt lat="59.33278034829" lon="17.985295628104">
        <ele>14</ele>
        <time>2013-08-29T17:41:28Z</time>
      </trkpt>
      <trkpt lat="59.332795687167" lon="17.9851098852">
        <ele>13.6</ele>
        <time>2013-08-29T17:41:29Z</time>
      </trkpt>
      <trkpt lat="59.332804404343" lon="17.984921627726">
        <ele>13.6</ele>
        <time>2013-08-29T17:41:30Z</time>
      </trkpt>
      <trkpt lat="59.332876572502" lon="17.983827622138">
        <ele>13.6</ele>
        <time>2013-08-29T17:41:36Z</time>
      </trkpt>
      <trkpt lat="59.332888558619" lon="17.983646154003">
        <ele>13</ele>
        <time>2013-08-29T17:41:37Z</time>
      </trkpt>
      <trkpt lat="59.332904484229" lon="17.983462255117">
        <ele>12.6</ele>
        <time>2013-08-29T17:41:38Z</time>
      </trkpt>
      <trkpt lat="59.332920493658" lon="17.983282631">
        <ele>12.2</ele>
        <time>2013-08-29T17:41:39Z</time>
      </trkpt>
      <trkpt lat="59.332937676553" lon="17.983101414322">
        <ele>11.8</ele>
        <time>2013-08-29T17:41:40Z</time>
      </trkpt>
      <trkpt lat="59.332956032914" lon="17.982915252323">
        <ele>11.4</ele>
        <time>2013-08-29T17:41:41Z</time>
      </trkpt>
      <trkpt lat="59.332996098396" lon="17.982379565094">
        <ele>11.4</ele>
        <time>2013-08-29T17:41:44Z</time>
      </trkpt>
      <trkpt lat="59.333075223532" lon="17.981548332071">
        <ele>11</ele>
        <time>2013-08-29T17:41:49Z</time>
      </trkpt>
      <trkpt lat="59.333096094463" lon="17.981387231953">
        <ele>10.4</ele>
        <time>2013-08-29T17:41:50Z</time>
      </trkpt>
      <trkpt lat="59.333111349521" lon="17.981218336668">
        <ele>10</ele>
        <time>2013-08-29T17:41:51Z</time>
      </trkpt>
      <trkpt lat="59.333131717538" lon="17.981055811627">
        <ele>9.6</ele>
        <time>2013-08-29T17:41:52Z</time>
      </trkpt>
      <trkpt lat="59.333153678116" lon="17.980878953537">
        <ele>9.2</ele>
        <time>2013-08-29T17:41:53Z</time>
      </trkpt>
      <trkpt lat="59.333234395813" lon="17.980206976614">
        <ele>9.2</ele>
        <time>2013-08-29T17:41:57Z</time>
      </trkpt>
      <trkpt lat="59.333346713273" lon="17.979173404525">
        <ele>9.2</ele>
        <time>2013-08-29T17:42:03Z</time>
      </trkpt>
      <trkpt lat="59.333362722702" lon="17.979017501185">
        <ele>9.2</ele>
        <time>2013-08-29T17:42:04Z</time>
      </trkpt>
      <trkpt lat="59.333447798987" lon="17.978325323883">
        <ele>9.2</ele>
        <time>2013-08-29T17:42:09Z</time>
      </trkpt>
      <trkpt lat="59.33350286807" lon="17.977624932319">
        <ele>9.2</ele>
        <time>2013-08-29T17:42:15Z</time>
      </trkpt>
      <trkpt lat="59.333493564161" lon="17.977528121374">
        <ele>9.2</ele>
        <time>2013-08-29T17:42:16Z</time>
      </trkpt>
      <trkpt lat="59.333444949141" lon="17.977384958522">
        <ele>9.2</ele>
        <time>2013-08-29T17:42:18Z</time>
      </trkpt>
      <trkpt lat="59.333378983588" lon="17.977270880863">
        <ele>9.2</ele>
        <time>2013-08-29T17:42:20Z</time>
      </trkpt>
      <trkpt lat="59.333343528151" lon="17.977234000503">
        <ele>9.2</ele>
        <time>2013-08-29T17:42:21Z</time>
      </trkpt>
      <trkpt lat="59.333148816614" lon="17.976959158002">
        <ele>9.2</ele>
        <time>2013-08-29T17:42:56Z</time>
      </trkpt>
      <trkpt lat="59.333119982878" lon="17.976901239073">
        <ele>9.2</ele>
        <time>2013-08-29T17:42:57Z</time>
      </trkpt>
      <trkpt lat="59.33305192185" lon="17.976691607754">
        <ele>9.2</ele>
        <time>2013-08-29T17:43:00Z</time>
      </trkpt>
      <trkpt lat="59.333020657363" lon="17.976517012777">
        <ele>9.2</ele>
        <time>2013-08-29T17:43:02Z</time>
      </trkpt>
      <trkpt lat="59.333044042864" lon="17.976307632915">
        <ele>9.2</ele>
        <time>2013-08-29T17:43:04Z</time>
      </trkpt>
      <trkpt lat="59.33308461126" lon="17.976017954451">
        <ele>9.2</ele>
        <time>2013-08-29T17:43:08Z</time>
      </trkpt>
      <trkpt lat="59.333176560703" lon="17.975493415149">
        <ele>9.2</ele>
        <time>2013-08-29T17:43:13Z</time>
      </trkpt>
      <trkpt lat="59.333233641442" lon="17.97499377009">
        <ele>9.2</ele>
        <time>2013-08-29T17:43:17Z</time>
      </trkpt>
      <trkpt lat="59.333378396855" lon="17.974227580611">
        <ele>9.2</ele>
        <time>2013-08-29T17:43:23Z</time>
      </trkpt>
      <trkpt lat="59.333517033481" lon="17.973602877604">
        <ele>9.2</ele>
        <time>2013-08-29T17:43:28Z</time>
      </trkpt>
      <trkpt lat="59.333625495267" lon="17.973029723282">
        <ele>8.8</ele>
        <time>2013-08-29T17:43:32Z</time>
      </trkpt>
      <trkpt lat="59.333653658451" lon="17.972890583742">
        <ele>8.4</ele>
        <time>2013-08-29T17:43:33Z</time>
      </trkpt>
      <trkpt lat="59.333677127771" lon="17.972750689831">
        <ele>7.8</ele>
        <time>2013-08-29T17:43:34Z</time>
      </trkpt>
      <trkpt lat="59.333702692566" lon="17.972614903051">
        <ele>7.4</ele>
        <time>2013-08-29T17:43:35Z</time>
      </trkpt>
      <trkpt lat="59.333731023388" lon="17.9724867438">
        <ele>7</ele>
        <time>2013-08-29T17:43:36Z</time>
      </trkpt>
      <trkpt lat="59.333806544307" lon="17.972055327407">
        <ele>7</ele>
        <time>2013-08-29T17:43:39Z</time>
      </trkpt>
      <trkpt lat="59.333931686074" lon="17.971357618051">
        <ele>7</ele>
        <time>2013-08-29T17:43:44Z</time>
      </trkpt>
      <trkpt lat="59.333960352172" lon="17.971253682491">
        <ele>7</ele>
        <time>2013-08-29T17:43:45Z</time>
      </trkpt>
      <trkpt lat="59.33403092777" lon="17.970913377351">
        <ele>7</ele>
        <time>2013-08-29T17:43:48Z</time>
      </trkpt>
      <trkpt lat="59.334175767002" lon="17.970126819855">
        <ele>7</ele>
        <time>2013-08-29T17:43:55Z</time>
      </trkpt>
      <trkpt lat="59.334189680956" lon="17.970007713056">
        <ele>7</ele>
        <time>2013-08-29T17:43:56Z</time>
      </trkpt>
      <trkpt lat="59.334235529949" lon="17.969559951958">
        <ele>7</ele>
        <time>2013-08-29T17:44:00Z</time>
      </trkpt>
      <trkpt lat="59.334249946817" lon="17.969453166552">
        <ele>7</ele>
        <time>2013-08-29T17:44:01Z</time>
      </trkpt>
      <trkpt lat="59.334302752787" lon="17.968875737461">
        <ele>7</ele>
        <time>2013-08-29T17:44:07Z</time>
      </trkpt>
      <trkpt lat="59.334327814668" lon="17.968651689274">
        <ele>7</ele>
        <time>2013-08-29T17:44:11Z</time>
      </trkpt>
      <trkpt lat="59.334331586523" lon="17.968618664588">
        <ele>7</ele>
        <time>2013-08-29T17:44:12Z</time>
      </trkpt>
      <trkpt lat="59.334440718861" lon="17.968169897662">
        <ele>7</ele>
        <time>2013-08-29T17:44:56Z</time>
      </trkpt>
      <trkpt lat="59.334480281429" lon="17.968077361486">
        <ele>6.6</ele>
        <time>2013-08-29T17:44:57Z</time>
      </trkpt>
      <trkpt lat="59.334519173445" lon="17.967970743718">
        <ele>6.2</ele>
        <time>2013-08-29T17:44:58Z</time>
      </trkpt>
      <trkpt lat="59.334547671905" lon="17.967863958312">
        <ele>5.8</ele>
        <time>2013-08-29T17:44:59Z</time>
      </trkpt>
      <trkpt lat="59.334573320519" lon="17.967740828201">
        <ele>5.4</ele>
        <time>2013-08-29T17:45:00Z</time>
      </trkpt>
      <trkpt lat="59.33459167688" lon="17.967597916806">
        <ele>4.8</ele>
        <time>2013-08-29T17:45:01Z</time>
      </trkpt>
      <trkpt lat="59.334662168659" lon="17.96707119821">
        <ele>4.8</ele>
        <time>2013-08-29T17:45:04Z</time>
      </trkpt>
      <trkpt lat="59.334686895264" lon="17.966900878002">
        <ele>4.8</ele>
        <time>2013-08-29T17:45:05Z</time>
      </trkpt>
      <trkpt lat="59.334790830824" lon="17.966002422141">
        <ele>4.8</ele>
        <time>2013-08-29T17:45:10Z</time>
      </trkpt>
      <trkpt lat="59.334782197467" lon="17.965438068814">
        <ele>4.8</ele>
        <time>2013-08-29T17:45:13Z</time>
      </trkpt>
      <trkpt lat="59.334848665934" lon="17.96483323091">
        <ele>4.8</ele>
        <time>2013-08-29T17:45:16Z</time>
      </trkpt>
      <trkpt lat="59.334993002252" lon="17.963935697058">
        <ele>5.2</ele>
        <time>2013-08-29T17:45:21Z</time>
      </trkpt>
      <trkpt lat="59.335021081617" lon="17.963760431529">
        <ele>5.8</ele>
        <time>2013-08-29T17:45:22Z</time>
      </trkpt>
      <trkpt lat="59.335048993344" lon="17.963587261475">
        <ele>6.2</ele>
        <time>2013-08-29T17:45:23Z</time>
      </trkpt>
      <trkpt lat="59.33507698889" lon="17.963416605991">
        <ele>6.6</ele>
        <time>2013-08-29T17:45:24Z</time>
      </trkpt>
      <trkpt lat="59.335107918101" lon="17.963245363774">
        <ele>7</ele>
        <time>2013-08-29T17:45:25Z</time>
      </trkpt>
      <trkpt lat="59.335208249444" lon="17.962729709286">
        <ele>7</ele>
        <time>2013-08-29T17:45:28Z</time>
      </trkpt>
      <trkpt lat="59.335400697868" lon="17.961746093321">
        <ele>7</ele>
        <time>2013-08-29T17:45:34Z</time>
      </trkpt>
      <trkpt lat="59.335567916773" lon="17.960923409836">
        <ele>7</ele>
        <time>2013-08-29T17:45:39Z</time>
      </trkpt>
      <trkpt lat="59.335775117341" lon="17.959943565726">
        <ele>7</ele>
        <time>2013-08-29T17:45:45Z</time>
      </trkpt>
      <trkpt lat="59.33598307228" lon="17.958875627847">
        <ele>7</ele>
        <time>2013-08-29T17:45:51Z</time>
      </trkpt>
      <trkpt lat="59.336016096966" lon="17.958695919911">
        <ele>6.4</ele>
        <time>2013-08-29T17:45:52Z</time>
      </trkpt>
      <trkpt lat="59.336050881851" lon="17.958524007142">
        <ele>6</ele>
        <time>2013-08-29T17:45:53Z</time>
      </trkpt>
      <trkpt lat="59.336084660908" lon="17.958354525124">
        <ele>5.6</ele>
        <time>2013-08-29T17:45:54Z</time>
      </trkpt>
      <trkpt lat="59.336117853232" lon="17.958184204916">
        <ele>5</ele>
        <time>2013-08-29T17:45:55Z</time>
      </trkpt>
      <trkpt lat="59.336151883746" lon="17.958015225812">
        <ele>4.6</ele>
        <time>2013-08-29T17:45:56Z</time>
      </trkpt>
      <trkpt lat="59.336220363869" lon="17.957644410556">
        <ele>4.2</ele>
        <time>2013-08-29T17:45:58Z</time>
      </trkpt>
      <trkpt lat="59.336253388555" lon="17.957457410367">
        <ele>3.6</ele>
        <time>2013-08-29T17:45:59Z</time>
      </trkpt>
      <trkpt lat="59.336284569223" lon="17.957268230884">
        <ele>3.2</ele>
        <time>2013-08-29T17:46:00Z</time>
      </trkpt>
      <trkpt lat="59.336318096823" lon="17.957078883763">
        <ele>2.8</ele>
        <time>2013-08-29T17:46:01Z</time>
      </trkpt>
      <trkpt lat="59.336352211156" lon="17.956894146687">
        <ele>2.4</ele>
        <time>2013-08-29T17:46:02Z</time>
      </trkpt>
      <trkpt lat="59.33652119026" lon="17.955984878175">
        <ele>2</ele>
        <time>2013-08-29T17:46:07Z</time>
      </trkpt>
      <trkpt lat="59.336555472231" lon="17.955812546311">
        <ele>1.6</ele>
        <time>2013-08-29T17:46:08Z</time>
      </trkpt>
      <trkpt lat="59.336587239632" lon="17.955636274954">
        <ele>1</ele>
        <time>2013-08-29T17:46:09Z</time>
      </trkpt>
      <trkpt lat="59.336618252662" lon="17.955456483199">
        <ele>0.6</ele>
        <time>2013-08-29T17:46:10Z</time>
      </trkpt>
      <trkpt lat="59.336649600968" lon="17.955285240982">
        <ele>0.2</ele>
        <time>2013-08-29T17:46:11Z</time>
      </trkpt>
      <trkpt lat="59.336719254557" lon="17.954930099879">
        <ele>0</ele>
        <time>2013-08-29T17:46:13Z</time>
      </trkpt>
      <trkpt lat="59.336748926483" lon="17.954754918169">
        <ele>0</ele>
        <time>2013-08-29T17:46:14Z</time>
      </trkpt>
      <trkpt lat="59.336779855694" lon="17.954588788911">
        <ele>0</ele>
        <time>2013-08-29T17:46:15Z</time>
      </trkpt>
      <trkpt lat="59.336808940887" lon="17.954424084576">
        <ele>0</ele>
        <time>2013-08-29T17:46:16Z</time>
      </trkpt>
      <trkpt lat="59.336836517338" lon="17.954262565363">
        <ele>0</ele>
        <time>2013-08-29T17:46:17Z</time>
      </trkpt>
      <trkpt lat="59.336954702128" lon="17.953529149113">
        <ele>0</ele>
        <time>2013-08-29T17:46:22Z</time>
      </trkpt>
      <trkpt lat="59.337000132026" lon="17.953149113767">
        <ele>0</ele>
        <time>2013-08-29T17:46:26Z</time>
      </trkpt>
      <trkpt lat="59.33699979675" lon="17.952966053071">
        <ele>0</ele>
        <time>2013-08-29T17:46:30Z</time>
      </trkpt>
      <trkpt lat="59.336998036551" lon="17.952951468565">
        <ele>0</ele>
        <time>2013-08-29T17:46:32Z</time>
      </trkpt>
      <trkpt lat="59.337187132215" lon="17.952198857764">
        <ele>0</ele>
        <time>2013-08-29T17:47:34Z</time>
      </trkpt>
      <trkpt lat="59.337212026458" lon="17.952090395978">
        <ele>0</ele>
        <time>2013-08-29T17:47:35Z</time>
      </trkpt>
      <trkpt lat="59.33729400144" lon="17.951719496903">
        <ele>0</ele>
        <time>2013-08-29T17:47:38Z</time>
      </trkpt>
      <trkpt lat="59.337358709708" lon="17.951426633317">
        <ele>0</ele>
        <time>2013-08-29T17:47:40Z</time>
      </trkpt>
      <trkpt lat="59.33745158116" lon="17.950941237488">
        <ele>0</ele>
        <time>2013-08-29T17:47:43Z</time>
      </trkpt>
      <trkpt lat="59.337484605846" lon="17.95077678461">
        <ele>0</ele>
        <time>2013-08-29T17:47:44Z</time>
      </trkpt>
      <trkpt lat="59.337517714351" lon="17.95061082299">
        <ele>0</ele>
        <time>2013-08-29T17:47:45Z</time>
      </trkpt>
      <trkpt lat="59.337551409589" lon="17.950432120882">
        <ele>0</ele>
        <time>2013-08-29T17:47:46Z</time>
      </trkpt>
      <trkpt lat="59.337583596085" lon="17.950260794846">
        <ele>0</ele>
        <time>2013-08-29T17:47:47Z</time>
      </trkpt>
      <trkpt lat="59.337775038681" lon="17.9492604989">
        <ele>0</ele>
        <time>2013-08-29T17:47:53Z</time>
      </trkpt>
      <trkpt lat="59.337963296155" lon="17.948281828256">
        <ele>0</ele>
        <time>2013-08-29T17:47:59Z</time>
      </trkpt>
      <trkpt lat="59.338160522262" lon="17.947276419351">
        <ele>0</ele>
        <time>2013-08-29T17:48:05Z</time>
      </trkpt>
      <trkpt lat="59.33836101731" lon="17.946278302699">
        <ele>0</ele>
        <time>2013-08-29T17:48:11Z</time>
      </trkpt>
      <trkpt lat="59.338396137471" lon="17.946115190925">
        <ele>0</ele>
        <time>2013-08-29T17:48:12Z</time>
      </trkpt>
      <trkpt lat="59.338581880375" lon="17.945098382636">
        <ele>0</ele>
        <time>2013-08-29T17:48:18Z</time>
      </trkpt>
      <trkpt lat="59.33861163612" lon="17.944932504835">
        <ele>0</ele>
        <time>2013-08-29T17:48:19Z</time>
      </trkpt>
      <trkpt lat="59.338803497811" lon="17.943945871386">
        <ele>0</ele>
        <time>2013-08-29T17:48:25Z</time>
      </trkpt>
      <trkpt lat="59.338949594328" lon="17.943144645565">
        <ele>0</ele>
        <time>2013-08-29T17:48:30Z</time>
      </trkpt>
      <trkpt lat="59.339103402193" lon="17.942371834385">
        <ele>0</ele>
        <time>2013-08-29T17:48:35Z</time>
      </trkpt>
      <trkpt lat="59.339292414038" lon="17.941321079401">
        <ele>0</ele>
        <time>2013-08-29T17:48:42Z</time>
      </trkpt>
      <trkpt lat="59.339420321832" lon="17.94062378914">
        <ele>0</ele>
        <time>2013-08-29T17:48:47Z</time>
      </trkpt>
      <trkpt lat="59.339491400344" lon="17.940235204256">
        <ele>0</ele>
        <time>2013-08-29T17:48:50Z</time>
      </trkpt>
      <trkpt lat="59.339479330408" lon="17.940110146308">
        <ele>0</ele>
        <time>2013-08-29T17:48:51Z</time>
      </trkpt>
      <trkpt lat="59.339392242467" lon="17.939943430317">
        <ele>0</ele>
        <time>2013-08-29T17:48:53Z</time>
      </trkpt>
      <trkpt lat="59.339289648011" lon="17.939929348725">
        <ele>0</ele>
        <time>2013-08-29T17:48:55Z</time>
      </trkpt>
      <trkpt lat="59.33924782233" lon="17.939927588526">
        <ele>0</ele>
        <time>2013-08-29T17:48:56Z</time>
      </trkpt>
      <trkpt lat="59.339149502643" lon="17.939895150573">
        <ele>0</ele>
        <time>2013-08-29T17:48:59Z</time>
      </trkpt>
      <trkpt lat="59.339130811006" lon="17.939831196676">
        <ele>0</ele>
        <time>2013-08-29T17:49:00Z</time>
      </trkpt>
      <trkpt lat="59.339122010011" lon="17.939532717217">
        <ele>0</ele>
        <time>2013-08-29T17:49:04Z</time>
      </trkpt>
      <trkpt lat="59.339304651612" lon="17.938495121816">
        <ele>0</ele>
        <time>2013-08-29T17:49:15Z</time>
      </trkpt>
      <trkpt lat="59.339280176464" lon="17.938403759106">
        <ele>0</ele>
        <time>2013-08-29T17:49:16Z</time>
      </trkpt>
      <trkpt lat="59.339191160686" lon="17.93801115091">
        <ele>0</ele>
        <time>2013-08-29T17:49:20Z</time>
      </trkpt>
      <trkpt lat="59.339105078573" lon="17.937767153801">
        <ele>0</ele>
        <time>2013-08-29T17:49:23Z</time>
      </trkpt>
      <trkpt lat="59.338968453603" lon="17.937505638521">
        <ele>0</ele>
        <time>2013-08-29T17:49:26Z</time>
      </trkpt>
      <trkpt lat="59.338920425316" lon="17.937401116228">
        <ele>0</ele>
        <time>2013-08-29T17:49:27Z</time>
      </trkpt>
      <trkpt lat="59.338788326572" lon="17.937078413078">
        <ele>0</ele>
        <time>2013-08-29T17:49:30Z</time>
      </trkpt>
      <trkpt lat="59.33869629331" lon="17.936889820328">
        <ele>0</ele>
        <time>2013-08-29T17:49:32Z</time>
      </trkpt>
      <trkpt lat="59.338641224227" lon="17.936798960532">
        <ele>0</ele>
        <time>2013-08-29T17:49:33Z</time>
      </trkpt>
      <trkpt lat="59.338588837352" lon="17.936709693297">
        <ele>0</ele>
        <time>2013-08-29T17:49:34Z</time>
      </trkpt>
      <trkpt lat="59.338540976703" lon="17.936609781049">
        <ele>0</ele>
        <time>2013-08-29T17:49:35Z</time>
      </trkpt>
      <trkpt lat="59.338494960072" lon="17.936508024783">
        <ele>0</ele>
        <time>2013-08-29T17:49:36Z</time>
      </trkpt>
      <trkpt lat="59.338294884119" lon="17.936082140444">
        <ele>0</ele>
        <time>2013-08-29T17:49:40Z</time>
      </trkpt>
      <trkpt lat="59.338041164006" lon="17.935553074916">
        <ele>0</ele>
        <time>2013-08-29T17:49:45Z</time>
      </trkpt>
      <trkpt lat="59.337990704968" lon="17.935433465203">
        <ele>0</ele>
        <time>2013-08-29T17:49:46Z</time>
      </trkpt>
      <trkpt lat="59.337841423329" lon="17.935078827014">
        <ele>0</ele>
        <time>2013-08-29T17:49:49Z</time>
      </trkpt>
      <trkpt lat="59.33751193084" lon="17.934327892593">
        <ele>0</ele>
        <time>2013-08-29T17:49:55Z</time>
      </trkpt>
      <trkpt lat="59.337172044795" lon="17.933611323962">
        <ele>0</ele>
        <time>2013-08-29T17:50:01Z</time>
      </trkpt>
      <trkpt lat="59.33686903911" lon="17.932911686769">
        <ele>0</ele>
        <time>2013-08-29T17:50:07Z</time>
      </trkpt>
      <trkpt lat="59.336513311274" lon="17.932081040479">
        <ele>0</ele>
        <time>2013-08-29T17:50:14Z</time>
      </trkpt>
      <trkpt lat="59.336186584812" lon="17.931323987271">
        <ele>0</ele>
        <time>2013-08-29T17:50:21Z</time>
      </trkpt>
      <trkpt lat="59.336096395568" lon="17.931130030105">
        <ele>0</ele>
        <time>2013-08-29T17:50:23Z</time>
      </trkpt>
      <trkpt lat="59.336052139136" lon="17.931034811721">
        <ele>0</ele>
        <time>2013-08-29T17:50:24Z</time>
      </trkpt>
      <trkpt lat="59.336007547428" lon="17.93092760722">
        <ele>0</ele>
        <time>2013-08-29T17:50:25Z</time>
      </trkpt>
      <trkpt lat="59.335902354583" lon="17.930613034513">
        <ele>0</ele>
        <time>2013-08-29T17:50:28Z</time>
      </trkpt>
      <trkpt lat="59.335836137573" lon="17.930456879716">
        <ele>0</ele>
        <time>2013-08-29T17:50:30Z</time>
      </trkpt>
      <trkpt lat="59.335805878914" lon="17.930390243611">
        <ele>0</ele>
        <time>2013-08-29T17:50:31Z</time>
      </trkpt>
      <trkpt lat="59.335468842715" lon="17.929665879813">
        <ele>0</ele>
        <time>2013-08-29T17:51:11Z</time>
      </trkpt>
      <trkpt lat="59.335389047027" lon="17.929484160221">
        <ele>0</ele>
        <time>2013-08-29T17:51:13Z</time>
      </trkpt>
      <trkpt lat="59.335346299337" lon="17.929382152498">
        <ele>0</ele>
        <time>2013-08-29T17:51:14Z</time>
      </trkpt>
      <trkpt lat="59.335302126724" lon="17.92927721111">
        <ele>0</ele>
        <time>2013-08-29T17:51:15Z</time>
      </trkpt>
      <trkpt lat="59.335257032102" lon="17.929175287206">
        <ele>0</ele>
        <time>2013-08-29T17:51:16Z</time>
      </trkpt>
      <trkpt lat="59.334950589838" lon="17.928511021631">
        <ele>0</ele>
        <time>2013-08-29T17:51:22Z</time>
      </trkpt>
      <trkpt lat="59.33465537932" lon="17.927838206518">
        <ele>0</ele>
        <time>2013-08-29T17:51:28Z</time>
      </trkpt>
      <trkpt lat="59.334363773019" lon="17.92716329593">
        <ele>0</ele>
        <time>2013-08-29T17:51:34Z</time>
      </trkpt>
      <trkpt lat="59.333958508154" lon="17.926271210313">
        <ele>0</ele>
        <time>2013-08-29T17:51:42Z</time>
      </trkpt>
      <trkpt lat="59.333675702848" lon="17.925617003018">
        <ele>0</ele>
        <time>2013-08-29T17:51:48Z</time>
      </trkpt>
      <trkpt lat="59.333296924787" lon="17.924767413634">
        <ele>0</ele>
        <time>2013-08-29T17:51:56Z</time>
      </trkpt>
      <trkpt lat="59.333205142982" lon="17.924563482007">
        <ele>0</ele>
        <time>2013-08-29T17:51:58Z</time>
      </trkpt>
      <trkpt lat="59.333156360324" lon="17.924461474284">
        <ele>0</ele>
        <time>2013-08-29T17:51:59Z</time>
      </trkpt>
      <trkpt lat="59.333107912942" lon="17.924358209276">
        <ele>0</ele>
        <time>2013-08-29T17:52:00Z</time>
      </trkpt>
      <trkpt lat="59.333059381741" lon="17.924253435526">
        <ele>0</ele>
        <time>2013-08-29T17:52:01Z</time>
      </trkpt>
      <trkpt lat="59.333011185816" lon="17.924150505794">
        <ele>0</ele>
        <time>2013-08-29T17:52:02Z</time>
      </trkpt>
      <trkpt lat="59.332632323936" lon="17.923301084048">
        <ele>0</ele>
        <time>2013-08-29T17:52:10Z</time>
      </trkpt>
      <trkpt lat="59.332259329386" lon="17.922473958156">
        <ele>0</ele>
        <time>2013-08-29T17:52:18Z</time>
      </trkpt>
      <trkpt lat="59.331882479162" lon="17.921644904427">
        <ele>0</ele>
        <time>2013-08-29T17:52:26Z</time>
      </trkpt>
      <trkpt lat="59.331833361228" lon="17.921537951383">
        <ele>0</ele>
        <time>2013-08-29T17:52:27Z</time>
      </trkpt>
      <trkpt lat="59.331449973122" lon="17.920711328405">
        <ele>0</ele>
        <time>2013-08-29T17:52:35Z</time>
      </trkpt>
      <trkpt lat="59.331360202973" lon="17.920504882208">
        <ele>0</ele>
        <time>2013-08-29T17:52:37Z</time>
      </trkpt>
      <trkpt lat="59.331236737586" lon="17.920189219854">
        <ele>0</ele>
        <time>2013-08-29T17:52:40Z</time>
      </trkpt>
      <trkpt lat="59.331110254715" lon="17.919901636865">
        <ele>0</ele>
        <time>2013-08-29T17:52:43Z</time>
      </trkpt>
      <trkpt lat="59.331070021595" lon="17.919809184508">
        <ele>0</ele>
        <time>2013-08-29T17:52:44Z</time>
      </trkpt>
      <trkpt lat="59.331031297217" lon="17.919722348024">
        <ele>0</ele>
        <time>2013-08-29T17:52:45Z</time>
      </trkpt>
      <trkpt lat="59.330992572839" lon="17.919633918979">
        <ele>0</ele>
        <time>2013-08-29T17:52:46Z</time>
      </trkpt>
      <trkpt lat="59.330959380515" lon="17.919545489934">
        <ele>0</ele>
        <time>2013-08-29T17:52:47Z</time>
      </trkpt>
      <trkpt lat="59.330975222306" lon="17.91926084061">
        <ele>0</ele>
        <time>2013-08-29T17:52:50Z</time>
      </trkpt>
      <trkpt lat="59.331055520908" lon="17.919141901449">
        <ele>0.4</ele>
        <time>2013-08-29T17:52:52Z</time>
      </trkpt>
      <trkpt lat="59.331087539766" lon="17.919069649471">
        <ele>0.8</ele>
        <time>2013-08-29T17:52:53Z</time>
      </trkpt>
      <trkpt lat="59.331101621358" lon="17.918986501023">
        <ele>1.4</ele>
        <time>2013-08-29T17:52:54Z</time>
      </trkpt>
      <trkpt lat="59.331090221974" lon="17.91891131538">
        <ele>1.8</ele>
        <time>2013-08-29T17:52:55Z</time>
      </trkpt>
      <trkpt lat="59.331067758482" lon="17.918855911021">
        <ele>2.2</ele>
        <time>2013-08-29T17:52:56Z</time>
      </trkpt>
      <trkpt lat="59.331042864239" lon="17.918815258806">
        <ele>2.6</ele>
        <time>2013-08-29T17:52:57Z</time>
      </trkpt>
      <trkpt lat="59.331016712711" lon="17.918781312111">
        <ele>3</ele>
        <time>2013-08-29T17:52:58Z</time>
      </trkpt>
      <trkpt lat="59.330993159572" lon="17.918740156982">
        <ele>3.6</ele>
        <time>2013-08-29T17:52:59Z</time>
      </trkpt>
      <trkpt lat="59.33096482875" lon="17.918686931917">
        <ele>4</ele>
        <time>2013-08-29T17:53:00Z</time>
      </trkpt>
      <trkpt lat="59.330929960046" lon="17.918621636916">
        <ele>4.4</ele>
        <time>2013-08-29T17:53:01Z</time>
      </trkpt>
      <trkpt lat="59.330887966727" lon="17.918556174277">
        <ele>4.4</ele>
        <time>2013-08-29T17:53:02Z</time>
      </trkpt>
      <trkpt lat="59.330720580184" lon="17.918349895718">
        <ele>4.4</ele>
        <time>2013-08-29T17:53:06Z</time>
      </trkpt>
      <trkpt lat="59.330680263245" lon="17.918308740589">
        <ele>4.4</ele>
        <time>2013-08-29T17:53:07Z</time>
      </trkpt>
      <trkpt lat="59.330570544174" lon="17.918145712634">
        <ele>4.4</ele>
        <time>2013-08-29T17:53:10Z</time>
      </trkpt>
      <trkpt lat="59.330494185065" lon="17.918025516188">
        <ele>4.4</ele>
        <time>2013-08-29T17:53:12Z</time>
      </trkpt>
      <trkpt lat="59.330454622497" lon="17.917970447105">
        <ele>4.8</ele>
        <time>2013-08-29T17:53:13Z</time>
      </trkpt>
      <trkpt lat="59.330417909775" lon="17.917912025262">
        <ele>5.2</ele>
        <time>2013-08-29T17:53:14Z</time>
      </trkpt>
      <trkpt lat="59.330381699967" lon="17.917848071365">
        <ele>5.6</ele>
        <time>2013-08-29T17:53:15Z</time>
      </trkpt>
      <trkpt lat="59.33034624453" lon="17.917784452744">
        <ele>6</ele>
        <time>2013-08-29T17:53:16Z</time>
      </trkpt>
      <trkpt lat="59.330309280351" lon="17.917723767788">
        <ele>6.4</ele>
        <time>2013-08-29T17:53:17Z</time>
      </trkpt>
      <trkpt lat="59.330275417475" lon="17.917656125855">
        <ele>6.4</ele>
        <time>2013-08-29T17:53:18Z</time>
      </trkpt>
      <trkpt lat="59.3300553926" lon="17.917168215456">
        <ele>6.8</ele>
        <time>2013-08-29T17:53:25Z</time>
      </trkpt>
      <trkpt lat="59.330023625199" lon="17.917094370917">
        <ele>7.2</ele>
        <time>2013-08-29T17:53:26Z</time>
      </trkpt>
      <trkpt lat="59.329990600513" lon="17.917013569401">
        <ele>7.8</ele>
        <time>2013-08-29T17:53:27Z</time>
      </trkpt>
      <trkpt lat="59.329957911103" lon="17.916934192808">
        <ele>8.2</ele>
        <time>2013-08-29T17:53:28Z</time>
      </trkpt>
      <trkpt lat="59.329921617476" lon="17.91684936798">
        <ele>8.6</ele>
        <time>2013-08-29T17:53:29Z</time>
      </trkpt>
      <trkpt lat="59.32984752148" lon="17.916671755519">
        <ele>8.6</ele>
        <time>2013-08-29T17:53:31Z</time>
      </trkpt>
      <trkpt lat="59.329613834108" lon="17.916106144907">
        <ele>8.6</ele>
        <time>2013-08-29T17:53:37Z</time>
      </trkpt>
      <trkpt lat="59.32956505145" lon="17.916029115246">
        <ele>8.6</ele>
        <time>2013-08-29T17:53:38Z</time>
      </trkpt>
      <trkpt lat="59.329471760903" lon="17.915863321264">
        <ele>8</ele>
        <time>2013-08-29T17:53:40Z</time>
      </trkpt>
      <trkpt lat="59.329429013213" lon="17.915769108708">
        <ele>7</ele>
        <time>2013-08-29T17:53:41Z</time>
      </trkpt>
      <trkpt lat="59.329386265523" lon="17.915672297763">
        <ele>6.6</ele>
        <time>2013-08-29T17:53:42Z</time>
      </trkpt>
      <trkpt lat="59.329345948584" lon="17.915562159597">
        <ele>6.2</ele>
        <time>2013-08-29T17:53:43Z</time>
      </trkpt>
      <trkpt lat="59.329148722477" lon="17.914883058059">
        <ele>6.2</ele>
        <time>2013-08-29T17:53:49Z</time>
      </trkpt>
      <trkpt lat="59.328925428661" lon="17.914049226647">
        <ele>6.2</ele>
        <time>2013-08-29T17:53:56Z</time>
      </trkpt>
      <trkpt lat="59.328659470974" lon="17.913071394193">
        <ele>6.2</ele>
        <time>2013-08-29T17:54:04Z</time>
      </trkpt>
      <trkpt lat="59.328382868274" lon="17.912042767425">
        <ele>6.2</ele>
        <time>2013-08-29T17:54:12Z</time>
      </trkpt>
      <trkpt lat="59.328277340153" lon="17.91166097188">
        <ele>5.8</ele>
        <time>2013-08-29T17:54:15Z</time>
      </trkpt>
      <trkpt lat="59.32823987306" lon="17.911526274747">
        <ele>5.4</ele>
        <time>2013-08-29T17:54:16Z</time>
      </trkpt>
      <trkpt lat="59.328199472302" lon="17.911392080528">
        <ele>4.8</ele>
        <time>2013-08-29T17:54:17Z</time>
      </trkpt>
      <trkpt lat="59.328157898078" lon="17.911256293748">
        <ele>4.4</ele>
        <time>2013-08-29T17:54:18Z</time>
      </trkpt>
      <trkpt lat="59.328118000234" lon="17.911116651294">
        <ele>4</ele>
        <time>2013-08-29T17:54:19Z</time>
      </trkpt>
      <trkpt lat="59.327971736079" lon="17.910541066221">
        <ele>4</ele>
        <time>2013-08-29T17:54:23Z</time>
      </trkpt>
      <trkpt lat="59.3279012443" lon="17.910259602019">
        <ele>3.6</ele>
        <time>2013-08-29T17:54:25Z</time>
      </trkpt>
      <trkpt lat="59.327862855198" lon="17.910120127203">
        <ele>3.2</ele>
        <time>2013-08-29T17:54:26Z</time>
      </trkpt>
      <trkpt lat="59.327822705897" lon="17.909975120333">
        <ele>2.8</ele>
        <time>2013-08-29T17:54:27Z</time>
      </trkpt>
      <trkpt lat="59.3277838977" lon="17.909838411544">
        <ele>2.4</ele>
        <time>2013-08-29T17:54:28Z</time>
      </trkpt>
      <trkpt lat="59.327747771711" lon="17.909698098538">
        <ele>2</ele>
        <time>2013-08-29T17:54:29Z</time>
      </trkpt>
      <trkpt lat="59.327628329636" lon="17.909263916118">
        <ele>2</ele>
        <time>2013-08-29T17:54:32Z</time>
      </trkpt>
      <trkpt lat="59.327587677421" lon="17.90911706523">
        <ele>1.6</ele>
        <time>2013-08-29T17:54:33Z</time>
      </trkpt>
      <trkpt lat="59.327546270835" lon="17.908970046704">
        <ele>1.2</ele>
        <time>2013-08-29T17:54:34Z</time>
      </trkpt>
      <trkpt lat="59.327504109878" lon="17.908818753409">
        <ele>0.6</ele>
        <time>2013-08-29T17:54:35Z</time>
      </trkpt>
      <trkpt lat="59.327465636957" lon="17.908666538105">
        <ele>0.2</ele>
        <time>2013-08-29T17:54:36Z</time>
      </trkpt>
      <trkpt lat="59.327426325846" lon="17.908518094656">
        <ele>0</ele>
        <time>2013-08-29T17:54:37Z</time>
      </trkpt>
      <trkpt lat="59.327343177398" lon="17.908225817803">
        <ele>0</ele>
        <time>2013-08-29T17:54:39Z</time>
      </trkpt>
      <trkpt lat="59.327180568538" lon="17.907641683192">
        <ele>0</ele>
        <time>2013-08-29T17:54:43Z</time>
      </trkpt>
      <trkpt lat="59.327135809192" lon="17.907488629698">
        <ele>0</ele>
        <time>2013-08-29T17:54:44Z</time>
      </trkpt>
      <trkpt lat="59.327098593556" lon="17.907342784638">
        <ele>0</ele>
        <time>2013-08-29T17:54:45Z</time>
      </trkpt>
      <trkpt lat="59.32706137792" lon="17.907195430836">
        <ele>0</ele>
        <time>2013-08-29T17:54:46Z</time>
      </trkpt>
      <trkpt lat="59.327023156456" lon="17.907054782554">
        <ele>0</ele>
        <time>2013-08-29T17:54:47Z</time>
      </trkpt>
      <trkpt lat="59.326946042976" lon="17.906762924796">
        <ele>0</ele>
        <time>2013-08-29T17:54:49Z</time>
      </trkpt>
      <trkpt lat="59.326906731865" lon="17.906614648985">
        <ele>0</ele>
        <time>2013-08-29T17:54:50Z</time>
      </trkpt>
      <trkpt lat="59.32686440327" lon="17.906460422025">
        <ele>0</ele>
        <time>2013-08-29T17:54:51Z</time>
      </trkpt>
      <trkpt lat="59.326822074675" lon="17.906306195065">
        <ele>0</ele>
        <time>2013-08-29T17:54:52Z</time>
      </trkpt>
      <trkpt lat="59.326778656433" lon="17.906149285897">
        <ele>0</ele>
        <time>2013-08-29T17:54:53Z</time>
      </trkpt>
      <trkpt lat="59.32673699839" lon="17.905992628186">
        <ele>0</ele>
        <time>2013-08-29T17:54:54Z</time>
      </trkpt>
      <trkpt lat="59.326650748639" lon="17.905670930864">
        <ele>0</ele>
        <time>2013-08-29T17:54:56Z</time>
      </trkpt>
      <trkpt lat="59.326602636533" lon="17.905503544321">
        <ele>0</ele>
        <time>2013-08-29T17:54:57Z</time>
      </trkpt>
      <trkpt lat="59.326556955178" lon="17.905342276565">
        <ele>0</ele>
        <time>2013-08-29T17:54:58Z</time>
      </trkpt>
      <trkpt lat="59.326514291307" lon="17.90518260137">
        <ele>0</ele>
        <time>2013-08-29T17:54:59Z</time>
      </trkpt>
      <trkpt lat="59.326471208341" lon="17.905027284763">
        <ele>0</ele>
        <time>2013-08-29T17:55:00Z</time>
      </trkpt>
      <trkpt lat="59.326267109076" lon="17.904267214071">
        <ele>0</ele>
        <time>2013-08-29T17:55:05Z</time>
      </trkpt>
      <trkpt lat="59.326228636155" lon="17.904112903292">
        <ele>0</ele>
        <time>2013-08-29T17:55:06Z</time>
      </trkpt>
      <trkpt lat="59.326192593985" lon="17.903966639137">
        <ele>0</ele>
        <time>2013-08-29T17:55:07Z</time>
      </trkpt>
      <trkpt lat="59.326163592611" lon="17.903821045534">
        <ele>0</ele>
        <time>2013-08-29T17:55:08Z</time>
      </trkpt>
      <trkpt lat="59.326137776359" lon="17.903675954845">
        <ele>0</ele>
        <time>2013-08-29T17:55:09Z</time>
      </trkpt>
      <trkpt lat="59.325998636819" lon="17.903164826583">
        <ele>0</ele>
        <time>2013-08-29T17:55:13Z</time>
      </trkpt>
      <trkpt lat="59.325772325519" lon="17.902416993465">
        <ele>0</ele>
        <time>2013-08-29T17:55:19Z</time>
      </trkpt>
      <trkpt lat="59.325743240326" lon="17.902294953001">
        <ele>0</ele>
        <time>2013-08-29T17:55:20Z</time>
      </trkpt>
      <trkpt lat="59.32571189202" lon="17.902173080175">
        <ele>0</ele>
        <time>2013-08-29T17:55:21Z</time>
      </trkpt>
      <trkpt lat="59.325682303913" lon="17.902065205122">
        <ele>0</ele>
        <time>2013-08-29T17:55:22Z</time>
      </trkpt>
      <trkpt lat="59.325655481833" lon="17.901969232367">
        <ele>0</ele>
        <time>2013-08-29T17:55:23Z</time>
      </trkpt>
      <trkpt lat="59.325628995029" lon="17.901881725331">
        <ele>0</ele>
        <time>2013-08-29T17:55:24Z</time>
      </trkpt>
      <trkpt lat="59.325533525188" lon="17.901526165133">
        <ele>0</ele>
        <time>2013-08-29T17:55:29Z</time>
      </trkpt>
      <trkpt lat="59.325488682023" lon="17.901396748597">
        <ele>0</ele>
        <time>2013-08-29T17:55:32Z</time>
      </trkpt>
      <trkpt lat="59.325486754186" lon="17.901392976742">
        <ele>0</ele>
        <time>2013-08-29T17:55:33Z</time>
      </trkpt>
      <trkpt lat="59.325447694532" lon="17.901225674018">
        <ele>0</ele>
        <time>2013-08-29T18:04:07Z</time>
      </trkpt>
      <trkpt lat="59.325440821374" lon="17.901142777027">
        <ele>0</ele>
        <time>2013-08-29T18:04:08Z</time>
      </trkpt>
      <trkpt lat="59.325392290173" lon="17.90073432704">
        <ele>0</ele>
        <time>2013-08-29T18:04:13Z</time>
      </trkpt>
      <trkpt lat="59.325247786217" lon="17.900279357508">
        <ele>0</ele>
        <time>2013-08-29T18:04:19Z</time>
      </trkpt>
      <trkpt lat="59.325132283635" lon="17.900054890226">
        <ele>0</ele>
        <time>2013-08-29T18:04:22Z</time>
      </trkpt>
      <trkpt lat="59.325102611709" lon="17.89995397215">
        <ele>0</ele>
        <time>2013-08-29T18:04:23Z</time>
      </trkpt>
      <trkpt lat="59.324981325616" lon="17.899513503305">
        <ele>0</ele>
        <time>2013-08-29T18:04:27Z</time>
      </trkpt>
      <trkpt lat="59.324914102778" lon="17.899256262794">
        <ele>0</ele>
        <time>2013-08-29T18:04:29Z</time>
      </trkpt>
      <trkpt lat="59.324652000765" lon="17.898318998736">
        <ele>0</ele>
        <time>2013-08-29T18:04:36Z</time>
      </trkpt>
      <trkpt lat="59.324418061936" lon="17.897425320558">
        <ele>0</ele>
        <time>2013-08-29T18:04:42Z</time>
      </trkpt>
      <trkpt lat="59.324292752531" lon="17.896949563914">
        <ele>0</ele>
        <time>2013-08-29T18:04:45Z</time>
      </trkpt>
      <trkpt lat="59.324260398397" lon="17.89679148128">
        <ele>0</ele>
        <time>2013-08-29T18:04:46Z</time>
      </trkpt>
      <trkpt lat="59.324224356227" lon="17.896641109994">
        <ele>0</ele>
        <time>2013-08-29T18:04:47Z</time>
      </trkpt>
      <trkpt lat="59.324188397876" lon="17.896484033188">
        <ele>0</ele>
        <time>2013-08-29T18:04:48Z</time>
      </trkpt>
      <trkpt lat="59.324056550589" lon="17.895685992489">
        <ele>0</ele>
        <time>2013-08-29T18:04:53Z</time>
      </trkpt>
      <trkpt lat="59.323934342487" lon="17.894586873942">
        <ele>0</ele>
        <time>2013-08-29T18:05:00Z</time>
      </trkpt>
      <trkpt lat="59.323803584847" lon="17.893502088444">
        <ele>0</ele>
        <time>2013-08-29T18:05:07Z</time>
      </trkpt>
      <trkpt lat="59.323747426117" lon="17.893026247981">
        <ele>0</ele>
        <time>2013-08-29T18:05:10Z</time>
      </trkpt>
      <trkpt lat="59.323627145852" lon="17.891961914319">
        <ele>0</ele>
        <time>2013-08-29T18:05:17Z</time>
      </trkpt>
      <trkpt lat="59.323617171391" lon="17.891808525549">
        <ele>0</ele>
        <time>2013-08-29T18:05:18Z</time>
      </trkpt>
      <trkpt lat="59.32361222607" lon="17.891652035476">
        <ele>0</ele>
        <time>2013-08-29T18:05:19Z</time>
      </trkpt>
      <trkpt lat="59.323611974613" lon="17.891495293946">
        <ele>0</ele>
        <time>2013-08-29T18:05:20Z</time>
      </trkpt>
      <trkpt lat="59.323618596314" lon="17.891336289303">
        <ele>0</ele>
        <time>2013-08-29T18:05:21Z</time>
      </trkpt>
      <trkpt lat="59.323628319318" lon="17.891174350995">
        <ele>0</ele>
        <time>2013-08-29T18:05:22Z</time>
      </trkpt>
      <trkpt lat="59.32373460181" lon="17.890452920862">
        <ele>0</ele>
        <time>2013-08-29T18:05:27Z</time>
      </trkpt>
      <trkpt lat="59.323757400578" lon="17.890331467131">
        <ele>0</ele>
        <time>2013-08-29T18:05:28Z</time>
      </trkpt>
      <trkpt lat="59.323785228486" lon="17.890216132187">
        <ele>0</ele>
        <time>2013-08-29T18:05:29Z</time>
      </trkpt>
      <trkpt lat="59.323813726946" lon="17.890100461967">
        <ele>0</ele>
        <time>2013-08-29T18:05:30Z</time>
      </trkpt>
      <trkpt lat="59.323849098564" lon="17.88998118753">
        <ele>0</ele>
        <time>2013-08-29T18:05:31Z</time>
      </trkpt>
      <trkpt lat="59.323884302544" lon="17.889866104043">
        <ele>0</ele>
        <time>2013-08-29T18:05:32Z</time>
      </trkpt>
      <trkpt lat="59.323911543719" lon="17.889749176538">
        <ele>0</ele>
        <time>2013-08-29T18:05:33Z</time>
      </trkpt>
      <trkpt lat="59.323952698848" lon="17.889442734274">
        <ele>0</ele>
        <time>2013-08-29T18:05:36Z</time>
      </trkpt>
      <trkpt lat="59.323959572006" lon="17.889338128162">
        <ele>0</ele>
        <time>2013-08-29T18:05:37Z</time>
      </trkpt>
      <trkpt lat="59.323976084349" lon="17.88923016929">
        <ele>0</ele>
        <time>2013-08-29T18:05:38Z</time>
      </trkpt>
      <trkpt lat="59.324002654972" lon="17.889126401368">
        <ele>0</ele>
        <time>2013-08-29T18:05:39Z</time>
      </trkpt>
      <trkpt lat="59.324025956654" lon="17.889015005917">
        <ele>0</ele>
        <time>2013-08-29T18:05:40Z</time>
      </trkpt>
      <trkpt lat="59.324109775654" lon="17.888665313049">
        <ele>0</ele>
        <time>2013-08-29T18:05:43Z</time>
      </trkpt>
      <trkpt lat="59.324162162529" lon="17.888396673154">
        <ele>0</ele>
        <time>2013-08-29T18:05:45Z</time>
      </trkpt>
      <trkpt lat="59.324241539122" lon="17.888019739111">
        <ele>0</ele>
        <time>2013-08-29T18:05:47Z</time>
      </trkpt>
      <trkpt lat="59.324295853834" lon="17.887738694004">
        <ele>0</ele>
        <time>2013-08-29T18:05:50Z</time>
      </trkpt>
      <trkpt lat="59.324406578733" lon="17.887213651788">
        <ele>0</ele>
        <time>2013-08-29T18:05:54Z</time>
      </trkpt>
      <trkpt lat="59.324435496288" lon="17.887077529732">
        <ele>0</ele>
        <time>2013-08-29T18:05:55Z</time>
      </trkpt>
      <trkpt lat="59.324461815454" lon="17.886938474011">
        <ele>0</ele>
        <time>2013-08-29T18:05:56Z</time>
      </trkpt>
      <trkpt lat="59.324486039145" lon="17.886810147122">
        <ele>0</ele>
        <time>2013-08-29T18:05:57Z</time>
      </trkpt>
      <trkpt lat="59.324510598112" lon="17.886676120541">
        <ele>0</ele>
        <time>2013-08-29T18:05:58Z</time>
      </trkpt>
      <trkpt lat="59.324646468711" lon="17.886158286759">
        <ele>0</ele>
        <time>2013-08-29T18:06:02Z</time>
      </trkpt>
      <trkpt lat="59.324897758073" lon="17.885541630376">
        <ele>0</ele>
        <time>2013-08-29T18:06:07Z</time>
      </trkpt>
      <trkpt lat="59.325288773708" lon="17.884751217206">
        <ele>0</ele>
        <time>2013-08-29T18:06:14Z</time>
      </trkpt>
      <trkpt lat="59.325524472736" lon="17.884083934147">
        <ele>0</ele>
        <time>2013-08-29T18:06:19Z</time>
      </trkpt>
      <trkpt lat="59.325780539781" lon="17.883192602901">
        <ele>0</ele>
        <time>2013-08-29T18:06:25Z</time>
      </trkpt>
      <trkpt lat="59.325876428717" lon="17.882878281651">
        <ele>0</ele>
        <time>2013-08-29T18:06:27Z</time>
      </trkpt>
      <trkpt lat="59.32592143952" lon="17.882721121026">
        <ele>0</ele>
        <time>2013-08-29T18:06:28Z</time>
      </trkpt>
      <trkpt lat="59.325968126703" lon="17.882560607641">
        <ele>0</ele>
        <time>2013-08-29T18:06:29Z</time>
      </trkpt>
      <trkpt lat="59.32601615499" lon="17.882401854455">
        <ele>0</ele>
        <time>2013-08-29T18:06:30Z</time>
      </trkpt>
      <trkpt lat="59.32606225544" lon="17.882247543676">
        <ele>0</ele>
        <time>2013-08-29T18:06:31Z</time>
      </trkpt>
      <trkpt lat="59.326106344234" lon="17.882095076915">
        <ele>0</ele>
        <time>2013-08-29T18:06:32Z</time>
      </trkpt>
      <trkpt lat="59.326311700784" lon="17.88129837732">
        <ele>0</ele>
        <time>2013-08-29T18:06:37Z</time>
      </trkpt>
      <trkpt lat="59.326345312203" lon="17.881135852279">
        <ele>0</ele>
        <time>2013-08-29T18:06:38Z</time>
      </trkpt>
      <trkpt lat="59.326377331061" lon="17.88097399779">
        <ele>0</ele>
        <time>2013-08-29T18:06:39Z</time>
      </trkpt>
      <trkpt lat="59.326404739874" lon="17.880809796369">
        <ele>0</ele>
        <time>2013-08-29T18:06:40Z</time>
      </trkpt>
      <trkpt lat="59.326427287185" lon="17.880641990731">
        <ele>0</ele>
        <time>2013-08-29T18:06:41Z</time>
      </trkpt>
      <trkpt lat="59.326476405119" lon="17.879998931363">
        <ele>0</ele>
        <time>2013-08-29T18:06:45Z</time>
      </trkpt>
      <trkpt lat="59.326459808957" lon="17.879206506537">
        <ele>0</ele>
        <time>2013-08-29T18:06:50Z</time>
      </trkpt>
      <trkpt lat="59.326403734046" lon="17.878550539043">
        <ele>0</ele>
        <time>2013-08-29T18:06:55Z</time>
      </trkpt>
      <trkpt lat="59.326394597775" lon="17.878322551363">
        <ele>0</ele>
        <time>2013-08-29T18:06:57Z</time>
      </trkpt>
      <trkpt lat="59.326460730966" lon="17.878175029923">
        <ele>0</ele>
        <time>2013-08-29T18:06:59Z</time>
      </trkpt>
      <trkpt lat="59.326620825256" lon="17.878106465981">
        <ele>0</ele>
        <time>2013-08-29T18:07:02Z</time>
      </trkpt>
      <trkpt lat="59.326671032837" lon="17.87808224229">
        <ele>0</ele>
        <time>2013-08-29T18:07:03Z</time>
      </trkpt>
      <trkpt lat="59.326834815163" lon="17.877998758566">
        <ele>0</ele>
        <time>2013-08-29T18:07:06Z</time>
      </trkpt>
      <trkpt lat="59.326888878418" lon="17.877963135491">
        <ele>0</ele>
        <time>2013-08-29T18:07:07Z</time>
      </trkpt>
      <trkpt lat="59.326940427103" lon="17.877923405285">
        <ele>0</ele>
        <time>2013-08-29T18:07:08Z</time>
      </trkpt>
      <trkpt lat="59.326991053779" lon="17.87788359126">
        <ele>0</ele>
        <time>2013-08-29T18:07:09Z</time>
      </trkpt>
      <trkpt lat="59.327043105378" lon="17.87782910891">
        <ele>0</ele>
        <time>2013-08-29T18:07:10Z</time>
      </trkpt>
      <trkpt lat="59.327191213551" lon="17.87760782675">
        <ele>0</ele>
        <time>2013-08-29T18:07:13Z</time>
      </trkpt>
      <trkpt lat="59.327235972897" lon="17.87752233137">
        <ele>0</ele>
        <time>2013-08-29T18:07:14Z</time>
      </trkpt>
      <trkpt lat="59.327438060506" lon="17.876957978043">
        <ele>0</ele>
        <time>2013-08-29T18:07:19Z</time>
      </trkpt>
      <trkpt lat="59.327594215303" lon="17.876415501475">
        <ele>0</ele>
        <time>2013-08-29T18:07:23Z</time>
      </trkpt>
      <trkpt lat="59.327632604405" lon="17.876277954496">
        <ele>0</ele>
        <time>2013-08-29T18:07:24Z</time>
      </trkpt>
      <trkpt lat="59.327671161145" lon="17.876141497164">
        <ele>0</ele>
        <time>2013-08-29T18:07:25Z</time>
      </trkpt>
      <trkpt lat="59.327712819188" lon="17.876000429787">
        <ele>0</ele>
        <time>2013-08-29T18:07:26Z</time>
      </trkpt>
      <trkpt lat="59.327752968489" lon="17.875867409034">
        <ele>0</ele>
        <time>2013-08-29T18:07:27Z</time>
      </trkpt>
      <trkpt lat="59.328003754937" lon="17.875021507686">
        <ele>0</ele>
        <time>2013-08-29T18:07:33Z</time>
      </trkpt>
      <trkpt lat="59.32820131632" lon="17.874325223253">
        <ele>0</ele>
        <time>2013-08-29T18:07:38Z</time>
      </trkpt>
      <trkpt lat="59.32824071125" lon="17.874185664618">
        <ele>0</ele>
        <time>2013-08-29T18:07:39Z</time>
      </trkpt>
      <trkpt lat="59.328279603266" lon="17.874048704372">
        <ele>0</ele>
        <time>2013-08-29T18:07:40Z</time>
      </trkpt>
      <trkpt lat="59.328318495282" lon="17.87391392342">
        <ele>0</ele>
        <time>2013-08-29T18:07:41Z</time>
      </trkpt>
      <trkpt lat="59.328518319778" lon="17.873225434154">
        <ele>0</ele>
        <time>2013-08-29T18:07:46Z</time>
      </trkpt>
      <trkpt lat="59.32855838526" lon="17.873088222451">
        <ele>0</ele>
        <time>2013-08-29T18:07:47Z</time>
      </trkpt>
      <trkpt lat="59.328596858181" lon="17.87295084311">
        <ele>0</ele>
        <time>2013-08-29T18:07:48Z</time>
      </trkpt>
      <trkpt lat="59.328632229799" lon="17.87282092366">
        <ele>0</ele>
        <time>2013-08-29T18:07:49Z</time>
      </trkpt>
      <trkpt lat="59.328669696892" lon="17.872696200988">
        <ele>0</ele>
        <time>2013-08-29T18:07:50Z</time>
      </trkpt>
      <trkpt lat="59.328938839701" lon="17.871838313523">
        <ele>0</ele>
        <time>2013-08-29T18:07:57Z</time>
      </trkpt>
      <trkpt lat="59.329043194356" lon="17.871633376068">
        <ele>0</ele>
        <time>2013-08-29T18:07:59Z</time>
      </trkpt>
      <trkpt lat="59.329099856" lon="17.871534469648">
        <ele>0</ele>
        <time>2013-08-29T18:08:00Z</time>
      </trkpt>
      <trkpt lat="59.329157272015" lon="17.871437742522">
        <ele>0</ele>
        <time>2013-08-29T18:08:01Z</time>
      </trkpt>
      <trkpt lat="59.329213179288" lon="17.871340428663">
        <ele>0</ele>
        <time>2013-08-29T18:08:02Z</time>
      </trkpt>
      <trkpt lat="59.329616767773" lon="17.870634672683">
        <ele>0</ele>
        <time>2013-08-29T18:08:09Z</time>
      </trkpt>
      <trkpt lat="59.329984314088" lon="17.869952721299">
        <ele>0</ele>
        <time>2013-08-29T18:08:15Z</time>
      </trkpt>
      <trkpt lat="59.330033934936" lon="17.869814755225">
        <ele>0</ele>
        <time>2013-08-29T18:08:16Z</time>
      </trkpt>
      <trkpt lat="59.330159160522" lon="17.869379902253">
        <ele>0</ele>
        <time>2013-08-29T18:08:19Z</time>
      </trkpt>
      <trkpt lat="59.330191849932" lon="17.869207738027">
        <ele>0</ele>
        <time>2013-08-29T18:08:20Z</time>
      </trkpt>
      <trkpt lat="59.330250355594" lon="17.868668195124">
        <ele>0</ele>
        <time>2013-08-29T18:08:23Z</time>
      </trkpt>
      <trkpt lat="59.330359823208" lon="17.867490789631">
        <ele>0</ele>
        <time>2013-08-29T18:08:30Z</time>
      </trkpt>
      <trkpt lat="59.330467027709" lon="17.866370548696">
        <ele>0</ele>
        <time>2013-08-29T18:08:37Z</time>
      </trkpt>
      <trkpt lat="59.330482953319" lon="17.866206347275">
        <ele>0</ele>
        <time>2013-08-29T18:08:38Z</time>
      </trkpt>
      <trkpt lat="59.330582278834" lon="17.865178726335">
        <ele>0</ele>
        <time>2013-08-29T18:08:45Z</time>
      </trkpt>
      <trkpt lat="59.330672719535" lon="17.864349085873">
        <ele>0</ele>
        <time>2013-08-29T18:08:50Z</time>
      </trkpt>
      <trkpt lat="59.330802974261" lon="17.863289446075">
        <ele>0</ele>
        <time>2013-08-29T18:08:56Z</time>
      </trkpt>
      <trkpt lat="59.33082066007" lon="17.863120215514">
        <ele>0</ele>
        <time>2013-08-29T18:08:57Z</time>
      </trkpt>
      <trkpt lat="59.330952088262" lon="17.86197390687">
        <ele>0</ele>
        <time>2013-08-29T18:09:04Z</time>
      </trkpt>
      <trkpt lat="59.331066333559" lon="17.8609823281">
        <ele>0</ele>
        <time>2013-08-29T18:09:10Z</time>
      </trkpt>
      <trkpt lat="59.331157444812" lon="17.86022628072">
        <ele>0</ele>
        <time>2013-08-29T18:09:15Z</time>
      </trkpt>
      <trkpt lat="59.331176387906" lon="17.860076160891">
        <ele>0</ele>
        <time>2013-08-29T18:09:16Z</time>
      </trkpt>
      <trkpt lat="59.33119449281" lon="17.859917742981">
        <ele>0</ele>
        <time>2013-08-29T18:09:17Z</time>
      </trkpt>
      <trkpt lat="59.331214441732" lon="17.859758654519">
        <ele>0</ele>
        <time>2013-08-29T18:09:18Z</time>
      </trkpt>
      <trkpt lat="59.331238413966" lon="17.859602332084">
        <ele>0</ele>
        <time>2013-08-29T18:09:19Z</time>
      </trkpt>
      <trkpt lat="59.331260374544" lon="17.859440309957">
        <ele>0</ele>
        <time>2013-08-29T18:09:20Z</time>
      </trkpt>
      <trkpt lat="59.331388869071" lon="17.858295174779">
        <ele>0</ele>
        <time>2013-08-29T18:09:27Z</time>
      </trkpt>
      <trkpt lat="59.331407728346" lon="17.858133990842">
        <ele>0</ele>
        <time>2013-08-29T18:09:28Z</time>
      </trkpt>
      <trkpt lat="59.331459444669" lon="17.857688660495">
        <ele>0</ele>
        <time>2013-08-29T18:09:31Z</time>
      </trkpt>
      <trkpt lat="59.3314719337" lon="17.857540384684">
        <ele>0</ele>
        <time>2013-08-29T18:09:32Z</time>
      </trkpt>
      <trkpt lat="59.331486434387" lon="17.857387666466">
        <ele>0</ele>
        <time>2013-08-29T18:09:33Z</time>
      </trkpt>
      <trkpt lat="59.33150462311" lon="17.857235534981">
        <ele>0</ele>
        <time>2013-08-29T18:09:34Z</time>
      </trkpt>
      <trkpt lat="59.331523650023" lon="17.857072255569">
        <ele>0</ele>
        <time>2013-08-29T18:09:35Z</time>
      </trkpt>
      <trkpt lat="59.331651976912" lon="17.85590708765">
        <ele>0</ele>
        <time>2013-08-29T18:09:42Z</time>
      </trkpt>
      <trkpt lat="59.331774101195" lon="17.854735214211">
        <ele>0</ele>
        <time>2013-08-29T18:09:49Z</time>
      </trkpt>
      <trkpt lat="59.331775442299" lon="17.854378815823">
        <ele>0</ele>
        <time>2013-08-29T18:09:51Z</time>
      </trkpt>
      <trkpt lat="59.331746608563" lon="17.854023423263">
        <ele>0</ele>
        <time>2013-08-29T18:09:53Z</time>
      </trkpt>
      <trkpt lat="59.331678296078" lon="17.853567866998">
        <ele>0</ele>
        <time>2013-08-29T18:09:56Z</time>
      </trkpt>
      <trkpt lat="59.331655413491" lon="17.853427973087">
        <ele>0</ele>
        <time>2013-08-29T18:09:57Z</time>
      </trkpt>
      <trkpt lat="59.33163621894" lon="17.853292521583">
        <ele>0</ele>
        <time>2013-08-29T18:09:58Z</time>
      </trkpt>
      <trkpt lat="59.331612833439" lon="17.853155226061">
        <ele>0</ele>
        <time>2013-08-29T18:09:59Z</time>
      </trkpt>
      <trkpt lat="59.331596237277" lon="17.853020612747">
        <ele>0</ele>
        <time>2013-08-29T18:10:00Z</time>
      </trkpt>
      <trkpt lat="59.331560949478" lon="17.852741914572">
        <ele>0</ele>
        <time>2013-08-29T18:10:02Z</time>
      </trkpt>
      <trkpt lat="59.331421977576" lon="17.851622930922">
        <ele>0</ele>
        <time>2013-08-29T18:10:10Z</time>
      </trkpt>
      <trkpt lat="59.331402280111" lon="17.851472056722">
        <ele>0</ele>
        <time>2013-08-29T18:10:11Z</time>
      </trkpt>
      <trkpt lat="59.331359113326" lon="17.851158992757">
        <ele>0</ele>
        <time>2013-08-29T18:10:13Z</time>
      </trkpt>
      <trkpt lat="59.331315275989" lon="17.850828913535">
        <ele>0</ele>
        <time>2013-08-29T18:10:15Z</time>
      </trkpt>
      <trkpt lat="59.331201365968" lon="17.849946131827">
        <ele>0</ele>
        <time>2013-08-29T18:10:21Z</time>
      </trkpt>
      <trkpt lat="59.331169766205" lon="17.849643545237">
        <ele>0.2</ele>
        <time>2013-08-29T18:10:23Z</time>
      </trkpt>
      <trkpt lat="59.331155516975" lon="17.849509602475">
        <ele>0.6</ele>
        <time>2013-08-29T18:10:24Z</time>
      </trkpt>
      <trkpt lat="59.331142273573" lon="17.849370714392">
        <ele>1</ele>
        <time>2013-08-29T18:10:25Z</time>
      </trkpt>
      <trkpt lat="59.331125342135" lon="17.849240208209">
        <ele>1.4</ele>
        <time>2013-08-29T18:10:26Z</time>
      </trkpt>
      <trkpt lat="59.331111512" lon="17.849115569356">
        <ele>2</ele>
        <time>2013-08-29T18:10:27Z</time>
      </trkpt>
      <trkpt lat="59.331095334933" lon="17.848991852512">
        <ele>2.4</ele>
        <time>2013-08-29T18:10:28Z</time>
      </trkpt>
      <trkpt lat="59.331079074047" lon="17.848859753768">
        <ele>3</ele>
        <time>2013-08-29T18:10:29Z</time>
      </trkpt>
      <trkpt lat="59.33106876431" lon="17.848730337232">
        <ele>3.4</ele>
        <time>2013-08-29T18:10:30Z</time>
      </trkpt>
      <trkpt lat="59.331061388238" lon="17.848579379213">
        <ele>4.6</ele>
        <time>2013-08-29T18:10:31Z</time>
      </trkpt>
      <trkpt lat="59.331061723514" lon="17.848417189448">
        <ele>5.2</ele>
        <time>2013-08-29T18:10:32Z</time>
      </trkpt>
      <trkpt lat="59.331071111242" lon="17.848248042706">
        <ele>5.8</ele>
        <time>2013-08-29T18:10:33Z</time>
      </trkpt>
      <trkpt lat="59.331092065992" lon="17.848073531548">
        <ele>6.4</ele>
        <time>2013-08-29T18:10:34Z</time>
      </trkpt>
      <trkpt lat="59.331124587764" lon="17.847893572155">
        <ele>6.4</ele>
        <time>2013-08-29T18:10:35Z</time>
      </trkpt>
      <trkpt lat="59.331298596008" lon="17.847331062846">
        <ele>6.4</ele>
        <time>2013-08-29T18:10:39Z</time>
      </trkpt>
      <trkpt lat="59.331371769995" lon="17.847094022714">
        <ele>6.4</ele>
        <time>2013-08-29T18:10:41Z</time>
      </trkpt>
      <trkpt lat="59.331396748057" lon="17.84681859348">
        <ele>6.4</ele>
        <time>2013-08-29T18:10:43Z</time>
      </trkpt>
      <trkpt lat="59.331330866323" lon="17.846356080238">
        <ele>6.4</ele>
        <time>2013-08-29T18:10:46Z</time>
      </trkpt>
      <trkpt lat="59.331251322092" lon="17.846068832525">
        <ele>6.4</ele>
        <time>2013-08-29T18:10:48Z</time>
      </trkpt>
      <trkpt lat="59.331184099254" lon="17.845781500993">
        <ele>6.4</ele>
        <time>2013-08-29T18:10:50Z</time>
      </trkpt>
      <trkpt lat="59.331107153412" lon="17.845159312556">
        <ele>6.4</ele>
        <time>2013-08-29T18:10:54Z</time>
      </trkpt>
      <trkpt lat="59.331076810934" lon="17.845008438356">
        <ele>6.4</ele>
        <time>2013-08-29T18:10:55Z</time>
      </trkpt>
      <trkpt lat="59.330938761041" lon="17.844442241011">
        <ele>6.4</ele>
        <time>2013-08-29T18:10:59Z</time>
      </trkpt>
      <trkpt lat="59.330811942894" lon="17.844082238406">
        <ele>6.4</ele>
        <time>2013-08-29T18:11:02Z</time>
      </trkpt>
      <trkpt lat="59.33075695763" lon="17.843966316729">
        <ele>6.4</ele>
        <time>2013-08-29T18:11:03Z</time>
      </trkpt>
      <trkpt lat="59.330435847041" lon="17.84343817321">
        <ele>6.4</ele>
        <time>2013-08-29T18:11:08Z</time>
      </trkpt>
      <trkpt lat="59.33005371622" lon="17.843016396002">
        <ele>6.4</ele>
        <time>2013-08-29T18:11:13Z</time>
      </trkpt>
      <trkpt lat="59.329699329488" lon="17.842720347294">
        <ele>6.4</ele>
        <time>2013-08-29T18:11:17Z</time>
      </trkpt>
      <trkpt lat="59.32961282828" lon="17.842681203821">
        <ele>6.4</ele>
        <time>2013-08-29T18:11:18Z</time>
      </trkpt>
      <trkpt lat="59.329431360145" lon="17.84267877307">
        <ele>6.4</ele>
        <time>2013-08-29T18:11:20Z</time>
      </trkpt>
      <trkpt lat="59.328904138635" lon="17.842733171601">
        <ele>6.4</ele>
        <time>2013-08-29T18:11:26Z</time>
      </trkpt>
      <trkpt lat="59.328717222265" lon="17.842739290388">
        <ele>6</ele>
        <time>2013-08-29T18:11:28Z</time>
      </trkpt>
      <trkpt lat="59.328614795447" lon="17.842739038931">
        <ele>5.6</ele>
        <time>2013-08-29T18:11:29Z</time>
      </trkpt>
      <trkpt lat="59.328515889027" lon="17.842750522134">
        <ele>5.2</ele>
        <time>2013-08-29T18:11:30Z</time>
      </trkpt>
      <trkpt lat="59.328418575168" lon="17.842755718912">
        <ele>4.6</ele>
        <time>2013-08-29T18:11:31Z</time>
      </trkpt>
      <trkpt lat="59.328321596585" lon="17.842730657031">
        <ele>4</ele>
        <time>2013-08-29T18:11:32Z</time>
      </trkpt>
      <trkpt lat="59.328223695993" lon="17.842674079206">
        <ele>3.4</ele>
        <time>2013-08-29T18:11:33Z</time>
      </trkpt>
      <trkpt lat="59.328136188957" lon="17.84257232294">
        <ele>2.8</ele>
        <time>2013-08-29T18:11:34Z</time>
      </trkpt>
      <trkpt lat="59.32806217678" lon="17.842441062386">
        <ele>2</ele>
        <time>2013-08-29T18:11:35Z</time>
      </trkpt>
      <trkpt lat="59.327935945366" lon="17.842122634005">
        <ele>2</ele>
        <time>2013-08-29T18:11:37Z</time>
      </trkpt>
      <trkpt lat="59.327702341813" lon="17.841699096598">
        <ele>2</ele>
        <time>2013-08-29T18:11:40Z</time>
      </trkpt>
      <trkpt lat="59.327597987158" lon="17.841601196006">
        <ele>2</ele>
        <time>2013-08-29T18:11:41Z</time>
      </trkpt>
      <trkpt lat="59.327486004974" lon="17.841547803303">
        <ele>1.6</ele>
        <time>2013-08-29T18:11:42Z</time>
      </trkpt>
      <trkpt lat="59.327374609523" lon="17.841524669259">
        <ele>1.2</ele>
        <time>2013-08-29T18:11:43Z</time>
      </trkpt>
      <trkpt lat="59.327259693674" lon="17.84151452716">
        <ele>0.4</ele>
        <time>2013-08-29T18:11:44Z</time>
      </trkpt>
      <trkpt lat="59.327153746458" lon="17.841505642346">
        <ele>0</ele>
        <time>2013-08-29T18:11:45Z</time>
      </trkpt>
      <trkpt lat="59.327047380147" lon="17.841498014817">
        <ele>0</ele>
        <time>2013-08-29T18:11:46Z</time>
      </trkpt>
      <trkpt lat="59.326938834542" lon="17.841490806383">
        <ele>0</ele>
        <time>2013-08-29T18:11:47Z</time>
      </trkpt>
      <trkpt lat="59.326837078276" lon="17.841468594348">
        <ele>0</ele>
        <time>2013-08-29T18:11:48Z</time>
      </trkpt>
      <trkpt lat="59.326734316182" lon="17.841447974874">
        <ele>0</ele>
        <time>2013-08-29T18:11:49Z</time>
      </trkpt>
      <trkpt lat="59.326621998722" lon="17.841436491671">
        <ele>0</ele>
        <time>2013-08-29T18:11:50Z</time>
      </trkpt>
      <trkpt lat="59.326513369298" lon="17.841420398423">
        <ele>0</ele>
        <time>2013-08-29T18:11:51Z</time>
      </trkpt>
      <trkpt lat="59.326285800713" lon="17.841377483095">
        <ele>0</ele>
        <time>2013-08-29T18:11:53Z</time>
      </trkpt>
      <trkpt lat="59.326172561244" lon="17.841355773974">
        <ele>0</ele>
        <time>2013-08-29T18:11:54Z</time>
      </trkpt>
      <trkpt lat="59.326059489413" lon="17.84134102183">
        <ele>0</ele>
        <time>2013-08-29T18:11:55Z</time>
      </trkpt>
      <trkpt lat="59.325949015971" lon="17.84132509622">
        <ele>0</ele>
        <time>2013-08-29T18:11:56Z</time>
      </trkpt>
      <trkpt lat="59.325831837009" lon="17.841310595533">
        <ele>0</ele>
        <time>2013-08-29T18:11:57Z</time>
      </trkpt>
      <trkpt lat="59.325252647719" lon="17.841211689113">
        <ele>0</ele>
        <time>2013-08-29T18:12:02Z</time>
      </trkpt>
      <trkpt lat="59.325141419906" lon="17.841188722707">
        <ele>0</ele>
        <time>2013-08-29T18:12:03Z</time>
      </trkpt>
      <trkpt lat="59.325029772998" lon="17.841172964735">
        <ele>0</ele>
        <time>2013-08-29T18:12:04Z</time>
      </trkpt>
      <trkpt lat="59.324907983991" lon="17.841154859831">
        <ele>0</ele>
        <time>2013-08-29T18:12:05Z</time>
      </trkpt>
      <trkpt lat="59.324790218296" lon="17.841138431307">
        <ele>0</ele>
        <time>2013-08-29T18:12:06Z</time>
      </trkpt>
      <trkpt lat="59.324672871696" lon="17.841118147109">
        <ele>0</ele>
        <time>2013-08-29T18:12:07Z</time>
      </trkpt>
      <trkpt lat="59.324556195648" lon="17.841094677789">
        <ele>0</ele>
        <time>2013-08-29T18:12:08Z</time>
      </trkpt>
      <trkpt lat="59.32443700503" lon="17.841071711383">
        <ele>0</ele>
        <time>2013-08-29T18:12:09Z</time>
      </trkpt>
      <trkpt lat="59.324318568783" lon="17.841055282859">
        <ele>0</ele>
        <time>2013-08-29T18:12:10Z</time>
      </trkpt>
      <trkpt lat="59.32419979726" lon="17.841040782172">
        <ele>0</ele>
        <time>2013-08-29T18:12:11Z</time>
      </trkpt>
      <trkpt lat="59.324087060705" lon="17.841020078879">
        <ele>0</ele>
        <time>2013-08-29T18:12:12Z</time>
      </trkpt>
      <trkpt lat="59.323976671082" lon="17.841003985631">
        <ele>0</ele>
        <time>2013-08-29T18:12:13Z</time>
      </trkpt>
      <trkpt lat="59.323865610907" lon="17.840982192691">
        <ele>0</ele>
        <time>2013-08-29T18:12:14Z</time>
      </trkpt>
      <trkpt lat="59.323751784705" lon="17.840954867697">
        <ele>0</ele>
        <time>2013-08-29T18:12:15Z</time>
      </trkpt>
      <trkpt lat="59.323641143625" lon="17.840935086413">
        <ele>0</ele>
        <time>2013-08-29T18:12:16Z</time>
      </trkpt>
      <trkpt lat="59.323187682835" lon="17.840860152227">
        <ele>0</ele>
        <time>2013-08-29T18:12:20Z</time>
      </trkpt>
      <trkpt lat="59.323073102262" lon="17.840840790038">
        <ele>0</ele>
        <time>2013-08-29T18:12:21Z</time>
      </trkpt>
      <trkpt lat="59.322960449526" lon="17.840822349858">
        <ele>0</ele>
        <time>2013-08-29T18:12:22Z</time>
      </trkpt>
      <trkpt lat="59.322849389351" lon="17.840784715127">
        <ele>0</ele>
        <time>2013-08-29T18:12:23Z</time>
      </trkpt>
      <trkpt lat="59.322744867058" lon="17.840770298259">
        <ele>0</ele>
        <time>2013-08-29T18:12:24Z</time>
      </trkpt>
      <trkpt lat="59.32232644261" lon="17.840697543367">
        <ele>0</ele>
        <time>2013-08-29T18:12:28Z</time>
      </trkpt>
      <trkpt lat="59.32171624029" lon="17.84065705879">
        <ele>0</ele>
        <time>2013-08-29T18:12:34Z</time>
      </trkpt>
      <trkpt lat="59.32161817206" lon="17.840714642443">
        <ele>0</ele>
        <time>2013-08-29T18:12:35Z</time>
      </trkpt>
      <trkpt lat="59.321349867441" lon="17.841033322281">
        <ele>0</ele>
        <time>2013-08-29T18:12:38Z</time>
      </trkpt>
      <trkpt lat="59.321154988266" lon="17.841493488591">
        <ele>0</ele>
        <time>2013-08-29T18:12:41Z</time>
      </trkpt>
      <trkpt lat="59.321125148702" lon="17.84191853474">
        <ele>0</ele>
        <time>2013-08-29T18:12:43Z</time>
      </trkpt>
      <trkpt lat="59.321112827309" lon="17.842125986765">
        <ele>0</ele>
        <time>2013-08-29T18:12:44Z</time>
      </trkpt>
      <trkpt lat="59.321074354388" lon="17.843135167525">
        <ele>0</ele>
        <time>2013-08-29T18:12:49Z</time>
      </trkpt>
      <trkpt lat="59.321012579785" lon="17.844359679296">
        <ele>0</ele>
        <time>2013-08-29T18:12:55Z</time>
      </trkpt>
      <trkpt lat="59.320954996132" lon="17.845575390072">
        <ele>0</ele>
        <time>2013-08-29T18:13:01Z</time>
      </trkpt>
      <trkpt lat="59.320937813237" lon="17.845959281092">
        <ele>0</ele>
        <time>2013-08-29T18:13:03Z</time>
      </trkpt>
      <trkpt lat="59.320886516009" lon="17.847127801771">
        <ele>0</ele>
        <time>2013-08-29T18:13:09Z</time>
      </trkpt>
      <trkpt lat="59.320859442472" lon="17.84769869298">
        <ele>0</ele>
        <time>2013-08-29T18:13:12Z</time>
      </trkpt>
      <trkpt lat="59.320808061425" lon="17.848837625552">
        <ele>0</ele>
        <time>2013-08-29T18:13:18Z</time>
      </trkpt>
      <trkpt lat="59.320786519942" lon="17.849399548128">
        <ele>0</ele>
        <time>2013-08-29T18:13:21Z</time>
      </trkpt>
      <trkpt lat="59.320731953773" lon="17.850498666675">
        <ele>0</ele>
        <time>2013-08-29T18:13:27Z</time>
      </trkpt>
      <trkpt lat="59.320722817502" lon="17.850665466485">
        <ele>0</ele>
        <time>2013-08-29T18:13:28Z</time>
      </trkpt>
      <trkpt lat="59.320716531077" lon="17.850830757553">
        <ele>0</ele>
        <time>2013-08-29T18:13:29Z</time>
      </trkpt>
      <trkpt lat="59.320708065358" lon="17.850997305906">
        <ele>0</ele>
        <time>2013-08-29T18:13:30Z</time>
      </trkpt>
      <trkpt lat="59.320699264363" lon="17.85116544682">
        <ele>0</ele>
        <time>2013-08-29T18:13:31Z</time>
      </trkpt>
      <trkpt lat="59.320677471423" lon="17.851479935708">
        <ele>0</ele>
        <time>2013-08-29T18:13:33Z</time>
      </trkpt>
      <trkpt lat="59.320674286301" lon="17.851634581763">
        <ele>0</ele>
        <time>2013-08-29T18:13:34Z</time>
      </trkpt>
      <trkpt lat="59.32066934098" lon="17.851789479275">
        <ele>0</ele>
        <time>2013-08-29T18:13:35Z</time>
      </trkpt>
      <trkpt lat="59.320664228021" lon="17.851946388443">
        <ele>0</ele>
        <time>2013-08-29T18:13:36Z</time>
      </trkpt>
      <trkpt lat="59.320658276872" lon="17.852101369774">
        <ele>0</ele>
        <time>2013-08-29T18:13:37Z</time>
      </trkpt>
      <trkpt lat="59.320644530556" lon="17.85242524639">
        <ele>0</ele>
        <time>2013-08-29T18:13:39Z</time>
      </trkpt>
      <trkpt lat="59.320640088149" lon="17.85259623715">
        <ele>0</ele>
        <time>2013-08-29T18:13:40Z</time>
      </trkpt>
      <trkpt lat="59.320631035697" lon="17.852762869322">
        <ele>0</ele>
        <time>2013-08-29T18:13:41Z</time>
      </trkpt>
      <trkpt lat="59.320623072892" lon="17.85294073324">
        <ele>0</ele>
        <time>2013-08-29T18:13:42Z</time>
      </trkpt>
      <trkpt lat="59.320615780639" lon="17.853125051221">
        <ele>0</ele>
        <time>2013-08-29T18:13:43Z</time>
      </trkpt>
      <trkpt lat="59.320586024894" lon="17.853662833925">
        <ele>0</ele>
        <time>2013-08-29T18:13:46Z</time>
      </trkpt>
      <trkpt lat="59.320560879194" lon="17.854272700969">
        <ele>0</ele>
        <time>2013-08-29T18:13:50Z</time>
      </trkpt>
      <trkpt lat="59.320559286633" lon="17.854429526318">
        <ele>0</ele>
        <time>2013-08-29T18:13:51Z</time>
      </trkpt>
      <trkpt lat="59.320552581113" lon="17.854587608952">
        <ele>0</ele>
        <time>2013-08-29T18:13:52Z</time>
      </trkpt>
      <trkpt lat="59.320546043231" lon="17.854744769577">
        <ele>0</ele>
        <time>2013-08-29T18:13:53Z</time>
      </trkpt>
      <trkpt lat="59.320540930272" lon="17.854919113097">
        <ele>0</ele>
        <time>2013-08-29T18:13:54Z</time>
      </trkpt>
      <trkpt lat="59.320519724065" lon="17.855421272726">
        <ele>0</ele>
        <time>2013-08-29T18:13:57Z</time>
      </trkpt>
      <trkpt lat="59.320480496773" lon="17.856183019798">
        <ele>0</ele>
        <time>2013-08-29T18:14:02Z</time>
      </trkpt>
      <trkpt lat="59.320481754058" lon="17.856352501816">
        <ele>0</ele>
        <time>2013-08-29T18:14:03Z</time>
      </trkpt>
      <trkpt lat="59.320450908666" lon="17.856923644482">
        <ele>0</ele>
        <time>2013-08-29T18:14:06Z</time>
      </trkpt>
      <trkpt lat="59.320382009448" lon="17.858165003872">
        <ele>0</ele>
        <time>2013-08-29T18:14:12Z</time>
      </trkpt>
      <trkpt lat="59.320331634229" lon="17.859340649166">
        <ele>0</ele>
        <time>2013-08-29T18:14:18Z</time>
      </trkpt>
      <trkpt lat="59.320323084691" lon="17.859539384015">
        <ele>0</ele>
        <time>2013-08-29T18:14:19Z</time>
      </trkpt>
      <trkpt lat="59.320313529325" lon="17.859738537959">
        <ele>0</ele>
        <time>2013-08-29T18:14:20Z</time>
      </trkpt>
      <trkpt lat="59.320303722502" lon="17.859939116826">
        <ele>0</ele>
        <time>2013-08-29T18:14:21Z</time>
      </trkpt>
      <trkpt lat="59.320293077489" lon="17.860145646842">
        <ele>0</ele>
        <time>2013-08-29T18:14:22Z</time>
      </trkpt>
      <trkpt lat="59.320258041147" lon="17.860976963684">
        <ele>0</ele>
        <time>2013-08-29T18:14:26Z</time>
      </trkpt>
      <trkpt lat="59.320202888245" lon="17.862038615138">
        <ele>0</ele>
        <time>2013-08-29T18:14:31Z</time>
      </trkpt>
      <trkpt lat="59.320174473604" lon="17.862624258491">
        <ele>0</ele>
        <time>2013-08-29T18:14:34Z</time>
      </trkpt>
      <trkpt lat="59.320124098385" lon="17.86375757519">
        <ele>0</ele>
        <time>2013-08-29T18:14:40Z</time>
      </trkpt>
      <trkpt lat="59.320118314874" lon="17.863948933967">
        <ele>0</ele>
        <time>2013-08-29T18:14:41Z</time>
      </trkpt>
      <trkpt lat="59.320111022621" lon="17.864140879477">
        <ele>0</ele>
        <time>2013-08-29T18:14:42Z</time>
      </trkpt>
      <trkpt lat="59.320101383436" lon="17.864336093928">
        <ele>0</ele>
        <time>2013-08-29T18:14:43Z</time>
      </trkpt>
      <trkpt lat="59.32009182807" lon="17.864528793809">
        <ele>0</ele>
        <time>2013-08-29T18:14:44Z</time>
      </trkpt>
      <trkpt lat="59.320082859437" lon="17.864711183953">
        <ele>0</ele>
        <time>2013-08-29T18:14:45Z</time>
      </trkpt>
      <trkpt lat="59.320041871946" lon="17.865605113588">
        <ele>0</ele>
        <time>2013-08-29T18:14:50Z</time>
      </trkpt>
      <trkpt lat="59.320036675168" lon="17.865772248674">
        <ele>0</ele>
        <time>2013-08-29T18:14:51Z</time>
      </trkpt>
      <trkpt lat="59.320030807838" lon="17.865929576937">
        <ele>0</ele>
        <time>2013-08-29T18:14:52Z</time>
      </trkpt>
      <trkpt lat="59.320021084834" lon="17.86608355244">
        <ele>0</ele>
        <time>2013-08-29T18:14:53Z</time>
      </trkpt>
      <trkpt lat="59.320014044038" lon="17.866218584849">
        <ele>0</ele>
        <time>2013-08-29T18:14:54Z</time>
      </trkpt>
      <trkpt lat="59.320005745957" lon="17.866358562579">
        <ele>0</ele>
        <time>2013-08-29T18:14:55Z</time>
      </trkpt>
      <trkpt lat="59.319958220584" lon="17.866553693211">
        <ele>0</ele>
        <time>2013-08-29T18:14:57Z</time>
      </trkpt>
      <trkpt lat="59.319927291373" lon="17.866598620195">
        <ele>0</ele>
        <time>2013-08-29T18:14:58Z</time>
      </trkpt>
      <trkpt lat="59.319860068535" lon="17.866617982384">
        <ele>0</ele>
        <time>2013-08-29T18:15:00Z</time>
      </trkpt>
      <trkpt lat="59.319813129895" lon="17.866583784232">
        <ele>0</ele>
        <time>2013-08-29T18:15:01Z</time>
      </trkpt>
      <trkpt lat="59.319773399689" lon="17.866526032941">
        <ele>0</ele>
        <time>2013-08-29T18:15:02Z</time>
      </trkpt>
      <trkpt lat="59.319731071094" lon="17.866479597215">
        <ele>0</ele>
        <time>2013-08-29T18:15:03Z</time>
      </trkpt>
      <trkpt lat="59.31968111497" lon="17.866418157888">
        <ele>0</ele>
        <time>2013-08-29T18:15:04Z</time>
      </trkpt>
      <trkpt lat="59.319623447498" lon="17.866347749928">
        <ele>0</ele>
        <time>2013-08-29T18:15:05Z</time>
      </trkpt>
      <trkpt lat="59.319348018264" lon="17.866045247157">
        <ele>0</ele>
        <time>2013-08-29T18:15:09Z</time>
      </trkpt>
      <trkpt lat="59.318978879388" lon="17.865638641188">
        <ele>0</ele>
        <time>2013-08-29T18:15:15Z</time>
      </trkpt>
      <trkpt lat="59.318590043047" lon="17.865114856257">
        <ele>0</ele>
        <time>2013-08-29T18:15:22Z</time>
      </trkpt>
      <trkpt lat="59.318183101802" lon="17.864589394946">
        <ele>0</ele>
        <time>2013-08-29T18:15:28Z</time>
      </trkpt>
      <trkpt lat="59.317690246082" lon="17.863943988646">
        <ele>0</ele>
        <time>2013-08-29T18:15:35Z</time>
      </trkpt>
      <trkpt lat="59.317343989793" lon="17.863497317195">
        <ele>0</ele>
        <time>2013-08-29T18:15:40Z</time>
      </trkpt>
      <trkpt lat="59.317023717394" lon="17.863165980688">
        <ele>0</ele>
        <time>2013-08-29T18:15:45Z</time>
      </trkpt>
      <trkpt lat="59.316560617419" lon="17.862744622575">
        <ele>0</ele>
        <time>2013-08-29T18:15:52Z</time>
      </trkpt>
      <trkpt lat="59.316181252625" lon="17.862339860624">
        <ele>0</ele>
        <time>2013-08-29T18:15:57Z</time>
      </trkpt>
      <trkpt lat="59.315768611688" lon="17.861936775053">
        <ele>0</ele>
        <time>2013-08-29T18:16:02Z</time>
      </trkpt>
      <trkpt lat="59.315332333793" lon="17.861513070008">
        <ele>0</ele>
        <time>2013-08-29T18:16:08Z</time>
      </trkpt>
      <trkpt lat="59.315086827942" lon="17.861292961314">
        <ele>0</ele>
        <time>2013-08-29T18:16:11Z</time>
      </trkpt>
      <trkpt lat="59.315003511856" lon="17.861223056268">
        <ele>0</ele>
        <time>2013-08-29T18:16:12Z</time>
      </trkpt>
      <trkpt lat="59.31492019577" lon="17.861150385195">
        <ele>0</ele>
        <time>2013-08-29T18:16:13Z</time>
      </trkpt>
      <trkpt lat="59.314838136969" lon="17.861073858448">
        <ele>0</ele>
        <time>2013-08-29T18:16:14Z</time>
      </trkpt>
      <trkpt lat="59.314756832539" lon="17.86100495923">
        <ele>0</ele>
        <time>2013-08-29T18:16:15Z</time>
      </trkpt>
      <trkpt lat="59.314363302334" lon="17.860573961932">
        <ele>0</ele>
        <time>2013-08-29T18:16:20Z</time>
      </trkpt>
      <trkpt lat="59.314158197241" lon="17.860239943217">
        <ele>0</ele>
        <time>2013-08-29T18:16:23Z</time>
      </trkpt>
      <trkpt lat="59.314129112048" lon="17.860080268022">
        <ele>0</ele>
        <time>2013-08-29T18:16:24Z</time>
      </trkpt>
      <trkpt lat="59.314102038511" lon="17.85975605613">
        <ele>0</ele>
        <time>2013-08-29T18:16:26Z</time>
      </trkpt>
      <trkpt lat="59.314089717118" lon="17.859601074799">
        <ele>0</ele>
        <time>2013-08-29T18:16:27Z</time>
      </trkpt>
      <trkpt lat="59.314072450404" lon="17.85945346954">
        <ele>0</ele>
        <time>2013-08-29T18:16:28Z</time>
      </trkpt>
      <trkpt lat="59.314031965827" lon="17.859331261438">
        <ele>0</ele>
        <time>2013-08-29T18:16:29Z</time>
      </trkpt>
      <trkpt lat="59.313983015531" lon="17.859223218747">
        <ele>0</ele>
        <time>2013-08-29T18:16:30Z</time>
      </trkpt>
      <trkpt lat="59.313923671679" lon="17.859145602353">
        <ele>0</ele>
        <time>2013-08-29T18:16:31Z</time>
      </trkpt>
      <trkpt lat="59.31385820904" lon="17.859093466935">
        <ele>0</ele>
        <time>2013-08-29T18:16:32Z</time>
      </trkpt>
      <trkpt lat="59.313790902383" lon="17.859044516639">
        <ele>0</ele>
        <time>2013-08-29T18:16:33Z</time>
      </trkpt>
      <trkpt lat="59.313729295418" lon="17.859000930759">
        <ele>0</ele>
        <time>2013-08-29T18:16:34Z</time>
      </trkpt>
      <trkpt lat="59.313668610462" lon="17.858966732607">
        <ele>0</ele>
        <time>2013-08-29T18:16:35Z</time>
      </trkpt>
      <trkpt lat="59.313608847515" lon="17.858939994346">
        <ele>0</ele>
        <time>2013-08-29T18:16:36Z</time>
      </trkpt>
      <trkpt lat="59.313548330197" lon="17.858939994346">
        <ele>0</ele>
        <time>2013-08-29T18:16:37Z</time>
      </trkpt>
      <trkpt lat="59.313493847847" lon="17.858989615194">
        <ele>0</ele>
        <time>2013-08-29T18:16:38Z</time>
      </trkpt>
      <trkpt lat="59.313445065189" lon="17.859064465561">
        <ele>0</ele>
        <time>2013-08-29T18:16:39Z</time>
      </trkpt>
      <trkpt lat="59.313398629463" lon="17.85915591209">
        <ele>0</ele>
        <time>2013-08-29T18:16:40Z</time>
      </trkpt>
      <trkpt lat="59.313346410226" lon="17.859244257316">
        <ele>0</ele>
        <time>2013-08-29T18:16:41Z</time>
      </trkpt>
      <trkpt lat="59.313293436618" lon="17.859326316117">
        <ele>0</ele>
        <time>2013-08-29T18:16:42Z</time>
      </trkpt>
      <trkpt lat="59.313232835481" lon="17.859407452909">
        <ele>0</ele>
        <time>2013-08-29T18:16:43Z</time>
      </trkpt>
      <trkpt lat="59.313174413638" lon="17.859498312705">
        <ele>0</ele>
        <time>2013-08-29T18:16:44Z</time>
      </trkpt>
      <trkpt lat="59.313114399234" lon="17.859583472809">
        <ele>0</ele>
        <time>2013-08-29T18:16:45Z</time>
      </trkpt>
      <trkpt lat="59.31305103207" lon="17.859667543266">
        <ele>0</ele>
        <time>2013-08-29T18:16:46Z</time>
      </trkpt>
      <trkpt lat="59.312820948915" lon="17.859988318579">
        <ele>0</ele>
        <time>2013-08-29T18:16:50Z</time>
      </trkpt>
      <trkpt lat="59.31276269471" lon="17.860038777617">
        <ele>0</ele>
        <time>2013-08-29T18:16:51Z</time>
      </trkpt>
      <trkpt lat="59.312564295137" lon="17.860100803677">
        <ele>0</ele>
        <time>2013-08-29T18:16:54Z</time>
      </trkpt>
      <trkpt lat="59.312503945457" lon="17.860116561649">
        <ele>0</ele>
        <time>2013-08-29T18:16:55Z</time>
      </trkpt>
      <trkpt lat="59.312435884429" lon="17.860133493087">
        <ele>0</ele>
        <time>2013-08-29T18:16:56Z</time>
      </trkpt>
      <trkpt lat="59.312366482297" lon="17.860142294082">
        <ele>0</ele>
        <time>2013-08-29T18:16:57Z</time>
      </trkpt>
      <trkpt lat="59.3122941465" lon="17.860158471149">
        <ele>0</ele>
        <time>2013-08-29T18:16:58Z</time>
      </trkpt>
      <trkpt lat="59.312224492911" lon="17.860182527202">
        <ele>0</ele>
        <time>2013-08-29T18:16:59Z</time>
      </trkpt>
      <trkpt lat="59.312152240933" lon="17.860203398133">
        <ele>0</ele>
        <time>2013-08-29T18:17:00Z</time>
      </trkpt>
      <trkpt lat="59.311595850411" lon="17.860387967571">
        <ele>0</ele>
        <time>2013-08-29T18:17:07Z</time>
      </trkpt>
      <trkpt lat="59.311063515942" lon="17.860524424903">
        <ele>0</ele>
        <time>2013-08-29T18:17:13Z</time>
      </trkpt>
      <trkpt lat="59.310681804216" lon="17.860570106258">
        <ele>0</ele>
        <time>2013-08-29T18:17:17Z</time>
      </trkpt>
      <trkpt lat="59.310575102629" lon="17.860571866457">
        <ele>0</ele>
        <time>2013-08-29T18:17:18Z</time>
      </trkpt>
      <trkpt lat="59.310467227576" lon="17.860554515924">
        <ele>0</ele>
        <time>2013-08-29T18:17:19Z</time>
      </trkpt>
      <trkpt lat="59.31035373665" lon="17.860548061861">
        <ele>0</ele>
        <time>2013-08-29T18:17:20Z</time>
      </trkpt>
      <trkpt lat="59.310247035063" lon="17.860555437933">
        <ele>0</ele>
        <time>2013-08-29T18:17:21Z</time>
      </trkpt>
      <trkpt lat="59.310140668752" lon="17.86056993862">
        <ele>0</ele>
        <time>2013-08-29T18:17:22Z</time>
      </trkpt>
      <trkpt lat="59.310033715708" lon="17.860581757099">
        <ele>0</ele>
        <time>2013-08-29T18:17:23Z</time>
      </trkpt>
      <trkpt lat="59.309926511207" lon="17.860583684936">
        <ele>0</ele>
        <time>2013-08-29T18:17:24Z</time>
      </trkpt>
      <trkpt lat="59.309569777543" lon="17.860557114313">
        <ele>0</ele>
        <time>2013-08-29T18:17:27Z</time>
      </trkpt>
      <trkpt lat="59.309448659088" lon="17.86053724921">
        <ele>0</ele>
        <time>2013-08-29T18:17:28Z</time>
      </trkpt>
      <trkpt lat="59.30932527752" lon="17.860502548144">
        <ele>0</ele>
        <time>2013-08-29T18:17:29Z</time>
      </trkpt>
      <trkpt lat="59.309205248712" lon="17.860453765486">
        <ele>0</ele>
        <time>2013-08-29T18:17:30Z</time>
      </trkpt>
      <trkpt lat="59.309084968447" lon="17.860396852385">
        <ele>0</ele>
        <time>2013-08-29T18:17:31Z</time>
      </trkpt>
      <trkpt lat="59.30896820858" lon="17.860331305927">
        <ele>0</ele>
        <time>2013-08-29T18:17:32Z</time>
      </trkpt>
      <trkpt lat="59.308855472025" lon="17.860253773352">
        <ele>0</ele>
        <time>2013-08-29T18:17:33Z</time>
      </trkpt>
      <trkpt lat="59.308625305051" lon="17.860075155063">
        <ele>0</ele>
        <time>2013-08-29T18:17:35Z</time>
      </trkpt>
      <trkpt lat="59.30851642417" lon="17.859989575864">
        <ele>0</ele>
        <time>2013-08-29T18:17:36Z</time>
      </trkpt>
      <trkpt lat="59.308408884393" lon="17.859893770747">
        <ele>0</ele>
        <time>2013-08-29T18:17:37Z</time>
      </trkpt>
      <trkpt lat="59.308301260797" lon="17.8598004802">
        <ele>0</ele>
        <time>2013-08-29T18:17:38Z</time>
      </trkpt>
      <trkpt lat="59.308197409056" lon="17.859709368947">
        <ele>0</ele>
        <time>2013-08-29T18:17:39Z</time>
      </trkpt>
      <trkpt lat="59.307699272739" lon="17.859247190981">
        <ele>0</ele>
        <time>2013-08-29T18:17:44Z</time>
      </trkpt>
      <trkpt lat="59.307504896478" lon="17.859078463334">
        <ele>0</ele>
        <time>2013-08-29T18:17:46Z</time>
      </trkpt>
      <trkpt lat="59.307410348646" lon="17.858996320714">
        <ele>0</ele>
        <time>2013-08-29T18:17:47Z</time>
      </trkpt>
      <trkpt lat="59.307318818298" lon="17.858914848646">
        <ele>0</ele>
        <time>2013-08-29T18:17:48Z</time>
      </trkpt>
      <trkpt lat="59.307220750068" lon="17.85883320894">
        <ele>0</ele>
        <time>2013-08-29T18:17:49Z</time>
      </trkpt>
      <trkpt lat="59.307121340734" lon="17.858742432963">
        <ele>0</ele>
        <time>2013-08-29T18:17:50Z</time>
      </trkpt>
      <trkpt lat="59.306638627113" lon="17.85830934019">
        <ele>0</ele>
        <time>2013-08-29T18:17:55Z</time>
      </trkpt>
      <trkpt lat="59.306535529743" lon="17.858216887833">
        <ele>0</ele>
        <time>2013-08-29T18:17:56Z</time>
      </trkpt>
      <trkpt lat="59.306436371866" lon="17.858132146824">
        <ele>0</ele>
        <time>2013-08-29T18:17:57Z</time>
      </trkpt>
      <trkpt lat="59.306338219817" lon="17.858050255661">
        <ele>0</ele>
        <time>2013-08-29T18:17:58Z</time>
      </trkpt>
      <trkpt lat="59.306244007261" lon="17.857963838272">
        <ele>0</ele>
        <time>2013-08-29T18:17:59Z</time>
      </trkpt>
      <trkpt lat="59.306148453601" lon="17.857881779471">
        <ele>0</ele>
        <time>2013-08-29T18:18:00Z</time>
      </trkpt>
      <trkpt lat="59.306051055923" lon="17.857795278263">
        <ele>0</ele>
        <time>2013-08-29T18:18:01Z</time>
      </trkpt>
      <trkpt lat="59.305955669901" lon="17.857709363788">
        <ele>0</ele>
        <time>2013-08-29T18:18:02Z</time>
      </trkpt>
      <trkpt lat="59.305859445689" lon="17.857625209512">
        <ele>0</ele>
        <time>2013-08-29T18:18:03Z</time>
      </trkpt>
      <trkpt lat="59.305765903685" lon="17.857541055236">
        <ele>0</ele>
        <time>2013-08-29T18:18:04Z</time>
      </trkpt>
      <trkpt lat="59.305574041994" lon="17.857363191318">
        <ele>0</ele>
        <time>2013-08-29T18:18:06Z</time>
      </trkpt>
      <trkpt lat="59.305024273173" lon="17.856888943416">
        <ele>0</ele>
        <time>2013-08-29T18:18:12Z</time>
      </trkpt>
      <trkpt lat="59.304938610155" lon="17.856814763601">
        <ele>0</ele>
        <time>2013-08-29T18:18:13Z</time>
      </trkpt>
      <trkpt lat="59.304616912833" lon="17.856527767345">
        <ele>0</ele>
        <time>2013-08-29T18:18:17Z</time>
      </trkpt>
      <trkpt lat="59.304542649199" lon="17.85645777848">
        <ele>0</ele>
        <time>2013-08-29T18:18:18Z</time>
      </trkpt>
      <trkpt lat="59.304467631194" lon="17.856390220366">
        <ele>0</ele>
        <time>2013-08-29T18:18:19Z</time>
      </trkpt>
      <trkpt lat="59.304391607361" lon="17.856322746071">
        <ele>0</ele>
        <time>2013-08-29T18:18:20Z</time>
      </trkpt>
      <trkpt lat="59.304239559695" lon="17.856188132757">
        <ele>0</ele>
        <time>2013-08-29T18:18:22Z</time>
      </trkpt>
      <trkpt lat="59.30416705626" lon="17.856126106697">
        <ele>0</ele>
        <time>2013-08-29T18:18:23Z</time>
      </trkpt>
      <trkpt lat="59.304091702979" lon="17.856065924655">
        <ele>0</ele>
        <time>2013-08-29T18:18:24Z</time>
      </trkpt>
      <trkpt lat="59.304017439345" lon="17.855994678505">
        <ele>0</ele>
        <time>2013-08-29T18:18:25Z</time>
      </trkpt>
      <trkpt lat="59.303940828779" lon="17.855926114563">
        <ele>0</ele>
        <time>2013-08-29T18:18:26Z</time>
      </trkpt>
      <trkpt lat="59.303855501037" lon="17.855850593644">
        <ele>0</ele>
        <time>2013-08-29T18:18:27Z</time>
      </trkpt>
      <trkpt lat="59.303779728661" lon="17.855780856236">
        <ele>0</ele>
        <time>2013-08-29T18:18:28Z</time>
      </trkpt>
      <trkpt lat="59.303701776991" lon="17.855713801036">
        <ele>0</ele>
        <time>2013-08-29T18:18:29Z</time>
      </trkpt>
      <trkpt lat="59.303458366615" lon="17.855496626007">
        <ele>0</ele>
        <time>2013-08-29T18:18:32Z</time>
      </trkpt>
      <trkpt lat="59.302961152307" lon="17.855082979242">
        <ele>0</ele>
        <time>2013-08-29T18:18:38Z</time>
      </trkpt>
      <trkpt lat="59.302885128474" lon="17.855018103336">
        <ele>0</ele>
        <time>2013-08-29T18:18:39Z</time>
      </trkpt>
      <trkpt lat="59.302818073274" lon="17.854964375357">
        <ele>0</ele>
        <time>2013-08-29T18:18:40Z</time>
      </trkpt>
      <trkpt lat="59.302768787702" lon="17.854895224682">
        <ele>0</ele>
        <time>2013-08-29T18:18:41Z</time>
      </trkpt>
      <trkpt lat="59.302756298671" lon="17.854769412363">
        <ele>0</ele>
        <time>2013-08-29T18:18:42Z</time>
      </trkpt>
      <trkpt lat="59.302760489621" lon="17.854631446289">
        <ele>0</ele>
        <time>2013-08-29T18:18:43Z</time>
      </trkpt>
      <trkpt lat="59.302725034184" lon="17.854379989289">
        <ele>0</ele>
        <time>2013-08-29T18:18:45Z</time>
      </trkpt>
      <trkpt lat="59.302547505542" lon="17.854182763182">
        <ele>0</ele>
        <time>2013-08-29T18:18:48Z</time>
      </trkpt>
      <trkpt lat="59.302406438165" lon="17.854136495094">
        <ele>0</ele>
        <time>2013-08-29T18:18:50Z</time>
      </trkpt>
      <trkpt lat="59.302262772399" lon="17.854087880074">
        <ele>0</ele>
        <time>2013-08-29T18:18:52Z</time>
      </trkpt>
      <trkpt lat="59.30218641329" lon="17.854053765741">
        <ele>0</ele>
        <time>2013-08-29T18:18:53Z</time>
      </trkpt>
      <trkpt lat="59.302109132172" lon="17.854025770195">
        <ele>0</ele>
        <time>2013-08-29T18:18:54Z</time>
      </trkpt>
      <trkpt lat="59.302026738095" lon="17.853977909546">
        <ele>0</ele>
        <time>2013-08-29T18:18:55Z</time>
      </trkpt>
      <trkpt lat="59.301951384814" lon="17.853903562093">
        <ele>0</ele>
        <time>2013-08-29T18:18:56Z</time>
      </trkpt>
      <trkpt lat="59.301865302701" lon="17.85383089102">
        <ele>0</ele>
        <time>2013-08-29T18:18:57Z</time>
      </trkpt>
      <trkpt lat="59.301775448733" lon="17.853765344562">
        <ele>0</ele>
        <time>2013-08-29T18:18:58Z</time>
      </trkpt>
      <trkpt lat="59.301687103507" lon="17.853691164747">
        <ele>0</ele>
        <time>2013-08-29T18:18:59Z</time>
      </trkpt>
      <trkpt lat="59.301599345014" lon="17.853617571665">
        <ele>0</ele>
        <time>2013-08-29T18:19:00Z</time>
      </trkpt>
      <trkpt lat="59.301509491046" lon="17.85354255366">
        <ele>0</ele>
        <time>2013-08-29T18:19:01Z</time>
      </trkpt>
      <trkpt lat="59.301418715069" lon="17.853465356361">
        <ele>0</ele>
        <time>2013-08-29T18:19:02Z</time>
      </trkpt>
      <trkpt lat="59.30132810673" lon="17.853386734139">
        <ele>0</ele>
        <time>2013-08-29T18:19:03Z</time>
      </trkpt>
      <trkpt lat="59.301238588038" lon="17.853310626487">
        <ele>0</ele>
        <time>2013-08-29T18:19:04Z</time>
      </trkpt>
      <trkpt lat="59.301147812061" lon="17.853243152192">
        <ele>0</ele>
        <time>2013-08-29T18:19:05Z</time>
      </trkpt>
      <trkpt lat="59.301064160699" lon="17.853190430041">
        <ele>0</ele>
        <time>2013-08-29T18:19:06Z</time>
      </trkpt>
      <trkpt lat="59.300981850441" lon="17.853159081735">
        <ele>0</ele>
        <time>2013-08-29T18:19:07Z</time>
      </trkpt>
      <trkpt lat="59.300899707821" lon="17.853146508885">
        <ele>0</ele>
        <time>2013-08-29T18:19:08Z</time>
      </trkpt>
      <trkpt lat="59.300665433716" lon="17.853018517272">
        <ele>0</ele>
        <time>2013-08-29T18:19:11Z</time>
      </trkpt>
      <trkpt lat="59.300588487874" lon="17.852951294434">
        <ele>0</ele>
        <time>2013-08-29T18:19:12Z</time>
      </trkpt>
      <trkpt lat="59.300377515451" lon="17.852690198249">
        <ele>0</ele>
        <time>2013-08-29T18:19:15Z</time>
      </trkpt>
      <trkpt lat="59.300314902658" lon="17.852578216065">
        <ele>0</ele>
        <time>2013-08-29T18:19:16Z</time>
      </trkpt>
      <trkpt lat="59.300178277688" lon="17.852394568636">
        <ele>0</ele>
        <time>2013-08-29T18:19:18Z</time>
      </trkpt>
      <trkpt lat="59.299968143455" lon="17.852145123292">
        <ele>0</ele>
        <time>2013-08-29T18:19:21Z</time>
      </trkpt>
      <trkpt lat="59.29969279804" lon="17.851865586927">
        <ele>0</ele>
        <time>2013-08-29T18:19:25Z</time>
      </trkpt>
      <trkpt lat="59.299620294605" lon="17.851920153096">
        <ele>0</ele>
        <time>2013-08-29T18:19:26Z</time>
      </trkpt>
      <trkpt lat="59.299526584963" lon="17.852182338928">
        <ele>0</ele>
        <time>2013-08-29T18:19:28Z</time>
      </trkpt>
      <trkpt lat="59.299474701002" lon="17.852355928077">
        <ele>0</ele>
        <time>2013-08-29T18:19:29Z</time>
      </trkpt>
      <trkpt lat="59.299444442343" lon="17.852504120069">
        <ele>0</ele>
        <time>2013-08-29T18:19:30Z</time>
      </trkpt>
      <trkpt lat="59.299413010218" lon="17.85266077778">
        <ele>0</ele>
        <time>2013-08-29T18:19:31Z</time>
      </trkpt>
      <trkpt lat="59.299303291147" lon="17.853184730349">
        <ele>0</ele>
        <time>2013-08-29T18:19:35Z</time>
      </trkpt>
      <trkpt lat="59.29914043083" lon="17.853463512343">
        <ele>0</ele>
        <time>2013-08-29T18:19:38Z</time>
      </trkpt>
      <trkpt lat="59.298788558668" lon="17.854062063822">
        <ele>0</ele>
        <time>2013-08-29T18:19:44Z</time>
      </trkpt>
      <trkpt lat="59.298483708965" lon="17.854216793696">
        <ele>0</ele>
        <time>2013-08-29T18:19:48Z</time>
      </trkpt>
      <trkpt lat="59.298269132325" lon="17.854100704381">
        <ele>0</ele>
        <time>2013-08-29T18:19:51Z</time>
      </trkpt>
      <trkpt lat="59.298115240641" lon="17.853842709499">
        <ele>0</ele>
        <time>2013-08-29T18:19:54Z</time>
      </trkpt>
      <trkpt lat="59.29807257677" lon="17.853745982373">
        <ele>0</ele>
        <time>2013-08-29T18:19:55Z</time>
      </trkpt>
      <trkpt lat="59.298035612591" lon="17.853633497275">
        <ele>0</ele>
        <time>2013-08-29T18:19:56Z</time>
      </trkpt>
      <trkpt lat="59.297999905697" lon="17.853520341625">
        <ele>0</ele>
        <time>2013-08-29T18:19:57Z</time>
      </trkpt>
      <trkpt lat="59.297968473572" lon="17.85339167946">
        <ele>0</ele>
        <time>2013-08-29T18:19:58Z</time>
      </trkpt>
      <trkpt lat="59.297939472198" lon="17.853281541294">
        <ele>0</ele>
        <time>2013-08-29T18:19:59Z</time>
      </trkpt>
      <trkpt lat="59.297910135548" lon="17.853168972377">
        <ele>0</ele>
        <time>2013-08-29T18:20:00Z</time>
      </trkpt>
      <trkpt lat="59.297883564925" lon="17.85305640346">
        <ele>0</ele>
        <time>2013-08-29T18:20:01Z</time>
      </trkpt>
      <trkpt lat="59.297835704276" lon="17.852819363328">
        <ele>0</ele>
        <time>2013-08-29T18:20:03Z</time>
      </trkpt>
      <trkpt lat="59.297810893852" lon="17.852704112203">
        <ele>0</ele>
        <time>2013-08-29T18:20:04Z</time>
      </trkpt>
      <trkpt lat="59.297792118396" lon="17.85260126629">
        <ele>0</ele>
        <time>2013-08-29T18:20:05Z</time>
      </trkpt>
      <trkpt lat="59.297770996008" lon="17.852483165319">
        <ele>0</ele>
        <time>2013-08-29T18:20:06Z</time>
      </trkpt>
      <trkpt lat="59.297743754833" lon="17.852362549778">
        <ele>0</ele>
        <time>2013-08-29T18:20:07Z</time>
      </trkpt>
      <trkpt lat="59.29771886059" lon="17.852250232318">
        <ele>0</ele>
        <time>2013-08-29T18:20:08Z</time>
      </trkpt>
      <trkpt lat="59.297698408754" lon="17.852120312868">
        <ele>0</ele>
        <time>2013-08-29T18:20:09Z</time>
      </trkpt>
      <trkpt lat="59.297667814819" lon="17.85200866596">
        <ele>0</ele>
        <time>2013-08-29T18:20:10Z</time>
      </trkpt>
      <trkpt lat="59.297643172033" lon="17.851895342672">
        <ele>0</ele>
        <time>2013-08-29T18:20:11Z</time>
      </trkpt>
      <trkpt lat="59.297620373265" lon="17.85177816371">
        <ele>0</ele>
        <time>2013-08-29T18:20:12Z</time>
      </trkpt>
      <trkpt lat="59.297536470446" lon="17.851255049331">
        <ele>0</ele>
        <time>2013-08-29T18:20:16Z</time>
      </trkpt>
      <trkpt lat="59.297512917307" lon="17.851118172904">
        <ele>0</ele>
        <time>2013-08-29T18:20:17Z</time>
      </trkpt>
      <trkpt lat="59.297491878738" lon="17.850980123011">
        <ele>0</ele>
        <time>2013-08-29T18:20:18Z</time>
      </trkpt>
      <trkpt lat="59.297467906504" lon="17.850845006783">
        <ele>0</ele>
        <time>2013-08-29T18:20:19Z</time>
      </trkpt>
      <trkpt lat="59.297446784116" lon="17.850710142012">
        <ele>0</ele>
        <time>2013-08-29T18:20:20Z</time>
      </trkpt>
      <trkpt lat="59.297380650925" lon="17.850303619862">
        <ele>0</ele>
        <time>2013-08-29T18:20:23Z</time>
      </trkpt>
      <trkpt lat="59.297231536924" lon="17.849558385133">
        <ele>0</ele>
        <time>2013-08-29T18:20:29Z</time>
      </trkpt>
      <trkpt lat="59.297014697171" lon="17.848887078762">
        <ele>0</ele>
        <time>2013-08-29T18:20:34Z</time>
      </trkpt>
      <trkpt lat="59.296877988382" lon="17.848452728704">
        <ele>0</ele>
        <time>2013-08-29T18:20:37Z</time>
      </trkpt>
      <trkpt lat="59.296833983407" lon="17.848315517001">
        <ele>0</ele>
        <time>2013-08-29T18:20:38Z</time>
      </trkpt>
      <trkpt lat="59.296787044767" lon="17.848170677769">
        <ele>0</ele>
        <time>2013-08-29T18:20:39Z</time>
      </trkpt>
      <trkpt lat="59.296745805819" lon="17.848019049198">
        <ele>0</ele>
        <time>2013-08-29T18:20:40Z</time>
      </trkpt>
      <trkpt lat="59.296698448084" lon="17.847868342636">
        <ele>0</ele>
        <time>2013-08-29T18:20:41Z</time>
      </trkpt>
      <trkpt lat="59.296657963507" lon="17.847718725721">
        <ele>0</ele>
        <time>2013-08-29T18:20:42Z</time>
      </trkpt>
      <trkpt lat="59.296617646568" lon="17.847562403286">
        <ele>0</ele>
        <time>2013-08-29T18:20:43Z</time>
      </trkpt>
      <trkpt lat="59.296588645194" lon="17.847394765286">
        <ele>0</ele>
        <time>2013-08-29T18:20:44Z</time>
      </trkpt>
      <trkpt lat="59.296597278551" lon="17.847214805893">
        <ele>0</ele>
        <time>2013-08-29T18:20:45Z</time>
      </trkpt>
      <trkpt lat="59.296652515272" lon="17.847063847874">
        <ele>0</ele>
        <time>2013-08-29T18:20:46Z</time>
      </trkpt>
      <trkpt lat="59.296724348155" lon="17.846936526813">
        <ele>0</ele>
        <time>2013-08-29T18:20:47Z</time>
      </trkpt>
      <trkpt lat="59.296844209325" lon="17.846734103928">
        <ele>0</ele>
        <time>2013-08-29T18:20:49Z</time>
      </trkpt>
      <trkpt lat="59.296889136309" lon="17.846629665454">
        <ele>0</ele>
        <time>2013-08-29T18:20:50Z</time>
      </trkpt>
      <trkpt lat="59.296899446046" lon="17.846510391017">
        <ele>0</ele>
        <time>2013-08-29T18:20:51Z</time>
      </trkpt>
      <trkpt lat="59.296874887079" lon="17.846155249914">
        <ele>0</ele>
        <time>2013-08-29T18:20:54Z</time>
      </trkpt>
      <trkpt lat="59.296809089164" lon="17.845600032858">
        <ele>0</ele>
        <time>2013-08-29T18:20:59Z</time>
      </trkpt>
      <trkpt lat="59.296799030884" lon="17.845505652664">
        <ele>0</ele>
        <time>2013-08-29T18:21:00Z</time>
      </trkpt>
      <trkpt lat="59.296785871301" lon="17.845390904453">
        <ele>0</ele>
        <time>2013-08-29T18:21:01Z</time>
      </trkpt>
      <trkpt lat="59.296774136641" lon="17.845283197038">
        <ele>0</ele>
        <time>2013-08-29T18:21:02Z</time>
      </trkpt>
      <trkpt lat="59.296764413637" lon="17.845163252049">
        <ele>0</ele>
        <time>2013-08-29T18:21:03Z</time>
      </trkpt>
      <trkpt lat="59.296745973457" lon="17.844951441436">
        <ele>0</ele>
        <time>2013-08-29T18:21:05Z</time>
      </trkpt>
      <trkpt lat="59.296681097551" lon="17.844330677922">
        <ele>0</ele>
        <time>2013-08-29T18:21:10Z</time>
      </trkpt>
      <trkpt lat="59.296591075945" lon="17.843358126065">
        <ele>0</ele>
        <time>2013-08-29T18:21:17Z</time>
      </trkpt>
      <trkpt lat="59.296511280257" lon="17.842518427323">
        <ele>0</ele>
        <time>2013-08-29T18:21:23Z</time>
      </trkpt>
      <trkpt lat="59.296439866469" lon="17.841656516546">
        <ele>0</ele>
        <time>2013-08-29T18:21:29Z</time>
      </trkpt>
      <trkpt lat="59.296329393027" lon="17.840670050735">
        <ele>0</ele>
        <time>2013-08-29T18:21:35Z</time>
      </trkpt>
      <trkpt lat="59.29624867533" lon="17.840135369334">
        <ele>0</ele>
        <time>2013-08-29T18:21:38Z</time>
      </trkpt>
      <trkpt lat="59.296221098879" lon="17.839962786013">
        <ele>0</ele>
        <time>2013-08-29T18:21:39Z</time>
      </trkpt>
      <trkpt lat="59.296186984546" lon="17.839796656755">
        <ele>0</ele>
        <time>2013-08-29T18:21:40Z</time>
      </trkpt>
      <trkpt lat="59.296149685091" lon="17.839636646284">
        <ele>0</ele>
        <time>2013-08-29T18:21:41Z</time>
      </trkpt>
      <trkpt lat="59.296104674288" lon="17.839479318021">
        <ele>0</ele>
        <time>2013-08-29T18:21:42Z</time>
      </trkpt>
      <trkpt lat="59.295920775402" lon="17.839034239131">
        <ele>0</ele>
        <time>2013-08-29T18:21:45Z</time>
      </trkpt>
      <trkpt lat="59.295629839653" lon="17.838576000658">
        <ele>0</ele>
        <time>2013-08-29T18:21:49Z</time>
      </trkpt>
      <trkpt lat="59.295415095375" lon="17.838214070216">
        <ele>0</ele>
        <time>2013-08-29T18:21:52Z</time>
      </trkpt>
      <trkpt lat="59.295271261971" lon="17.837961020655">
        <ele>0</ele>
        <time>2013-08-29T18:21:54Z</time>
      </trkpt>
      <trkpt lat="59.294981415869" lon="17.837223329636">
        <ele>0</ele>
        <time>2013-08-29T18:21:59Z</time>
      </trkpt>
      <trkpt lat="59.294943948776" lon="17.837051500686">
        <ele>0</ele>
        <time>2013-08-29T18:22:00Z</time>
      </trkpt>
      <trkpt lat="59.294881335983" lon="17.83651137105">
        <ele>0</ele>
        <time>2013-08-29T18:22:03Z</time>
      </trkpt>
      <trkpt lat="59.294878402318" lon="17.836133179722">
        <ele>0</ele>
        <time>2013-08-29T18:22:05Z</time>
      </trkpt>
      <trkpt lat="59.294884856381" lon="17.835939893108">
        <ele>0</ele>
        <time>2013-08-29T18:22:06Z</time>
      </trkpt>
      <trkpt lat="59.294889298788" lon="17.835746438856">
        <ele>0</ele>
        <time>2013-08-29T18:22:07Z</time>
      </trkpt>
      <trkpt lat="59.294896926317" lon="17.835333797919">
        <ele>0</ele>
        <time>2013-08-29T18:22:09Z</time>
      </trkpt>
      <trkpt lat="59.294898602697" lon="17.83512919574">
        <ele>0</ele>
        <time>2013-08-29T18:22:10Z</time>
      </trkpt>
      <trkpt lat="59.294902458371" lon="17.834929790339">
        <ele>0</ele>
        <time>2013-08-29T18:22:11Z</time>
      </trkpt>
      <trkpt lat="59.294898686516" lon="17.834748406023">
        <ele>0</ele>
        <time>2013-08-29T18:22:12Z</time>
      </trkpt>
      <trkpt lat="59.294896423403" lon="17.834557047246">
        <ele>0</ele>
        <time>2013-08-29T18:22:13Z</time>
      </trkpt>
      <trkpt lat="59.294846551098" lon="17.833637804273">
        <ele>0</ele>
        <time>2013-08-29T18:22:18Z</time>
      </trkpt>
      <trkpt lat="59.294819896656" lon="17.833454659758">
        <ele>0</ele>
        <time>2013-08-29T18:22:19Z</time>
      </trkpt>
      <trkpt lat="59.294731719068" lon="17.83275795623">
        <ele>0</ele>
        <time>2013-08-29T18:22:23Z</time>
      </trkpt>
      <trkpt lat="59.29461336664" lon="17.831792612807">
        <ele>0</ele>
        <time>2013-08-29T18:22:29Z</time>
      </trkpt>
      <trkpt lat="59.294589226768" lon="17.830998176325">
        <ele>0</ele>
        <time>2013-08-29T18:22:34Z</time>
      </trkpt>
      <trkpt lat="59.294586293103" lon="17.830843865546">
        <ele>0</ele>
        <time>2013-08-29T18:22:35Z</time>
      </trkpt>
      <trkpt lat="59.294577575927" lon="17.830686034369">
        <ele>0</ele>
        <time>2013-08-29T18:22:36Z</time>
      </trkpt>
      <trkpt lat="59.29456391343" lon="17.830530382486">
        <ele>0</ele>
        <time>2013-08-29T18:22:37Z</time>
      </trkpt>
      <trkpt lat="59.294543461594" lon="17.830371713119">
        <ele>0</ele>
        <time>2013-08-29T18:22:38Z</time>
      </trkpt>
      <trkpt lat="59.294523847948" lon="17.830221677109">
        <ele>0</ele>
        <time>2013-08-29T18:22:39Z</time>
      </trkpt>
      <trkpt lat="59.294494092203" lon="17.830074993859">
        <ele>0</ele>
        <time>2013-08-29T18:22:40Z</time>
      </trkpt>
      <trkpt lat="59.294427539917" lon="17.82979076363">
        <ele>0</ele>
        <time>2013-08-29T18:22:42Z</time>
      </trkpt>
      <trkpt lat="59.294387977349" lon="17.829649612434">
        <ele>0</ele>
        <time>2013-08-29T18:22:43Z</time>
      </trkpt>
      <trkpt lat="59.294157894194" lon="17.828891050484">
        <ele>0</ele>
        <time>2013-08-29T18:22:48Z</time>
      </trkpt>
      <trkpt lat="59.293948514332" lon="17.828165010306">
        <ele>0</ele>
        <time>2013-08-29T18:22:53Z</time>
      </trkpt>
      <trkpt lat="59.293708456716" lon="17.827229338809">
        <ele>0</ele>
        <time>2013-08-29T18:22:59Z</time>
      </trkpt>
      <trkpt lat="59.29357065828" lon="17.826347311472">
        <ele>0</ele>
        <time>2013-08-29T18:23:04Z</time>
      </trkpt>
      <trkpt lat="59.293540567259" lon="17.825598472526">
        <ele>0</ele>
        <time>2013-08-29T18:23:08Z</time>
      </trkpt>
      <trkpt lat="59.293506369107" lon="17.824629943981">
        <ele>0</ele>
        <time>2013-08-29T18:23:13Z</time>
      </trkpt>
      <trkpt lat="59.293505363279" lon="17.824439423394">
        <ele>0</ele>
        <time>2013-08-29T18:23:14Z</time>
      </trkpt>
      <trkpt lat="59.293510057143" lon="17.824242281106">
        <ele>0</ele>
        <time>2013-08-29T18:23:15Z</time>
      </trkpt>
      <trkpt lat="59.293507207297" lon="17.824043378619">
        <ele>0</ele>
        <time>2013-08-29T18:23:16Z</time>
      </trkpt>
      <trkpt lat="59.29350025032" lon="17.823867861633">
        <ele>0</ele>
        <time>2013-08-29T18:23:17Z</time>
      </trkpt>
      <trkpt lat="59.293478960294" lon="17.82368454948">
        <ele>0</ele>
        <time>2013-08-29T18:23:18Z</time>
      </trkpt>
      <trkpt lat="59.293419029709" lon="17.823140228894">
        <ele>0</ele>
        <time>2013-08-29T18:23:21Z</time>
      </trkpt>
      <trkpt lat="59.293322805497" lon="17.822310672251">
        <ele>0</ele>
        <time>2013-08-29T18:23:26Z</time>
      </trkpt>
      <trkpt lat="59.293225407819" lon="17.821465692912">
        <ele>0</ele>
        <time>2013-08-29T18:23:31Z</time>
      </trkpt>
      <trkpt lat="59.293175619333" lon="17.82073328249">
        <ele>0</ele>
        <time>2013-08-29T18:23:35Z</time>
      </trkpt>
      <trkpt lat="59.293196490264" lon="17.820094246434">
        <ele>0</ele>
        <time>2013-08-29T18:23:38Z</time>
      </trkpt>
      <trkpt lat="59.293211745322" lon="17.819883860744">
        <ele>0</ele>
        <time>2013-08-29T18:23:39Z</time>
      </trkpt>
      <trkpt lat="59.293223060887" lon="17.819677917461">
        <ele>0</ele>
        <time>2013-08-29T18:23:40Z</time>
      </trkpt>
      <trkpt lat="59.293233622081" lon="17.819470046341">
        <ele>0</ele>
        <time>2013-08-29T18:23:41Z</time>
      </trkpt>
      <trkpt lat="59.293250637338" lon="17.819268042551">
        <ele>0</ele>
        <time>2013-08-29T18:23:42Z</time>
      </trkpt>
      <trkpt lat="59.293290786639" lon="17.818695558781">
        <ele>0</ele>
        <time>2013-08-29T18:23:45Z</time>
      </trkpt>
      <trkpt lat="59.293364379721" lon="17.81756576248">
        <ele>0</ele>
        <time>2013-08-29T18:23:51Z</time>
      </trkpt>
      <trkpt lat="59.293376114381" lon="17.817382701784">
        <ele>0</ele>
        <time>2013-08-29T18:23:52Z</time>
      </trkpt>
      <trkpt lat="59.293446019427" lon="17.816318451941">
        <ele>0</ele>
        <time>2013-08-29T18:23:58Z</time>
      </trkpt>
      <trkpt lat="59.293541237811" lon="17.815455870612">
        <ele>0</ele>
        <time>2013-08-29T18:24:03Z</time>
      </trkpt>
      <trkpt lat="59.293562946932" lon="17.815293261752">
        <ele>0</ele>
        <time>2013-08-29T18:24:04Z</time>
      </trkpt>
      <trkpt lat="59.293588008813" lon="17.815136017308">
        <ele>0</ele>
        <time>2013-08-29T18:24:05Z</time>
      </trkpt>
      <trkpt lat="59.293617010187" lon="17.814965613281">
        <ele>0</ele>
        <time>2013-08-29T18:24:06Z</time>
      </trkpt>
      <trkpt lat="59.293638719308" lon="17.814803339697">
        <ele>0</ele>
        <time>2013-08-29T18:24:07Z</time>
      </trkpt>
      <trkpt lat="59.293662607723" lon="17.814641149932">
        <ele>0</ele>
        <time>2013-08-29T18:24:08Z</time>
      </trkpt>
      <trkpt lat="59.293680964084" lon="17.814462531643">
        <ele>0</ele>
        <time>2013-08-29T18:24:09Z</time>
      </trkpt>
      <trkpt lat="59.293713904951" lon="17.81410822873">
        <ele>0</ele>
        <time>2013-08-29T18:24:11Z</time>
      </trkpt>
      <trkpt lat="59.293814906846" lon="17.812971307814">
        <ele>0</ele>
        <time>2013-08-29T18:24:18Z</time>
      </trkpt>
      <trkpt lat="59.293862013124" lon="17.812291284267">
        <ele>0</ele>
        <time>2013-08-29T18:24:24Z</time>
      </trkpt>
      <trkpt lat="59.29387827401" lon="17.812109313218">
        <ele>0</ele>
        <time>2013-08-29T18:24:26Z</time>
      </trkpt>
      <trkpt lat="59.293898139113" lon="17.812049298814">
        <ele>0</ele>
        <time>2013-08-29T18:24:27Z</time>
      </trkpt>
      <trkpt lat="59.293920770243" lon="17.8120320321">
        <ele>0</ele>
        <time>2013-08-29T18:24:28Z</time>
      </trkpt>
      <trkpt lat="59.293946754133" lon="17.812008646599">
        <ele>0</ele>
        <time>2013-08-29T18:24:29Z</time>
      </trkpt>
      <trkpt lat="59.293974498222" lon="17.811934718241">
        <ele>0</ele>
        <time>2013-08-29T18:24:31Z</time>
      </trkpt>
      <trkpt lat="59.293948849608" lon="17.811824580075">
        <ele>0</ele>
        <time>2013-08-29T18:24:33Z</time>
      </trkpt>
      <trkpt lat="59.293981874294" lon="17.811607991779">
        <ele>0</ele>
        <time>2013-08-29T18:24:37Z</time>
      </trkpt>
      <trkpt lat="59.2940802778" lon="17.811576811111">
        <ele>0</ele>
        <time>2013-08-29T18:24:40Z</time>
      </trkpt>
      <trkpt lat="59.294109111536" lon="17.811562897157">
        <ele>0</ele>
        <time>2013-08-29T18:24:41Z</time>
      </trkpt>
      <trkpt lat="59.294298710114" lon="17.811492908292">
        <ele>0</ele>
        <time>2013-08-29T18:24:45Z</time>
      </trkpt>
      <trkpt lat="59.29472316953" lon="17.811375980787">
        <ele>0</ele>
        <time>2013-08-29T18:24:53Z</time>
      </trkpt>
      <trkpt lat="59.294810676566" lon="17.811351254182">
        <ele>0</ele>
        <time>2013-08-29T18:24:55Z</time>
      </trkpt>
      <trkpt lat="59.294956940721" lon="17.81131035051">
        <ele>0</ele>
        <time>2013-08-29T18:24:58Z</time>
      </trkpt>
      <trkpt lat="59.295495226339" lon="17.811157716111">
        <ele>0</ele>
        <time>2013-08-29T18:25:08Z</time>
      </trkpt>
      <trkpt lat="59.296015239415" lon="17.810988066455">
        <ele>0</ele>
        <time>2013-08-29T18:25:16Z</time>
      </trkpt>
      <trkpt lat="59.296171142755" lon="17.810937607417">
        <ele>0</ele>
        <time>2013-08-29T18:25:18Z</time>
      </trkpt>
      <trkpt lat="59.296251692814" lon="17.810909025138">
        <ele>0</ele>
        <time>2013-08-29T18:25:19Z</time>
      </trkpt>
      <trkpt lat="59.296332159054" lon="17.810897625754">
        <ele>0</ele>
        <time>2013-08-29T18:25:20Z</time>
      </trkpt>
      <trkpt lat="59.296413966398" lon="17.810878598841">
        <ele>0</ele>
        <time>2013-08-29T18:25:21Z</time>
      </trkpt>
      <trkpt lat="59.296502563081" lon="17.810858985195">
        <ele>0</ele>
        <time>2013-08-29T18:25:22Z</time>
      </trkpt>
      <trkpt lat="59.296594512524" lon="17.810834593866">
        <ele>0</ele>
        <time>2013-08-29T18:25:23Z</time>
      </trkpt>
      <trkpt lat="59.296686797243" lon="17.810811543641">
        <ele>0</ele>
        <time>2013-08-29T18:25:24Z</time>
      </trkpt>
      <trkpt lat="59.296783608188" lon="17.810794612203">
        <ele>0</ele>
        <time>2013-08-29T18:25:25Z</time>
      </trkpt>
      <trkpt lat="59.296878575115" lon="17.810772986901">
        <ele>0</ele>
        <time>2013-08-29T18:25:26Z</time>
      </trkpt>
      <trkpt lat="59.296977397716" lon="17.810757480386">
        <ele>0</ele>
        <time>2013-08-29T18:25:27Z</time>
      </trkpt>
      <trkpt lat="59.297077309964" lon="17.810728981926">
        <ele>0</ele>
        <time>2013-08-29T18:25:28Z</time>
      </trkpt>
      <trkpt lat="59.297176384022" lon="17.810699226181">
        <ele>0</ele>
        <time>2013-08-29T18:25:29Z</time>
      </trkpt>
      <trkpt lat="59.297275960994" lon="17.810669889531">
        <ele>0</ele>
        <time>2013-08-29T18:25:30Z</time>
      </trkpt>
      <trkpt lat="59.297476456042" lon="17.81061297643">
        <ele>0</ele>
        <time>2013-08-29T18:25:32Z</time>
      </trkpt>
      <trkpt lat="59.297576452109" lon="17.810589423291">
        <ele>0</ele>
        <time>2013-08-29T18:25:33Z</time>
      </trkpt>
      <trkpt lat="59.297675107072" lon="17.810562433573">
        <ele>0</ele>
        <time>2013-08-29T18:25:34Z</time>
      </trkpt>
      <trkpt lat="59.297773426759" lon="17.810533096923">
        <ele>0</ele>
        <time>2013-08-29T18:25:35Z</time>
      </trkpt>
      <trkpt lat="59.297871159713" lon="17.810495294554">
        <ele>0</ele>
        <time>2013-08-29T18:25:36Z</time>
      </trkpt>
      <trkpt lat="59.297967300106" lon="17.810466125542">
        <ele>0</ele>
        <time>2013-08-29T18:25:37Z</time>
      </trkpt>
      <trkpt lat="59.298549003966" lon="17.810310641297">
        <ele>0</ele>
        <time>2013-08-29T18:25:43Z</time>
      </trkpt>
      <trkpt lat="59.298733992499" lon="17.810256242766">
        <ele>0</ele>
        <time>2013-08-29T18:25:45Z</time>
      </trkpt>
      <trkpt lat="59.299348972502" lon="17.810086006377">
        <ele>0</ele>
        <time>2013-08-29T18:25:52Z</time>
      </trkpt>
      <trkpt lat="59.299523902755" lon="17.810019034996">
        <ele>0</ele>
        <time>2013-08-29T18:25:54Z</time>
      </trkpt>
      <trkpt lat="59.299613421447" lon="17.809969833243">
        <ele>0</ele>
        <time>2013-08-29T18:25:55Z</time>
      </trkpt>
      <trkpt lat="59.299695144972" lon="17.809917781644">
        <ele>0</ele>
        <time>2013-08-29T18:25:56Z</time>
      </trkpt>
      <trkpt lat="59.2997799698" lon="17.809874279583">
        <ele>0</ele>
        <time>2013-08-29T18:25:57Z</time>
      </trkpt>
      <trkpt lat="59.299863453524" lon="17.809852486643">
        <ele>0</ele>
        <time>2013-08-29T18:25:58Z</time>
      </trkpt>
      <trkpt lat="59.300354465226" lon="17.809690799792">
        <ele>0</ele>
        <time>2013-08-29T18:26:04Z</time>
      </trkpt>
      <trkpt lat="59.300426381928" lon="17.809640592211">
        <ele>0</ele>
        <time>2013-08-29T18:26:05Z</time>
      </trkpt>
      <trkpt lat="59.300496789888" lon="17.809582338006">
        <ele>0</ele>
        <time>2013-08-29T18:26:06Z</time>
      </trkpt>
      <trkpt lat="59.300572478445" lon="17.809526011638">
        <ele>0</ele>
        <time>2013-08-29T18:26:07Z</time>
      </trkpt>
      <trkpt lat="59.300712791451" lon="17.809400283138">
        <ele>0</ele>
        <time>2013-08-29T18:26:09Z</time>
      </trkpt>
      <trkpt lat="59.300783199411" lon="17.809331886834">
        <ele>0</ele>
        <time>2013-08-29T18:26:10Z</time>
      </trkpt>
      <trkpt lat="59.300852098629" lon="17.80926013777">
        <ele>0</ele>
        <time>2013-08-29T18:26:11Z</time>
      </trkpt>
      <trkpt lat="59.300922003675" lon="17.809190232724">
        <ele>0</ele>
        <time>2013-08-29T18:26:12Z</time>
      </trkpt>
      <trkpt lat="59.300987550133" lon="17.809111107588">
        <ele>0</ele>
        <time>2013-08-29T18:26:13Z</time>
      </trkpt>
      <trkpt lat="59.301185949706" lon="17.808858309484">
        <ele>0</ele>
        <time>2013-08-29T18:26:16Z</time>
      </trkpt>
      <trkpt lat="59.301252082897" lon="17.808781447461">
        <ele>0</ele>
        <time>2013-08-29T18:26:17Z</time>
      </trkpt>
      <trkpt lat="59.301320898296" lon="17.808685558525">
        <ele>0</ele>
        <time>2013-08-29T18:26:18Z</time>
      </trkpt>
      <trkpt lat="59.301386528573" lon="17.808595034005">
        <ele>0</ele>
        <time>2013-08-29T18:26:19Z</time>
      </trkpt>
      <trkpt lat="59.30144964428" lon="17.808505180037">
        <ele>0</ele>
        <time>2013-08-29T18:26:20Z</time>
      </trkpt>
      <trkpt lat="59.301501360603" lon="17.808404597237">
        <ele>0</ele>
        <time>2013-08-29T18:26:21Z</time>
      </trkpt>
      <trkpt lat="59.301682242005" lon="17.80807326073">
        <ele>0</ele>
        <time>2013-08-29T18:26:24Z</time>
      </trkpt>
      <trkpt lat="59.30188047394" lon="17.807538327872">
        <ele>0</ele>
        <time>2013-08-29T18:26:28Z</time>
      </trkpt>
      <trkpt lat="59.301909559133" lon="17.807393656278">
        <ele>0</ele>
        <time>2013-08-29T18:26:29Z</time>
      </trkpt>
      <trkpt lat="59.301982397844" lon="17.806929047561">
        <ele>0</ele>
        <time>2013-08-29T18:26:32Z</time>
      </trkpt>
      <trkpt lat="59.302000502748" lon="17.806775155877">
        <ele>0</ele>
        <time>2013-08-29T18:26:33Z</time>
      </trkpt>
      <trkpt lat="59.302013829969" lon="17.806625622781">
        <ele>0</ele>
        <time>2013-08-29T18:26:34Z</time>
      </trkpt>
      <trkpt lat="59.302029587941" lon="17.806467791604">
        <ele>0</ele>
        <time>2013-08-29T18:26:35Z</time>
      </trkpt>
      <trkpt lat="59.302044423904" lon="17.806315492481">
        <ele>0</ele>
        <time>2013-08-29T18:26:36Z</time>
      </trkpt>
      <trkpt lat="59.302068647595" lon="17.806034447374">
        <ele>0</ele>
        <time>2013-08-29T18:26:38Z</time>
      </trkpt>
      <trkpt lat="59.302080885169" lon="17.805899163508">
        <ele>0</ele>
        <time>2013-08-29T18:26:39Z</time>
      </trkpt>
      <trkpt lat="59.302092452191" lon="17.805746361471">
        <ele>0</ele>
        <time>2013-08-29T18:26:40Z</time>
      </trkpt>
      <trkpt lat="59.302105611774" lon="17.805603617714">
        <ele>0</ele>
        <time>2013-08-29T18:26:41Z</time>
      </trkpt>
      <trkpt lat="59.30212103447" lon="17.805462969432">
        <ele>0</ele>
        <time>2013-08-29T18:26:42Z</time>
      </trkpt>
      <trkpt lat="59.302206194574" lon="17.804552192178">
        <ele>0</ele>
        <time>2013-08-29T18:26:48Z</time>
      </trkpt>
      <trkpt lat="59.302219521795" lon="17.804398049037">
        <ele>0</ele>
        <time>2013-08-29T18:26:49Z</time>
      </trkpt>
      <trkpt lat="59.302233519568" lon="17.80424859976">
        <ele>0</ele>
        <time>2013-08-29T18:26:50Z</time>
      </trkpt>
      <trkpt lat="59.302247014427" lon="17.804102922338">
        <ele>0</ele>
        <time>2013-08-29T18:26:51Z</time>
      </trkpt>
      <trkpt lat="59.302256485974" lon="17.803971242689">
        <ele>0</ele>
        <time>2013-08-29T18:26:52Z</time>
      </trkpt>
      <trkpt lat="59.302305939184" lon="17.803537730821">
        <ele>0</ele>
        <time>2013-08-29T18:26:55Z</time>
      </trkpt>
      <trkpt lat="59.302323205898" lon="17.803366404785">
        <ele>0</ele>
        <time>2013-08-29T18:26:56Z</time>
      </trkpt>
      <trkpt lat="59.302335778748" lon="17.803214105662">
        <ele>0</ele>
        <time>2013-08-29T18:26:57Z</time>
      </trkpt>
      <trkpt lat="59.302347932503" lon="17.803065746032">
        <ele>0</ele>
        <time>2013-08-29T18:26:58Z</time>
      </trkpt>
      <trkpt lat="59.302357739326" lon="17.802244236013">
        <ele>0</ele>
        <time>2013-08-29T18:27:03Z</time>
      </trkpt>
      <trkpt lat="59.3023029217" lon="17.801337649709">
        <ele>0</ele>
        <time>2013-08-29T18:27:08Z</time>
      </trkpt>
      <trkpt lat="59.302290013574" lon="17.801142854353">
        <ele>0</ele>
        <time>2013-08-29T18:27:09Z</time>
      </trkpt>
      <trkpt lat="59.302271489575" lon="17.8009511603">
        <ele>0</ele>
        <time>2013-08-29T18:27:10Z</time>
      </trkpt>
      <trkpt lat="59.302249528997" lon="17.800740942248">
        <ele>0</ele>
        <time>2013-08-29T18:27:11Z</time>
      </trkpt>
      <trkpt lat="59.302231172636" lon="17.800548996738">
        <ele>0</ele>
        <time>2013-08-29T18:27:12Z</time>
      </trkpt>
      <trkpt lat="59.302175349182" lon="17.799981877384">
        <ele>0</ele>
        <time>2013-08-29T18:27:15Z</time>
      </trkpt>
      <trkpt lat="59.30209169782" lon="17.798885608683">
        <ele>0</ele>
        <time>2013-08-29T18:27:21Z</time>
      </trkpt>
      <trkpt lat="59.30202715719" lon="17.79783393169">
        <ele>0</ele>
        <time>2013-08-29T18:27:27Z</time>
      </trkpt>
      <trkpt lat="59.302020870765" lon="17.797650200442">
        <ele>0</ele>
        <time>2013-08-29T18:27:28Z</time>
      </trkpt>
      <trkpt lat="59.302014165245" lon="17.797463200253">
        <ele>0</ele>
        <time>2013-08-29T18:27:29Z</time>
      </trkpt>
      <trkpt lat="59.302008297915" lon="17.797281648299">
        <ele>0</ele>
        <time>2013-08-29T18:27:30Z</time>
      </trkpt>
      <trkpt lat="59.301994216323" lon="17.797087858771">
        <ele>0</ele>
        <time>2013-08-29T18:27:31Z</time>
      </trkpt>
      <trkpt lat="59.302002765861" lon="17.796886860809">
        <ele>0</ele>
        <time>2013-08-29T18:27:32Z</time>
      </trkpt>
      <trkpt lat="59.302044004809" lon="17.796490983672">
        <ele>0</ele>
        <time>2013-08-29T18:27:34Z</time>
      </trkpt>
      <trkpt lat="59.302057415849" lon="17.796300127809">
        <ele>0</ele>
        <time>2013-08-29T18:27:35Z</time>
      </trkpt>
      <trkpt lat="59.302059930419" lon="17.795743988744">
        <ele>0</ele>
        <time>2013-08-29T18:27:38Z</time>
      </trkpt>
      <trkpt lat="59.302062444989" lon="17.795530082656">
        <ele>0</ele>
        <time>2013-08-29T18:27:39Z</time>
      </trkpt>
      <trkpt lat="59.302063702274" lon="17.795372754393">
        <ele>0</ele>
        <time>2013-08-29T18:27:40Z</time>
      </trkpt>
      <trkpt lat="59.302067893224" lon="17.795188855507">
        <ele>0</ele>
        <time>2013-08-29T18:27:41Z</time>
      </trkpt>
      <trkpt lat="59.30206990488" lon="17.795008644657">
        <ele>0</ele>
        <time>2013-08-29T18:27:42Z</time>
      </trkpt>
      <trkpt lat="59.302071329803" lon="17.794468515021">
        <ele>0</ele>
        <time>2013-08-29T18:27:45Z</time>
      </trkpt>
      <trkpt lat="59.302057499668" lon="17.793615656696">
        <ele>0</ele>
        <time>2013-08-29T18:27:50Z</time>
      </trkpt>
      <trkpt lat="59.302034617081" lon="17.793449695076">
        <ele>0</ele>
        <time>2013-08-29T18:27:51Z</time>
      </trkpt>
      <trkpt lat="59.301987846079" lon="17.793113999981">
        <ele>0</ele>
        <time>2013-08-29T18:27:53Z</time>
      </trkpt>
      <trkpt lat="59.301971166098" lon="17.792592478163">
        <ele>0</ele>
        <time>2013-08-29T18:27:56Z</time>
      </trkpt>
      <trkpt lat="59.301975357048" lon="17.791732579042">
        <ele>0</ele>
        <time>2013-08-29T18:28:01Z</time>
      </trkpt>
      <trkpt lat="59.301986002061" lon="17.791182391126">
        <ele>0</ele>
        <time>2013-08-29T18:28:04Z</time>
      </trkpt>
      <trkpt lat="59.301994803056" lon="17.790997821688">
        <ele>0</ele>
        <time>2013-08-29T18:28:05Z</time>
      </trkpt>
      <trkpt lat="59.302005280431" lon="17.790817191743">
        <ele>0</ele>
        <time>2013-08-29T18:28:06Z</time>
      </trkpt>
      <trkpt lat="59.302016344539" lon="17.79063471778">
        <ele>0</ele>
        <time>2013-08-29T18:28:07Z</time>
      </trkpt>
      <trkpt lat="59.30202715719" lon="17.790449310152">
        <ele>0</ele>
        <time>2013-08-29T18:28:08Z</time>
      </trkpt>
      <trkpt lat="59.302040400592" lon="17.790261555592">
        <ele>0</ele>
        <time>2013-08-29T18:28:09Z</time>
      </trkpt>
      <trkpt lat="59.302055907107" lon="17.790076147964">
        <ele>0</ele>
        <time>2013-08-29T18:28:10Z</time>
      </trkpt>
      <trkpt lat="59.302070072518" lon="17.789890153603">
        <ele>0</ele>
        <time>2013-08-29T18:28:11Z</time>
      </trkpt>
      <trkpt lat="59.302082980644" lon="17.789703237233">
        <ele>0</ele>
        <time>2013-08-29T18:28:12Z</time>
      </trkpt>
      <trkpt lat="59.302094966761" lon="17.789512129913">
        <ele>0</ele>
        <time>2013-08-29T18:28:13Z</time>
      </trkpt>
      <trkpt lat="59.302107371973" lon="17.789303504422">
        <ele>0</ele>
        <time>2013-08-29T18:28:14Z</time>
      </trkpt>
      <trkpt lat="59.302121285927" lon="17.789114073482">
        <ele>0</ele>
        <time>2013-08-29T18:28:15Z</time>
      </trkpt>
      <trkpt lat="59.302140648116" lon="17.788912572606">
        <ele>0</ele>
        <time>2013-08-29T18:28:16Z</time>
      </trkpt>
      <trkpt lat="59.30226185039" lon="17.78797430272">
        <ele>0</ele>
        <time>2013-08-29T18:28:21Z</time>
      </trkpt>
      <trkpt lat="59.302414652427" lon="17.78692907979">
        <ele>0</ele>
        <time>2013-08-29T18:28:27Z</time>
      </trkpt>
      <trkpt lat="59.302624116108" lon="17.786180157025">
        <ele>0</ele>
        <time>2013-08-29T18:28:32Z</time>
      </trkpt>
      <trkpt lat="59.302888229777" lon="17.785174999577">
        <ele>0</ele>
        <time>2013-08-29T18:28:39Z</time>
      </trkpt>
      <trkpt lat="59.303184865218" lon="17.784214517656">
        <ele>0</ele>
        <time>2013-08-29T18:28:46Z</time>
      </trkpt>
      <trkpt lat="59.303538497579" lon="17.783258478142">
        <ele>0</ele>
        <time>2013-08-29T18:28:53Z</time>
      </trkpt>
      <trkpt lat="59.303879221814" lon="17.782430849336">
        <ele>0</ele>
        <time>2013-08-29T18:28:59Z</time>
      </trkpt>
      <trkpt lat="59.303942588978" lon="17.782294140547">
        <ele>0</ele>
        <time>2013-08-29T18:29:00Z</time>
      </trkpt>
      <trkpt lat="59.304339639581" lon="17.781462656067">
        <ele>0</ele>
        <time>2013-08-29T18:29:06Z</time>
      </trkpt>
      <trkpt lat="59.304473247067" lon="17.781200554054">
        <ele>0</ele>
        <time>2013-08-29T18:29:08Z</time>
      </trkpt>
      <trkpt lat="59.304882702882" lon="17.780470322926">
        <ele>0</ele>
        <time>2013-08-29T18:29:14Z</time>
      </trkpt>
      <trkpt lat="59.30494908753" lon="17.780361190588">
        <ele>0</ele>
        <time>2013-08-29T18:29:15Z</time>
      </trkpt>
      <trkpt lat="59.305343707382" lon="17.779711928614">
        <ele>0</ele>
        <time>2013-08-29T18:29:21Z</time>
      </trkpt>
      <trkpt lat="59.305638498805" lon="17.779202979646">
        <ele>0</ele>
        <time>2013-08-29T18:29:25Z</time>
      </trkpt>
      <trkpt lat="59.305720138511" lon="17.779088063797">
        <ele>0</ele>
        <time>2013-08-29T18:29:26Z</time>
      </trkpt>
      <trkpt lat="59.305801107665" lon="17.778984212056">
        <ele>0</ele>
        <time>2013-08-29T18:29:27Z</time>
      </trkpt>
      <trkpt lat="59.305881993" lon="17.778887568749">
        <ele>0</ele>
        <time>2013-08-29T18:29:28Z</time>
      </trkpt>
      <trkpt lat="59.30596162105" lon="17.778797379505">
        <ele>0</ele>
        <time>2013-08-29T18:29:29Z</time>
      </trkpt>
      <trkpt lat="59.306043176937" lon="17.778711213573">
        <ele>0</ele>
        <time>2013-08-29T18:29:30Z</time>
      </trkpt>
      <trkpt lat="59.30649806265" lon="17.778287676166">
        <ele>0</ele>
        <time>2013-08-29T18:29:36Z</time>
      </trkpt>
      <trkpt lat="59.306952529268" lon="17.777741595381">
        <ele>0</ele>
        <time>2013-08-29T18:29:42Z</time>
      </trkpt>
      <trkpt lat="59.307024781246" lon="17.777627852998">
        <ele>0</ele>
        <time>2013-08-29T18:29:43Z</time>
      </trkpt>
      <trkpt lat="59.307355698658" lon="17.777259552312">
        <ele>0</ele>
        <time>2013-08-29T18:29:47Z</time>
      </trkpt>
      <trkpt lat="59.307626434028" lon="17.776980099766">
        <ele>0</ele>
        <time>2013-08-29T18:29:51Z</time>
      </trkpt>
      <trkpt lat="59.308007056107" lon="17.776554299246">
        <ele>0</ele>
        <time>2013-08-29T18:29:57Z</time>
      </trkpt>
      <trkpt lat="59.308449536608" lon="17.776109304175">
        <ele>0</ele>
        <time>2013-08-29T18:30:03Z</time>
      </trkpt>
      <trkpt lat="59.308715578114" lon="17.775853656225">
        <ele>0</ele>
        <time>2013-08-29T18:30:07Z</time>
      </trkpt>
      <trkpt lat="59.308789003558" lon="17.775774279632">
        <ele>0</ele>
        <time>2013-08-29T18:30:08Z</time>
      </trkpt>
      <trkpt lat="59.309279428527" lon="17.775316376435">
        <ele>0</ele>
        <time>2013-08-29T18:30:14Z</time>
      </trkpt>
      <trkpt lat="59.309786449658" lon="17.774895605055">
        <ele>0</ele>
        <time>2013-08-29T18:30:20Z</time>
      </trkpt>
      <trkpt lat="59.309962385739" lon="17.774758728628">
        <ele>0</ele>
        <time>2013-08-29T18:30:22Z</time>
      </trkpt>
      <trkpt lat="59.310501761004" lon="17.77439897748">
        <ele>0</ele>
        <time>2013-08-29T18:30:28Z</time>
      </trkpt>
      <trkpt lat="59.310595805922" lon="17.774342567293">
        <ele>0</ele>
        <time>2013-08-29T18:30:29Z</time>
      </trkpt>
      <trkpt lat="59.311137360481" lon="17.774006453103">
        <ele>0</ele>
        <time>2013-08-29T18:30:35Z</time>
      </trkpt>
      <trkpt lat="59.311225705707" lon="17.77395054583">
        <ele>0</ele>
        <time>2013-08-29T18:30:36Z</time>
      </trkpt>
      <trkpt lat="59.311733145933" lon="17.773621891531">
        <ele>0</ele>
        <time>2013-08-29T18:30:42Z</time>
      </trkpt>
      <trkpt lat="59.312293392129" lon="17.773261218374">
        <ele>0</ele>
        <time>2013-08-29T18:30:49Z</time>
      </trkpt>
      <trkpt lat="59.312619280401" lon="17.773047563743">
        <ele>0</ele>
        <time>2013-08-29T18:30:53Z</time>
      </trkpt>
      <trkpt lat="59.312700417193" lon="17.772996266515">
        <ele>0</ele>
        <time>2013-08-29T18:30:54Z</time>
      </trkpt>
      <trkpt lat="59.312780967252" lon="17.772941616527">
        <ele>0</ele>
        <time>2013-08-29T18:30:55Z</time>
      </trkpt>
      <trkpt lat="59.31286160113" lon="17.772886715082">
        <ele>0</ele>
        <time>2013-08-29T18:30:56Z</time>
      </trkpt>
      <trkpt lat="59.312946761234" lon="17.772832819465">
        <ele>0</ele>
        <time>2013-08-29T18:30:57Z</time>
      </trkpt>
      <trkpt lat="59.313026305465" lon="17.772785545549">
        <ele>0</ele>
        <time>2013-08-29T18:30:58Z</time>
      </trkpt>
      <trkpt lat="59.31358244453" lon="17.772422776917">
        <ele>0</ele>
        <time>2013-08-29T18:31:05Z</time>
      </trkpt>
      <trkpt lat="59.313741030078" lon="17.772320601556">
        <ele>0</ele>
        <time>2013-08-29T18:31:07Z</time>
      </trkpt>
      <trkpt lat="59.314302952654" lon="17.771954731621">
        <ele>0</ele>
        <time>2013-08-29T18:31:14Z</time>
      </trkpt>
      <trkpt lat="59.314381742514" lon="17.771903015298">
        <ele>0</ele>
        <time>2013-08-29T18:31:15Z</time>
      </trkpt>
      <trkpt lat="59.314459945641" lon="17.771851801889">
        <ele>0</ele>
        <time>2013-08-29T18:31:16Z</time>
      </trkpt>
      <trkpt lat="59.314536556207" lon="17.771799666471">
        <ele>0</ele>
        <time>2013-08-29T18:31:17Z</time>
      </trkpt>
      <trkpt lat="59.314614004963" lon="17.771735293479">
        <ele>0</ele>
        <time>2013-08-29T18:31:18Z</time>
      </trkpt>
      <trkpt lat="59.314846854145" lon="17.771544269978">
        <ele>0</ele>
        <time>2013-08-29T18:31:21Z</time>
      </trkpt>
      <trkpt lat="59.315070650875" lon="17.771364142947">
        <ele>0</ele>
        <time>2013-08-29T18:31:24Z</time>
      </trkpt>
      <trkpt lat="59.315143489586" lon="17.771305302009">
        <ele>0</ele>
        <time>2013-08-29T18:31:25Z</time>
      </trkpt>
      <trkpt lat="59.315217166487" lon="17.77125325041">
        <ele>0</ele>
        <time>2013-08-29T18:31:26Z</time>
      </trkpt>
      <trkpt lat="59.315295621071" lon="17.771212095281">
        <ele>0</ele>
        <time>2013-08-29T18:31:27Z</time>
      </trkpt>
      <trkpt lat="59.315374578569" lon="17.771185440839">
        <ele>0</ele>
        <time>2013-08-29T18:31:28Z</time>
      </trkpt>
      <trkpt lat="59.315917725689" lon="17.77091629803">
        <ele>0</ele>
        <time>2013-08-29T18:31:35Z</time>
      </trkpt>
      <trkpt lat="59.315990815857" lon="17.770869946123">
        <ele>0</ele>
        <time>2013-08-29T18:31:36Z</time>
      </trkpt>
      <trkpt lat="59.316065917681" lon="17.770822923664">
        <ele>0</ele>
        <time>2013-08-29T18:31:37Z</time>
      </trkpt>
      <trkpt lat="59.316142360609" lon="17.770778583413">
        <ele>0</ele>
        <time>2013-08-29T18:31:38Z</time>
      </trkpt>
      <trkpt lat="59.316219474089" lon="17.77073943994">
        <ele>0</ele>
        <time>2013-08-29T18:31:39Z</time>
      </trkpt>
      <trkpt lat="59.316293653904" lon="17.770697698078">
        <ele>0</ele>
        <time>2013-08-29T18:31:40Z</time>
      </trkpt>
      <trkpt lat="59.316366744072" lon="17.770653693103">
        <ele>0</ele>
        <time>2013-08-29T18:31:41Z</time>
      </trkpt>
      <trkpt lat="59.316876698868" lon="17.770307269176">
        <ele>0</ele>
        <time>2013-08-29T18:31:48Z</time>
      </trkpt>
      <trkpt lat="59.316950124312" lon="17.770248092962">
        <ele>0</ele>
        <time>2013-08-29T18:31:49Z</time>
      </trkpt>
      <trkpt lat="59.317027740706" lon="17.77018707273">
        <ele>0</ele>
        <time>2013-08-29T18:31:50Z</time>
      </trkpt>
      <trkpt lat="59.317101585245" lon="17.770127980335">
        <ele>0</ele>
        <time>2013-08-29T18:31:51Z</time>
      </trkpt>
      <trkpt lat="59.317176770888" lon="17.770063607343">
        <ele>0</ele>
        <time>2013-08-29T18:31:52Z</time>
      </trkpt>
      <trkpt lat="59.317486985007" lon="17.769789854489">
        <ele>0</ele>
        <time>2013-08-29T18:31:56Z</time>
      </trkpt>
      <trkpt lat="59.317990066645" lon="17.769356510259">
        <ele>0</ele>
        <time>2013-08-29T18:32:02Z</time>
      </trkpt>
      <trkpt lat="59.318157369369" lon="17.769202031842">
        <ele>0</ele>
        <time>2013-08-29T18:32:04Z</time>
      </trkpt>
      <trkpt lat="59.318545870434" lon="17.768755611848">
        <ele>0</ele>
        <time>2013-08-29T18:32:09Z</time>
      </trkpt>
      <trkpt lat="59.318898161691" lon="17.768188241037">
        <ele>0</ele>
        <time>2013-08-29T18:32:14Z</time>
      </trkpt>
      <trkpt lat="59.319292278629" lon="17.767445520878">
        <ele>0</ele>
        <time>2013-08-29T18:32:20Z</time>
      </trkpt>
      <trkpt lat="59.319424545011" lon="17.767209654212">
        <ele>0</ele>
        <time>2013-08-29T18:32:22Z</time>
      </trkpt>
      <trkpt lat="59.319852273368" lon="17.766378085913">
        <ele>0</ele>
        <time>2013-08-29T18:32:29Z</time>
      </trkpt>
      <trkpt lat="59.320208504118" lon="17.76568683062">
        <ele>0</ele>
        <time>2013-08-29T18:32:35Z</time>
      </trkpt>
      <trkpt lat="59.320314954248" lon="17.765467308659">
        <ele>0</ele>
        <time>2013-08-29T18:32:37Z</time>
      </trkpt>
      <trkpt lat="59.320367927856" lon="17.765360020339">
        <ele>0</ele>
        <time>2013-08-29T18:32:38Z</time>
      </trkpt>
      <trkpt lat="59.320421320559" lon="17.765256420055">
        <ele>0</ele>
        <time>2013-08-29T18:32:39Z</time>
      </trkpt>
      <trkpt lat="59.320475132357" lon="17.765151897762">
        <ele>0</ele>
        <time>2013-08-29T18:32:40Z</time>
      </trkpt>
      <trkpt lat="59.320528273603" lon="17.76504980622">
        <ele>0</ele>
        <time>2013-08-29T18:32:41Z</time>
      </trkpt>
      <trkpt lat="59.320743688433" lon="17.764612103402">
        <ele>0</ele>
        <time>2013-08-29T18:32:45Z</time>
      </trkpt>
      <trkpt lat="59.320892048063" lon="17.764316725246">
        <ele>0</ele>
        <time>2013-08-29T18:32:48Z</time>
      </trkpt>
      <trkpt lat="59.320936136857" lon="17.764221339224">
        <ele>0</ele>
        <time>2013-08-29T18:32:49Z</time>
      </trkpt>
      <trkpt lat="59.320977962538" lon="17.764129725057">
        <ele>0</ele>
        <time>2013-08-29T18:32:50Z</time>
      </trkpt>
      <trkpt lat="59.321020291133" lon="17.764041631288">
        <ele>0</ele>
        <time>2013-08-29T18:32:51Z</time>
      </trkpt>
      <trkpt lat="59.321065385755" lon="17.763953286062">
        <ele>0</ele>
        <time>2013-08-29T18:32:52Z</time>
      </trkpt>
      <trkpt lat="59.321154150076" lon="17.763792102125">
        <ele>0</ele>
        <time>2013-08-29T18:32:54Z</time>
      </trkpt>
      <trkpt lat="59.3212963071" lon="17.763595211294">
        <ele>0</ele>
        <time>2013-08-29T18:32:57Z</time>
      </trkpt>
      <trkpt lat="59.321338300419" lon="17.763513571588">
        <ele>0</ele>
        <time>2013-08-29T18:32:58Z</time>
      </trkpt>
      <trkpt lat="59.321382556851" lon="17.763427657113">
        <ele>0</ele>
        <time>2013-08-29T18:32:59Z</time>
      </trkpt>
      <trkpt lat="59.321425723636" lon="17.763344005751">
        <ele>0</ele>
        <time>2013-08-29T18:33:00Z</time>
      </trkpt>
      <trkpt lat="59.321468806602" lon="17.76325524143">
        <ele>0</ele>
        <time>2013-08-29T18:33:01Z</time>
      </trkpt>
      <trkpt lat="59.32151256012" lon="17.763164381634">
        <ele>0</ele>
        <time>2013-08-29T18:33:02Z</time>
      </trkpt>
      <trkpt lat="59.321555810724" lon="17.763069917621">
        <ele>0</ele>
        <time>2013-08-29T18:33:03Z</time>
      </trkpt>
      <trkpt lat="59.321643653036" lon="17.762865734537">
        <ele>0</ele>
        <time>2013-08-29T18:33:05Z</time>
      </trkpt>
      <trkpt lat="59.321798550548" lon="17.762570775476">
        <ele>0</ele>
        <time>2013-08-29T18:33:08Z</time>
      </trkpt>
      <trkpt lat="59.321849177224" lon="17.762469689762">
        <ele>0</ele>
        <time>2013-08-29T18:33:09Z</time>
      </trkpt>
      <trkpt lat="59.321898881891" lon="17.762371453894">
        <ele>0</ele>
        <time>2013-08-29T18:33:10Z</time>
      </trkpt>
      <trkpt lat="59.321946993997" lon="17.76227372094">
        <ele>0</ele>
        <time>2013-08-29T18:33:11Z</time>
      </trkpt>
      <trkpt lat="59.321995860474" lon="17.762171042665">
        <ele>0</ele>
        <time>2013-08-29T18:33:12Z</time>
      </trkpt>
      <trkpt lat="59.322285538938" lon="17.761553967187">
        <ele>0</ele>
        <time>2013-08-29T18:33:18Z</time>
      </trkpt>
      <trkpt lat="59.322502546329" lon="17.761104864985">
        <ele>0</ele>
        <time>2013-08-29T18:33:23Z</time>
      </trkpt>
      <trkpt lat="59.322758529555" lon="17.760527016799">
        <ele>0</ele>
        <time>2013-08-29T18:33:29Z</time>
      </trkpt>
      <trkpt lat="59.32279834358" lon="17.760399360462">
        <ele>0</ele>
        <time>2013-08-29T18:33:30Z</time>
      </trkpt>
      <trkpt lat="59.322834804845" lon="17.760262986949">
        <ele>0</ele>
        <time>2013-08-29T18:33:31Z</time>
      </trkpt>
      <trkpt lat="59.322871852843" lon="17.760113789129">
        <ele>0</ele>
        <time>2013-08-29T18:33:32Z</time>
      </trkpt>
      <trkpt lat="59.32290814647" lon="17.759951012631">
        <ele>0</ele>
        <time>2013-08-29T18:33:33Z</time>
      </trkpt>
      <trkpt lat="59.322941087337" lon="17.759772813437">
        <ele>0</ele>
        <time>2013-08-29T18:33:34Z</time>
      </trkpt>
      <trkpt lat="59.322970591625" lon="17.759578772452">
        <ele>0</ele>
        <time>2013-08-29T18:33:35Z</time>
      </trkpt>
      <trkpt lat="59.322999592999" lon="17.759385066743">
        <ele>0</ele>
        <time>2013-08-29T18:33:36Z</time>
      </trkpt>
      <trkpt lat="59.323027001812" lon="17.759177866175">
        <ele>0</ele>
        <time>2013-08-29T18:33:37Z</time>
      </trkpt>
      <trkpt lat="59.323055751729" lon="17.75897711967">
        <ele>0</ele>
        <time>2013-08-29T18:33:38Z</time>
      </trkpt>
      <trkpt lat="59.32308081361" lon="17.75877679226">
        <ele>0</ele>
        <time>2013-08-29T18:33:39Z</time>
      </trkpt>
      <trkpt lat="59.323093721736" lon="17.75857395028">
        <ele>0</ele>
        <time>2013-08-29T18:33:40Z</time>
      </trkpt>
      <trkpt lat="59.323098918514" lon="17.758388961747">
        <ele>0</ele>
        <time>2013-08-29T18:33:41Z</time>
      </trkpt>
      <trkpt lat="59.323100762532" lon="17.758206739241">
        <ele>0</ele>
        <time>2013-08-29T18:33:42Z</time>
      </trkpt>
      <trkpt lat="59.323102522731" lon="17.758029881151">
        <ele>0</ele>
        <time>2013-08-29T18:33:43Z</time>
      </trkpt>
      <trkpt lat="59.323102941826" lon="17.757855789088">
        <ele>0</ele>
        <time>2013-08-29T18:33:44Z</time>
      </trkpt>
      <trkpt lat="59.323100511075" lon="17.757381792643">
        <ele>0</ele>
        <time>2013-08-29T18:33:47Z</time>
      </trkpt>
      <trkpt lat="59.323084669284" lon="17.756442936024">
        <ele>0</ele>
        <time>2013-08-29T18:33:54Z</time>
      </trkpt>
      <trkpt lat="59.323065810009" lon="17.755414309256">
        <ele>0</ele>
        <time>2013-08-29T18:34:01Z</time>
      </trkpt>
      <trkpt lat="59.323057176652" lon="17.754278142711">
        <ele>0</ele>
        <time>2013-08-29T18:34:08Z</time>
      </trkpt>
      <trkpt lat="59.323059355946" lon="17.754135901868">
        <ele>0</ele>
        <time>2013-08-29T18:34:09Z</time>
      </trkpt>
      <trkpt lat="59.323059523584" lon="17.754011263015">
        <ele>0</ele>
        <time>2013-08-29T18:34:10Z</time>
      </trkpt>
      <trkpt lat="59.323058769213" lon="17.753893078225">
        <ele>0</ele>
        <time>2013-08-29T18:34:11Z</time>
      </trkpt>
      <trkpt lat="59.323057679566" lon="17.75377698891">
        <ele>0</ele>
        <time>2013-08-29T18:34:12Z</time>
      </trkpt>
      <trkpt lat="59.323030606029" lon="17.753014571286">
        <ele>0</ele>
        <time>2013-08-29T18:34:18Z</time>
      </trkpt>
      <trkpt lat="59.323052566607" lon="17.752584831273">
        <ele>0</ele>
        <time>2013-08-29T18:34:21Z</time>
      </trkpt>
      <trkpt lat="59.323089698424" lon="17.75229255442">
        <ele>0</ele>
        <time>2013-08-29T18:34:23Z</time>
      </trkpt>
      <trkpt lat="59.323182905152" lon="17.751660894436">
        <ele>0</ele>
        <time>2013-08-29T18:34:28Z</time>
      </trkpt>
      <trkpt lat="59.323273010577" lon="17.751223275437">
        <ele>0</ele>
        <time>2013-08-29T18:34:33Z</time>
      </trkpt>
      <trkpt lat="59.323400499276" lon="17.750675015358">
        <ele>0</ele>
        <time>2013-08-29T18:34:38Z</time>
      </trkpt>
      <trkpt lat="59.323553301313" lon="17.750179058335">
        <ele>0</ele>
        <time>2013-08-29T18:34:42Z</time>
      </trkpt>
      <trkpt lat="59.323600323772" lon="17.750058275156">
        <ele>0</ele>
        <time>2013-08-29T18:34:43Z</time>
      </trkpt>
      <trkpt lat="59.323648938792" lon="17.749938497805">
        <ele>0</ele>
        <time>2013-08-29T18:34:44Z</time>
      </trkpt>
      <trkpt lat="59.323699314011" lon="17.749822659947">
        <ele>0</ele>
        <time>2013-08-29T18:34:45Z</time>
      </trkpt>
      <trkpt lat="59.323754383094" lon="17.749697937275">
        <ele>0</ele>
        <time>2013-08-29T18:34:46Z</time>
      </trkpt>
      <trkpt lat="59.323904251466" lon="17.749349501692">
        <ele>0</ele>
        <time>2013-08-29T18:34:49Z</time>
      </trkpt>
      <trkpt lat="59.324075409864" lon="17.748988828535">
        <ele>0</ele>
        <time>2013-08-29T18:34:53Z</time>
      </trkpt>
      <trkpt lat="59.324234917421" lon="17.74863050231">
        <ele>0</ele>
        <time>2013-08-29T18:34:58Z</time>
      </trkpt>
      <trkpt lat="59.324269953763" lon="17.748324814417">
        <ele>0</ele>
        <time>2013-08-29T18:35:03Z</time>
      </trkpt>
      <trkpt lat="59.324256877999" lon="17.748245605462">
        <ele>0</ele>
        <time>2013-08-29T18:35:04Z</time>
      </trkpt>
      <trkpt lat="59.324202898563" lon="17.748104538085">
        <ele>0</ele>
        <time>2013-08-29T18:35:06Z</time>
      </trkpt>
      <trkpt lat="59.324175908845" lon="17.748046367699">
        <ele>0</ele>
        <time>2013-08-29T18:35:07Z</time>
      </trkpt>
      <trkpt lat="59.324155876104" lon="17.748001273077">
        <ele>0</ele>
        <time>2013-08-29T18:35:08Z</time>
      </trkpt>
      <trkpt lat="59.324140453408" lon="17.747956849007">
        <ele>0</ele>
        <time>2013-08-29T18:35:09Z</time>
      </trkpt>
      <trkpt lat="59.324138525571" lon="17.747906054693">
        <ele>0</ele>
        <time>2013-08-29T18:35:10Z</time>
      </trkpt>
      <trkpt lat="59.324146488376" lon="17.747849225411">
        <ele>0</ele>
        <time>2013-08-29T18:35:11Z</time>
      </trkpt>
      <trkpt lat="59.32418470984" lon="17.74764562906">
        <ele>0</ele>
        <time>2013-08-29T18:35:14Z</time>
      </trkpt>
      <trkpt lat="59.324216141965" lon="17.747599109515">
        <ele>0</ele>
        <time>2013-08-29T18:35:15Z</time>
      </trkpt>
      <trkpt lat="59.324256626542" lon="17.747595756755">
        <ele>0</ele>
        <time>2013-08-29T18:35:16Z</time>
      </trkpt>
      <trkpt lat="59.324451421898" lon="17.747577316575">
        <ele>0</ele>
        <time>2013-08-29T18:35:20Z</time>
      </trkpt>
      <trkpt lat="59.3245987757" lon="17.747434991913">
        <ele>0</ele>
        <time>2013-08-29T18:35:23Z</time>
      </trkpt>
      <trkpt lat="59.324797342911" lon="17.747256792719">
        <ele>0</ele>
        <time>2013-08-29T18:35:27Z</time>
      </trkpt>
      <trkpt lat="59.324962969255" lon="17.747231311743">
        <ele>0</ele>
        <time>2013-08-29T18:35:30Z</time>
      </trkpt>
      <trkpt lat="59.325027761342" lon="17.74722150492">
        <ele>0</ele>
        <time>2013-08-29T18:35:31Z</time>
      </trkpt>
      <trkpt lat="59.325229681313" lon="17.74716366981">
        <ele>0</ele>
        <time>2013-08-29T18:35:34Z</time>
      </trkpt>
      <trkpt lat="59.325301095101" lon="17.74715025877">
        <ele>0</ele>
        <time>2013-08-29T18:35:35Z</time>
      </trkpt>
      <trkpt lat="59.325599826017" lon="17.747078761163">
        <ele>0</ele>
        <time>2013-08-29T18:35:39Z</time>
      </trkpt>
      <trkpt lat="59.32613853073" lon="17.746929898619">
        <ele>0</ele>
        <time>2013-08-29T18:35:46Z</time>
      </trkpt>
      <trkpt lat="59.326217236771" lon="17.746907518946">
        <ele>0</ele>
        <time>2013-08-29T18:35:47Z</time>
      </trkpt>
      <trkpt lat="59.326606659845" lon="17.746805846499">
        <ele>0</ele>
        <time>2013-08-29T18:35:52Z</time>
      </trkpt>
      <trkpt lat="59.326684108601" lon="17.746783802102">
        <ele>0</ele>
        <time>2013-08-29T18:35:53Z</time>
      </trkpt>
      <trkpt lat="59.326762563185" lon="17.746762595895">
        <ele>0</ele>
        <time>2013-08-29T18:35:54Z</time>
      </trkpt>
      <trkpt lat="59.326841436864" lon="17.746742395516">
        <ele>0</ele>
        <time>2013-08-29T18:35:55Z</time>
      </trkpt>
      <trkpt lat="59.326916873964" lon="17.746723452422">
        <ele>0</ele>
        <time>2013-08-29T18:35:56Z</time>
      </trkpt>
      <trkpt lat="59.327202948211" lon="17.746642734725">
        <ele>0</ele>
        <time>2013-08-29T18:36:00Z</time>
      </trkpt>
      <trkpt lat="59.327274529637" lon="17.746620690328">
        <ele>0</ele>
        <time>2013-08-29T18:36:01Z</time>
      </trkpt>
      <trkpt lat="59.327349380004" lon="17.746598226836">
        <ele>0</ele>
        <time>2013-08-29T18:36:02Z</time>
      </trkpt>
      <trkpt lat="59.327421129068" lon="17.746577691181">
        <ele>0</ele>
        <time>2013-08-29T18:36:03Z</time>
      </trkpt>
      <trkpt lat="59.327559681875" lon="17.746540475545">
        <ele>0</ele>
        <time>2013-08-29T18:36:05Z</time>
      </trkpt>
      <trkpt lat="59.328069888128" lon="17.746401419824">
        <ele>0</ele>
        <time>2013-08-29T18:36:13Z</time>
      </trkpt>
      <trkpt lat="59.328126549772" lon="17.746387673508">
        <ele>0</ele>
        <time>2013-08-29T18:36:14Z</time>
      </trkpt>
      <trkpt lat="59.32818036157" lon="17.74636906569">
        <ele>0</ele>
        <time>2013-08-29T18:36:15Z</time>
      </trkpt>
      <trkpt lat="59.328232832264" lon="17.746345512551">
        <ele>0</ele>
        <time>2013-08-29T18:36:16Z</time>
      </trkpt>
      <trkpt lat="59.328288152804" lon="17.746320115394">
        <ele>0</ele>
        <time>2013-08-29T18:36:17Z</time>
      </trkpt>
      <trkpt lat="59.328353531624" lon="17.74630787782">
        <ele>0</ele>
        <time>2013-08-29T18:36:18Z</time>
      </trkpt>
      <trkpt lat="59.328685371045" lon="17.746264543397">
        <ele>0</ele>
        <time>2013-08-29T18:36:23Z</time>
      </trkpt>
      <trkpt lat="59.329210832356" lon="17.746219448775">
        <ele>0</ele>
        <time>2013-08-29T18:36:30Z</time>
      </trkpt>
      <trkpt lat="59.329698491298" lon="17.746166978081">
        <ele>0</ele>
        <time>2013-08-29T18:36:36Z</time>
      </trkpt>
      <trkpt lat="59.32977795171" lon="17.746153567041">
        <ele>0</ele>
        <time>2013-08-29T18:36:37Z</time>
      </trkpt>
      <trkpt lat="59.329857915036" lon="17.746143005847">
        <ele>0</ele>
        <time>2013-08-29T18:36:38Z</time>
      </trkpt>
      <trkpt lat="59.329936872534" lon="17.746134791585">
        <ele>0</ele>
        <time>2013-08-29T18:36:39Z</time>
      </trkpt>
      <trkpt lat="59.330019434249" lon="17.746128588979">
        <ele>0</ele>
        <time>2013-08-29T18:36:40Z</time>
      </trkpt>
      <trkpt lat="59.330325625056" lon="17.746094893741">
        <ele>0</ele>
        <time>2013-08-29T18:36:44Z</time>
      </trkpt>
      <trkpt lat="59.330891319487" lon="17.746032867681">
        <ele>0</ele>
        <time>2013-08-29T18:36:51Z</time>
      </trkpt>
      <trkpt lat="59.330972875374" lon="17.746024066686">
        <ele>0</ele>
        <time>2013-08-29T18:36:52Z</time>
      </trkpt>
      <trkpt lat="59.331357185489" lon="17.745933709804">
        <ele>0</ele>
        <time>2013-08-29T18:36:57Z</time>
      </trkpt>
      <trkpt lat="59.331428850734" lon="17.745876880522">
        <ele>0</ele>
        <time>2013-08-29T18:36:58Z</time>
      </trkpt>
      <trkpt lat="59.33150127035" lon="17.745831869719">
        <ele>0</ele>
        <time>2013-08-29T18:36:59Z</time>
      </trkpt>
      <trkpt lat="59.33164124808" lon="17.745802784526">
        <ele>0</ele>
        <time>2013-08-29T18:37:01Z</time>
      </trkpt>
      <trkpt lat="59.331850627942" lon="17.745803957992">
        <ele>0</ele>
        <time>2013-08-29T18:37:04Z</time>
      </trkpt>
      <trkpt lat="59.332045674755" lon="17.745859110894">
        <ele>0</ele>
        <time>2013-08-29T18:37:07Z</time>
      </trkpt>
      <trkpt lat="59.332204930855" lon="17.745852153917">
        <ele>0</ele>
        <time>2013-08-29T18:37:10Z</time>
      </trkpt>
      <trkpt lat="59.332249690201" lon="17.745833378461">
        <ele>0</ele>
        <time>2013-08-29T18:37:11Z</time>
      </trkpt>
      <trkpt lat="59.332416070916" lon="17.745743273036">
        <ele>0</ele>
        <time>2013-08-29T18:37:16Z</time>
      </trkpt>
      <trkpt lat="59.332520844666" lon="17.745697340224">
        <ele>0</ele>
        <time>2013-08-29T18:37:21Z</time>
      </trkpt>
      <trkpt lat="59.332673981979" lon="17.745687701039">
        <ele>0</ele>
        <time>2013-08-29T18:37:28Z</time>
      </trkpt>
      <trkpt lat="59.332804404343" lon="17.745785433993">
        <ele>0</ele>
        <time>2013-08-29T18:37:32Z</time>
      </trkpt>
      <trkpt lat="59.332868861154" lon="17.745966566852">
        <ele>0</ele>
        <time>2013-08-29T18:37:34Z</time>
      </trkpt>
      <trkpt lat="59.332900125641" lon="17.746197404378">
        <ele>0</ele>
        <time>2013-08-29T18:37:36Z</time>
      </trkpt>
      <trkpt lat="59.332922170038" lon="17.746307794001">
        <ele>0</ele>
        <time>2013-08-29T18:37:37Z</time>
      </trkpt>
      <trkpt lat="59.332956452009" lon="17.746406448964">
        <ele>0</ele>
        <time>2013-08-29T18:37:38Z</time>
      </trkpt>
      <trkpt lat="59.333102045612" lon="17.746606022003">
        <ele>0</ele>
        <time>2013-08-29T18:37:41Z</time>
      </trkpt>
      <trkpt lat="59.333289716353" lon="17.746722865689">
        <ele>0</ele>
        <time>2013-08-29T18:37:44Z</time>
      </trkpt>
      <trkpt lat="59.333363393254" lon="17.746757734393">
        <ele>0</ele>
        <time>2013-08-29T18:37:45Z</time>
      </trkpt>
      <trkpt lat="59.333444613865" lon="17.746789753251">
        <ele>0</ele>
        <time>2013-08-29T18:37:46Z</time>
      </trkpt>
      <trkpt lat="59.333526253571" lon="17.746824286679">
        <ele>0</ele>
        <time>2013-08-29T18:37:47Z</time>
      </trkpt>
      <trkpt lat="59.333610659304" lon="17.746870806224">
        <ele>0</ele>
        <time>2013-08-29T18:37:48Z</time>
      </trkpt>
      <trkpt lat="59.333699675082" lon="17.746923025461">
        <ele>0</ele>
        <time>2013-08-29T18:37:49Z</time>
      </trkpt>
      <trkpt lat="59.333783996996" lon="17.746973568318">
        <ele>0</ele>
        <time>2013-08-29T18:37:50Z</time>
      </trkpt>
      <trkpt lat="59.334009470106" lon="17.74711756936">
        <ele>0</ele>
        <time>2013-08-29T18:37:53Z</time>
      </trkpt>
      <trkpt lat="59.334087505595" lon="17.74716786076">
        <ele>0</ele>
        <time>2013-08-29T18:37:54Z</time>
      </trkpt>
      <trkpt lat="59.334164954351" lon="17.74722569587">
        <ele>0</ele>
        <time>2013-08-29T18:37:55Z</time>
      </trkpt>
      <trkpt lat="59.334242654564" lon="17.747279591487">
        <ele>0</ele>
        <time>2013-08-29T18:37:56Z</time>
      </trkpt>
      <trkpt lat="59.33432513246" lon="17.747335917855">
        <ele>0</ele>
        <time>2013-08-29T18:37:57Z</time>
      </trkpt>
      <trkpt lat="59.334655546958" lon="17.747578490041">
        <ele>0</ele>
        <time>2013-08-29T18:38:01Z</time>
      </trkpt>
      <trkpt lat="59.334819077827" lon="17.747745625127">
        <ele>0</ele>
        <time>2013-08-29T18:38:03Z</time>
      </trkpt>
      <trkpt lat="59.334973640063" lon="17.747962213423">
        <ele>0</ele>
        <time>2013-08-29T18:38:05Z</time>
      </trkpt>
      <trkpt lat="59.335403715352" lon="17.748703089564">
        <ele>0</ele>
        <time>2013-08-29T18:38:11Z</time>
      </trkpt>
      <trkpt lat="59.335851141174" lon="17.749507081412">
        <ele>0</ele>
        <time>2013-08-29T18:38:17Z</time>
      </trkpt>
      <trkpt lat="59.335921549134" lon="17.749636833224">
        <ele>0</ele>
        <time>2013-08-29T18:38:18Z</time>
      </trkpt>
      <trkpt lat="59.336288843992" lon="17.750443758737">
        <ele>0</ele>
        <time>2013-08-29T18:38:24Z</time>
      </trkpt>
      <trkpt lat="59.336431755387" lon="17.750912474585">
        <ele>0</ele>
        <time>2013-08-29T18:38:27Z</time>
      </trkpt>
      <trkpt lat="59.336490680144" lon="17.751046082071">
        <ele>0</ele>
        <time>2013-08-29T18:38:28Z</time>
      </trkpt>
      <trkpt lat="59.336556478059" lon="17.751177510263">
        <ele>0</ele>
        <time>2013-08-29T18:38:29Z</time>
      </trkpt>
      <trkpt lat="59.336622024517" lon="17.751321259848">
        <ele>0</ele>
        <time>2013-08-29T18:38:30Z</time>
      </trkpt>
      <trkpt lat="59.3366770936" lon="17.751485042174">
        <ele>0</ele>
        <time>2013-08-29T18:38:31Z</time>
      </trkpt>
      <trkpt lat="59.336716153254" lon="17.751661732626">
        <ele>0</ele>
        <time>2013-08-29T18:38:32Z</time>
      </trkpt>
      <trkpt lat="59.336782034988" lon="17.752270677661">
        <ele>0</ele>
        <time>2013-08-29T18:38:35Z</time>
      </trkpt>
      <trkpt lat="59.336794775476" lon="17.752470083062">
        <ele>0</ele>
        <time>2013-08-29T18:38:36Z</time>
      </trkpt>
      <trkpt lat="59.336886222005" lon="17.753388236388">
        <ele>0</ele>
        <time>2013-08-29T18:38:41Z</time>
      </trkpt>
      <trkpt lat="59.336975237783" lon="17.753687470218">
        <ele>0</ele>
        <time>2013-08-29T18:38:43Z</time>
      </trkpt>
      <trkpt lat="59.337040281327" lon="17.753817808763">
        <ele>0</ele>
        <time>2013-08-29T18:38:44Z</time>
      </trkpt>
      <trkpt lat="59.33711127602" lon="17.753936915562">
        <ele>0</ele>
        <time>2013-08-29T18:38:45Z</time>
      </trkpt>
      <trkpt lat="59.337182103075" lon="17.754046969909">
        <ele>0</ele>
        <time>2013-08-29T18:38:46Z</time>
      </trkpt>
      <trkpt lat="59.33725376832" lon="17.754147636528">
        <ele>0</ele>
        <time>2013-08-29T18:38:47Z</time>
      </trkpt>
      <trkpt lat="59.337402882321" lon="17.754358273675">
        <ele>0</ele>
        <time>2013-08-29T18:38:49Z</time>
      </trkpt>
      <trkpt lat="59.337476475403" lon="17.754484588908">
        <ele>0</ele>
        <time>2013-08-29T18:38:50Z</time>
      </trkpt>
      <trkpt lat="59.337591475071" lon="17.754775189381">
        <ele>0</ele>
        <time>2013-08-29T18:38:52Z</time>
      </trkpt>
      <trkpt lat="59.337669678198" lon="17.755082469835">
        <ele>0</ele>
        <time>2013-08-29T18:38:54Z</time>
      </trkpt>
      <trkpt lat="59.337708318757" lon="17.755228482533">
        <ele>0</ele>
        <time>2013-08-29T18:38:55Z</time>
      </trkpt>
      <trkpt lat="59.337752742827" lon="17.755374746688">
        <ele>0</ele>
        <time>2013-08-29T18:38:56Z</time>
      </trkpt>
      <trkpt lat="59.337802447494" lon="17.755520843205">
        <ele>0</ele>
        <time>2013-08-29T18:38:57Z</time>
      </trkpt>
      <trkpt lat="59.337851230152" lon="17.755656797623">
        <ele>0</ele>
        <time>2013-08-29T18:38:58Z</time>
      </trkpt>
      <trkpt lat="59.337899928991" lon="17.755792668222">
        <ele>0</ele>
        <time>2013-08-29T18:38:59Z</time>
      </trkpt>
      <trkpt lat="59.33795030421" lon="17.755929209373">
        <ele>0</ele>
        <time>2013-08-29T18:39:00Z</time>
      </trkpt>
      <trkpt lat="59.338003445456" lon="17.756066421076">
        <ele>0</ele>
        <time>2013-08-29T18:39:01Z</time>
      </trkpt>
      <trkpt lat="59.338261859433" lon="17.756622392503">
        <ele>0</ele>
        <time>2013-08-29T18:39:05Z</time>
      </trkpt>
      <trkpt lat="59.338576264502" lon="17.757149530194">
        <ele>0</ele>
        <time>2013-08-29T18:39:09Z</time>
      </trkpt>
      <trkpt lat="59.339005417782" lon="17.757670884374">
        <ele>0</ele>
        <time>2013-08-29T18:39:14Z</time>
      </trkpt>
      <trkpt lat="59.339316302453" lon="17.758201961558">
        <ele>0</ele>
        <time>2013-08-29T18:39:18Z</time>
      </trkpt>
      <trkpt lat="59.33973983986" lon="17.758976365299">
        <ele>0</ele>
        <time>2013-08-29T18:39:24Z</time>
      </trkpt>
      <trkpt lat="59.339800608635" lon="17.759132855372">
        <ele>0</ele>
        <time>2013-08-29T18:39:25Z</time>
      </trkpt>
      <trkpt lat="59.339905885299" lon="17.759491265416">
        <ele>0</ele>
        <time>2013-08-29T18:39:27Z</time>
      </trkpt>
      <trkpt lat="59.340038486957" lon="17.760048913223">
        <ele>0</ele>
        <time>2013-08-29T18:39:30Z</time>
      </trkpt>
      <trkpt lat="59.340108056727" lon="17.760223005286">
        <ele>0</ele>
        <time>2013-08-29T18:39:31Z</time>
      </trkpt>
      <trkpt lat="59.34045230136" lon="17.760866316111">
        <ele>0</ele>
        <time>2013-08-29T18:39:35Z</time>
      </trkpt>
      <trkpt lat="59.340551962151" lon="17.761011909714">
        <ele>0</ele>
        <time>2013-08-29T18:39:36Z</time>
      </trkpt>
      <trkpt lat="59.340665033982" lon="17.761136213291">
        <ele>0</ele>
        <time>2013-08-29T18:39:37Z</time>
      </trkpt>
      <trkpt lat="59.340788080274" lon="17.761232605141">
        <ele>0</ele>
        <time>2013-08-29T18:39:38Z</time>
      </trkpt>
      <trkpt lat="59.340913976412" lon="17.761317681426">
        <ele>0</ele>
        <time>2013-08-29T18:39:39Z</time>
      </trkpt>
      <trkpt lat="59.341040794559" lon="17.76139865058">
        <ele>0</ele>
        <time>2013-08-29T18:39:40Z</time>
      </trkpt>
      <trkpt lat="59.34117146838" lon="17.761485989978">
        <ele>0</ele>
        <time>2013-08-29T18:39:41Z</time>
      </trkpt>
      <trkpt lat="59.341301723106" lon="17.761577268869">
        <ele>0</ele>
        <time>2013-08-29T18:39:42Z</time>
      </trkpt>
      <trkpt lat="59.341438515714" lon="17.761676845841">
        <ele>0</ele>
        <time>2013-08-29T18:39:43Z</time>
      </trkpt>
      <trkpt lat="59.34156709406" lon="17.761777261003">
        <ele>0</ele>
        <time>2013-08-29T18:39:44Z</time>
      </trkpt>
      <trkpt lat="59.341692738741" lon="17.761885052237">
        <ele>0</ele>
        <time>2013-08-29T18:39:45Z</time>
      </trkpt>
      <trkpt lat="59.341813019006" lon="17.761993933118">
        <ele>0</ele>
        <time>2013-08-29T18:39:46Z</time>
      </trkpt>
      <trkpt lat="59.341937322583" lon="17.762109184243">
        <ele>0</ele>
        <time>2013-08-29T18:39:47Z</time>
      </trkpt>
      <trkpt lat="59.342056094106" lon="17.76222510592">
        <ele>0</ele>
        <time>2013-08-29T18:39:48Z</time>
      </trkpt>
      <trkpt lat="59.342292547505" lon="17.762456278722">
        <ele>0</ele>
        <time>2013-08-29T18:39:50Z</time>
      </trkpt>
      <trkpt lat="59.342411402847" lon="17.762572284218">
        <ele>0</ele>
        <time>2013-08-29T18:39:51Z</time>
      </trkpt>
      <trkpt lat="59.342527324524" lon="17.762686278058">
        <ele>0</ele>
        <time>2013-08-29T18:39:52Z</time>
      </trkpt>
      <trkpt lat="59.342647856246" lon="17.762798511699">
        <ele>0</ele>
        <time>2013-08-29T18:39:53Z</time>
      </trkpt>
      <trkpt lat="59.342770231986" lon="17.762906805847">
        <ele>0</ele>
        <time>2013-08-29T18:39:54Z</time>
      </trkpt>
      <trkpt lat="59.342890344613" lon="17.763012501606">
        <ele>0</ele>
        <time>2013-08-29T18:39:55Z</time>
      </trkpt>
      <trkpt lat="59.343007355937" lon="17.763116520985">
        <ele>0</ele>
        <time>2013-08-29T18:39:56Z</time>
      </trkpt>
      <trkpt lat="59.343578833879" lon="17.763664781064">
        <ele>0</ele>
        <time>2013-08-29T18:40:01Z</time>
      </trkpt>
      <trkpt lat="59.343687044208" lon="17.763767543158">
        <ele>0</ele>
        <time>2013-08-29T18:40:02Z</time>
      </trkpt>
      <trkpt lat="59.344218205211" lon="17.764256962299">
        <ele>0</ele>
        <time>2013-08-29T18:40:07Z</time>
      </trkpt>
      <trkpt lat="59.344312836862" lon="17.764342541498">
        <ele>0</ele>
        <time>2013-08-29T18:40:08Z</time>
      </trkpt>
      <trkpt lat="59.344404199572" lon="17.764417224227">
        <ele>0</ele>
        <time>2013-08-29T18:40:09Z</time>
      </trkpt>
      <trkpt lat="59.344491203694" lon="17.764485285255">
        <ele>0</ele>
        <time>2013-08-29T18:40:10Z</time>
      </trkpt>
      <trkpt lat="59.344576363798" lon="17.76454773041">
        <ele>0</ele>
        <time>2013-08-29T18:40:11Z</time>
      </trkpt>
      <trkpt lat="59.344654399287" lon="17.764606571348">
        <ele>0</ele>
        <time>2013-08-29T18:40:12Z</time>
      </trkpt>
      <trkpt lat="59.344732518595" lon="17.764655354006">
        <ele>0</ele>
        <time>2013-08-29T18:40:13Z</time>
      </trkpt>
      <trkpt lat="59.344809632075" lon="17.764690893262">
        <ele>0</ele>
        <time>2013-08-29T18:40:14Z</time>
      </trkpt>
      <trkpt lat="59.344886577917" lon="17.764718637351">
        <ele>0</ele>
        <time>2013-08-29T18:40:15Z</time>
      </trkpt>
      <trkpt lat="59.344962350293" lon="17.764743447775">
        <ele>0</ele>
        <time>2013-08-29T18:40:16Z</time>
      </trkpt>
      <trkpt lat="59.34503720066" lon="17.764764402525">
        <ele>0</ele>
        <time>2013-08-29T18:40:17Z</time>
      </trkpt>
      <trkpt lat="59.345112553941" lon="17.76478074723">
        <ele>0</ele>
        <time>2013-08-29T18:40:18Z</time>
      </trkpt>
      <trkpt lat="59.345186566118" lon="17.764784267628">
        <ele>0</ele>
        <time>2013-08-29T18:40:19Z</time>
      </trkpt>
      <trkpt lat="59.345259404829" lon="17.764784016171">
        <ele>0</ele>
        <time>2013-08-29T18:40:20Z</time>
      </trkpt>
      <trkpt lat="59.345336685947" lon="17.764782675067">
        <ele>0</ele>
        <time>2013-08-29T18:40:21Z</time>
      </trkpt>
      <trkpt lat="59.345410865762" lon="17.764776472461">
        <ele>0</ele>
        <time>2013-08-29T18:40:22Z</time>
      </trkpt>
      <trkpt lat="59.345484877939" lon="17.764767755285">
        <ele>0</ele>
        <time>2013-08-29T18:40:23Z</time>
      </trkpt>
      <trkpt lat="59.345560063582" lon="17.764751242942">
        <ele>0</ele>
        <time>2013-08-29T18:40:24Z</time>
      </trkpt>
      <trkpt lat="59.34563985927" lon="17.764731796934">
        <ele>0</ele>
        <time>2013-08-29T18:40:25Z</time>
      </trkpt>
      <trkpt lat="59.345805904709" lon="17.764660383146">
        <ele>0</ele>
        <time>2013-08-29T18:40:27Z</time>
      </trkpt>
      <trkpt lat="59.346397415392" lon="17.764324520413">
        <ele>0</ele>
        <time>2013-08-29T18:40:34Z</time>
      </trkpt>
      <trkpt lat="59.346925558911" lon="17.764035680139">
        <ele>0</ele>
        <time>2013-08-29T18:40:40Z</time>
      </trkpt>
      <trkpt lat="59.347015748155" lon="17.763983125626">
        <ele>0</ele>
        <time>2013-08-29T18:40:41Z</time>
      </trkpt>
      <trkpt lat="59.347547831167" lon="17.763653716956">
        <ele>0</ele>
        <time>2013-08-29T18:40:47Z</time>
      </trkpt>
      <trkpt lat="59.347717480823" lon="17.763530251569">
        <ele>0</ele>
        <time>2013-08-29T18:40:49Z</time>
      </trkpt>
      <trkpt lat="59.348102712947" lon="17.763155329182">
        <ele>0</ele>
        <time>2013-08-29T18:40:54Z</time>
      </trkpt>
      <trkpt lat="59.348398761655" lon="17.762859951026">
        <ele>0</ele>
        <time>2013-08-29T18:40:58Z</time>
      </trkpt>
      <trkpt lat="59.348450477978" lon="17.762741598598">
        <ele>0</ele>
        <time>2013-08-29T18:40:59Z</time>
      </trkpt>
      <trkpt lat="59.348465313941" lon="17.762592903692">
        <ele>0</ele>
        <time>2013-08-29T18:41:00Z</time>
      </trkpt>
      <trkpt lat="59.348455507118" lon="17.762434318144">
        <ele>0</ele>
        <time>2013-08-29T18:41:01Z</time>
      </trkpt>
      <trkpt lat="59.348433797997" lon="17.762277576614">
        <ele>0</ele>
        <time>2013-08-29T18:41:02Z</time>
      </trkpt>
      <trkpt lat="59.348408233202" lon="17.762114632478">
        <ele>0</ele>
        <time>2013-08-29T18:41:03Z</time>
      </trkpt>
      <trkpt lat="59.348354840499" lon="17.761781787229">
        <ele>0</ele>
        <time>2013-08-29T18:41:05Z</time>
      </trkpt>
      <trkpt lat="59.348240008469" lon="17.761061949657">
        <ele>0</ele>
        <time>2013-08-29T18:41:10Z</time>
      </trkpt>
      <trkpt lat="59.348122913326" lon="17.760328030493">
        <ele>0</ele>
        <time>2013-08-29T18:41:15Z</time>
      </trkpt>
      <trkpt lat="59.348077399609" lon="17.760000298203">
        <ele>0</ele>
        <time>2013-08-29T18:41:17Z</time>
      </trkpt>
      <trkpt lat="59.348056444859" lon="17.759838192257">
        <ele>0</ele>
        <time>2013-08-29T18:41:18Z</time>
      </trkpt>
      <trkpt lat="59.348035741566" lon="17.75967784651">
        <ele>0</ele>
        <time>2013-08-29T18:41:19Z</time>
      </trkpt>
      <trkpt lat="59.348016044101" lon="17.75951859041">
        <ele>0</ele>
        <time>2013-08-29T18:41:20Z</time>
      </trkpt>
      <trkpt lat="59.347996933369" lon="17.759348689297">
        <ele>0</ele>
        <time>2013-08-29T18:41:21Z</time>
      </trkpt>
      <trkpt lat="59.347913282007" lon="17.758266837464">
        <ele>0</ele>
        <time>2013-08-29T18:41:27Z</time>
      </trkpt>
      <trkpt lat="59.347955359145" lon="17.757312725787">
        <ele>0</ele>
        <time>2013-08-29T18:41:32Z</time>
      </trkpt>
      <trkpt lat="59.347964411597" lon="17.757143662864">
        <ele>0</ele>
        <time>2013-08-29T18:41:33Z</time>
      </trkpt>
      <trkpt lat="59.347974302239" lon="17.756971414819">
        <ele>0</ele>
        <time>2013-08-29T18:41:34Z</time>
      </trkpt>
      <trkpt lat="59.347982432682" lon="17.756803106267">
        <ele>0</ele>
        <time>2013-08-29T18:41:35Z</time>
      </trkpt>
      <trkpt lat="59.34799182041" lon="17.756631780231">
        <ele>0</ele>
        <time>2013-08-29T18:41:36Z</time>
      </trkpt>
      <trkpt lat="59.348015373549" lon="17.756098272296">
        <ele>0</ele>
        <time>2013-08-29T18:41:39Z</time>
      </trkpt>
      <trkpt lat="59.348078489256" lon="17.755013738255">
        <ele>0</ele>
        <time>2013-08-29T18:41:45Z</time>
      </trkpt>
      <trkpt lat="59.34810329968" lon="17.754500933613">
        <ele>0</ele>
        <time>2013-08-29T18:41:48Z</time>
      </trkpt>
      <trkpt lat="59.348156692383" lon="17.753417824495">
        <ele>0</ele>
        <time>2013-08-29T18:41:54Z</time>
      </trkpt>
      <trkpt lat="59.348166247749" lon="17.753237865102">
        <ele>0</ele>
        <time>2013-08-29T18:41:55Z</time>
      </trkpt>
      <trkpt lat="59.34817622221" lon="17.753061342288">
        <ele>0</ele>
        <time>2013-08-29T18:41:56Z</time>
      </trkpt>
      <trkpt lat="59.348181083712" lon="17.752881969628">
        <ele>0</ele>
        <time>2013-08-29T18:41:57Z</time>
      </trkpt>
      <trkpt lat="59.348178652961" lon="17.752701088226">
        <ele>0</ele>
        <time>2013-08-29T18:41:58Z</time>
      </trkpt>
      <trkpt lat="59.348158452582" lon="17.752348545512">
        <ele>0</ele>
        <time>2013-08-29T18:42:00Z</time>
      </trkpt>
      <trkpt lat="59.348057785963" lon="17.751659553332">
        <ele>0</ele>
        <time>2013-08-29T18:42:04Z</time>
      </trkpt>
      <trkpt lat="59.348025850924" lon="17.751486299459">
        <ele>0</ele>
        <time>2013-08-29T18:42:05Z</time>
      </trkpt>
      <trkpt lat="59.34798930584" lon="17.751311704482">
        <ele>0</ele>
        <time>2013-08-29T18:42:06Z</time>
      </trkpt>
      <trkpt lat="59.347949240358" lon="17.751153621848">
        <ele>0</ele>
        <time>2013-08-29T18:42:07Z</time>
      </trkpt>
      <trkpt lat="59.347903475184" lon="17.750995203938">
        <ele>0</ele>
        <time>2013-08-29T18:42:08Z</time>
      </trkpt>
      <trkpt lat="59.347818231261" lon="17.750662777784">
        <ele>0</ele>
        <time>2013-08-29T18:42:10Z</time>
      </trkpt>
      <trkpt lat="59.347759977056" lon="17.750311827631">
        <ele>0</ele>
        <time>2013-08-29T18:42:11Z</time>
      </trkpt>
      <trkpt lat="59.34774287798" lon="17.750129353668">
        <ele>0</ele>
        <time>2013-08-29T18:42:13Z</time>
      </trkpt>
      <trkpt lat="59.347720917402" lon="17.749195693827">
        <ele>0</ele>
        <time>2013-08-29T18:42:18Z</time>
      </trkpt>
      <trkpt lat="59.347797779425" lon="17.748276199397">
        <ele>0</ele>
        <time>2013-08-29T18:42:23Z</time>
      </trkpt>
      <trkpt lat="59.347952090204" lon="17.747095692601">
        <ele>0</ele>
        <time>2013-08-29T18:42:30Z</time>
      </trkpt>
      <trkpt lat="59.348098605816" lon="17.74596086716">
        <ele>0</ele>
        <time>2013-08-29T18:42:37Z</time>
      </trkpt>
      <trkpt lat="59.348125008801" lon="17.745101303315">
        <ele>0</ele>
        <time>2013-08-29T18:42:42Z</time>
      </trkpt>
      <trkpt lat="59.348114028512" lon="17.74416462599">
        <ele>0</ele>
        <time>2013-08-29T18:42:47Z</time>
      </trkpt>
      <trkpt lat="59.348137162556" lon="17.74318645826">
        <ele>0</ele>
        <time>2013-08-29T18:42:52Z</time>
      </trkpt>
      <trkpt lat="59.348142778429" lon="17.743001888822">
        <ele>0</ele>
        <time>2013-08-29T18:42:53Z</time>
      </trkpt>
      <trkpt lat="59.348152417614" lon="17.742827210026">
        <ele>0</ele>
        <time>2013-08-29T18:42:54Z</time>
      </trkpt>
      <trkpt lat="59.348160631876" lon="17.742658230922">
        <ele>0</ele>
        <time>2013-08-29T18:42:55Z</time>
      </trkpt>
      <trkpt lat="59.348168343224" lon="17.742495119148">
        <ele>0</ele>
        <time>2013-08-29T18:42:56Z</time>
      </trkpt>
      <trkpt lat="59.348215533321" lon="17.741780562173">
        <ele>0</ele>
        <time>2013-08-29T18:43:00Z</time>
      </trkpt>
      <trkpt lat="59.348294574638" lon="17.740676749762">
        <ele>0</ele>
        <time>2013-08-29T18:43:06Z</time>
      </trkpt>
      <trkpt lat="59.348328521333" lon="17.740356477363">
        <ele>0</ele>
        <time>2013-08-29T18:43:08Z</time>
      </trkpt>
      <trkpt lat="59.348371269023" lon="17.740221947868">
        <ele>0</ele>
        <time>2013-08-29T18:43:09Z</time>
      </trkpt>
      <trkpt lat="59.348517281721" lon="17.740104265992">
        <ele>0</ele>
        <time>2013-08-29T18:43:11Z</time>
      </trkpt>
      <trkpt lat="59.348806373452" lon="17.74018657625">
        <ele>0</ele>
        <time>2013-08-29T18:43:14Z</time>
      </trkpt>
      <trkpt lat="59.349390005149" lon="17.740328649455">
        <ele>0</ele>
        <time>2013-08-29T18:43:20Z</time>
      </trkpt>
      <trkpt lat="59.3495768377" lon="17.740370391317">
        <ele>0</ele>
        <time>2013-08-29T18:43:22Z</time>
      </trkpt>
      <trkpt lat="59.35011495568" lon="17.740405176202">
        <ele>0</ele>
        <time>2013-08-29T18:43:28Z</time>
      </trkpt>
      <trkpt lat="59.350202714173" lon="17.740400482338">
        <ele>0</ele>
        <time>2013-08-29T18:43:29Z</time>
      </trkpt>
      <trkpt lat="59.350469929145" lon="17.740372486792">
        <ele>0</ele>
        <time>2013-08-29T18:43:32Z</time>
      </trkpt>
      <trkpt lat="59.350565985719" lon="17.740357064096">
        <ele>0</ele>
        <time>2013-08-29T18:43:33Z</time>
      </trkpt>
      <trkpt lat="59.350660365913" lon="17.7403332595">
        <ele>0</ele>
        <time>2013-08-29T18:43:34Z</time>
      </trkpt>
      <trkpt lat="59.350759188514" lon="17.740302833203">
        <ele>0</ele>
        <time>2013-08-29T18:43:35Z</time>
      </trkpt>
      <trkpt lat="59.35085507745" lon="17.740273161277">
        <ele>0</ele>
        <time>2013-08-29T18:43:36Z</time>
      </trkpt>
      <trkpt lat="59.351442481002" lon="17.740038468077">
        <ele>0</ele>
        <time>2013-08-29T18:43:42Z</time>
      </trkpt>
      <trkpt lat="59.352051928951" lon="17.739795309158">
        <ele>0</ele>
        <time>2013-08-29T18:43:48Z</time>
      </trkpt>
      <trkpt lat="59.352594489338" lon="17.739571512428">
        <ele>0</ele>
        <time>2013-08-29T18:43:53Z</time>
      </trkpt>
      <trkpt lat="59.352810993815" lon="17.73948501122">
        <ele>0</ele>
        <time>2013-08-29T18:43:55Z</time>
      </trkpt>
      <trkpt lat="59.353345256121" lon="17.73926289087">
        <ele>0</ele>
        <time>2013-08-29T18:44:00Z</time>
      </trkpt>
      <trkpt lat="59.353771056641" lon="17.739085529866">
        <ele>0</ele>
        <time>2013-08-29T18:44:04Z</time>
      </trkpt>
      <trkpt lat="59.354394670001" lon="17.738842873861">
        <ele>0</ele>
        <time>2013-08-29T18:44:10Z</time>
      </trkpt>
      <trkpt lat="59.354493911697" lon="17.738806747872">
        <ele>0</ele>
        <time>2013-08-29T18:44:11Z</time>
      </trkpt>
      <trkpt lat="59.355102856732" lon="17.738569540102">
        <ele>0</ele>
        <time>2013-08-29T18:44:17Z</time>
      </trkpt>
      <trkpt lat="59.355414411955" lon="17.738451020036">
        <ele>0</ele>
        <time>2013-08-29T18:44:20Z</time>
      </trkpt>
      <trkpt lat="59.355925204941" lon="17.738266953512">
        <ele>0</ele>
        <time>2013-08-29T18:44:25Z</time>
      </trkpt>
      <trkpt lat="59.35633516367" lon="17.738103422643">
        <ele>0</ele>
        <time>2013-08-29T18:44:29Z</time>
      </trkpt>
      <trkpt lat="59.356439602144" lon="17.738062183695">
        <ele>0</ele>
        <time>2013-08-29T18:44:30Z</time>
      </trkpt>
      <trkpt lat="59.356542364238" lon="17.738022202032">
        <ele>0</ele>
        <time>2013-08-29T18:44:31Z</time>
      </trkpt>
      <trkpt lat="59.356645126332" lon="17.737978113238">
        <ele>0</ele>
        <time>2013-08-29T18:44:32Z</time>
      </trkpt>
      <trkpt lat="59.356747804607" lon="17.737935030272">
        <ele>0</ele>
        <time>2013-08-29T18:44:33Z</time>
      </trkpt>
      <trkpt lat="59.357340237299" lon="17.737691955172">
        <ele>0</ele>
        <time>2013-08-29T18:44:39Z</time>
      </trkpt>
      <trkpt lat="59.357436712968" lon="17.73765188969">
        <ele>0</ele>
        <time>2013-08-29T18:44:40Z</time>
      </trkpt>
      <trkpt lat="59.357634609627" lon="17.737576033495">
        <ele>0</ele>
        <time>2013-08-29T18:44:42Z</time>
      </trkpt>
      <trkpt lat="59.357732007305" lon="17.737539320773">
        <ele>0</ele>
        <time>2013-08-29T18:44:43Z</time>
      </trkpt>
      <trkpt lat="59.357826219861" lon="17.737504619707">
        <ele>0</ele>
        <time>2013-08-29T18:44:44Z</time>
      </trkpt>
      <trkpt lat="59.357930323059" lon="17.737466230605">
        <ele>0</ele>
        <time>2013-08-29T18:44:45Z</time>
      </trkpt>
      <trkpt lat="59.358028139832" lon="17.737426081304">
        <ele>0</ele>
        <time>2013-08-29T18:44:46Z</time>
      </trkpt>
      <trkpt lat="59.358126124243" lon="17.737384339442">
        <ele>0</ele>
        <time>2013-08-29T18:44:47Z</time>
      </trkpt>
      <trkpt lat="59.358705900266" lon="17.737159369246">
        <ele>0</ele>
        <time>2013-08-29T18:44:53Z</time>
      </trkpt>
      <trkpt lat="59.358900192708" lon="17.737080747024">
        <ele>0</ele>
        <time>2013-08-29T18:44:55Z</time>
      </trkpt>
      <trkpt lat="59.359098089367" lon="17.736998269128">
        <ele>0</ele>
        <time>2013-08-29T18:44:57Z</time>
      </trkpt>
      <trkpt lat="59.35919339157" lon="17.736957113999">
        <ele>0</ele>
        <time>2013-08-29T18:44:58Z</time>
      </trkpt>
      <trkpt lat="59.359288693773" lon="17.736913695757">
        <ele>0</ele>
        <time>2013-08-29T18:44:59Z</time>
      </trkpt>
      <trkpt lat="59.359383157786" lon="17.736871367162">
        <ele>0</ele>
        <time>2013-08-29T18:45:00Z</time>
      </trkpt>
      <trkpt lat="59.359482818577" lon="17.736829960576">
        <ele>0</ele>
        <time>2013-08-29T18:45:01Z</time>
      </trkpt>
      <trkpt lat="59.359673003888" lon="17.736756283675">
        <ele>0</ele>
        <time>2013-08-29T18:45:03Z</time>
      </trkpt>
      <trkpt lat="59.36024196726" lon="17.736534163325">
        <ele>0</ele>
        <time>2013-08-29T18:45:09Z</time>
      </trkpt>
      <trkpt lat="59.360424273585" lon="17.736454870551">
        <ele>0</ele>
        <time>2013-08-29T18:45:11Z</time>
      </trkpt>
      <trkpt lat="59.360516725942" lon="17.736417403458">
        <ele>0</ele>
        <time>2013-08-29T18:45:12Z</time>
      </trkpt>
      <trkpt lat="59.360609345937" lon="17.736381696564">
        <ele>0</ele>
        <time>2013-08-29T18:45:13Z</time>
      </trkpt>
      <trkpt lat="59.360700708647" lon="17.736343056005">
        <ele>0</ele>
        <time>2013-08-29T18:45:14Z</time>
      </trkpt>
      <trkpt lat="59.360793161004" lon="17.736306259464">
        <ele>0</ele>
        <time>2013-08-29T18:45:15Z</time>
      </trkpt>
      <trkpt lat="59.361263888508" lon="17.736125042786">
        <ele>0</ele>
        <time>2013-08-29T18:45:20Z</time>
      </trkpt>
      <trkpt lat="59.361680133662" lon="17.735850703199">
        <ele>0</ele>
        <time>2013-08-29T18:45:25Z</time>
      </trkpt>
      <trkpt lat="59.361938128544" lon="17.735393135278">
        <ele>0</ele>
        <time>2013-08-29T18:45:29Z</time>
      </trkpt>
      <trkpt lat="59.361992527075" lon="17.735253073729">
        <ele>0</ele>
        <time>2013-08-29T18:45:30Z</time>
      </trkpt>
      <trkpt lat="59.362312212741" lon="17.734375824075">
        <ele>0</ele>
        <time>2013-08-29T18:45:36Z</time>
      </trkpt>
      <trkpt lat="59.362411622075" lon="17.734097796452">
        <ele>0</ele>
        <time>2013-08-29T18:45:38Z</time>
      </trkpt>
      <trkpt lat="59.362455878507" lon="17.73396217731">
        <ele>0</ele>
        <time>2013-08-29T18:45:39Z</time>
      </trkpt>
      <trkpt lat="59.362496363084" lon="17.733834101878">
        <ele>0</ele>
        <time>2013-08-29T18:45:40Z</time>
      </trkpt>
      <trkpt lat="59.362536428566" lon="17.733704685342">
        <ele>0</ele>
        <time>2013-08-29T18:45:41Z</time>
      </trkpt>
      <trkpt lat="59.362574147116" lon="17.733575101168">
        <ele>0</ele>
        <time>2013-08-29T18:45:42Z</time>
      </trkpt>
      <trkpt lat="59.3627867121" lon="17.732744035783">
        <ele>0</ele>
        <time>2013-08-29T18:45:48Z</time>
      </trkpt>
      <trkpt lat="59.363008748631" lon="17.731732005177">
        <ele>0</ele>
        <time>2013-08-29T18:45:54Z</time>
      </trkpt>
      <trkpt lat="59.363046886276" lon="17.731568893403">
        <ele>0</ele>
        <time>2013-08-29T18:45:55Z</time>
      </trkpt>
      <trkpt lat="59.363080246238" lon="17.731399159928">
        <ele>0</ele>
        <time>2013-08-29T18:45:56Z</time>
      </trkpt>
      <trkpt lat="59.363110588716" lon="17.731228504444">
        <ele>0</ele>
        <time>2013-08-29T18:45:57Z</time>
      </trkpt>
      <trkpt lat="59.363189630033" lon="17.730743611529">
        <ele>0</ele>
        <time>2013-08-29T18:46:00Z</time>
      </trkpt>
      <trkpt lat="59.363344359907" lon="17.729645331172">
        <ele>0</ele>
        <time>2013-08-29T18:46:07Z</time>
      </trkpt>
      <trkpt lat="59.363375289118" lon="17.729327573343">
        <ele>0</ele>
        <time>2013-08-29T18:46:09Z</time>
      </trkpt>
      <trkpt lat="59.363428514183" lon="17.728766656595">
        <ele>0</ele>
        <time>2013-08-29T18:46:13Z</time>
      </trkpt>
      <trkpt lat="59.363444188336" lon="17.728634390213">
        <ele>0</ele>
        <time>2013-08-29T18:46:14Z</time>
      </trkpt>
      <trkpt lat="59.363456258272" lon="17.728501788555">
        <ele>0</ele>
        <time>2013-08-29T18:46:15Z</time>
      </trkpt>
      <trkpt lat="59.363469417855" lon="17.728376562969">
        <ele>0</ele>
        <time>2013-08-29T18:46:16Z</time>
      </trkpt>
      <trkpt lat="59.363480230506" lon="17.728267765907">
        <ele>0</ele>
        <time>2013-08-29T18:46:17Z</time>
      </trkpt>
      <trkpt lat="59.363515853581" lon="17.727942464368">
        <ele>0</ele>
        <time>2013-08-29T18:46:20Z</time>
      </trkpt>
      <trkpt lat="59.363538484711" lon="17.72772185276">
        <ele>0</ele>
        <time>2013-08-29T18:46:22Z</time>
      </trkpt>
      <trkpt lat="59.363553069217" lon="17.727609702938">
        <ele>0</ele>
        <time>2013-08-29T18:46:23Z</time>
      </trkpt>
      <trkpt lat="59.363566564076" lon="17.727506940844">
        <ele>0</ele>
        <time>2013-08-29T18:46:24Z</time>
      </trkpt>
      <trkpt lat="59.363577292908" lon="17.727407028596">
        <ele>0</ele>
        <time>2013-08-29T18:46:25Z</time>
      </trkpt>
      <trkpt lat="59.363582405867" lon="17.727327652003">
        <ele>0</ele>
        <time>2013-08-29T18:46:26Z</time>
      </trkpt>
      <trkpt lat="59.363607803024" lon="17.727129084792">
        <ele>0</ele>
        <time>2013-08-29T18:46:30Z</time>
      </trkpt>
      <trkpt lat="59.36368106083" lon="17.726220235375">
        <ele>0</ele>
        <time>2013-08-29T18:49:44Z</time>
      </trkpt>
      <trkpt lat="59.363689023635" lon="17.726126190457">
        <ele>0</ele>
        <time>2013-08-29T18:49:45Z</time>
      </trkpt>
      <trkpt lat="59.363696818802" lon="17.726046646226">
        <ele>0</ele>
        <time>2013-08-29T18:49:46Z</time>
      </trkpt>
      <trkpt lat="59.363707296177" lon="17.725949332367">
        <ele>0</ele>
        <time>2013-08-29T18:49:47Z</time>
      </trkpt>
      <trkpt lat="59.363720707217" lon="17.725843552789">
        <ele>0</ele>
        <time>2013-08-29T18:49:48Z</time>
      </trkpt>
      <trkpt lat="59.363735291723" lon="17.725730732415">
        <ele>0</ele>
        <time>2013-08-29T18:49:49Z</time>
      </trkpt>
      <trkpt lat="59.363744679451" lon="17.725600561508">
        <ele>0</ele>
        <time>2013-08-29T18:49:50Z</time>
      </trkpt>
      <trkpt lat="59.363797233964" lon="17.7251787843">
        <ele>0</ele>
        <time>2013-08-29T18:49:53Z</time>
      </trkpt>
      <trkpt lat="59.363858086558" lon="17.724412008088">
        <ele>0</ele>
        <time>2013-08-29T18:49:58Z</time>
      </trkpt>
      <trkpt lat="59.363939810083" lon="17.723264023064">
        <ele>0</ele>
        <time>2013-08-29T18:50:06Z</time>
      </trkpt>
      <trkpt lat="59.364020276323" lon="17.722224499826">
        <ele>0</ele>
        <time>2013-08-29T18:50:13Z</time>
      </trkpt>
      <trkpt lat="59.364100323468" lon="17.721184389855">
        <ele>0</ele>
        <time>2013-08-29T18:50:20Z</time>
      </trkpt>
      <trkpt lat="59.364179448604" lon="17.720168252118">
        <ele>0</ele>
        <time>2013-08-29T18:50:27Z</time>
      </trkpt>
      <trkpt lat="59.364188333418" lon="17.720051156975">
        <ele>0</ele>
        <time>2013-08-29T18:50:28Z</time>
      </trkpt>
      <trkpt lat="59.364193614015" lon="17.719955854772">
        <ele>0</ele>
        <time>2013-08-29T18:50:29Z</time>
      </trkpt>
      <trkpt lat="59.364200990087" lon="17.719871113763">
        <ele>0</ele>
        <time>2013-08-29T18:50:30Z</time>
      </trkpt>
      <trkpt lat="59.364211802738" lon="17.719801124898">
        <ele>0</ele>
        <time>2013-08-29T18:50:31Z</time>
      </trkpt>
      <trkpt lat="59.364272403875" lon="17.719683862117">
        <ele>0</ele>
        <time>2013-08-29T18:50:35Z</time>
      </trkpt>
      <trkpt lat="59.364376674711" lon="17.719622087514">
        <ele>0</ele>
        <time>2013-08-29T18:50:38Z</time>
      </trkpt>
      <trkpt lat="59.364438868409" lon="17.719615633451">
        <ele>0</ele>
        <time>2013-08-29T18:50:39Z</time>
      </trkpt>
      <trkpt lat="59.364659144741" lon="17.719556624875">
        <ele>0</ele>
        <time>2013-08-29T18:50:42Z</time>
      </trkpt>
      <trkpt lat="59.364736006764" lon="17.71952686913">
        <ele>0</ele>
        <time>2013-08-29T18:50:43Z</time>
      </trkpt>
      <trkpt lat="59.365121155069" lon="17.719286727695">
        <ele>0</ele>
        <time>2013-08-29T18:50:48Z</time>
      </trkpt>
      <trkpt lat="59.365527509581" lon="17.718906273254">
        <ele>0</ele>
        <time>2013-08-29T18:50:54Z</time>
      </trkpt>
      <trkpt lat="59.365907712565" lon="17.718356001519">
        <ele>0</ele>
        <time>2013-08-29T18:51:00Z</time>
      </trkpt>
      <trkpt lat="59.366240306357" lon="17.71767949837">
        <ele>0</ele>
        <time>2013-08-29T18:51:06Z</time>
      </trkpt>
      <trkpt lat="59.36628447897" lon="17.717568102919">
        <ele>0</ele>
        <time>2013-08-29T18:51:07Z</time>
      </trkpt>
      <trkpt lat="59.366327478117" lon="17.717457964753">
        <ele>0</ele>
        <time>2013-08-29T18:51:08Z</time>
      </trkpt>
      <trkpt lat="59.366370561083" lon="17.71734757513">
        <ele>0</ele>
        <time>2013-08-29T18:51:09Z</time>
      </trkpt>
      <trkpt lat="59.366417415904" lon="17.717236179679">
        <ele>0</ele>
        <time>2013-08-29T18:51:10Z</time>
      </trkpt>
      <trkpt lat="59.366511125546" lon="17.717018334098">
        <ele>0</ele>
        <time>2013-08-29T18:51:12Z</time>
      </trkpt>
      <trkpt lat="59.366558818557" lon="17.716914063262">
        <ele>0</ele>
        <time>2013-08-29T18:51:13Z</time>
      </trkpt>
      <trkpt lat="59.366604248455" lon="17.716805769114">
        <ele>0</ele>
        <time>2013-08-29T18:51:14Z</time>
      </trkpt>
      <trkpt lat="59.366650768" lon="17.716698732251">
        <ele>0</ele>
        <time>2013-08-29T18:51:15Z</time>
      </trkpt>
      <trkpt lat="59.366696449355" lon="17.71658230766">
        <ele>0</ele>
        <time>2013-08-29T18:51:16Z</time>
      </trkpt>
      <trkpt lat="59.36678320202" lon="17.716364881174">
        <ele>0</ele>
        <time>2013-08-29T18:51:18Z</time>
      </trkpt>
      <trkpt lat="59.36690809233" lon="17.716041423653">
        <ele>0</ele>
        <time>2013-08-29T18:51:21Z</time>
      </trkpt>
      <trkpt lat="59.366951342934" lon="17.715922819768">
        <ele>0</ele>
        <time>2013-08-29T18:51:22Z</time>
      </trkpt>
      <trkpt lat="59.366998533031" lon="17.715816034362">
        <ele>0</ele>
        <time>2013-08-29T18:51:23Z</time>
      </trkpt>
      <trkpt lat="59.36704304092" lon="17.715704806549">
        <ele>0</ele>
        <time>2013-08-29T18:51:24Z</time>
      </trkpt>
      <trkpt lat="59.367090901569" lon="17.715594165469">
        <ele>0</ele>
        <time>2013-08-29T18:51:25Z</time>
      </trkpt>
      <trkpt lat="59.367425507017" lon="17.714786569404">
        <ele>0</ele>
        <time>2013-08-29T18:51:32Z</time>
      </trkpt>
      <trkpt lat="59.367782743595" lon="17.713940165142">
        <ele>0</ele>
        <time>2013-08-29T18:51:39Z</time>
      </trkpt>
      <trkpt lat="59.367891037743" lon="17.713683427545">
        <ele>0</ele>
        <time>2013-08-29T18:51:41Z</time>
      </trkpt>
      <trkpt lat="59.36825506366" lon="17.712827048822">
        <ele>0</ele>
        <time>2013-08-29T18:51:48Z</time>
      </trkpt>
      <trkpt lat="59.368308288725" lon="17.712700063037">
        <ele>0</ele>
        <time>2013-08-29T18:51:49Z</time>
      </trkpt>
      <trkpt lat="59.368360172686" lon="17.712575088908">
        <ele>0</ele>
        <time>2013-08-29T18:51:50Z</time>
      </trkpt>
      <trkpt lat="59.368413230113" lon="17.712450282417">
        <ele>0</ele>
        <time>2013-08-29T18:51:51Z</time>
      </trkpt>
      <trkpt lat="59.368467377187" lon="17.712331594713">
        <ele>0</ele>
        <time>2013-08-29T18:51:52Z</time>
      </trkpt>
      <trkpt lat="59.368523703555" lon="17.712215924493">
        <ele>0</ele>
        <time>2013-08-29T18:51:53Z</time>
      </trkpt>
      <trkpt lat="59.368636523929" lon="17.711989780831">
        <ele>0</ele>
        <time>2013-08-29T18:51:55Z</time>
      </trkpt>
      <trkpt lat="59.369007255366" lon="17.711351582965">
        <ele>0</ele>
        <time>2013-08-29T18:52:01Z</time>
      </trkpt>
      <trkpt lat="59.369421740321" lon="17.71077700372">
        <ele>0</ele>
        <time>2013-08-29T18:52:07Z</time>
      </trkpt>
      <trkpt lat="59.369896994051" lon="17.71015590493">
        <ele>0</ele>
        <time>2013-08-29T18:52:14Z</time>
      </trkpt>
      <trkpt lat="59.370088939561" lon="17.70991282983">
        <ele>0</ele>
        <time>2013-08-29T18:52:17Z</time>
      </trkpt>
      <trkpt lat="59.370148618689" lon="17.709836303083">
        <ele>0</ele>
        <time>2013-08-29T18:52:18Z</time>
      </trkpt>
      <trkpt lat="59.370209387464" lon="17.709756172119">
        <ele>0</ele>
        <time>2013-08-29T18:52:19Z</time>
      </trkpt>
      <trkpt lat="59.370264372728" lon="17.709680986476">
        <ele>0</ele>
        <time>2013-08-29T18:52:20Z</time>
      </trkpt>
      <trkpt lat="59.370317094879" lon="17.70959515582">
        <ele>0</ele>
        <time>2013-08-29T18:52:21Z</time>
      </trkpt>
      <trkpt lat="59.370475680427" lon="17.709340178422">
        <ele>0</ele>
        <time>2013-08-29T18:52:24Z</time>
      </trkpt>
      <trkpt lat="59.370524546904" lon="17.709254934499">
        <ele>0</ele>
        <time>2013-08-29T18:52:25Z</time>
      </trkpt>
      <trkpt lat="59.370574419209" lon="17.709164242341">
        <ele>0</ele>
        <time>2013-08-29T18:52:26Z</time>
      </trkpt>
      <trkpt lat="59.370623118048" lon="17.709070113604">
        <ele>0</ele>
        <time>2013-08-29T18:52:27Z</time>
      </trkpt>
      <trkpt lat="59.370671984525" lon="17.708979505265">
        <ele>0</ele>
        <time>2013-08-29T18:52:28Z</time>
      </trkpt>
      <trkpt lat="59.370918160928" lon="17.708480027844">
        <ele>0</ele>
        <time>2013-08-29T18:52:33Z</time>
      </trkpt>
      <trkpt lat="59.371290736383" lon="17.707663882241">
        <ele>0</ele>
        <time>2013-08-29T18:52:40Z</time>
      </trkpt>
      <trkpt lat="59.371663898571" lon="17.707050159523">
        <ele>0</ele>
        <time>2013-08-29T18:52:46Z</time>
      </trkpt>
      <trkpt lat="59.372122807596" lon="17.706455547537">
        <ele>0</ele>
        <time>2013-08-29T18:52:53Z</time>
      </trkpt>
      <trkpt lat="59.372190533348" lon="17.706376673858">
        <ele>0</ele>
        <time>2013-08-29T18:52:54Z</time>
      </trkpt>
      <trkpt lat="59.372257001815" lon="17.706293609229">
        <ele>0</ele>
        <time>2013-08-29T18:52:55Z</time>
      </trkpt>
      <trkpt lat="59.372324895205" lon="17.706192439696">
        <ele>0</ele>
        <time>2013-08-29T18:52:56Z</time>
      </trkpt>
      <trkpt lat="59.37238482579" lon="17.706100238796">
        <ele>0</ele>
        <time>2013-08-29T18:52:57Z</time>
      </trkpt>
      <trkpt lat="59.372499574001" lon="17.705902006861">
        <ele>0</ele>
        <time>2013-08-29T18:52:59Z</time>
      </trkpt>
      <trkpt lat="59.372889667627" lon="17.705142941997">
        <ele>0</ele>
        <time>2013-08-29T18:53:06Z</time>
      </trkpt>
      <trkpt lat="59.373224189256" lon="17.704461158251">
        <ele>0</ele>
        <time>2013-08-29T18:53:12Z</time>
      </trkpt>
      <trkpt lat="59.373320078192" lon="17.704238618806">
        <ele>0</ele>
        <time>2013-08-29T18:53:14Z</time>
      </trkpt>
      <trkpt lat="59.373379170587" lon="17.704140885852">
        <ele>0</ele>
        <time>2013-08-29T18:53:15Z</time>
      </trkpt>
      <trkpt lat="59.373438682077" lon="17.704032675523">
        <ele>0</ele>
        <time>2013-08-29T18:53:16Z</time>
      </trkpt>
      <trkpt lat="59.373500540499" lon="17.703930751619">
        <ele>0</ele>
        <time>2013-08-29T18:53:17Z</time>
      </trkpt>
      <trkpt lat="59.373563404749" lon="17.703834359769">
        <ele>0</ele>
        <time>2013-08-29T18:53:18Z</time>
      </trkpt>
      <trkpt lat="59.373816370491" lon="17.703424149583">
        <ele>0</ele>
        <time>2013-08-29T18:53:22Z</time>
      </trkpt>
      <trkpt lat="59.374240243174" lon="17.702689811324">
        <ele>0</ele>
        <time>2013-08-29T18:53:29Z</time>
      </trkpt>
      <trkpt lat="59.374504356843" lon="17.702122859608">
        <ele>0</ele>
        <time>2013-08-29T18:53:34Z</time>
      </trkpt>
      <trkpt lat="59.374549619103" lon="17.701983636249">
        <ele>0</ele>
        <time>2013-08-29T18:53:35Z</time>
      </trkpt>
      <trkpt lat="59.374591193327" lon="17.701856231369">
        <ele>0</ele>
        <time>2013-08-29T18:53:36Z</time>
      </trkpt>
      <trkpt lat="59.374632348456" lon="17.701720444589">
        <ele>0</ele>
        <time>2013-08-29T18:53:37Z</time>
      </trkpt>
      <trkpt lat="59.37466805535" lon="17.701584322533">
        <ele>0</ele>
        <time>2013-08-29T18:53:38Z</time>
      </trkpt>
      <trkpt lat="59.374704768072" lon="17.701444680079">
        <ele>0</ele>
        <time>2013-08-29T18:53:39Z</time>
      </trkpt>
      <trkpt lat="59.374881207067" lon="17.700714281313">
        <ele>0</ele>
        <time>2013-08-29T18:53:44Z</time>
      </trkpt>
      <trkpt lat="59.374988998301" lon="17.699908948361">
        <ele>0</ele>
        <time>2013-08-29T18:53:49Z</time>
      </trkpt>
      <trkpt lat="59.375073404034" lon="17.698705894254">
        <ele>0</ele>
        <time>2013-08-29T18:53:56Z</time>
      </trkpt>
      <trkpt lat="59.375197456154" lon="17.697810455877">
        <ele>0</ele>
        <time>2013-08-29T18:54:01Z</time>
      </trkpt>
      <trkpt lat="59.37538638418" lon="17.696714941547">
        <ele>0</ele>
        <time>2013-08-29T18:54:07Z</time>
      </trkpt>
      <trkpt lat="59.375421420522" lon="17.69653867019">
        <ele>0</ele>
        <time>2013-08-29T18:54:08Z</time>
      </trkpt>
      <trkpt lat="59.375651755134" lon="17.695471989596">
        <ele>0</ele>
        <time>2013-08-29T18:54:14Z</time>
      </trkpt>
      <trkpt lat="59.375895836062" lon="17.694652407414">
        <ele>0</ele>
        <time>2013-08-29T18:54:19Z</time>
      </trkpt>
      <trkpt lat="59.376255503391" lon="17.693948327814">
        <ele>0</ele>
        <time>2013-08-29T18:54:24Z</time>
      </trkpt>
      <trkpt lat="59.376613661978" lon="17.693557563636">
        <ele>0</ele>
        <time>2013-08-29T18:54:28Z</time>
      </trkpt>
      <trkpt lat="59.376820443451" lon="17.693412975861">
        <ele>0</ele>
        <time>2013-08-29T18:54:30Z</time>
      </trkpt>
      <trkpt lat="59.376919098414" lon="17.693343238453">
        <ele>0</ele>
        <time>2013-08-29T18:54:31Z</time>
      </trkpt>
      <trkpt lat="59.377018507748" lon="17.693271657027">
        <ele>0</ele>
        <time>2013-08-29T18:54:32Z</time>
      </trkpt>
      <trkpt lat="59.377120012557" lon="17.693198231583">
        <ele>0</ele>
        <time>2013-08-29T18:54:33Z</time>
      </trkpt>
      <trkpt lat="59.377219170434" lon="17.693120196094">
        <ele>0</ele>
        <time>2013-08-29T18:54:34Z</time>
      </trkpt>
      <trkpt lat="59.377703392797" lon="17.692659359232">
        <ele>0</ele>
        <time>2013-08-29T18:54:39Z</time>
      </trkpt>
      <trkpt lat="59.378262968441" lon="17.692048402541">
        <ele>0</ele>
        <time>2013-08-29T18:54:45Z</time>
      </trkpt>
      <trkpt lat="59.378806953751" lon="17.691445576293">
        <ele>0</ele>
        <time>2013-08-29T18:54:51Z</time>
      </trkpt>
      <trkpt lat="59.378894041692" lon="17.691344993493">
        <ele>0</ele>
        <time>2013-08-29T18:54:52Z</time>
      </trkpt>
      <trkpt lat="59.379400643728" lon="17.690756584113">
        <ele>0</ele>
        <time>2013-08-29T18:54:58Z</time>
      </trkpt>
      <trkpt lat="59.379562665855" lon="17.690562124033">
        <ele>0</ele>
        <time>2013-08-29T18:55:00Z</time>
      </trkpt>
      <trkpt lat="59.379797359055" lon="17.690275882148">
        <ele>0</ele>
        <time>2013-08-29T18:55:03Z</time>
      </trkpt>
      <trkpt lat="59.379874975449" lon="17.690174796434">
        <ele>0</ele>
        <time>2013-08-29T18:55:04Z</time>
      </trkpt>
      <trkpt lat="59.379953010938" lon="17.690075470919">
        <ele>0</ele>
        <time>2013-08-29T18:55:05Z</time>
      </trkpt>
      <trkpt lat="59.380034231549" lon="17.689970194255">
        <ele>0</ele>
        <time>2013-08-29T18:55:06Z</time>
      </trkpt>
      <trkpt lat="59.380115116884" lon="17.689863827944">
        <ele>0</ele>
        <time>2013-08-29T18:55:07Z</time>
      </trkpt>
      <trkpt lat="59.380603530197" lon="17.689221187671">
        <ele>0</ele>
        <time>2013-08-29T18:55:13Z</time>
      </trkpt>
      <trkpt lat="59.380685756636" lon="17.689097051732">
        <ele>0</ele>
        <time>2013-08-29T18:55:14Z</time>
      </trkpt>
      <trkpt lat="59.381130332612" lon="17.688445694283">
        <ele>0</ele>
        <time>2013-08-29T18:55:19Z</time>
      </trkpt>
      <trkpt lat="59.381220270399" lon="17.688315607195">
        <ele>0</ele>
        <time>2013-08-29T18:55:20Z</time>
      </trkpt>
      <trkpt lat="59.381311633109" lon="17.688178227854">
        <ele>0</ele>
        <time>2013-08-29T18:55:21Z</time>
      </trkpt>
      <trkpt lat="59.38140207381" lon="17.688051325888">
        <ele>0</ele>
        <time>2013-08-29T18:55:22Z</time>
      </trkpt>
      <trkpt lat="59.381494777624" lon="17.687925597388">
        <ele>0</ele>
        <time>2013-08-29T18:55:23Z</time>
      </trkpt>
      <trkpt lat="59.381590079827" lon="17.687807328779">
        <ele>0</ele>
        <time>2013-08-29T18:55:24Z</time>
      </trkpt>
      <trkpt lat="59.381682364546" lon="17.687691658559">
        <ele>0</ele>
        <time>2013-08-29T18:55:25Z</time>
      </trkpt>
      <trkpt lat="59.381779175491" lon="17.687579341099">
        <ele>0</ele>
        <time>2013-08-29T18:55:26Z</time>
      </trkpt>
      <trkpt lat="59.381877830454" lon="17.687468867657">
        <ele>0</ele>
        <time>2013-08-29T18:55:27Z</time>
      </trkpt>
      <trkpt lat="59.382291309581" lon="17.687091849795">
        <ele>0</ele>
        <time>2013-08-29T18:55:31Z</time>
      </trkpt>
      <trkpt lat="59.382791625192" lon="17.686666216913">
        <ele>0</ele>
        <time>2013-08-29T18:55:36Z</time>
      </trkpt>
      <trkpt lat="59.382991868783" lon="17.686485922244">
        <ele>0</ele>
        <time>2013-08-29T18:55:38Z</time>
      </trkpt>
      <trkpt lat="59.383436193302" lon="17.685968507557">
        <ele>0</ele>
        <time>2013-08-29T18:55:43Z</time>
      </trkpt>
      <trkpt lat="59.38393340761" lon="17.68522478157">
        <ele>0</ele>
        <time>2013-08-29T18:55:49Z</time>
      </trkpt>
      <trkpt lat="59.384362393252" lon="17.684544841842">
        <ele>0</ele>
        <time>2013-08-29T18:55:54Z</time>
      </trkpt>
      <trkpt lat="59.384620220496" lon="17.684165141772">
        <ele>0</ele>
        <time>2013-08-29T18:55:57Z</time>
      </trkpt>
      <trkpt lat="59.385097150606" lon="17.68367329188">
        <ele>0</ele>
        <time>2013-08-29T18:56:02Z</time>
      </trkpt>
      <trkpt lat="59.385196224664" lon="17.683595256391">
        <ele>0</ele>
        <time>2013-08-29T18:56:03Z</time>
      </trkpt>
      <trkpt lat="59.385295885455" lon="17.683523088232">
        <ele>0</ele>
        <time>2013-08-29T18:56:04Z</time>
      </trkpt>
      <trkpt lat="59.38539604916" lon="17.683454440471">
        <ele>0</ele>
        <time>2013-08-29T18:56:05Z</time>
      </trkpt>
      <trkpt lat="59.385494033571" lon="17.683398952293">
        <ele>0</ele>
        <time>2013-08-29T18:56:06Z</time>
      </trkpt>
      <trkpt lat="59.385592604715" lon="17.683344637581">
        <ele>0</ele>
        <time>2013-08-29T18:56:07Z</time>
      </trkpt>
      <trkpt lat="59.385694528619" lon="17.683289065584">
        <ele>0</ele>
        <time>2013-08-29T18:56:08Z</time>
      </trkpt>
      <trkpt lat="59.385795949609" lon="17.683231649569">
        <ele>0</ele>
        <time>2013-08-29T18:56:09Z</time>
      </trkpt>
      <trkpt lat="59.385898292608" lon="17.68317373064">
        <ele>0</ele>
        <time>2013-08-29T18:56:10Z</time>
      </trkpt>
      <trkpt lat="59.385998791589" lon="17.683115727892">
        <ele>0</ele>
        <time>2013-08-29T18:56:11Z</time>
      </trkpt>
      <trkpt lat="59.386298444514" lon="17.682939540354">
        <ele>0</ele>
        <time>2013-08-29T18:56:14Z</time>
      </trkpt>
      <trkpt lat="59.386592230109" lon="17.682732339786">
        <ele>0</ele>
        <time>2013-08-29T18:56:17Z</time>
      </trkpt>
      <trkpt lat="59.386684598647" lon="17.682636367031">
        <ele>0</ele>
        <time>2013-08-29T18:56:18Z</time>
      </trkpt>
      <trkpt lat="59.386772608597" lon="17.682524301028">
        <ele>0</ele>
        <time>2013-08-29T18:56:19Z</time>
      </trkpt>
      <trkpt lat="59.386853326294" lon="17.682395974139">
        <ele>0</ele>
        <time>2013-08-29T18:56:20Z</time>
      </trkpt>
      <trkpt lat="59.386930355955" lon="17.682254739124">
        <ele>0</ele>
        <time>2013-08-29T18:56:21Z</time>
      </trkpt>
      <trkpt lat="59.387071758608" lon="17.681948213041">
        <ele>0</ele>
        <time>2013-08-29T18:56:23Z</time>
      </trkpt>
      <trkpt lat="59.38719564309" lon="17.681597598164">
        <ele>0</ele>
        <time>2013-08-29T18:56:25Z</time>
      </trkpt>
      <trkpt lat="59.387306032713" lon="17.681249916952">
        <ele>0</ele>
        <time>2013-08-29T18:56:27Z</time>
      </trkpt>
      <trkpt lat="59.387630328424" lon="17.680195557751">
        <ele>0</ele>
        <time>2013-08-29T18:56:33Z</time>
      </trkpt>
      <trkpt lat="59.387965269148" lon="17.679134744487">
        <ele>0</ele>
        <time>2013-08-29T18:56:39Z</time>
      </trkpt>
      <trkpt lat="59.388131985139" lon="17.678602829113">
        <ele>0</ele>
        <time>2013-08-29T18:56:42Z</time>
      </trkpt>
      <trkpt lat="59.388444294733" lon="17.677552241767">
        <ele>0</ele>
        <time>2013-08-29T18:56:48Z</time>
      </trkpt>
      <trkpt lat="59.388488299708" lon="17.677377060057">
        <ele>0</ele>
        <time>2013-08-29T18:56:49Z</time>
      </trkpt>
      <trkpt lat="59.388719723967" lon="17.676321862666">
        <ele>0</ele>
        <time>2013-08-29T18:56:55Z</time>
      </trkpt>
      <trkpt lat="59.3887538383" lon="17.676152632105">
        <ele>0</ele>
        <time>2013-08-29T18:56:56Z</time>
      </trkpt>
      <trkpt lat="59.38895584209" lon="17.675153006711">
        <ele>0</ele>
        <time>2013-08-29T18:57:02Z</time>
      </trkpt>
      <trkpt lat="59.389021975281" lon="17.674831477027">
        <ele>0</ele>
        <time>2013-08-29T18:57:04Z</time>
      </trkpt>
      <trkpt lat="59.389247699848" lon="17.673858589894">
        <ele>0</ele>
        <time>2013-08-29T18:57:10Z</time>
      </trkpt>
      <trkpt lat="59.389287849149" lon="17.673702351278">
        <ele>0</ele>
        <time>2013-08-29T18:57:11Z</time>
      </trkpt>
      <trkpt lat="59.389525056919" lon="17.672741534081">
        <ele>0</ele>
        <time>2013-08-29T18:57:17Z</time>
      </trkpt>
      <trkpt lat="59.389641397691" lon="17.672274578432">
        <ele>0</ele>
        <time>2013-08-29T18:57:20Z</time>
      </trkpt>
      <trkpt lat="59.389762264689" lon="17.671792535363">
        <ele>0</ele>
        <time>2013-08-29T18:57:23Z</time>
      </trkpt>
      <trkpt lat="59.389802162533" lon="17.671635626195">
        <ele>0</ele>
        <time>2013-08-29T18:57:24Z</time>
      </trkpt>
      <trkpt lat="59.389842563291" lon="17.671467401462">
        <ele>0</ele>
        <time>2013-08-29T18:57:25Z</time>
      </trkpt>
      <trkpt lat="59.389880617117" lon="17.671305463154">
        <ele>0</ele>
        <time>2013-08-29T18:57:26Z</time>
      </trkpt>
      <trkpt lat="59.389919090038" lon="17.671134556213">
        <ele>0</ele>
        <time>2013-08-29T18:57:27Z</time>
      </trkpt>
      <trkpt lat="59.389953874923" lon="17.670961553797">
        <ele>0</ele>
        <time>2013-08-29T18:57:28Z</time>
      </trkpt>
      <trkpt lat="59.38998849217" lon="17.670787880829">
        <ele>0</ele>
        <time>2013-08-29T18:57:29Z</time>
      </trkpt>
      <trkpt lat="59.390020427209" lon="17.670614794594">
        <ele>0</ele>
        <time>2013-08-29T18:57:30Z</time>
      </trkpt>
      <trkpt lat="59.390051188782" lon="17.670431733898">
        <ele>0</ele>
        <time>2013-08-29T18:57:31Z</time>
      </trkpt>
      <trkpt lat="59.390076250663" lon="17.670253115609">
        <ele>0</ele>
        <time>2013-08-29T18:57:32Z</time>
      </trkpt>
      <trkpt lat="59.390138109085" lon="17.669701754227">
        <ele>0</ele>
        <time>2013-08-29T18:57:35Z</time>
      </trkpt>
      <trkpt lat="59.390221341352" lon="17.668567012605">
        <ele>0</ele>
        <time>2013-08-29T18:57:41Z</time>
      </trkpt>
      <trkpt lat="59.390231399632" lon="17.668377414027">
        <ele>0</ele>
        <time>2013-08-29T18:57:42Z</time>
      </trkpt>
      <trkpt lat="59.390334916097" lon="17.667255161436">
        <ele>0</ele>
        <time>2013-08-29T18:57:48Z</time>
      </trkpt>
      <trkpt lat="59.390520156087" lon="17.666223684822">
        <ele>0</ele>
        <time>2013-08-29T18:57:54Z</time>
      </trkpt>
      <trkpt lat="59.390555360067" lon="17.666069709319">
        <ele>0</ele>
        <time>2013-08-29T18:57:55Z</time>
      </trkpt>
      <trkpt lat="59.390593749169" lon="17.665908357744">
        <ele>0</ele>
        <time>2013-08-29T18:57:56Z</time>
      </trkpt>
      <trkpt lat="59.390634066108" lon="17.665747006169">
        <ele>0</ele>
        <time>2013-08-29T18:57:57Z</time>
      </trkpt>
      <trkpt lat="59.39067496978" lon="17.665578278522">
        <ele>0</ele>
        <time>2013-08-29T18:57:58Z</time>
      </trkpt>
      <trkpt lat="59.390713945615" lon="17.66541667549">
        <ele>0</ele>
        <time>2013-08-29T18:57:59Z</time>
      </trkpt>
      <trkpt lat="59.390754262554" lon="17.665265298376">
        <ele>0</ele>
        <time>2013-08-29T18:58:00Z</time>
      </trkpt>
      <trkpt lat="59.390822155944" lon="17.664981235785">
        <ele>0</ele>
        <time>2013-08-29T18:58:02Z</time>
      </trkpt>
      <trkpt lat="59.390854174802" lon="17.664847712118">
        <ele>0</ele>
        <time>2013-08-29T18:58:03Z</time>
      </trkpt>
      <trkpt lat="59.390885104013" lon="17.6647117577">
        <ele>0</ele>
        <time>2013-08-29T18:58:04Z</time>
      </trkpt>
      <trkpt lat="59.390919469803" lon="17.664578820766">
        <ele>0</ele>
        <time>2013-08-29T18:58:05Z</time>
      </trkpt>
      <trkpt lat="59.390955847249" lon="17.664444123633">
        <ele>0</ele>
        <time>2013-08-29T18:58:06Z</time>
      </trkpt>
      <trkpt lat="59.391090628201" lon="17.663893265165">
        <ele>0</ele>
        <time>2013-08-29T18:58:10Z</time>
      </trkpt>
      <trkpt lat="59.391126335095" lon="17.66375705929">
        <ele>0</ele>
        <time>2013-08-29T18:58:11Z</time>
      </trkpt>
      <trkpt lat="59.391160868523" lon="17.663618171207">
        <ele>0</ele>
        <time>2013-08-29T18:58:12Z</time>
      </trkpt>
      <trkpt lat="59.391195234313" lon="17.66347710383">
        <ele>0</ele>
        <time>2013-08-29T18:58:13Z</time>
      </trkpt>
      <trkpt lat="59.391226666438" lon="17.663333857159">
        <ele>0</ele>
        <time>2013-08-29T18:58:14Z</time>
      </trkpt>
      <trkpt lat="59.391398411569" lon="17.662587616602">
        <ele>0</ele>
        <time>2013-08-29T18:58:19Z</time>
      </trkpt>
      <trkpt lat="59.391481057103" lon="17.661727466024">
        <ele>0</ele>
        <time>2013-08-29T18:58:24Z</time>
      </trkpt>
      <trkpt lat="59.391514165608" lon="17.661133021676">
        <ele>0</ele>
        <time>2013-08-29T18:58:27Z</time>
      </trkpt>
      <trkpt lat="59.391528666295" lon="17.660933280999">
        <ele>0</ele>
        <time>2013-08-29T18:58:28Z</time>
      </trkpt>
      <trkpt lat="59.391544591905" lon="17.660730690476">
        <ele>0</ele>
        <time>2013-08-29T18:58:29Z</time>
      </trkpt>
      <trkpt lat="59.391559344049" lon="17.660509575954">
        <ele>0</ele>
        <time>2013-08-29T18:58:30Z</time>
      </trkpt>
      <trkpt lat="59.391575353478" lon="17.660285024853">
        <ele>0</ele>
        <time>2013-08-29T18:58:31Z</time>
      </trkpt>
      <trkpt lat="59.391628243267" lon="17.659609024618">
        <ele>0</ele>
        <time>2013-08-29T18:58:34Z</time>
      </trkpt>
      <trkpt lat="59.391641486669" lon="17.659393777426">
        <ele>0</ele>
        <time>2013-08-29T18:58:35Z</time>
      </trkpt>
      <trkpt lat="59.391654981528" lon="17.659184816659">
        <ele>0</ele>
        <time>2013-08-29T18:58:36Z</time>
      </trkpt>
      <trkpt lat="59.391671158595" lon="17.658971916399">
        <ele>0</ele>
        <time>2013-08-29T18:58:37Z</time>
      </trkpt>
      <trkpt lat="59.391684485816" lon="17.658758261768">
        <ele>0</ele>
        <time>2013-08-29T18:58:38Z</time>
      </trkpt>
      <trkpt lat="59.391742404745" lon="17.657959634336">
        <ele>0</ele>
        <time>2013-08-29T18:58:42Z</time>
      </trkpt>
      <trkpt lat="59.391759503821" lon="17.657779758762">
        <ele>0</ele>
        <time>2013-08-29T18:58:43Z</time>
      </trkpt>
      <trkpt lat="59.391777105811" lon="17.657604409414">
        <ele>0</ele>
        <time>2013-08-29T18:58:44Z</time>
      </trkpt>
      <trkpt lat="59.391796300362" lon="17.657433921568">
        <ele>0</ele>
        <time>2013-08-29T18:58:45Z</time>
      </trkpt>
      <trkpt lat="59.391873246204" lon="17.656779211359">
        <ele>0</ele>
        <time>2013-08-29T18:58:49Z</time>
      </trkpt>
      <trkpt lat="59.391926555088" lon="17.656323738913">
        <ele>0</ele>
        <time>2013-08-29T18:58:52Z</time>
      </trkpt>
      <trkpt lat="59.391950946417" lon="17.656173702903">
        <ele>0</ele>
        <time>2013-08-29T18:58:53Z</time>
      </trkpt>
      <trkpt lat="59.391973493728" lon="17.656029282766">
        <ele>0</ele>
        <time>2013-08-29T18:58:54Z</time>
      </trkpt>
      <trkpt lat="59.39201104464" lon="17.655891903425">
        <ele>0</ele>
        <time>2013-08-29T18:58:55Z</time>
      </trkpt>
      <trkpt lat="59.392069634121" lon="17.655805066941">
        <ele>0</ele>
        <time>2013-08-29T18:58:56Z</time>
      </trkpt>
      <trkpt lat="59.39212420029" lon="17.655727282909">
        <ele>0</ele>
        <time>2013-08-29T18:58:57Z</time>
      </trkpt>
      <trkpt lat="59.39216694798" lon="17.655625610462">
        <ele>0</ele>
        <time>2013-08-29T18:58:58Z</time>
      </trkpt>
      <trkpt lat="59.392211791145" lon="17.655404160664">
        <ele>0</ele>
        <time>2013-08-29T18:59:00Z</time>
      </trkpt>
      <trkpt lat="59.392220759778" lon="17.654926895278">
        <ele>0</ele>
        <time>2013-08-29T18:59:04Z</time>
      </trkpt>
      <trkpt lat="59.392181364848" lon="17.654696895942">
        <ele>0</ele>
        <time>2013-08-29T18:59:06Z</time>
      </trkpt>
      <trkpt lat="59.392176670984" lon="17.654575023116">
        <ele>0</ele>
        <time>2013-08-29T18:59:07Z</time>
      </trkpt>
      <trkpt lat="59.392183544142" lon="17.654456083955">
        <ele>0</ele>
        <time>2013-08-29T18:59:08Z</time>
      </trkpt>
      <trkpt lat="59.392297118887" lon="17.654203788765">
        <ele>0</ele>
        <time>2013-08-29T18:59:11Z</time>
      </trkpt>
      <trkpt lat="59.392346655916" lon="17.653927102246">
        <ele>0</ele>
        <time>2013-08-29T18:59:14Z</time>
      </trkpt>
      <trkpt lat="59.392350343952" lon="17.653838337925">
        <ele>0</ele>
        <time>2013-08-29T18:59:15Z</time>
      </trkpt>
      <trkpt lat="59.392178263545" lon="17.65356550708">
        <ele>0</ele>
        <time>2013-08-29T19:02:30Z</time>
      </trkpt>
      <trkpt lat="59.392160410098" lon="17.653556454628">
        <ele>0</ele>
        <time>2013-08-29T19:02:31Z</time>
      </trkpt>
      <trkpt lat="59.392048176457" lon="17.653514628947">
        <ele>0</ele>
        <time>2013-08-29T19:02:35Z</time>
      </trkpt>
      <trkpt lat="59.391932841513" lon="17.653444137168">
        <ele>0</ele>
        <time>2013-08-29T19:02:38Z</time>
      </trkpt>
      <trkpt lat="59.391758162717" lon="17.653295106986">
        <ele>0</ele>
        <time>2013-08-29T19:02:41Z</time>
      </trkpt>
      <trkpt lat="59.39169337063" lon="17.653255628237">
        <ele>0</ele>
        <time>2013-08-29T19:02:42Z</time>
      </trkpt>
      <trkpt lat="59.391625309602" lon="17.653213634918">
        <ele>0</ele>
        <time>2013-08-29T19:02:43Z</time>
      </trkpt>
      <trkpt lat="59.391561271886" lon="17.653176000187">
        <ele>0</ele>
        <time>2013-08-29T19:02:44Z</time>
      </trkpt>
      <trkpt lat="59.39148885227" lon="17.653136018524">
        <ele>0</ele>
        <time>2013-08-29T19:02:45Z</time>
      </trkpt>
      <trkpt lat="59.391257344192" lon="17.65299637607">
        <ele>0</ele>
        <time>2013-08-29T19:02:48Z</time>
      </trkpt>
      <trkpt lat="59.390837075726" lon="17.652756821368">
        <ele>0</ele>
        <time>2013-08-29T19:02:53Z</time>
      </trkpt>
      <trkpt lat="59.390746048292" lon="17.652707871072">
        <ele>0</ele>
        <time>2013-08-29T19:02:54Z</time>
      </trkpt>
      <trkpt lat="59.390653512116" lon="17.652643330442">
        <ele>0</ele>
        <time>2013-08-29T19:02:55Z</time>
      </trkpt>
      <trkpt lat="59.390559551017" lon="17.65258398659">
        <ele>0</ele>
        <time>2013-08-29T19:02:56Z</time>
      </trkpt>
      <trkpt lat="59.390462991529" lon="17.652519948874">
        <ele>0</ele>
        <time>2013-08-29T19:02:57Z</time>
      </trkpt>
      <trkpt lat="59.390267106526" lon="17.652367649751">
        <ele>0</ele>
        <time>2013-08-29T19:02:59Z</time>
      </trkpt>
      <trkpt lat="59.39016786483" lon="17.652304450225">
        <ele>0</ele>
        <time>2013-08-29T19:03:00Z</time>
      </trkpt>
      <trkpt lat="59.390075328654" lon="17.652240831604">
        <ele>0</ele>
        <time>2013-08-29T19:03:01Z</time>
      </trkpt>
      <trkpt lat="59.389980026451" lon="17.652193473869">
        <ele>0</ele>
        <time>2013-08-29T19:03:02Z</time>
      </trkpt>
      <trkpt lat="59.389881706764" lon="17.652162460839">
        <ele>0</ele>
        <time>2013-08-29T19:03:03Z</time>
      </trkpt>
      <trkpt lat="59.389781040145" lon="17.652164304857">
        <ele>0</ele>
        <time>2013-08-29T19:03:04Z</time>
      </trkpt>
      <trkpt lat="59.389280053982" lon="17.652232868799">
        <ele>0</ele>
        <time>2013-08-29T19:03:09Z</time>
      </trkpt>
      <trkpt lat="59.38918550615" lon="17.652247537124">
        <ele>0</ele>
        <time>2013-08-29T19:03:10Z</time>
      </trkpt>
      <trkpt lat="59.389097999114" lon="17.65223697593">
        <ele>0</ele>
        <time>2013-08-29T19:03:11Z</time>
      </trkpt>
      <trkpt lat="59.389007558413" lon="17.65225793068">
        <ele>0</ele>
        <time>2013-08-29T19:03:12Z</time>
      </trkpt>
      <trkpt lat="59.388913178219" lon="17.652263714191">
        <ele>0</ele>
        <time>2013-08-29T19:03:13Z</time>
      </trkpt>
      <trkpt lat="59.388833214893" lon="17.652282573466">
        <ele>0</ele>
        <time>2013-08-29T19:03:14Z</time>
      </trkpt>
      <trkpt lat="59.38874629459" lon="17.652302438569">
        <ele>0</ele>
        <time>2013-08-29T19:03:15Z</time>
      </trkpt>
      <trkpt lat="59.388659625744" lon="17.652358681118">
        <ele>0</ele>
        <time>2013-08-29T19:03:16Z</time>
      </trkpt>
      <trkpt lat="59.388569101224" lon="17.65240209936">
        <ele>0</ele>
        <time>2013-08-29T19:03:17Z</time>
      </trkpt>
      <trkpt lat="59.388205494402" lon="17.652653640179">
        <ele>0</ele>
        <time>2013-08-29T19:03:21Z</time>
      </trkpt>
      <trkpt lat="59.38772537917" lon="17.653102407105">
        <ele>0</ele>
        <time>2013-08-29T19:03:26Z</time>
      </trkpt>
      <trkpt lat="59.387626137474" lon="17.65320005624">
        <ele>0</ele>
        <time>2013-08-29T19:03:27Z</time>
      </trkpt>
      <trkpt lat="59.387524045932" lon="17.653292424778">
        <ele>0</ele>
        <time>2013-08-29T19:03:28Z</time>
      </trkpt>
      <trkpt lat="59.387420948562" lon="17.653385547687">
        <ele>0</ele>
        <time>2013-08-29T19:03:29Z</time>
      </trkpt>
      <trkpt lat="59.38731550426" lon="17.653479508786">
        <ele>0</ele>
        <time>2013-08-29T19:03:30Z</time>
      </trkpt>
      <trkpt lat="59.387217687487" lon="17.653556789904">
        <ele>0</ele>
        <time>2013-08-29T19:03:31Z</time>
      </trkpt>
      <trkpt lat="59.387123391112" lon="17.653637339963">
        <ele>0</ele>
        <time>2013-08-29T19:03:32Z</time>
      </trkpt>
      <trkpt lat="59.387029765289" lon="17.653717470927">
        <ele>0</ele>
        <time>2013-08-29T19:03:33Z</time>
      </trkpt>
      <trkpt lat="59.386936055647" lon="17.653800619375">
        <ele>0</ele>
        <time>2013-08-29T19:03:34Z</time>
      </trkpt>
      <trkpt lat="59.386841004901" lon="17.653885192746">
        <ele>0</ele>
        <time>2013-08-29T19:03:35Z</time>
      </trkpt>
      <trkpt lat="59.386539843234" lon="17.654033971471">
        <ele>0</ele>
        <time>2013-08-29T19:03:38Z</time>
      </trkpt>
      <trkpt lat="59.386355273796" lon="17.653892568818">
        <ele>0</ele>
        <time>2013-08-29T19:03:40Z</time>
      </trkpt>
      <trkpt lat="59.386144469011" lon="17.653479760243">
        <ele>0</ele>
        <time>2013-08-29T19:03:43Z</time>
      </trkpt>
      <trkpt lat="59.385799553826" lon="17.652673002368">
        <ele>0</ele>
        <time>2013-08-29T19:03:49Z</time>
      </trkpt>
      <trkpt lat="59.385489339707" lon="17.651786700262">
        <ele>0</ele>
        <time>2013-08-29T19:03:55Z</time>
      </trkpt>
      <trkpt lat="59.38541616572" lon="17.651669940395">
        <ele>0</ele>
        <time>2013-08-29T19:03:56Z</time>
      </trkpt>
      <trkpt lat="59.385239978182" lon="17.651569106138">
        <ele>0</ele>
        <time>2013-08-29T19:03:58Z</time>
      </trkpt>
      <trkpt lat="59.385146436178" lon="17.651561562428">
        <ele>0</ele>
        <time>2013-08-29T19:03:59Z</time>
      </trkpt>
      <trkpt lat="59.385050128147" lon="17.651549911587">
        <ele>0</ele>
        <time>2013-08-29T19:04:00Z</time>
      </trkpt>
      <trkpt lat="59.384958430161" lon="17.651532812511">
        <ele>0</ele>
        <time>2013-08-29T19:04:01Z</time>
      </trkpt>
      <trkpt lat="59.384860864845" lon="17.651525436439">
        <ele>0</ele>
        <time>2013-08-29T19:04:02Z</time>
      </trkpt>
      <trkpt lat="59.384767741936" lon="17.651509091734">
        <ele>0</ele>
        <time>2013-08-29T19:04:03Z</time>
      </trkpt>
      <trkpt lat="59.384291482378" lon="17.65132921616">
        <ele>0</ele>
        <time>2013-08-29T19:04:08Z</time>
      </trkpt>
      <trkpt lat="59.38384791223" lon="17.650916659042">
        <ele>0</ele>
        <time>2013-08-29T19:04:13Z</time>
      </trkpt>
      <trkpt lat="59.383481036467" lon="17.650523464113">
        <ele>0</ele>
        <time>2013-08-29T19:04:17Z</time>
      </trkpt>
      <trkpt lat="59.383395373449" lon="17.650409386454">
        <ele>0</ele>
        <time>2013-08-29T19:04:18Z</time>
      </trkpt>
      <trkpt lat="59.383310716259" lon="17.650303103962">
        <ele>0</ele>
        <time>2013-08-29T19:04:19Z</time>
      </trkpt>
      <trkpt lat="59.383226729621" lon="17.650188607208">
        <ele>0</ele>
        <time>2013-08-29T19:04:20Z</time>
      </trkpt>
      <trkpt lat="59.383141234241" lon="17.650072014979">
        <ele>0</ele>
        <time>2013-08-29T19:04:21Z</time>
      </trkpt>
      <trkpt lat="59.382960185201" lon="17.64982298873">
        <ele>0</ele>
        <time>2013-08-29T19:04:23Z</time>
      </trkpt>
      <trkpt lat="59.382874522183" lon="17.649696338221">
        <ele>0</ele>
        <time>2013-08-29T19:04:24Z</time>
      </trkpt>
      <trkpt lat="59.382787434242" lon="17.64956314983">
        <ele>0</ele>
        <time>2013-08-29T19:04:25Z</time>
      </trkpt>
      <trkpt lat="59.382701016853" lon="17.649422417729">
        <ele>0</ele>
        <time>2013-08-29T19:04:26Z</time>
      </trkpt>
      <trkpt lat="59.382619628604" lon="17.649284116379">
        <ele>0</ele>
        <time>2013-08-29T19:04:27Z</time>
      </trkpt>
      <trkpt lat="59.382535725785" lon="17.649144390106">
        <ele>0</ele>
        <time>2013-08-29T19:04:28Z</time>
      </trkpt>
      <trkpt lat="59.382378229884" lon="17.648859489325">
        <ele>0</ele>
        <time>2013-08-29T19:04:29Z</time>
      </trkpt>
      <trkpt lat="59.382302708965" lon="17.648721690889">
        <ele>0</ele>
        <time>2013-08-29T19:04:31Z</time>
      </trkpt>
      <trkpt lat="59.382032308871" lon="17.648169575136">
        <ele>0</ele>
        <time>2013-08-29T19:04:35Z</time>
      </trkpt>
      <trkpt lat="59.381963158196" lon="17.648037224935">
        <ele>0</ele>
        <time>2013-08-29T19:04:36Z</time>
      </trkpt>
      <trkpt lat="59.381897276462" lon="17.647910406788">
        <ele>0</ele>
        <time>2013-08-29T19:04:37Z</time>
      </trkpt>
      <trkpt lat="59.381837429696" lon="17.647810410721">
        <ele>0</ele>
        <time>2013-08-29T19:04:38Z</time>
      </trkpt>
      <trkpt lat="59.38177087741" lon="17.647753413801">
        <ele>0</ele>
        <time>2013-08-29T19:04:39Z</time>
      </trkpt>
      <trkpt lat="59.381699966536" lon="17.647719215649">
        <ele>0</ele>
        <time>2013-08-29T19:04:40Z</time>
      </trkpt>
      <trkpt lat="59.381622098685" lon="17.647719886201">
        <ele>0</ele>
        <time>2013-08-29T19:04:41Z</time>
      </trkpt>
      <trkpt lat="59.381555546399" lon="17.647696584519">
        <ele>0</ele>
        <time>2013-08-29T19:04:42Z</time>
      </trkpt>
      <trkpt lat="59.381495699633" lon="17.64767554595">
        <ele>0</ele>
        <time>2013-08-29T19:04:43Z</time>
      </trkpt>
      <trkpt lat="59.381434847039" lon="17.64767554595">
        <ele>0</ele>
        <time>2013-08-29T19:04:44Z</time>
      </trkpt>
      <trkpt lat="59.381372318065" lon="17.64768644242">
        <ele>0</ele>
        <time>2013-08-29T19:04:45Z</time>
      </trkpt>
      <trkpt lat="59.381310794919" lon="17.647673366656">
        <ele>0</ele>
        <time>2013-08-29T19:04:46Z</time>
      </trkpt>
      <trkpt lat="59.381243991176" lon="17.64768308966">
        <ele>0</ele>
        <time>2013-08-29T19:04:47Z</time>
      </trkpt>
      <trkpt lat="59.381180121098" lon="17.647688621714">
        <ele>0</ele>
        <time>2013-08-29T19:04:48Z</time>
      </trkpt>
      <trkpt lat="59.381114323183" lon="17.647689627542">
        <ele>0</ele>
        <time>2013-08-29T19:04:49Z</time>
      </trkpt>
      <trkpt lat="59.380909972461" lon="17.647747295014">
        <ele>0</ele>
        <time>2013-08-29T19:04:52Z</time>
      </trkpt>
      <trkpt lat="59.380846605297" lon="17.647809153436">
        <ele>0</ele>
        <time>2013-08-29T19:04:53Z</time>
      </trkpt>
      <trkpt lat="59.380782986676" lon="17.647870928039">
        <ele>0</ele>
        <time>2013-08-29T19:04:54Z</time>
      </trkpt>
      <trkpt lat="59.380721882625" lon="17.647947790062">
        <ele>0</ele>
        <time>2013-08-29T19:04:55Z</time>
      </trkpt>
      <trkpt lat="59.380605122758" lon="17.648111572388">
        <ele>0</ele>
        <time>2013-08-29T19:04:57Z</time>
      </trkpt>
      <trkpt lat="59.380269930577" lon="17.648689085298">
        <ele>0</ele>
        <time>2013-08-29T19:05:03Z</time>
      </trkpt>
      <trkpt lat="59.380217795159" lon="17.648791679754">
        <ele>0</ele>
        <time>2013-08-29T19:05:04Z</time>
      </trkpt>
      <trkpt lat="59.380167084664" lon="17.648888574518">
        <ele>0</ele>
        <time>2013-08-29T19:05:05Z</time>
      </trkpt>
      <trkpt lat="59.380110003925" lon="17.648993264449">
        <ele>0</ele>
        <time>2013-08-29T19:05:06Z</time>
      </trkpt>
      <trkpt lat="59.380052420272" lon="17.64910968904">
        <ele>0</ele>
        <time>2013-08-29T19:05:07Z</time>
      </trkpt>
      <trkpt lat="59.37994949054" lon="17.649351339217">
        <ele>0</ele>
        <time>2013-08-29T19:05:09Z</time>
      </trkpt>
      <trkpt lat="59.379657297506" lon="17.650025076339">
        <ele>0</ele>
        <time>2013-08-29T19:05:15Z</time>
      </trkpt>
      <trkpt lat="59.379576579809" lon="17.650061453785">
        <ele>0</ele>
        <time>2013-08-29T19:05:16Z</time>
      </trkpt>
      <trkpt lat="59.379421011745" lon="17.649980065536">
        <ele>0</ele>
        <time>2013-08-29T19:05:18Z</time>
      </trkpt>
      <trkpt lat="59.379268209708" lon="17.64982215054">
        <ele>0</ele>
        <time>2013-08-29T19:05:20Z</time>
      </trkpt>
      <trkpt lat="59.37917835574" lon="17.649738247721">
        <ele>0</ele>
        <time>2013-08-29T19:05:21Z</time>
      </trkpt>
      <trkpt lat="59.379093782369" lon="17.649671443978">
        <ele>0</ele>
        <time>2013-08-29T19:05:22Z</time>
      </trkpt>
      <trkpt lat="59.379001330012" lon="17.649596090697">
        <ele>0</ele>
        <time>2013-08-29T19:05:23Z</time>
      </trkpt>
      <trkpt lat="59.378907955646" lon="17.649526856203">
        <ele>0</ele>
        <time>2013-08-29T19:05:24Z</time>
      </trkpt>
      <trkpt lat="59.378817598764" lon="17.649445048859">
        <ele>0</ele>
        <time>2013-08-29T19:05:25Z</time>
      </trkpt>
      <trkpt lat="59.378716010136" lon="17.64935444052">
        <ele>0</ele>
        <time>2013-08-29T19:05:26Z</time>
      </trkpt>
      <trkpt lat="59.378610314377" lon="17.649261736706">
        <ele>0</ele>
        <time>2013-08-29T19:05:27Z</time>
      </trkpt>
      <trkpt lat="59.378502187867" lon="17.64916165682">
        <ele>0</ele>
        <time>2013-08-29T19:05:28Z</time>
      </trkpt>
      <trkpt lat="59.378395989194" lon="17.649067611902">
        <ele>0</ele>
        <time>2013-08-29T19:05:29Z</time>
      </trkpt>
      <trkpt lat="59.378294568204" lon="17.64897222588">
        <ele>0</ele>
        <time>2013-08-29T19:05:30Z</time>
      </trkpt>
      <trkpt lat="59.378189878273" lon="17.648876839858">
        <ele>0</ele>
        <time>2013-08-29T19:05:31Z</time>
      </trkpt>
      <trkpt lat="59.377635750864" lon="17.648379290274">
        <ele>0</ele>
        <time>2013-08-29T19:05:37Z</time>
      </trkpt>
      <trkpt lat="59.377244819048" lon="17.648055413658">
        <ele>0</ele>
        <time>2013-08-29T19:05:41Z</time>
      </trkpt>
      <trkpt lat="59.377140548212" lon="17.647959776179">
        <ele>0</ele>
        <time>2013-08-29T19:05:42Z</time>
      </trkpt>
      <trkpt lat="59.377033176073" lon="17.647866317994">
        <ele>0</ele>
        <time>2013-08-29T19:05:43Z</time>
      </trkpt>
      <trkpt lat="59.376925384839" lon="17.64777612875">
        <ele>0</ele>
        <time>2013-08-29T19:05:44Z</time>
      </trkpt>
      <trkpt lat="59.376813235017" lon="17.647671438819">
        <ele>0</ele>
        <time>2013-08-29T19:05:45Z</time>
      </trkpt>
      <trkpt lat="59.376709467095" lon="17.64757412496">
        <ele>0</ele>
        <time>2013-08-29T19:05:46Z</time>
      </trkpt>
      <trkpt lat="59.376608884295" lon="17.647488797218">
        <ele>0</ele>
        <time>2013-08-29T19:05:47Z</time>
      </trkpt>
      <trkpt lat="59.376410400903" lon="17.647305149789">
        <ele>0</ele>
        <time>2013-08-29T19:05:49Z</time>
      </trkpt>
      <trkpt lat="59.376115358023" lon="17.647051345857">
        <ele>0</ele>
        <time>2013-08-29T19:05:52Z</time>
      </trkpt>
      <trkpt lat="59.376019972001" lon="17.646951014514">
        <ele>0</ele>
        <time>2013-08-29T19:05:53Z</time>
      </trkpt>
      <trkpt lat="59.375931710594" lon="17.646849509705">
        <ele>0</ele>
        <time>2013-08-29T19:05:54Z</time>
      </trkpt>
      <trkpt lat="59.375841269893" lon="17.646751273837">
        <ele>0</ele>
        <time>2013-08-29T19:05:55Z</time>
      </trkpt>
      <trkpt lat="59.375757367074" lon="17.646660833136">
        <ele>0</ele>
        <time>2013-08-29T19:05:56Z</time>
      </trkpt>
      <trkpt lat="59.375530301403" lon="17.646428822144">
        <ele>0</ele>
        <time>2013-08-29T19:05:59Z</time>
      </trkpt>
      <trkpt lat="59.375181111449" lon="17.646174515298">
        <ele>0</ele>
        <time>2013-08-29T19:06:03Z</time>
      </trkpt>
      <trkpt lat="59.37486586819" lon="17.645967230911">
        <ele>0</ele>
        <time>2013-08-29T19:06:06Z</time>
      </trkpt>
      <trkpt lat="59.374751958169" lon="17.645897158227">
        <ele>0</ele>
        <time>2013-08-29T19:06:07Z</time>
      </trkpt>
      <trkpt lat="59.374647016781" lon="17.645817865453">
        <ele>0</ele>
        <time>2013-08-29T19:06:08Z</time>
      </trkpt>
      <trkpt lat="59.374543248859" lon="17.645739913783">
        <ele>0</ele>
        <time>2013-08-29T19:06:09Z</time>
      </trkpt>
      <trkpt lat="59.374437972195" lon="17.645666655977">
        <ele>0</ele>
        <time>2013-08-29T19:06:10Z</time>
      </trkpt>
      <trkpt lat="59.374331605884" lon="17.645589374859">
        <ele>0</ele>
        <time>2013-08-29T19:06:11Z</time>
      </trkpt>
      <trkpt lat="59.374143851324" lon="17.645466747662">
        <ele>0</ele>
        <time>2013-08-29T19:06:13Z</time>
      </trkpt>
      <trkpt lat="59.374058439763" lon="17.645412349131">
        <ele>0</ele>
        <time>2013-08-29T19:06:14Z</time>
      </trkpt>
      <trkpt lat="59.373974117849" lon="17.645350323071">
        <ele>0</ele>
        <time>2013-08-29T19:06:15Z</time>
      </trkpt>
      <trkpt lat="59.373889460659" lon="17.64529005721">
        <ele>0</ele>
        <time>2013-08-29T19:06:16Z</time>
      </trkpt>
      <trkpt lat="59.373804971107" lon="17.645225181304">
        <ele>0</ele>
        <time>2013-08-29T19:06:17Z</time>
      </trkpt>
      <trkpt lat="59.373562985654" lon="17.64503860021">
        <ele>0</ele>
        <time>2013-08-29T19:06:20Z</time>
      </trkpt>
      <trkpt lat="59.373123857913" lon="17.644733918145">
        <ele>0</ele>
        <time>2013-08-29T19:06:25Z</time>
      </trkpt>
      <trkpt lat="59.37274524749" lon="17.644554713123">
        <ele>0</ele>
        <time>2013-08-29T19:06:29Z</time>
      </trkpt>
      <trkpt lat="59.372654890608" lon="17.64463878358">
        <ele>0</ele>
        <time>2013-08-29T19:06:30Z</time>
      </trkpt>
      <trkpt lat="59.372531844316" lon="17.644896610824">
        <ele>0</ele>
        <time>2013-08-29T19:06:32Z</time>
      </trkpt>
      <trkpt lat="59.372404607074" lon="17.645244543493">
        <ele>0</ele>
        <time>2013-08-29T19:06:34Z</time>
      </trkpt>
      <trkpt lat="59.372341407548" lon="17.645435650813">
        <ele>0</ele>
        <time>2013-08-29T19:06:35Z</time>
      </trkpt>
      <trkpt lat="59.372212493926" lon="17.645841753868">
        <ele>0</ele>
        <time>2013-08-29T19:06:37Z</time>
      </trkpt>
      <trkpt lat="59.372141583052" lon="17.646053899757">
        <ele>0</ele>
        <time>2013-08-29T19:06:38Z</time>
      </trkpt>
      <trkpt lat="59.372073186748" lon="17.646269230768">
        <ele>0</ele>
        <time>2013-08-29T19:06:39Z</time>
      </trkpt>
      <trkpt lat="59.372004538987" lon="17.646469641997">
        <ele>0</ele>
        <time>2013-08-29T19:06:40Z</time>
      </trkpt>
      <trkpt lat="59.371941674737" lon="17.646668209208">
        <ele>0</ele>
        <time>2013-08-29T19:06:41Z</time>
      </trkpt>
      <trkpt lat="59.371880654505" lon="17.646870632093">
        <ele>0</ele>
        <time>2013-08-29T19:06:42Z</time>
      </trkpt>
      <trkpt lat="59.371824998689" lon="17.647091746615">
        <ele>0</ele>
        <time>2013-08-29T19:06:43Z</time>
      </trkpt>
      <trkpt lat="59.371782921551" lon="17.647297941355">
        <ele>0</ele>
        <time>2013-08-29T19:06:44Z</time>
      </trkpt>
      <trkpt lat="59.371560382106" lon="17.648205617306">
        <ele>0</ele>
        <time>2013-08-29T19:06:49Z</time>
      </trkpt>
      <trkpt lat="59.37147287507" lon="17.648517843081">
        <ele>0</ele>
        <time>2013-08-29T19:06:51Z</time>
      </trkpt>
      <trkpt lat="59.371421913118" lon="17.648643236305">
        <ele>0</ele>
        <time>2013-08-29T19:06:52Z</time>
      </trkpt>
      <trkpt lat="59.371366592578" lon="17.648761002">
        <ele>0</ele>
        <time>2013-08-29T19:06:53Z</time>
      </trkpt>
      <trkpt lat="59.371306410536" lon="17.648863764094">
        <ele>0</ele>
        <time>2013-08-29T19:06:54Z</time>
      </trkpt>
      <trkpt lat="59.37124907834" lon="17.64894624199">
        <ele>0</ele>
        <time>2013-08-29T19:06:55Z</time>
      </trkpt>
      <trkpt lat="59.371189985945" lon="17.649015225027">
        <ele>0</ele>
        <time>2013-08-29T19:06:56Z</time>
      </trkpt>
      <trkpt lat="59.371128965713" lon="17.649074904155">
        <ele>0</ele>
        <time>2013-08-29T19:06:57Z</time>
      </trkpt>
      <trkpt lat="59.371067023472" lon="17.649129135048">
        <ele>0</ele>
        <time>2013-08-29T19:06:58Z</time>
      </trkpt>
      <trkpt lat="59.371001141738" lon="17.649181941018">
        <ele>0</ele>
        <time>2013-08-29T19:06:59Z</time>
      </trkpt>
      <trkpt lat="59.370936265832" lon="17.649234244074">
        <ele>0</ele>
        <time>2013-08-29T19:07:00Z</time>
      </trkpt>
      <trkpt lat="59.37086602551" lon="17.649297192143">
        <ele>0</ele>
        <time>2013-08-29T19:07:01Z</time>
      </trkpt>
      <trkpt lat="59.370801401061" lon="17.649343208774">
        <ele>0</ele>
        <time>2013-08-29T19:07:02Z</time>
      </trkpt>
      <trkpt lat="59.370738704449" lon="17.649391153242">
        <ele>0</ele>
        <time>2013-08-29T19:07:03Z</time>
      </trkpt>
      <trkpt lat="59.37066821267" lon="17.649443204841">
        <ele>0</ele>
        <time>2013-08-29T19:07:04Z</time>
      </trkpt>
      <trkpt lat="59.370601744203" lon="17.649497854829">
        <ele>0</ele>
        <time>2013-08-29T19:07:05Z</time>
      </trkpt>
      <trkpt lat="59.370530246596" lon="17.649551498989">
        <ele>0</ele>
        <time>2013-08-29T19:07:06Z</time>
      </trkpt>
      <trkpt lat="59.370458246075" lon="17.649610675203">
        <ele>0</ele>
        <time>2013-08-29T19:07:07Z</time>
      </trkpt>
      <trkpt lat="59.370390101228" lon="17.649674293824">
        <ele>0</ele>
        <time>2013-08-29T19:07:08Z</time>
      </trkpt>
      <trkpt lat="59.370317262517" lon="17.649728440898">
        <ele>0</ele>
        <time>2013-08-29T19:07:09Z</time>
      </trkpt>
      <trkpt lat="59.37024157396" lon="17.649789796406">
        <ele>0</ele>
        <time>2013-08-29T19:07:10Z</time>
      </trkpt>
      <trkpt lat="59.370167226507" lon="17.649853750303">
        <ele>0</ele>
        <time>2013-08-29T19:07:11Z</time>
      </trkpt>
      <trkpt lat="59.370022722551" lon="17.649967744143">
        <ele>0</ele>
        <time>2013-08-29T19:07:13Z</time>
      </trkpt>
      <trkpt lat="59.369954577704" lon="17.650020717751">
        <ele>0</ele>
        <time>2013-08-29T19:07:14Z</time>
      </trkpt>
      <trkpt lat="59.369882325726" lon="17.650064974183">
        <ele>0</ele>
        <time>2013-08-29T19:07:15Z</time>
      </trkpt>
      <trkpt lat="59.369805296065" lon="17.650116019954">
        <ele>0</ele>
        <time>2013-08-29T19:07:16Z</time>
      </trkpt>
      <trkpt lat="59.369735223381" lon="17.650167652458">
        <ele>0</ele>
        <time>2013-08-29T19:07:17Z</time>
      </trkpt>
      <trkpt lat="59.369661043566" lon="17.650223475912">
        <ele>0</ele>
        <time>2013-08-29T19:07:18Z</time>
      </trkpt>
      <trkpt lat="59.369589043045" lon="17.650271923294">
        <ele>0</ele>
        <time>2013-08-29T19:07:19Z</time>
      </trkpt>
      <trkpt lat="59.369519473275" lon="17.650307714007">
        <ele>0</ele>
        <time>2013-08-29T19:07:20Z</time>
      </trkpt>
      <trkpt lat="59.369448394763" lon="17.650326154187">
        <ele>0</ele>
        <time>2013-08-29T19:07:21Z</time>
      </trkpt>
      <trkpt lat="59.369378992631" lon="17.650323807255">
        <ele>0</ele>
        <time>2013-08-29T19:07:22Z</time>
      </trkpt>
      <trkpt lat="59.36930950668" lon="17.650311904957">
        <ele>0</ele>
        <time>2013-08-29T19:07:23Z</time>
      </trkpt>
      <trkpt lat="59.369175228642" lon="17.650243508653">
        <ele>0</ele>
        <time>2013-08-29T19:07:25Z</time>
      </trkpt>
      <trkpt lat="59.369109766003" lon="17.650195480366">
        <ele>0</ele>
        <time>2013-08-29T19:07:26Z</time>
      </trkpt>
      <trkpt lat="59.369051930893" lon="17.650131358831">
        <ele>0</ele>
        <time>2013-08-29T19:07:27Z</time>
      </trkpt>
      <trkpt lat="59.368990240109" lon="17.650066231468">
        <ele>0</ele>
        <time>2013-08-29T19:07:28Z</time>
      </trkpt>
      <trkpt lat="59.368929555153" lon="17.650002780485">
        <ele>0</ele>
        <time>2013-08-29T19:07:29Z</time>
      </trkpt>
      <trkpt lat="59.368665944398" lon="17.649790969872">
        <ele>0</ele>
        <time>2013-08-29T19:07:33Z</time>
      </trkpt>
      <trkpt lat="59.368597464275" lon="17.649771440045">
        <ele>0</ele>
        <time>2013-08-29T19:07:34Z</time>
      </trkpt>
      <trkpt lat="59.368293285124" lon="17.649827012042">
        <ele>0</ele>
        <time>2013-08-29T19:07:38Z</time>
      </trkpt>
      <trkpt lat="59.367699595147" lon="17.649952405266">
        <ele>0</ele>
        <time>2013-08-29T19:07:45Z</time>
      </trkpt>
      <trkpt lat="59.367619296545" lon="17.64997470112">
        <ele>0</ele>
        <time>2013-08-29T19:07:46Z</time>
      </trkpt>
      <trkpt lat="59.367531118957" lon="17.649981741916">
        <ele>0</ele>
        <time>2013-08-29T19:07:47Z</time>
      </trkpt>
      <trkpt lat="59.367454256934" lon="17.649988866531">
        <ele>0</ele>
        <time>2013-08-29T19:07:48Z</time>
      </trkpt>
      <trkpt lat="59.367212439119" lon="17.649983585934">
        <ele>0</ele>
        <time>2013-08-29T19:07:51Z</time>
      </trkpt>
      <trkpt lat="59.367030970984" lon="17.650007558168">
        <ele>0</ele>
        <time>2013-08-29T19:07:53Z</time>
      </trkpt>
      <trkpt lat="59.366846233908" lon="17.650075619196">
        <ele>0</ele>
        <time>2013-08-29T19:07:55Z</time>
      </trkpt>
      <trkpt lat="59.366687815998" lon="17.650198078755">
        <ele>0</ele>
        <time>2013-08-29T19:07:57Z</time>
      </trkpt>
      <trkpt lat="59.366533086124" lon="17.650365716755">
        <ele>0</ele>
        <time>2013-08-29T19:07:59Z</time>
      </trkpt>
      <trkpt lat="59.366126983069" lon="17.650776346036">
        <ele>0</ele>
        <time>2013-08-29T19:08:04Z</time>
      </trkpt>
      <trkpt lat="59.365752647415" lon="17.651154705002">
        <ele>0</ele>
        <time>2013-08-29T19:08:08Z</time>
      </trkpt>
      <trkpt lat="59.365663044904" lon="17.651295856198">
        <ele>0</ele>
        <time>2013-08-29T19:08:09Z</time>
      </trkpt>
      <trkpt lat="59.365572436565" lon="17.651467098415">
        <ele>0</ele>
        <time>2013-08-29T19:08:10Z</time>
      </trkpt>
      <trkpt lat="59.365508817944" lon="17.651650578206">
        <ele>0</ele>
        <time>2013-08-29T19:08:11Z</time>
      </trkpt>
      <trkpt lat="59.365455006146" lon="17.651844367734">
        <ele>0</ele>
        <time>2013-08-29T19:08:12Z</time>
      </trkpt>
      <trkpt lat="59.365417203777" lon="17.652066488084">
        <ele>0</ele>
        <time>2013-08-29T19:08:13Z</time>
      </trkpt>
      <trkpt lat="59.365385604014" lon="17.652286010045">
        <ele>0</ele>
        <time>2013-08-29T19:08:14Z</time>
      </trkpt>
      <trkpt lat="59.365351657319" lon="17.652497820658">
        <ele>0</ele>
        <time>2013-08-29T19:08:15Z</time>
      </trkpt>
      <trkpt lat="59.365202627137" lon="17.653575313903">
        <ele>0</ele>
        <time>2013-08-29T19:08:20Z</time>
      </trkpt>
      <trkpt lat="59.365046807616" lon="17.654575023116">
        <ele>0</ele>
        <time>2013-08-29T19:08:25Z</time>
      </trkpt>
      <trkpt lat="59.364993582551" lon="17.654763867323">
        <ele>0</ele>
        <time>2013-08-29T19:08:26Z</time>
      </trkpt>
      <trkpt lat="59.364852598993" lon="17.655091683432">
        <ele>0</ele>
        <time>2013-08-29T19:08:28Z</time>
      </trkpt>
      <trkpt lat="59.364548838937" lon="17.655448836191">
        <ele>0</ele>
        <time>2013-08-29T19:08:31Z</time>
      </trkpt>
      <trkpt lat="59.364439874237" lon="17.655567691533">
        <ele>0</ele>
        <time>2013-08-29T19:08:32Z</time>
      </trkpt>
      <trkpt lat="59.364331999184" lon="17.655693922947">
        <ele>0</ele>
        <time>2013-08-29T19:08:33Z</time>
      </trkpt>
      <trkpt lat="59.364218089163" lon="17.655820992551">
        <ele>0</ele>
        <time>2013-08-29T19:08:34Z</time>
      </trkpt>
      <trkpt lat="59.364107196626" lon="17.655946637232">
        <ele>0</ele>
        <time>2013-08-29T19:08:35Z</time>
      </trkpt>
      <trkpt lat="59.364003512523" lon="17.65607756251">
        <ele>0</ele>
        <time>2013-08-29T19:08:36Z</time>
      </trkpt>
      <trkpt lat="59.363892871443" lon="17.656196417852">
        <ele>0</ele>
        <time>2013-08-29T19:08:37Z</time>
      </trkpt>
      <trkpt lat="59.363784074381" lon="17.656327510768">
        <ele>0</ele>
        <time>2013-08-29T19:08:38Z</time>
      </trkpt>
      <trkpt lat="59.363675612595" lon="17.656456675847">
        <ele>0</ele>
        <time>2013-08-29T19:08:39Z</time>
      </trkpt>
      <trkpt lat="59.363566647895" lon="17.656587517306">
        <ele>0</ele>
        <time>2013-08-29T19:08:40Z</time>
      </trkpt>
      <trkpt lat="59.363456593548" lon="17.656718442584">
        <ele>0</ele>
        <time>2013-08-29T19:08:41Z</time>
      </trkpt>
      <trkpt lat="59.363358776775" lon="17.656861437798">
        <ele>0</ele>
        <time>2013-08-29T19:08:42Z</time>
      </trkpt>
      <trkpt lat="59.363275712146" lon="17.657028153789">
        <ele>0</ele>
        <time>2013-08-29T19:08:43Z</time>
      </trkpt>
      <trkpt lat="59.362902717596" lon="17.657834073474">
        <ele>0</ele>
        <time>2013-08-29T19:08:48Z</time>
      </trkpt>
      <trkpt lat="59.362827364315" lon="17.6579894739">
        <ele>0</ele>
        <time>2013-08-29T19:08:49Z</time>
      </trkpt>
      <trkpt lat="59.362758884192" lon="17.658135738055">
        <ele>0</ele>
        <time>2013-08-29T19:08:50Z</time>
      </trkpt>
      <trkpt lat="59.362693924467" lon="17.658272614482">
        <ele>0</ele>
        <time>2013-08-29T19:08:51Z</time>
      </trkpt>
      <trkpt lat="59.362627036905" lon="17.658409155633">
        <ele>0</ele>
        <time>2013-08-29T19:08:52Z</time>
      </trkpt>
      <trkpt lat="59.362486556261" lon="17.65866337866">
        <ele>0</ele>
        <time>2013-08-29T19:08:54Z</time>
      </trkpt>
      <trkpt lat="59.362194279408" lon="17.659200826088">
        <ele>0</ele>
        <time>2013-08-29T19:08:58Z</time>
      </trkpt>
      <trkpt lat="59.362122362706" lon="17.65934315075">
        <ele>0</ele>
        <time>2013-08-29T19:08:59Z</time>
      </trkpt>
      <trkpt lat="59.362049440176" lon="17.659480446272">
        <ele>0</ele>
        <time>2013-08-29T19:09:00Z</time>
      </trkpt>
      <trkpt lat="59.361981127691" lon="17.659612293559">
        <ele>0</ele>
        <time>2013-08-29T19:09:01Z</time>
      </trkpt>
      <trkpt lat="59.361583238898" lon="17.66048560372">
        <ele>0</ele>
        <time>2013-08-29T19:09:07Z</time>
      </trkpt>
      <trkpt lat="59.361521212838" lon="17.660632035513">
        <ele>0</ele>
        <time>2013-08-29T19:09:08Z</time>
      </trkpt>
      <trkpt lat="59.361388443542" lon="17.660912577706">
        <ele>0</ele>
        <time>2013-08-29T19:09:10Z</time>
      </trkpt>
      <trkpt lat="59.361316023926" lon="17.661040820776">
        <ele>0</ele>
        <time>2013-08-29T19:09:11Z</time>
      </trkpt>
      <trkpt lat="59.361247040889" lon="17.661156490996">
        <ele>0</ele>
        <time>2013-08-29T19:09:12Z</time>
      </trkpt>
      <trkpt lat="59.361175962377" lon="17.661261432384">
        <ele>0</ele>
        <time>2013-08-29T19:09:13Z</time>
      </trkpt>
      <trkpt lat="59.361097172517" lon="17.661353633284">
        <ele>0</ele>
        <time>2013-08-29T19:09:14Z</time>
      </trkpt>
      <trkpt lat="59.361017963562" lon="17.661438039017">
        <ele>0</ele>
        <time>2013-08-29T19:09:15Z</time>
      </trkpt>
      <trkpt lat="59.360941101539" lon="17.661490425892">
        <ele>0</ele>
        <time>2013-08-29T19:09:16Z</time>
      </trkpt>
      <trkpt lat="59.360862060222" lon="17.661539292369">
        <ele>0</ele>
        <time>2013-08-29T19:09:17Z</time>
      </trkpt>
      <trkpt lat="59.360784108552" lon="17.66157608891">
        <ele>0</ele>
        <time>2013-08-29T19:09:18Z</time>
      </trkpt>
      <trkpt lat="59.360697020611" lon="17.661607353397">
        <ele>0</ele>
        <time>2013-08-29T19:09:19Z</time>
      </trkpt>
      <trkpt lat="59.360612614878" lon="17.661625374482">
        <ele>0</ele>
        <time>2013-08-29T19:09:20Z</time>
      </trkpt>
      <trkpt lat="59.360521755082" lon="17.661623949559">
        <ele>0</ele>
        <time>2013-08-29T19:09:21Z</time>
      </trkpt>
      <trkpt lat="59.360431817295" lon="17.661623195188">
        <ele>0</ele>
        <time>2013-08-29T19:09:22Z</time>
      </trkpt>
      <trkpt lat="59.359864530303" lon="17.661550524115">
        <ele>0</ele>
        <time>2013-08-29T19:09:28Z</time>
      </trkpt>
      <trkpt lat="59.359290118696" lon="17.661480870526">
        <ele>0</ele>
        <time>2013-08-29T19:09:34Z</time>
      </trkpt>
      <trkpt lat="59.358717551107" lon="17.661419766475">
        <ele>0</ele>
        <time>2013-08-29T19:09:40Z</time>
      </trkpt>
      <trkpt lat="59.358165854449" lon="17.661417084267">
        <ele>0</ele>
        <time>2013-08-29T19:09:46Z</time>
      </trkpt>
      <trkpt lat="59.357981787925" lon="17.66140425996">
        <ele>0</ele>
        <time>2013-08-29T19:09:48Z</time>
      </trkpt>
      <trkpt lat="59.357883803514" lon="17.661400823381">
        <ele>0</ele>
        <time>2013-08-29T19:09:49Z</time>
      </trkpt>
      <trkpt lat="59.357780873782" lon="17.661403170313">
        <ele>0</ele>
        <time>2013-08-29T19:09:50Z</time>
      </trkpt>
      <trkpt lat="59.357673501643" lon="17.661436530275">
        <ele>0</ele>
        <time>2013-08-29T19:09:51Z</time>
      </trkpt>
      <trkpt lat="59.357465295247" lon="17.661526887157">
        <ele>0</ele>
        <time>2013-08-29T19:09:53Z</time>
      </trkpt>
      <trkpt lat="59.357288772433" lon="17.66173953596">
        <ele>0</ele>
        <time>2013-08-29T19:09:55Z</time>
      </trkpt>
      <trkpt lat="59.357082996788" lon="17.662206994523">
        <ele>0</ele>
        <time>2013-08-29T19:09:58Z</time>
      </trkpt>
      <trkpt lat="59.357021725099" lon="17.662364658062">
        <ele>0</ele>
        <time>2013-08-29T19:09:59Z</time>
      </trkpt>
      <trkpt lat="59.356689634221" lon="17.663142079287">
        <ele>0</ele>
        <time>2013-08-29T19:10:04Z</time>
      </trkpt>
      <trkpt lat="59.356646048341" lon="17.663321284309">
        <ele>0</ele>
        <time>2013-08-29T19:10:05Z</time>
      </trkpt>
      <trkpt lat="59.356605982859" lon="17.663707103166">
        <ele>0</ele>
        <time>2013-08-29T19:10:07Z</time>
      </trkpt>
      <trkpt lat="59.356647389445" lon="17.664299787315">
        <ele>0</ele>
        <time>2013-08-29T19:10:10Z</time>
      </trkpt>
      <trkpt lat="59.356742188734" lon="17.664662136852">
        <ele>0</ele>
        <time>2013-08-29T19:10:12Z</time>
      </trkpt>
      <trkpt lat="59.356789295012" lon="17.664834049621">
        <ele>0</ele>
        <time>2013-08-29T19:10:13Z</time>
      </trkpt>
      <trkpt lat="59.356842017163" lon="17.664991629341">
        <ele>0</ele>
        <time>2013-08-29T19:10:14Z</time>
      </trkpt>
      <trkpt lat="59.356894571676" lon="17.66516857125">
        <ele>0</ele>
        <time>2013-08-29T19:10:15Z</time>
      </trkpt>
      <trkpt lat="59.356942599963" lon="17.665351715765">
        <ele>0</ele>
        <time>2013-08-29T19:10:16Z</time>
      </trkpt>
      <trkpt lat="59.357031615741" lon="17.665724039763">
        <ele>0</ele>
        <time>2013-08-29T19:10:18Z</time>
      </trkpt>
      <trkpt lat="59.357064975703" lon="17.665912967789">
        <ele>0</ele>
        <time>2013-08-29T19:10:19Z</time>
      </trkpt>
      <trkpt lat="59.357140077527" lon="17.666498108228">
        <ele>0</ele>
        <time>2013-08-29T19:10:22Z</time>
      </trkpt>
      <trkpt lat="59.357251221521" lon="17.667676268092">
        <ele>0</ele>
        <time>2013-08-29T19:10:28Z</time>
      </trkpt>
      <trkpt lat="59.357285335854" lon="17.668056219619">
        <ele>0</ele>
        <time>2013-08-29T19:10:30Z</time>
      </trkpt>
      <trkpt lat="59.357385667197" lon="17.669149889931">
        <ele>0</ele>
        <time>2013-08-29T19:10:36Z</time>
      </trkpt>
      <trkpt lat="59.357440401004" lon="17.66949530803">
        <ele>0</ele>
        <time>2013-08-29T19:10:38Z</time>
      </trkpt>
      <trkpt lat="59.357470240568" lon="17.66965791689">
        <ele>0</ele>
        <time>2013-08-29T19:10:39Z</time>
      </trkpt>
      <trkpt lat="59.357499493399" lon="17.669818178818">
        <ele>0</ele>
        <time>2013-08-29T19:10:40Z</time>
      </trkpt>
      <trkpt lat="59.357531093162" lon="17.669975255624">
        <ele>0</ele>
        <time>2013-08-29T19:10:41Z</time>
      </trkpt>
      <trkpt lat="59.357555987405" lon="17.670125123996">
        <ele>0</ele>
        <time>2013-08-29T19:10:42Z</time>
      </trkpt>
      <trkpt lat="59.35758909591" lon="17.670275243825">
        <ele>0</ele>
        <time>2013-08-29T19:10:43Z</time>
      </trkpt>
      <trkpt lat="59.35761675618" lon="17.670417065573">
        <ele>0</ele>
        <time>2013-08-29T19:10:44Z</time>
      </trkpt>
      <trkpt lat="59.357637962387" lon="17.670569448515">
        <ele>0</ele>
        <time>2013-08-29T19:10:45Z</time>
      </trkpt>
      <trkpt lat="59.357653804178" lon="17.670735745411">
        <ele>0</ele>
        <time>2013-08-29T19:10:46Z</time>
      </trkpt>
      <trkpt lat="59.357655396739" lon="17.670923416152">
        <ele>0</ele>
        <time>2013-08-29T19:10:47Z</time>
      </trkpt>
      <trkpt lat="59.357623964614" lon="17.671280820368">
        <ele>0</ele>
        <time>2013-08-29T19:10:49Z</time>
      </trkpt>
      <trkpt lat="59.357551544998" lon="17.672318667226">
        <ele>0</ele>
        <time>2013-08-29T19:10:55Z</time>
      </trkpt>
      <trkpt lat="59.357480466486" lon="17.67340127343">
        <ele>0</ele>
        <time>2013-08-29T19:11:01Z</time>
      </trkpt>
      <trkpt lat="59.357473090414" lon="17.673577963882">
        <ele>0</ele>
        <time>2013-08-29T19:11:02Z</time>
      </trkpt>
      <trkpt lat="59.35745163275" lon="17.674455381174">
        <ele>0</ele>
        <time>2013-08-29T19:11:07Z</time>
      </trkpt>
      <trkpt lat="59.357471497853" lon="17.67463005997">
        <ele>0</ele>
        <time>2013-08-29T19:11:08Z</time>
      </trkpt>
      <trkpt lat="59.357587084254" lon="17.675113947057">
        <ele>0</ele>
        <time>2013-08-29T19:11:11Z</time>
      </trkpt>
      <trkpt lat="59.357636369826" lon="17.675281585057">
        <ele>0</ele>
        <time>2013-08-29T19:11:12Z</time>
      </trkpt>
      <trkpt lat="59.357677189679" lon="17.675458275509">
        <ele>0</ele>
        <time>2013-08-29T19:11:13Z</time>
      </trkpt>
      <trkpt lat="59.357714237677" lon="17.675834455181">
        <ele>0</ele>
        <time>2013-08-29T19:11:15Z</time>
      </trkpt>
      <trkpt lat="59.357705017587" lon="17.67620920993">
        <ele>0</ele>
        <time>2013-08-29T19:11:17Z</time>
      </trkpt>
      <trkpt lat="59.35763016722" lon="17.676802480812">
        <ele>0</ele>
        <time>2013-08-29T19:11:20Z</time>
      </trkpt>
      <trkpt lat="59.357508126756" lon="17.67735753023">
        <ele>0</ele>
        <time>2013-08-29T19:11:23Z</time>
      </trkpt>
      <trkpt lat="59.357466971627" lon="17.67753103556">
        <ele>0</ele>
        <time>2013-08-29T19:11:24Z</time>
      </trkpt>
      <trkpt lat="59.357424978308" lon="17.677705965813">
        <ele>0</ele>
        <time>2013-08-29T19:11:25Z</time>
      </trkpt>
      <trkpt lat="59.35738960669" lon="17.677890199975">
        <ele>0</ele>
        <time>2013-08-29T19:11:26Z</time>
      </trkpt>
      <trkpt lat="59.357351301407" lon="17.6780808882">
        <ele>0</ele>
        <time>2013-08-29T19:11:27Z</time>
      </trkpt>
      <trkpt lat="59.357133539645" lon="17.67910180362">
        <ele>0</ele>
        <time>2013-08-29T19:11:33Z</time>
      </trkpt>
      <trkpt lat="59.357105125004" lon="17.679274806036">
        <ele>0</ele>
        <time>2013-08-29T19:11:34Z</time>
      </trkpt>
      <trkpt lat="59.357085846634" lon="17.679462728234">
        <ele>0</ele>
        <time>2013-08-29T19:11:35Z</time>
      </trkpt>
      <trkpt lat="59.357037902166" lon="17.68001123977">
        <ele>0</ele>
        <time>2013-08-29T19:11:38Z</time>
      </trkpt>
      <trkpt lat="59.356912089847" lon="17.681129720506">
        <ele>0</ele>
        <time>2013-08-29T19:11:44Z</time>
      </trkpt>
      <trkpt lat="59.356889291079" lon="17.681334490323">
        <ele>0</ele>
        <time>2013-08-29T19:11:45Z</time>
      </trkpt>
      <trkpt lat="59.356729615884" lon="17.68254927909">
        <ele>0</ele>
        <time>2013-08-29T19:11:51Z</time>
      </trkpt>
      <trkpt lat="59.356693406076" lon="17.68274038641">
        <ele>0</ele>
        <time>2013-08-29T19:11:52Z</time>
      </trkpt>
      <trkpt lat="59.356653005318" lon="17.682928643884">
        <ele>0</ele>
        <time>2013-08-29T19:11:53Z</time>
      </trkpt>
      <trkpt lat="59.356611011999" lon="17.683114135331">
        <ele>0</ele>
        <time>2013-08-29T19:11:54Z</time>
      </trkpt>
      <trkpt lat="59.356570946517" lon="17.683301386977">
        <ele>0</ele>
        <time>2013-08-29T19:11:55Z</time>
      </trkpt>
      <trkpt lat="59.356541442229" lon="17.68349308103">
        <ele>0</ele>
        <time>2013-08-29T19:11:56Z</time>
      </trkpt>
      <trkpt lat="59.356522582954" lon="17.683688211662">
        <ele>0</ele>
        <time>2013-08-29T19:11:57Z</time>
      </trkpt>
      <trkpt lat="59.356546052274" lon="17.684251559161">
        <ele>0</ele>
        <time>2013-08-29T19:12:00Z</time>
      </trkpt>
      <trkpt lat="59.35657153325" lon="17.684430345088">
        <ele>0</ele>
        <time>2013-08-29T19:12:01Z</time>
      </trkpt>
      <trkpt lat="59.356610844361" lon="17.685013892966">
        <ele>0</ele>
        <time>2013-08-29T19:12:04Z</time>
      </trkpt>
      <trkpt lat="59.35663104474" lon="17.686085015967">
        <ele>0</ele>
        <time>2013-08-29T19:12:09Z</time>
      </trkpt>
      <trkpt lat="59.356640348649" lon="17.686291881259">
        <ele>0</ele>
        <time>2013-08-29T19:12:10Z</time>
      </trkpt>
      <trkpt lat="59.356686281461" lon="17.687245825298">
        <ele>0</ele>
        <time>2013-08-29T19:12:15Z</time>
      </trkpt>
      <trkpt lat="59.356781248388" lon="17.688203373554">
        <ele>0</ele>
        <time>2013-08-29T19:12:20Z</time>
      </trkpt>
      <trkpt lat="59.357017115054" lon="17.689080958484">
        <ele>0</ele>
        <time>2013-08-29T19:12:25Z</time>
      </trkpt>
      <trkpt lat="59.357368735759" lon="17.690058455662">
        <ele>0</ele>
        <time>2013-08-29T19:12:31Z</time>
      </trkpt>
      <trkpt lat="59.357628323202" lon="17.690899160232">
        <ele>0</ele>
        <time>2013-08-29T19:12:36Z</time>
      </trkpt>
      <trkpt lat="59.357668388684" lon="17.691084819317">
        <ele>0</ele>
        <time>2013-08-29T19:12:37Z</time>
      </trkpt>
      <trkpt lat="59.357704263216" lon="17.691273244429">
        <ele>0</ele>
        <time>2013-08-29T19:12:38Z</time>
      </trkpt>
      <trkpt lat="59.35773577916" lon="17.691459993161">
        <ele>0</ele>
        <time>2013-08-29T19:12:39Z</time>
      </trkpt>
      <trkpt lat="59.357766708371" lon="17.69164615516">
        <ele>0</ele>
        <time>2013-08-29T19:12:40Z</time>
      </trkpt>
      <trkpt lat="59.357797721401" lon="17.691834831729">
        <ele>0</ele>
        <time>2013-08-29T19:12:41Z</time>
      </trkpt>
      <trkpt lat="59.357828566793" lon="17.692026861058">
        <ele>0</ele>
        <time>2013-08-29T19:12:42Z</time>
      </trkpt>
      <trkpt lat="59.357860501832" lon="17.692223835708">
        <ele>0</ele>
        <time>2013-08-29T19:12:43Z</time>
      </trkpt>
      <trkpt lat="59.357892436871" lon="17.6924139372">
        <ele>0</ele>
        <time>2013-08-29T19:12:44Z</time>
      </trkpt>
      <trkpt lat="59.35792604829" lon="17.692607223814">
        <ele>0</ele>
        <time>2013-08-29T19:12:45Z</time>
      </trkpt>
      <trkpt lat="59.35795789951" lon="17.692805204292">
        <ele>0</ele>
        <time>2013-08-29T19:12:46Z</time>
      </trkpt>
      <trkpt lat="59.358042808157" lon="17.693427392729">
        <ele>0</ele>
        <time>2013-08-29T19:12:49Z</time>
      </trkpt>
      <trkpt lat="59.358114892497" lon="17.693853360887">
        <ele>0</ele>
        <time>2013-08-29T19:12:51Z</time>
      </trkpt>
      <trkpt lat="59.358208937415" lon="17.694253512793">
        <ele>0</ele>
        <time>2013-08-29T19:12:53Z</time>
      </trkpt>
      <trkpt lat="59.358263168308" lon="17.694435316204">
        <ele>0</ele>
        <time>2013-08-29T19:12:54Z</time>
      </trkpt>
      <trkpt lat="59.35838705279" lon="17.694778052095">
        <ele>0</ele>
        <time>2013-08-29T19:12:56Z</time>
      </trkpt>
      <trkpt lat="59.358501130449" lon="17.695139144347">
        <ele>0</ele>
        <time>2013-08-29T19:12:58Z</time>
      </trkpt>
      <trkpt lat="59.358560139025" lon="17.695538625701">
        <ele>0</ele>
        <time>2013-08-29T19:13:00Z</time>
      </trkpt>
      <trkpt lat="59.358525773235" lon="17.69613801537">
        <ele>0</ele>
        <time>2013-08-29T19:13:03Z</time>
      </trkpt>
      <trkpt lat="59.358351681172" lon="17.696654591867">
        <ele>0</ele>
        <time>2013-08-29T19:13:06Z</time>
      </trkpt>
      <trkpt lat="59.358067199486" lon="17.696976289189">
        <ele>0</ele>
        <time>2013-08-29T19:13:09Z</time>
      </trkpt>
      <trkpt lat="59.3579671196" lon="17.697056923067">
        <ele>0</ele>
        <time>2013-08-29T19:13:10Z</time>
      </trkpt>
      <trkpt lat="59.357768552389" lon="17.697222046497">
        <ele>0</ele>
        <time>2013-08-29T19:13:12Z</time>
      </trkpt>
      <trkpt lat="59.357586413702" lon="17.697452381109">
        <ele>0</ele>
        <time>2013-08-29T19:13:14Z</time>
      </trkpt>
      <trkpt lat="59.357355659995" lon="17.697885892977">
        <ele>0</ele>
        <time>2013-08-29T19:13:17Z</time>
      </trkpt>
      <trkpt lat="59.35721442498" lon="17.698179091839">
        <ele>0</ele>
        <time>2013-08-29T19:13:19Z</time>
      </trkpt>
      <trkpt lat="59.356940169212" lon="17.69880010681">
        <ele>0</ele>
        <time>2013-08-29T19:13:23Z</time>
      </trkpt>
      <trkpt lat="59.356852745995" lon="17.699356916427">
        <ele>0</ele>
        <time>2013-08-29T19:13:26Z</time>
      </trkpt>
      <trkpt lat="59.356951736234" lon="17.699949768214">
        <ele>0</ele>
        <time>2013-08-29T19:13:29Z</time>
      </trkpt>
      <trkpt lat="59.357103197167" lon="17.700279679798">
        <ele>0</ele>
        <time>2013-08-29T19:13:31Z</time>
      </trkpt>
      <trkpt lat="59.357264967837" lon="17.700623086241">
        <ele>0</ele>
        <time>2013-08-29T19:13:33Z</time>
      </trkpt>
      <trkpt lat="59.357343673878" lon="17.700801201616">
        <ele>0</ele>
        <time>2013-08-29T19:13:34Z</time>
      </trkpt>
      <trkpt lat="59.357422715195" lon="17.700991303108">
        <ele>0</ele>
        <time>2013-08-29T19:13:35Z</time>
      </trkpt>
      <trkpt lat="59.357504690177" lon="17.701205125377">
        <ele>0</ele>
        <time>2013-08-29T19:13:36Z</time>
      </trkpt>
      <trkpt lat="59.35757652306" lon="17.701429844116">
        <ele>0</ele>
        <time>2013-08-29T19:13:37Z</time>
      </trkpt>
      <trkpt lat="59.357638716758" lon="17.701670488465">
        <ele>0</ele>
        <time>2013-08-29T19:13:38Z</time>
      </trkpt>
      <trkpt lat="59.35769554604" lon="17.70192404094">
        <ele>0</ele>
        <time>2013-08-29T19:13:39Z</time>
      </trkpt>
      <trkpt lat="59.357752123865" lon="17.70217801251">
        <ele>0</ele>
        <time>2013-08-29T19:13:40Z</time>
      </trkpt>
      <trkpt lat="59.357809288423" lon="17.702432654632">
        <ele>0</ele>
        <time>2013-08-29T19:13:41Z</time>
      </trkpt>
      <trkpt lat="59.357866620619" lon="17.702692074437">
        <ele>0</ele>
        <time>2013-08-29T19:13:42Z</time>
      </trkpt>
      <trkpt lat="59.357920516236" lon="17.70296172016">
        <ele>0</ele>
        <time>2013-08-29T19:13:43Z</time>
      </trkpt>
      <trkpt lat="59.357972903111" lon="17.703253577918">
        <ele>0</ele>
        <time>2013-08-29T19:13:44Z</time>
      </trkpt>
      <trkpt lat="59.358015986077" lon="17.703529677704">
        <ele>0</ele>
        <time>2013-08-29T19:13:45Z</time>
      </trkpt>
      <trkpt lat="59.358048675487" lon="17.703803682015">
        <ele>0</ele>
        <time>2013-08-29T19:13:46Z</time>
      </trkpt>
      <trkpt lat="59.358067283305" lon="17.704085565312">
        <ele>0</ele>
        <time>2013-08-29T19:13:47Z</time>
      </trkpt>
      <trkpt lat="59.35807356973" lon="17.704364934039">
        <ele>0</ele>
        <time>2013-08-29T19:13:48Z</time>
      </trkpt>
      <trkpt lat="59.358077676861" lon="17.704637429608">
        <ele>0</ele>
        <time>2013-08-29T19:13:49Z</time>
      </trkpt>
      <trkpt lat="59.358076419576" lon="17.704904896037">
        <ele>0</ele>
        <time>2013-08-29T19:13:50Z</time>
      </trkpt>
      <trkpt lat="59.358053704627" lon="17.705412755358">
        <ele>0</ele>
        <time>2013-08-29T19:13:52Z</time>
      </trkpt>
      <trkpt lat="59.358025960538" lon="17.705654321716">
        <ele>0</ele>
        <time>2013-08-29T19:13:53Z</time>
      </trkpt>
      <trkpt lat="59.357964940306" lon="17.706112392551">
        <ele>0</ele>
        <time>2013-08-29T19:13:55Z</time>
      </trkpt>
      <trkpt lat="59.357933005267" lon="17.706332249788">
        <ele>0</ele>
        <time>2013-08-29T19:13:56Z</time>
      </trkpt>
      <trkpt lat="59.357902746608" lon="17.70653827689">
        <ele>0</ele>
        <time>2013-08-29T19:13:57Z</time>
      </trkpt>
      <trkpt lat="59.357875505433" lon="17.706728629839">
        <ele>0</ele>
        <time>2013-08-29T19:13:58Z</time>
      </trkpt>
      <trkpt lat="59.357850862647" lon="17.706920659168">
        <ele>0</ele>
        <time>2013-08-29T19:13:59Z</time>
      </trkpt>
      <trkpt lat="59.357827477146" lon="17.707095337964">
        <ele>0</ele>
        <time>2013-08-29T19:14:00Z</time>
      </trkpt>
      <trkpt lat="59.35779864341" lon="17.707263730335">
        <ele>0</ele>
        <time>2013-08-29T19:14:01Z</time>
      </trkpt>
      <trkpt lat="59.357767127466" lon="17.707427345023">
        <ele>0</ele>
        <time>2013-08-29T19:14:02Z</time>
      </trkpt>
      <trkpt lat="59.357730079468" lon="17.707582913087">
        <ele>0</ele>
        <time>2013-08-29T19:14:03Z</time>
      </trkpt>
      <trkpt lat="59.357616923818" lon="17.707840237417">
        <ele>0</ele>
        <time>2013-08-29T19:14:05Z</time>
      </trkpt>
      <trkpt lat="59.35753712813" lon="17.707943167149">
        <ele>0</ele>
        <time>2013-08-29T19:14:06Z</time>
      </trkpt>
      <trkpt lat="59.357264297285" lon="17.708131592261">
        <ele>0</ele>
        <time>2013-08-29T19:14:09Z</time>
      </trkpt>
      <trkpt lat="59.357065478617" lon="17.708236533649">
        <ele>0</ele>
        <time>2013-08-29T19:14:11Z</time>
      </trkpt>
      <trkpt lat="59.356966236921" lon="17.708287411782">
        <ele>0</ele>
        <time>2013-08-29T19:14:12Z</time>
      </trkpt>
      <trkpt lat="59.356864983569" lon="17.708344911616">
        <ele>0</ele>
        <time>2013-08-29T19:14:13Z</time>
      </trkpt>
      <trkpt lat="59.356758617258" lon="17.708404842201">
        <ele>0</ele>
        <time>2013-08-29T19:14:14Z</time>
      </trkpt>
      <trkpt lat="59.356661638675" lon="17.708465778614">
        <ele>0</ele>
        <time>2013-08-29T19:14:15Z</time>
      </trkpt>
      <trkpt lat="59.356564240997" lon="17.708529983968">
        <ele>0</ele>
        <time>2013-08-29T19:14:16Z</time>
      </trkpt>
      <trkpt lat="59.356469106432" lon="17.708594776055">
        <ele>0</ele>
        <time>2013-08-29T19:14:17Z</time>
      </trkpt>
      <trkpt lat="59.356370619107" lon="17.708656047744">
        <ele>0</ele>
        <time>2013-08-29T19:14:18Z</time>
      </trkpt>
      <trkpt lat="59.356269198117" lon="17.708716313605">
        <ele>0</ele>
        <time>2013-08-29T19:14:19Z</time>
      </trkpt>
      <trkpt lat="59.356170962249" lon="17.708777752932">
        <ele>0</ele>
        <time>2013-08-29T19:14:20Z</time>
      </trkpt>
      <trkpt lat="59.356072894019" lon="17.708840449544">
        <ele>0</ele>
        <time>2013-08-29T19:14:21Z</time>
      </trkpt>
      <trkpt lat="59.355971137753" lon="17.708899793396">
        <ele>0</ele>
        <time>2013-08-29T19:14:22Z</time>
      </trkpt>
      <trkpt lat="59.355606441284" lon="17.709114705312">
        <ele>0</ele>
        <time>2013-08-29T19:14:26Z</time>
      </trkpt>
      <trkpt lat="59.355039489568" lon="17.709468756768">
        <ele>0</ele>
        <time>2013-08-29T19:14:33Z</time>
      </trkpt>
      <trkpt lat="59.354512351877" lon="17.709797746343">
        <ele>0</ele>
        <time>2013-08-29T19:14:40Z</time>
      </trkpt>
      <trkpt lat="59.35443917789" lon="17.709840913128">
        <ele>0</ele>
        <time>2013-08-29T19:14:41Z</time>
      </trkpt>
      <trkpt lat="59.354299870712" lon="17.70992707906">
        <ele>0</ele>
        <time>2013-08-29T19:14:43Z</time>
      </trkpt>
      <trkpt lat="59.354232815512" lon="17.709969156198">
        <ele>0</ele>
        <time>2013-08-29T19:14:44Z</time>
      </trkpt>
      <trkpt lat="59.354167436692" lon="17.710010730422">
        <ele>0</ele>
        <time>2013-08-29T19:14:45Z</time>
      </trkpt>
      <trkpt lat="59.354105745908" lon="17.710050376809">
        <ele>0</ele>
        <time>2013-08-29T19:14:46Z</time>
      </trkpt>
      <trkpt lat="59.35398404072" lon="17.710131094506">
        <ele>0</ele>
        <time>2013-08-29T19:14:48Z</time>
      </trkpt>
      <trkpt lat="59.353925451239" lon="17.710173255463">
        <ele>0</ele>
        <time>2013-08-29T19:14:49Z</time>
      </trkpt>
      <trkpt lat="59.353867616129" lon="17.710209800547">
        <ele>0</ele>
        <time>2013-08-29T19:14:50Z</time>
      </trkpt>
      <trkpt lat="59.353809110467" lon="17.710241316491">
        <ele>0</ele>
        <time>2013-08-29T19:14:51Z</time>
      </trkpt>
      <trkpt lat="59.353744569837" lon="17.710278448308">
        <ele>0</ele>
        <time>2013-08-29T19:14:52Z</time>
      </trkpt>
      <trkpt lat="59.353683465786" lon="17.710321279817">
        <ele>0</ele>
        <time>2013-08-29T19:14:53Z</time>
      </trkpt>
      <trkpt lat="59.35356326934" lon="17.710418090762">
        <ele>0</ele>
        <time>2013-08-29T19:14:55Z</time>
      </trkpt>
      <trkpt lat="59.353504093126" lon="17.710478272804">
        <ele>0</ele>
        <time>2013-08-29T19:14:56Z</time>
      </trkpt>
      <trkpt lat="59.35344843731" lon="17.710541807606">
        <ele>0</ele>
        <time>2013-08-29T19:14:57Z</time>
      </trkpt>
      <trkpt lat="59.353395966616" lon="17.710606348236">
        <ele>0</ele>
        <time>2013-08-29T19:14:58Z</time>
      </trkpt>
      <trkpt lat="59.353339891705" lon="17.710680528051">
        <ele>0</ele>
        <time>2013-08-29T19:14:59Z</time>
      </trkpt>
      <trkpt lat="59.353290103219" lon="17.710757138617">
        <ele>0</ele>
        <time>2013-08-29T19:15:00Z</time>
      </trkpt>
      <trkpt lat="59.353238973629" lon="17.710836682848">
        <ele>0</ele>
        <time>2013-08-29T19:15:01Z</time>
      </trkpt>
      <trkpt lat="59.35318356927" lon="17.710916562355">
        <ele>0</ele>
        <time>2013-08-29T19:15:02Z</time>
      </trkpt>
      <trkpt lat="59.353129254558" lon="17.710993759654">
        <ele>0</ele>
        <time>2013-08-29T19:15:03Z</time>
      </trkpt>
      <trkpt lat="59.353075107484" lon="17.711066430727">
        <ele>0</ele>
        <time>2013-08-29T19:15:04Z</time>
      </trkpt>
      <trkpt lat="59.35302263679" lon="17.711150417365">
        <ele>0</ele>
        <time>2013-08-29T19:15:05Z</time>
      </trkpt>
      <trkpt lat="59.352967819164" lon="17.711235912745">
        <ele>0</ele>
        <time>2013-08-29T19:15:06Z</time>
      </trkpt>
      <trkpt lat="59.352915767565" lon="17.711318893555">
        <ele>0</ele>
        <time>2013-08-29T19:15:07Z</time>
      </trkpt>
      <trkpt lat="59.352866817269" lon="17.711385864936">
        <ele>0</ele>
        <time>2013-08-29T19:15:08Z</time>
      </trkpt>
      <trkpt lat="59.352819962448" lon="17.711454345059">
        <ele>0</ele>
        <time>2013-08-29T19:15:09Z</time>
      </trkpt>
      <trkpt lat="59.352777633853" lon="17.711534643661">
        <ele>0</ele>
        <time>2013-08-29T19:15:10Z</time>
      </trkpt>
      <trkpt lat="59.352738155104" lon="17.711623240344">
        <ele>0</ele>
        <time>2013-08-29T19:15:11Z</time>
      </trkpt>
      <trkpt lat="59.352702364391" lon="17.711717201443">
        <ele>0</ele>
        <time>2013-08-29T19:15:12Z</time>
      </trkpt>
      <trkpt lat="59.352571103837" lon="17.7121114022">
        <ele>0</ele>
        <time>2013-08-29T19:15:16Z</time>
      </trkpt>
      <trkpt lat="59.352321742312" lon="17.712637534063">
        <ele>0</ele>
        <time>2013-08-29T19:15:21Z</time>
      </trkpt>
      <trkpt lat="59.3521836086" lon="17.712845908097">
        <ele>0</ele>
        <time>2013-08-29T19:15:23Z</time>
      </trkpt>
      <trkpt lat="59.352118481237" lon="17.712930984382">
        <ele>0</ele>
        <time>2013-08-29T19:15:24Z</time>
      </trkpt>
      <trkpt lat="59.352057209548" lon="17.712996866116">
        <ele>0</ele>
        <time>2013-08-29T19:15:25Z</time>
      </trkpt>
      <trkpt lat="59.352004068302" lon="17.713065513877">
        <ele>0</ele>
        <time>2013-08-29T19:15:26Z</time>
      </trkpt>
      <trkpt lat="59.351968109951" lon="17.713151009257">
        <ele>0</ele>
        <time>2013-08-29T19:15:27Z</time>
      </trkpt>
      <trkpt lat="59.351947322839" lon="17.713240863225">
        <ele>0</ele>
        <time>2013-08-29T19:15:28Z</time>
      </trkpt>
      <trkpt lat="59.35197657567" lon="17.713540180874">
        <ele>0</ele>
        <time>2013-08-29T19:15:31Z</time>
      </trkpt>
      <trkpt lat="59.352093503175" lon="17.713765234889">
        <ele>0</ele>
        <time>2013-08-29T19:15:34Z</time>
      </trkpt>
      <trkpt lat="59.352141112367" lon="17.713843857111">
        <ele>0</ele>
        <time>2013-08-29T19:15:35Z</time>
      </trkpt>
      <trkpt lat="59.35228754416" lon="17.714078047397">
        <ele>0</ele>
        <time>2013-08-29T19:15:38Z</time>
      </trkpt>
      <trkpt lat="59.352338589931" lon="17.714153149221">
        <ele>0</ele>
        <time>2013-08-29T19:15:39Z</time>
      </trkpt>
      <trkpt lat="59.352392820824" lon="17.71423034652">
        <ele>0</ele>
        <time>2013-08-29T19:15:40Z</time>
      </trkpt>
      <trkpt lat="59.352445459156" lon="17.714305951258">
        <ele>0</ele>
        <time>2013-08-29T19:15:41Z</time>
      </trkpt>
      <trkpt lat="59.352498181307" lon="17.714373509372">
        <ele>0</ele>
        <time>2013-08-29T19:15:42Z</time>
      </trkpt>
      <trkpt lat="59.352671518999" lon="17.714565035787">
        <ele>0</ele>
        <time>2013-08-29T19:15:45Z</time>
      </trkpt>
      <trkpt lat="59.352907720941" lon="17.714910789162">
        <ele>0</ele>
        <time>2013-08-29T19:15:49Z</time>
      </trkpt>
      <trkpt lat="59.3530217986" lon="17.715121677766">
        <ele>0</ele>
        <time>2013-08-29T19:15:51Z</time>
      </trkpt>
      <trkpt lat="59.353078544063" lon="17.71523365995">
        <ele>0</ele>
        <time>2013-08-29T19:15:52Z</time>
      </trkpt>
      <trkpt lat="59.353140486304" lon="17.715349413989">
        <ele>0</ele>
        <time>2013-08-29T19:15:53Z</time>
      </trkpt>
      <trkpt lat="59.353201590355" lon="17.715452595178">
        <ele>0</ele>
        <time>2013-08-29T19:15:54Z</time>
      </trkpt>
      <trkpt lat="59.353262862044" lon="17.715552339788">
        <ele>0</ele>
        <time>2013-08-29T19:15:55Z</time>
      </trkpt>
      <trkpt lat="59.353378951359" lon="17.715763982763">
        <ele>0</ele>
        <time>2013-08-29T19:15:57Z</time>
      </trkpt>
      <trkpt lat="59.353441061238" lon="17.715879988259">
        <ele>0</ele>
        <time>2013-08-29T19:15:58Z</time>
      </trkpt>
      <trkpt lat="59.353505098954" lon="17.716003453646">
        <ele>0</ele>
        <time>2013-08-29T19:15:59Z</time>
      </trkpt>
      <trkpt lat="59.353574501086" lon="17.71613555239">
        <ele>0</ele>
        <time>2013-08-29T19:16:00Z</time>
      </trkpt>
      <trkpt lat="59.353646836883" lon="17.716269746609">
        <ele>0</ele>
        <time>2013-08-29T19:16:01Z</time>
      </trkpt>
      <trkpt lat="59.353718921223" lon="17.7164113169">
        <ele>0</ele>
        <time>2013-08-29T19:16:02Z</time>
      </trkpt>
      <trkpt lat="59.353791759934" lon="17.716564118937">
        <ele>0</ele>
        <time>2013-08-29T19:16:03Z</time>
      </trkpt>
      <trkpt lat="59.353863676636" lon="17.716728571815">
        <ele>0</ele>
        <time>2013-08-29T19:16:04Z</time>
      </trkpt>
      <trkpt lat="59.353929726008" lon="17.716900736041">
        <ele>0</ele>
        <time>2013-08-29T19:16:05Z</time>
      </trkpt>
      <trkpt lat="59.35398990805" lon="17.717074241371">
        <ele>0</ele>
        <time>2013-08-29T19:16:06Z</time>
      </trkpt>
      <trkpt lat="59.354045312409" lon="17.717252189108">
        <ele>0</ele>
        <time>2013-08-29T19:16:07Z</time>
      </trkpt>
      <trkpt lat="59.354100632949" lon="17.717441787686">
        <ele>0</ele>
        <time>2013-08-29T19:16:08Z</time>
      </trkpt>
      <trkpt lat="59.354151930177" lon="17.717627111495">
        <ele>0</ele>
        <time>2013-08-29T19:16:09Z</time>
      </trkpt>
      <trkpt lat="59.35419777917" lon="17.717815788064">
        <ele>0</ele>
        <time>2013-08-29T19:16:10Z</time>
      </trkpt>
      <trkpt lat="59.354338343633" lon="17.718586000855">
        <ele>0</ele>
        <time>2013-08-29T19:16:14Z</time>
      </trkpt>
      <trkpt lat="59.354341612574" lon="17.718787417912">
        <ele>0</ele>
        <time>2013-08-29T19:16:15Z</time>
      </trkpt>
      <trkpt lat="59.354330297009" lon="17.71930726335">
        <ele>0</ele>
        <time>2013-08-29T19:16:18Z</time>
      </trkpt>
      <trkpt lat="59.354354017786" lon="17.719466100355">
        <ele>0</ele>
        <time>2013-08-29T19:16:19Z</time>
      </trkpt>
      <trkpt lat="59.354393245078" lon="17.719610017578">
        <ele>0</ele>
        <time>2013-08-29T19:16:20Z</time>
      </trkpt>
      <trkpt lat="59.354444123211" lon="17.719732980051">
        <ele>0</ele>
        <time>2013-08-29T19:16:21Z</time>
      </trkpt>
      <trkpt lat="59.354499779027" lon="17.719841777113">
        <ele>0</ele>
        <time>2013-08-29T19:16:22Z</time>
      </trkpt>
      <trkpt lat="59.354554177558" lon="17.719941856999">
        <ele>0</ele>
        <time>2013-08-29T19:16:23Z</time>
      </trkpt>
      <trkpt lat="59.354694658202" lon="17.72017479">
        <ele>0</ele>
        <time>2013-08-29T19:16:26Z</time>
      </trkpt>
      <trkpt lat="59.354841006176" lon="17.720394060504">
        <ele>0</ele>
        <time>2013-08-29T19:16:30Z</time>
      </trkpt>
      <trkpt lat="59.354878221812" lon="17.720435970004">
        <ele>0</ele>
        <time>2013-08-29T19:16:31Z</time>
      </trkpt>
      <trkpt lat="59.354982157372" lon="17.720460109876">
        <ele>0</ele>
        <time>2013-08-29T19:16:33Z</time>
      </trkpt>
      <trkpt lat="59.355106880044" lon="17.72043965804">
        <ele>0</ele>
        <time>2013-08-29T19:16:35Z</time>
      </trkpt>
      <trkpt lat="59.355297735907" lon="17.720391965029">
        <ele>0</ele>
        <time>2013-08-29T19:16:38Z</time>
      </trkpt>
      <trkpt lat="59.355777180587" lon="17.720266823262">
        <ele>0</ele>
        <time>2013-08-29T19:16:45Z</time>
      </trkpt>
      <trkpt lat="59.356274646352" lon="17.720123408953">
        <ele>0</ele>
        <time>2013-08-29T19:16:52Z</time>
      </trkpt>
      <trkpt lat="59.356601959547" lon="17.720039925229">
        <ele>0</ele>
        <time>2013-08-29T19:16:56Z</time>
      </trkpt>
      <trkpt lat="59.356685694728" lon="17.720016623547">
        <ele>0</ele>
        <time>2013-08-29T19:16:57Z</time>
      </trkpt>
      <trkpt lat="59.356770687194" lon="17.719996758444">
        <ele>0</ele>
        <time>2013-08-29T19:16:58Z</time>
      </trkpt>
      <trkpt lat="59.356858278049" lon="17.719974294952">
        <ele>0</ele>
        <time>2013-08-29T19:16:59Z</time>
      </trkpt>
      <trkpt lat="59.356943354334" lon="17.71995015508">
        <ele>0</ele>
        <time>2013-08-29T19:17:00Z</time>
      </trkpt>
      <trkpt lat="59.357421290272" lon="17.719819984173">
        <ele>0</ele>
        <time>2013-08-29T19:17:06Z</time>
      </trkpt>
      <trkpt lat="59.357933089086" lon="17.719691070551">
        <ele>0</ele>
        <time>2013-08-29T19:17:12Z</time>
      </trkpt>
      <trkpt lat="59.358479421328" lon="17.719549248803">
        <ele>0</ele>
        <time>2013-08-29T19:17:18Z</time>
      </trkpt>
      <trkpt lat="59.358760801711" lon="17.719473560246">
        <ele>0</ele>
        <time>2013-08-29T19:17:21Z</time>
      </trkpt>
      <trkpt lat="59.359340577734" lon="17.719309945558">
        <ele>0</ele>
        <time>2013-08-29T19:17:27Z</time>
      </trkpt>
      <trkpt lat="59.359629837103" lon="17.719228557309">
        <ele>0</ele>
        <time>2013-08-29T19:17:30Z</time>
      </trkpt>
      <trkpt lat="59.359723714383" lon="17.719202405781">
        <ele>0</ele>
        <time>2013-08-29T19:17:31Z</time>
      </trkpt>
      <trkpt lat="59.35982203407" lon="17.71917566752">
        <ele>0</ele>
        <time>2013-08-29T19:17:32Z</time>
      </trkpt>
      <trkpt lat="59.359917839187" lon="17.719150605639">
        <ele>0</ele>
        <time>2013-08-29T19:17:33Z</time>
      </trkpt>
      <trkpt lat="59.360015069227" lon="17.719124286473">
        <ele>0</ele>
        <time>2013-08-29T19:17:34Z</time>
      </trkpt>
      <trkpt lat="59.360499626866" lon="17.718992439186">
        <ele>0</ele>
        <time>2013-08-29T19:17:39Z</time>
      </trkpt>
      <trkpt lat="59.361069512247" lon="17.71889906482">
        <ele>0</ele>
        <time>2013-08-29T19:17:45Z</time>
      </trkpt>
      <trkpt lat="59.361163892441" lon="17.718893700404">
        <ele>0</ele>
        <time>2013-08-29T19:17:46Z</time>
      </trkpt>
      <trkpt lat="59.361720785877" lon="17.718921109217">
        <ele>0</ele>
        <time>2013-08-29T19:17:52Z</time>
      </trkpt>
      <trkpt lat="59.361813238234" lon="17.71894181251">
        <ele>0</ele>
        <time>2013-08-29T19:17:53Z</time>
      </trkpt>
      <trkpt lat="59.36236845529" lon="17.719095536556">
        <ele>0</ele>
        <time>2013-08-29T19:17:59Z</time>
      </trkpt>
      <trkpt lat="59.362458476896" lon="17.71912537612">
        <ele>0</ele>
        <time>2013-08-29T19:18:00Z</time>
      </trkpt>
      <trkpt lat="59.362548079407" lon="17.719160328643">
        <ele>0</ele>
        <time>2013-08-29T19:18:01Z</time>
      </trkpt>
      <trkpt lat="59.362639777393" lon="17.719197544279">
        <ele>0</ele>
        <time>2013-08-29T19:18:02Z</time>
      </trkpt>
      <trkpt lat="59.363168004731" lon="17.719405918313">
        <ele>0</ele>
        <time>2013-08-29T19:18:08Z</time>
      </trkpt>
      <trkpt lat="59.363430777296" lon="17.719503567448">
        <ele>0</ele>
        <time>2013-08-29T19:18:11Z</time>
      </trkpt>
      <trkpt lat="59.363972164217" lon="17.719647819947">
        <ele>0</ele>
        <time>2013-08-29T19:18:18Z</time>
      </trkpt>
      <trkpt lat="59.364106190798" lon="17.719705738876">
        <ele>0</ele>
        <time>2013-08-29T19:18:20Z</time>
      </trkpt>
      <trkpt lat="59.364156566017" lon="17.719795509025">
        <ele>0</ele>
        <time>2013-08-29T19:18:21Z</time>
      </trkpt>
      <trkpt lat="59.364182466088" lon="17.720052917174">
        <ele>0</ele>
        <time>2013-08-29T19:18:23Z</time>
      </trkpt>
      <trkpt lat="59.36417224017" lon="17.720195158017">
        <ele>0</ele>
        <time>2013-08-29T19:18:24Z</time>
      </trkpt>
      <trkpt lat="59.364109208282" lon="17.720798906274">
        <ele>0</ele>
        <time>2013-08-29T19:18:28Z</time>
      </trkpt>
      <trkpt lat="59.364031675707" lon="17.721760226385">
        <ele>0</ele>
        <time>2013-08-29T19:18:34Z</time>
      </trkpt>
      <trkpt lat="59.363936289685" lon="17.722905948296">
        <ele>0</ele>
        <time>2013-08-29T19:18:41Z</time>
      </trkpt>
      <trkpt lat="59.363914664383" lon="17.72322831617">
        <ele>0</ele>
        <time>2013-08-29T19:18:43Z</time>
      </trkpt>
      <trkpt lat="59.363826402976" lon="17.724337995911">
        <ele>0</ele>
        <time>2013-08-29T19:18:50Z</time>
      </trkpt>
      <trkpt lat="59.363804777674" lon="17.724654999369">
        <ele>0</ele>
        <time>2013-08-29T19:18:52Z</time>
      </trkpt>
      <trkpt lat="59.363719030837" lon="17.725757470676">
        <ele>0</ele>
        <time>2013-08-29T19:18:59Z</time>
      </trkpt>
      <trkpt lat="59.363707379996" lon="17.72590465684">
        <ele>0</ele>
        <time>2013-08-29T19:19:00Z</time>
      </trkpt>
      <trkpt lat="59.363604282626" lon="17.72687108991">
        <ele>0</ele>
        <time>2013-08-29T19:19:06Z</time>
      </trkpt>
      <trkpt lat="59.363513003735" lon="17.727771473608">
        <ele>0</ele>
        <time>2013-08-29T19:19:12Z</time>
      </trkpt>
      <trkpt lat="59.363459359575" lon="17.72823482504">
        <ele>0</ele>
        <time>2013-08-29T19:19:15Z</time>
      </trkpt>
      <trkpt lat="59.363446870544" lon="17.728382430299">
        <ele>0</ele>
        <time>2013-08-29T19:19:16Z</time>
      </trkpt>
      <trkpt lat="59.363427256898" lon="17.72853070611">
        <ele>0</ele>
        <time>2013-08-29T19:19:17Z</time>
      </trkpt>
      <trkpt lat="59.363410912193" lon="17.72869247678">
        <ele>0</ele>
        <time>2013-08-29T19:19:18Z</time>
      </trkpt>
      <trkpt lat="59.363394064574" lon="17.728846619921">
        <ele>0</ele>
        <time>2013-08-29T19:19:19Z</time>
      </trkpt>
      <trkpt lat="59.363343186441" lon="17.729311983009">
        <ele>0</ele>
        <time>2013-08-29T19:19:22Z</time>
      </trkpt>
      <trkpt lat="59.36326364221" lon="17.729948755952">
        <ele>0</ele>
        <time>2013-08-29T19:19:26Z</time>
      </trkpt>
      <trkpt lat="59.363242184546" lon="17.730104994568">
        <ele>0</ele>
        <time>2013-08-29T19:19:27Z</time>
      </trkpt>
      <trkpt lat="59.363219553416" lon="17.730256036406">
        <ele>0</ele>
        <time>2013-08-29T19:19:28Z</time>
      </trkpt>
      <trkpt lat="59.36319826339" lon="17.730404144579">
        <ele>0</ele>
        <time>2013-08-29T19:19:29Z</time>
      </trkpt>
      <trkpt lat="59.363175967536" lon="17.730548648535">
        <ele>0</ele>
        <time>2013-08-29T19:19:30Z</time>
      </trkpt>
      <trkpt lat="59.363063230981" lon="17.731277119464">
        <ele>0</ele>
        <time>2013-08-29T19:19:35Z</time>
      </trkpt>
      <trkpt lat="59.362861730105" lon="17.732217233368">
        <ele>0</ele>
        <time>2013-08-29T19:19:42Z</time>
      </trkpt>
      <trkpt lat="59.362831722903" lon="17.732340698755">
        <ele>0</ele>
        <time>2013-08-29T19:19:43Z</time>
      </trkpt>
      <trkpt lat="59.362805236099" lon="17.732465002332">
        <ele>0</ele>
        <time>2013-08-29T19:19:44Z</time>
      </trkpt>
      <trkpt lat="59.3627783302" lon="17.732586623701">
        <ele>0</ele>
        <time>2013-08-29T19:19:45Z</time>
      </trkpt>
      <trkpt lat="59.362754106509" lon="17.732703970301">
        <ele>0</ele>
        <time>2013-08-29T19:19:46Z</time>
      </trkpt>
      <trkpt lat="59.362699707978" lon="17.732936903302">
        <ele>0</ele>
        <time>2013-08-29T19:19:48Z</time>
      </trkpt>
      <trkpt lat="59.362670538966" lon="17.7330493884">
        <ele>0</ele>
        <time>2013-08-29T19:19:49Z</time>
      </trkpt>
      <trkpt lat="59.362640280307" lon="17.733162963145">
        <ele>0</ele>
        <time>2013-08-29T19:19:50Z</time>
      </trkpt>
      <trkpt lat="59.36260901582" lon="17.73328072884">
        <ele>0</ele>
        <time>2013-08-29T19:19:51Z</time>
      </trkpt>
      <trkpt lat="59.362575236763" lon="17.733394303585">
        <ele>0</ele>
        <time>2013-08-29T19:19:52Z</time>
      </trkpt>
      <trkpt lat="59.362543469362" lon="17.733509387072">
        <ele>0</ele>
        <time>2013-08-29T19:19:53Z</time>
      </trkpt>
      <trkpt lat="59.362440707268" lon="17.733844495434">
        <ele>0</ele>
        <time>2013-08-29T19:19:56Z</time>
      </trkpt>
      <trkpt lat="59.362180197816" lon="17.734581096806">
        <ele>0</ele>
        <time>2013-08-29T19:20:03Z</time>
      </trkpt>
      <trkpt lat="59.362108784028" lon="17.734778155275">
        <ele>0</ele>
        <time>2013-08-29T19:20:05Z</time>
      </trkpt>
      <trkpt lat="59.36207089784" lon="17.734875217677">
        <ele>0</ele>
        <time>2013-08-29T19:20:06Z</time>
      </trkpt>
      <trkpt lat="59.361663202224" lon="17.735750623313">
        <ele>0</ele>
        <time>2013-08-29T19:26:25Z</time>
      </trkpt>
      <trkpt lat="59.361622298552" lon="17.735791443166">
        <ele>0</ele>
        <time>2013-08-29T19:26:26Z</time>
      </trkpt>
      <trkpt lat="59.36149254674" lon="17.735905353187">
        <ele>0</ele>
        <time>2013-08-29T19:26:29Z</time>
      </trkpt>
      <trkpt lat="59.361308061121" lon="17.736008785833">
        <ele>0</ele>
        <time>2013-08-29T19:26:33Z</time>
      </trkpt>
      <trkpt lat="59.360901874247" lon="17.736195702203">
        <ele>0</ele>
        <time>2013-08-29T19:26:41Z</time>
      </trkpt>
      <trkpt lat="59.360498034305" lon="17.736347749869">
        <ele>0</ele>
        <time>2013-08-29T19:26:48Z</time>
      </trkpt>
      <trkpt lat="59.360083800807" lon="17.736518572991">
        <ele>0</ele>
        <time>2013-08-29T19:26:54Z</time>
      </trkpt>
      <trkpt lat="59.359548616492" lon="17.73673155707">
        <ele>0</ele>
        <time>2013-08-29T19:27:01Z</time>
      </trkpt>
      <trkpt lat="59.359237061269" lon="17.736863571995">
        <ele>0</ele>
        <time>2013-08-29T19:27:05Z</time>
      </trkpt>
      <trkpt lat="59.359151146794" lon="17.736896596681">
        <ele>0</ele>
        <time>2013-08-29T19:27:06Z</time>
      </trkpt>
      <trkpt lat="59.359067579251" lon="17.736931381566">
        <ele>0</ele>
        <time>2013-08-29T19:27:07Z</time>
      </trkpt>
      <trkpt lat="59.358981664776" lon="17.736963903338">
        <ele>0</ele>
        <time>2013-08-29T19:27:08Z</time>
      </trkpt>
      <trkpt lat="59.358891894627" lon="17.736996006015">
        <ele>0</ele>
        <time>2013-08-29T19:27:09Z</time>
      </trkpt>
      <trkpt lat="59.358517391335" lon="17.737145706749">
        <ele>0</ele>
        <time>2013-08-29T19:27:13Z</time>
      </trkpt>
      <trkpt lat="59.358424016969" lon="17.737189292629">
        <ele>0</ele>
        <time>2013-08-29T19:27:14Z</time>
      </trkpt>
      <trkpt lat="59.358331145517" lon="17.737230950672">
        <ele>0</ele>
        <time>2013-08-29T19:27:15Z</time>
      </trkpt>
      <trkpt lat="59.358235591857" lon="17.73726799867">
        <ele>0</ele>
        <time>2013-08-29T19:27:16Z</time>
      </trkpt>
      <trkpt lat="59.358138613274" lon="17.737304711392">
        <ele>0</ele>
        <time>2013-08-29T19:27:17Z</time>
      </trkpt>
      <trkpt lat="59.357642907708" lon="17.737498417101">
        <ele>0</ele>
        <time>2013-08-29T19:27:22Z</time>
      </trkpt>
      <trkpt lat="59.357442831755" lon="17.737583661024">
        <ele>0</ele>
        <time>2013-08-29T19:27:24Z</time>
      </trkpt>
      <trkpt lat="59.357341578403" lon="17.737630432026">
        <ele>0</ele>
        <time>2013-08-29T19:27:25Z</time>
      </trkpt>
      <trkpt lat="59.357239403042" lon="17.737676700114">
        <ele>0</ele>
        <time>2013-08-29T19:27:26Z</time>
      </trkpt>
      <trkpt lat="59.357139574613" lon="17.737714921578">
        <ele>0</ele>
        <time>2013-08-29T19:27:27Z</time>
      </trkpt>
      <trkpt lat="59.357037147795" lon="17.73775666344">
        <ele>0</ele>
        <time>2013-08-29T19:27:28Z</time>
      </trkpt>
      <trkpt lat="59.356940169212" lon="17.737800919872">
        <ele>0</ele>
        <time>2013-08-29T19:27:29Z</time>
      </trkpt>
      <trkpt lat="59.356346814511" lon="17.738044665524">
        <ele>0</ele>
        <time>2013-08-29T19:27:35Z</time>
      </trkpt>
      <trkpt lat="59.355765529746" lon="17.738278352896">
        <ele>0</ele>
        <time>2013-08-29T19:27:41Z</time>
      </trkpt>
      <trkpt lat="59.355568387458" lon="17.738360579335">
        <ele>0</ele>
        <time>2013-08-29T19:27:43Z</time>
      </trkpt>
      <trkpt lat="59.354993975851" lon="17.738596781277">
        <ele>0</ele>
        <time>2013-08-29T19:27:49Z</time>
      </trkpt>
      <trkpt lat="59.354898925105" lon="17.738634835103">
        <ele>0</ele>
        <time>2013-08-29T19:27:50Z</time>
      </trkpt>
      <trkpt lat="59.354326608973" lon="17.738857123091">
        <ele>0</ele>
        <time>2013-08-29T19:27:56Z</time>
      </trkpt>
      <trkpt lat="59.353734846833" lon="17.739099360001">
        <ele>0</ele>
        <time>2013-08-29T19:28:02Z</time>
      </trkpt>
      <trkpt lat="59.353534687061" lon="17.739178988051">
        <ele>0</ele>
        <time>2013-08-29T19:28:04Z</time>
      </trkpt>
      <trkpt lat="59.352930184433" lon="17.739414435622">
        <ele>0</ele>
        <time>2013-08-29T19:28:10Z</time>
      </trkpt>
      <trkpt lat="59.352737400733" lon="17.739499428088">
        <ele>0</ele>
        <time>2013-08-29T19:28:12Z</time>
      </trkpt>
      <trkpt lat="59.352242449538" lon="17.739700761326">
        <ele>0</ele>
        <time>2013-08-29T19:28:17Z</time>
      </trkpt>
      <trkpt lat="59.352144046032" lon="17.739740742989">
        <ele>0</ele>
        <time>2013-08-29T19:28:18Z</time>
      </trkpt>
      <trkpt lat="59.352044552879" lon="17.739783574498">
        <ele>0</ele>
        <time>2013-08-29T19:28:19Z</time>
      </trkpt>
      <trkpt lat="59.351946903744" lon="17.739824226713">
        <ele>0</ele>
        <time>2013-08-29T19:28:20Z</time>
      </trkpt>
      <trkpt lat="59.351851769179" lon="17.739862531996">
        <ele>0</ele>
        <time>2013-08-29T19:28:21Z</time>
      </trkpt>
      <trkpt lat="59.351383220969" lon="17.740057578809">
        <ele>0</ele>
        <time>2013-08-29T19:28:26Z</time>
      </trkpt>
      <trkpt lat="59.350823393868" lon="17.740266707214">
        <ele>0</ele>
        <time>2013-08-29T19:28:32Z</time>
      </trkpt>
      <trkpt lat="59.350549724833" lon="17.740344323608">
        <ele>0</ele>
        <time>2013-08-29T19:28:35Z</time>
      </trkpt>
      <trkpt lat="59.350002554401" lon="17.740413641921">
        <ele>0</ele>
        <time>2013-08-29T19:28:41Z</time>
      </trkpt>
      <trkpt lat="59.349820415714" lon="17.740404002736">
        <ele>0</ele>
        <time>2013-08-29T19:28:43Z</time>
      </trkpt>
      <trkpt lat="59.349219014389" lon="17.740298139339">
        <ele>0</ele>
        <time>2013-08-29T19:28:50Z</time>
      </trkpt>
      <trkpt lat="59.348655247795" lon="17.740181044196">
        <ele>0</ele>
        <time>2013-08-29T19:28:57Z</time>
      </trkpt>
      <trkpt lat="59.34850730726" lon="17.740180457463">
        <ele>0</ele>
        <time>2013-08-29T19:28:59Z</time>
      </trkpt>
      <trkpt lat="59.348382333131" lon="17.740295876226">
        <ele>0</ele>
        <time>2013-08-29T19:29:01Z</time>
      </trkpt>
      <trkpt lat="59.348319217424" lon="17.740534341281">
        <ele>0</ele>
        <time>2013-08-29T19:29:03Z</time>
      </trkpt>
      <trkpt lat="59.348278732847" lon="17.741018982739">
        <ele>0</ele>
        <time>2013-08-29T19:29:06Z</time>
      </trkpt>
      <trkpt lat="59.348265573264" lon="17.741214364828">
        <ele>0</ele>
        <time>2013-08-29T19:29:07Z</time>
      </trkpt>
      <trkpt lat="59.348224250497" lon="17.741792967385">
        <ele>0</ele>
        <time>2013-08-29T19:29:10Z</time>
      </trkpt>
      <trkpt lat="59.348210252724" lon="17.741981643954">
        <ele>0</ele>
        <time>2013-08-29T19:29:11Z</time>
      </trkpt>
      <trkpt lat="59.348195835856" lon="17.742165878116">
        <ele>0</ele>
        <time>2013-08-29T19:29:12Z</time>
      </trkpt>
      <trkpt lat="59.348182005721" lon="17.74234910645">
        <ele>0</ele>
        <time>2013-08-29T19:29:13Z</time>
      </trkpt>
      <trkpt lat="59.348170187242" lon="17.742531328956">
        <ele>0</ele>
        <time>2013-08-29T19:29:14Z</time>
      </trkpt>
      <trkpt lat="59.348161721523" lon="17.742726208131">
        <ele>0</ele>
        <time>2013-08-29T19:29:15Z</time>
      </trkpt>
      <trkpt lat="59.348130540855" lon="17.743818956434">
        <ele>0</ele>
        <time>2013-08-29T19:29:21Z</time>
      </trkpt>
      <trkpt lat="59.348123751516" lon="17.744523706586">
        <ele>0</ele>
        <time>2013-08-29T19:29:25Z</time>
      </trkpt>
      <trkpt lat="59.348127271914" lon="17.745362231862">
        <ele>0</ele>
        <time>2013-08-29T19:29:30Z</time>
      </trkpt>
      <trkpt lat="59.348123164783" lon="17.74553255207">
        <ele>0</ele>
        <time>2013-08-29T19:29:31Z</time>
      </trkpt>
      <trkpt lat="59.348091145925" lon="17.746061533779">
        <ele>0</ele>
        <time>2013-08-29T19:29:34Z</time>
      </trkpt>
      <trkpt lat="59.348044039647" lon="17.746422039298">
        <ele>0</ele>
        <time>2013-08-29T19:29:36Z</time>
      </trkpt>
      <trkpt lat="59.347904229555" lon="17.747490480091">
        <ele>0</ele>
        <time>2013-08-29T19:29:42Z</time>
      </trkpt>
      <trkpt lat="59.347855363078" lon="17.747837826027">
        <ele>0</ele>
        <time>2013-08-29T19:29:44Z</time>
      </trkpt>
      <trkpt lat="59.347742375066" lon="17.748889670658">
        <ele>0</ele>
        <time>2013-08-29T19:29:50Z</time>
      </trkpt>
      <trkpt lat="59.347733154976" lon="17.749065774377">
        <ele>0</ele>
        <time>2013-08-29T19:29:51Z</time>
      </trkpt>
      <trkpt lat="59.347741369238" lon="17.749937659615">
        <ele>0</ele>
        <time>2013-08-29T19:29:56Z</time>
      </trkpt>
      <trkpt lat="59.347850501576" lon="17.750773335045">
        <ele>0</ele>
        <time>2013-08-29T19:30:01Z</time>
      </trkpt>
      <trkpt lat="59.348038339955" lon="17.751561988016">
        <ele>0</ele>
        <time>2013-08-29T19:30:06Z</time>
      </trkpt>
      <trkpt lat="59.348113525598" lon="17.752032631701">
        <ele>0</ele>
        <time>2013-08-29T19:30:09Z</time>
      </trkpt>
      <trkpt lat="59.348132301054" lon="17.75219113343">
        <ele>0</ele>
        <time>2013-08-29T19:30:10Z</time>
      </trkpt>
      <trkpt lat="59.348149064854" lon="17.752346617675">
        <ele>0</ele>
        <time>2013-08-29T19:30:11Z</time>
      </trkpt>
      <trkpt lat="59.34816281117" lon="17.752502018101">
        <ele>0</ele>
        <time>2013-08-29T19:30:12Z</time>
      </trkpt>
      <trkpt lat="59.348172785631" lon="17.752657502346">
        <ele>0</ele>
        <time>2013-08-29T19:30:13Z</time>
      </trkpt>
      <trkpt lat="59.34817286945" lon="17.753152704998">
        <ele>0</ele>
        <time>2013-08-29T19:30:16Z</time>
      </trkpt>
      <trkpt lat="59.348118303281" lon="17.754292391941">
        <ele>0</ele>
        <time>2013-08-29T19:30:23Z</time>
      </trkpt>
      <trkpt lat="59.348072538107" lon="17.755249353464">
        <ele>0</ele>
        <time>2013-08-29T19:30:29Z</time>
      </trkpt>
      <trkpt lat="59.348020737965" lon="17.756102714703">
        <ele>0</ele>
        <time>2013-08-29T19:30:35Z</time>
      </trkpt>
      <trkpt lat="59.348016379377" lon="17.756234394352">
        <ele>0</ele>
        <time>2013-08-29T19:30:36Z</time>
      </trkpt>
      <trkpt lat="59.348013194255" lon="17.756360793404">
        <ele>0</ele>
        <time>2013-08-29T19:30:37Z</time>
      </trkpt>
      <trkpt lat="59.348011769332" lon="17.756486270447">
        <ele>0</ele>
        <time>2013-08-29T19:30:38Z</time>
      </trkpt>
      <trkpt lat="59.348011350237" lon="17.756621302856">
        <ele>0</ele>
        <time>2013-08-29T19:30:39Z</time>
      </trkpt>
      <trkpt lat="59.347988048555" lon="17.756995219415">
        <ele>0</ele>
        <time>2013-08-29T19:30:42Z</time>
      </trkpt>
      <trkpt lat="59.347928201789" lon="17.757962993589">
        <ele>0</ele>
        <time>2013-08-29T19:30:49Z</time>
      </trkpt>
      <trkpt lat="59.347920825717" lon="17.758265328722">
        <ele>0</ele>
        <time>2013-08-29T19:30:51Z</time>
      </trkpt>
      <trkpt lat="59.347936918965" lon="17.758747790886">
        <ele>0</ele>
        <time>2013-08-29T19:30:54Z</time>
      </trkpt>
      <trkpt lat="59.347962735217" lon="17.759091448786">
        <ele>0</ele>
        <time>2013-08-29T19:30:56Z</time>
      </trkpt>
      <trkpt lat="59.347979079922" lon="17.759260930804">
        <ele>0</ele>
        <time>2013-08-29T19:30:57Z</time>
      </trkpt>
      <trkpt lat="59.347996178998" lon="17.759429658451">
        <ele>0</ele>
        <time>2013-08-29T19:30:58Z</time>
      </trkpt>
      <trkpt lat="59.348014619178" lon="17.75959905665">
        <ele>0</ele>
        <time>2013-08-29T19:30:59Z</time>
      </trkpt>
      <trkpt lat="59.348035154833" lon="17.759769795953">
        <ele>0</ele>
        <time>2013-08-29T19:31:00Z</time>
      </trkpt>
      <trkpt lat="59.34805636104" lon="17.759940451437">
        <ele>0</ele>
        <time>2013-08-29T19:31:01Z</time>
      </trkpt>
      <trkpt lat="59.348206480869" lon="17.760981818693">
        <ele>0</ele>
        <time>2013-08-29T19:31:07Z</time>
      </trkpt>
      <trkpt lat="59.348291389516" lon="17.761506693271">
        <ele>0</ele>
        <time>2013-08-29T19:31:10Z</time>
      </trkpt>
      <trkpt lat="59.348444191553" lon="17.762456865455">
        <ele>0</ele>
        <time>2013-08-29T19:31:16Z</time>
      </trkpt>
      <trkpt lat="59.348451902901" lon="17.762599944488">
        <ele>0</ele>
        <time>2013-08-29T19:31:17Z</time>
      </trkpt>
      <trkpt lat="59.348430696694" lon="17.762740425132">
        <ele>0</ele>
        <time>2013-08-29T19:31:18Z</time>
      </trkpt>
      <trkpt lat="59.348384177149" lon="17.762843941597">
        <ele>0</ele>
        <time>2013-08-29T19:31:19Z</time>
      </trkpt>
      <trkpt lat="59.348321145261" lon="17.762922396181">
        <ele>0</ele>
        <time>2013-08-29T19:31:20Z</time>
      </trkpt>
      <trkpt lat="59.348175300201" lon="17.763047035034">
        <ele>0</ele>
        <time>2013-08-29T19:31:22Z</time>
      </trkpt>
      <trkpt lat="59.348026940571" lon="17.763188270049">
        <ele>0</ele>
        <time>2013-08-29T19:31:24Z</time>
      </trkpt>
      <trkpt lat="59.347807837705" lon="17.763406870001">
        <ele>0</ele>
        <time>2013-08-29T19:31:27Z</time>
      </trkpt>
      <trkpt lat="59.347731562415" lon="17.763471410631">
        <ele>0</ele>
        <time>2013-08-29T19:31:28Z</time>
      </trkpt>
      <trkpt lat="59.347651179994" lon="17.763532263225">
        <ele>0</ele>
        <time>2013-08-29T19:31:29Z</time>
      </trkpt>
      <trkpt lat="59.347567780089" lon="17.763591942353">
        <ele>0</ele>
        <time>2013-08-29T19:31:30Z</time>
      </trkpt>
      <trkpt lat="59.347481865614" lon="17.763650950929">
        <ele>0</ele>
        <time>2013-08-29T19:31:31Z</time>
      </trkpt>
      <trkpt lat="59.347045755357" lon="17.763948340741">
        <ele>0</ele>
        <time>2013-08-29T19:31:36Z</time>
      </trkpt>
      <trkpt lat="59.346556587673" lon="17.764206335623">
        <ele>0</ele>
        <time>2013-08-29T19:31:42Z</time>
      </trkpt>
      <trkpt lat="59.346012350906" lon="17.764517471751">
        <ele>0</ele>
        <time>2013-08-29T19:31:49Z</time>
      </trkpt>
      <trkpt lat="59.34593574034" lon="17.764559297432">
        <ele>0</ele>
        <time>2013-08-29T19:31:50Z</time>
      </trkpt>
      <trkpt lat="59.345694173982" lon="17.764663903544">
        <ele>0</ele>
        <time>2013-08-29T19:31:53Z</time>
      </trkpt>
      <trkpt lat="59.345438190756" lon="17.764722241568">
        <ele>0</ele>
        <time>2013-08-29T19:31:56Z</time>
      </trkpt>
      <trkpt lat="59.344989675287" lon="17.764720229912">
        <ele>0</ele>
        <time>2013-08-29T19:32:01Z</time>
      </trkpt>
      <trkpt lat="59.344573011038" lon="17.764531469524">
        <ele>0</ele>
        <time>2013-08-29T19:32:05Z</time>
      </trkpt>
      <trkpt lat="59.344467315279" lon="17.764450165094">
        <ele>0</ele>
        <time>2013-08-29T19:32:06Z</time>
      </trkpt>
      <trkpt lat="59.344358602036" lon="17.764367351922">
        <ele>0</ele>
        <time>2013-08-29T19:32:07Z</time>
      </trkpt>
      <trkpt lat="59.344251565173" lon="17.764279341972">
        <ele>0</ele>
        <time>2013-08-29T19:32:08Z</time>
      </trkpt>
      <trkpt lat="59.344143522482" lon="17.764183033941">
        <ele>0</ele>
        <time>2013-08-29T19:32:09Z</time>
      </trkpt>
      <trkpt lat="59.344038329637" lon="17.764080355666">
        <ele>0</ele>
        <time>2013-08-29T19:32:10Z</time>
      </trkpt>
      <trkpt lat="59.343928359109" lon="17.763972061518">
        <ele>0</ele>
        <time>2013-08-29T19:32:11Z</time>
      </trkpt>
      <trkpt lat="59.343827441033" lon="17.763879441523">
        <ele>0</ele>
        <time>2013-08-29T19:32:12Z</time>
      </trkpt>
      <trkpt lat="59.343726690595" lon="17.763792688858">
        <ele>0</ele>
        <time>2013-08-29T19:32:13Z</time>
      </trkpt>
      <trkpt lat="59.343627867994" lon="17.763706774383">
        <ele>0</ele>
        <time>2013-08-29T19:32:14Z</time>
      </trkpt>
      <trkpt lat="59.343533152524" lon="17.763616752777">
        <ele>0</ele>
        <time>2013-08-29T19:32:15Z</time>
      </trkpt>
      <trkpt lat="59.343442460366" lon="17.763527904637">
        <ele>0</ele>
        <time>2013-08-29T19:32:16Z</time>
      </trkpt>
      <trkpt lat="59.343351684389" lon="17.763440900515">
        <ele>0</ele>
        <time>2013-08-29T19:32:17Z</time>
      </trkpt>
      <trkpt lat="59.34326442881" lon="17.76335498604">
        <ele>0</ele>
        <time>2013-08-29T19:32:18Z</time>
      </trkpt>
      <trkpt lat="59.343173317557" lon="17.763269825936">
        <ele>0</ele>
        <time>2013-08-29T19:32:19Z</time>
      </trkpt>
      <trkpt lat="59.343087654539" lon="17.763192880094">
        <ele>0</ele>
        <time>2013-08-29T19:32:20Z</time>
      </trkpt>
      <trkpt lat="59.342917921064" lon="17.7630398266">
        <ele>0</ele>
        <time>2013-08-29T19:32:22Z</time>
      </trkpt>
      <trkpt lat="59.342396315427" lon="17.762560298101">
        <ele>0</ele>
        <time>2013-08-29T19:32:28Z</time>
      </trkpt>
      <trkpt lat="59.341919217679" lon="17.762096192298">
        <ele>0</ele>
        <time>2013-08-29T19:32:33Z</time>
      </trkpt>
      <trkpt lat="59.341821233268" lon="17.76200969109">
        <ele>0</ele>
        <time>2013-08-29T19:32:34Z</time>
      </trkpt>
      <trkpt lat="59.341726182522" lon="17.761926291185">
        <ele>0</ele>
        <time>2013-08-29T19:32:35Z</time>
      </trkpt>
      <trkpt lat="59.341625934998" lon="17.761839203244">
        <ele>0</ele>
        <time>2013-08-29T19:32:36Z</time>
      </trkpt>
      <trkpt lat="59.341416806593" lon="17.761667458113">
        <ele>0</ele>
        <time>2013-08-29T19:32:38Z</time>
      </trkpt>
      <trkpt lat="59.340979103775" lon="17.761344587325">
        <ele>0</ele>
        <time>2013-08-29T19:32:42Z</time>
      </trkpt>
      <trkpt lat="59.340868965609" lon="17.761260684506">
        <ele>0</ele>
        <time>2013-08-29T19:32:43Z</time>
      </trkpt>
      <trkpt lat="59.340764862411" lon="17.761180888818">
        <ele>0</ele>
        <time>2013-08-29T19:32:44Z</time>
      </trkpt>
      <trkpt lat="59.340664028154" lon="17.761100757854">
        <ele>0</ele>
        <time>2013-08-29T19:32:45Z</time>
      </trkpt>
      <trkpt lat="59.340567803942" lon="17.760995984104">
        <ele>0</ele>
        <time>2013-08-29T19:32:46Z</time>
      </trkpt>
      <trkpt lat="59.340482979114" lon="17.760879391875">
        <ele>0</ele>
        <time>2013-08-29T19:32:47Z</time>
      </trkpt>
      <trkpt lat="59.340410978593" lon="17.760756261764">
        <ele>0</ele>
        <time>2013-08-29T19:32:48Z</time>
      </trkpt>
      <trkpt lat="59.340345432135" lon="17.760624079201">
        <ele>0</ele>
        <time>2013-08-29T19:32:49Z</time>
      </trkpt>
      <trkpt lat="59.340279298944" lon="17.760500529995">
        <ele>0</ele>
        <time>2013-08-29T19:32:50Z</time>
      </trkpt>
      <trkpt lat="59.340214339219" lon="17.760364994672">
        <ele>0</ele>
        <time>2013-08-29T19:32:51Z</time>
      </trkpt>
      <trkpt lat="59.340155163005" lon="17.760223675838">
        <ele>0</ele>
        <time>2013-08-29T19:32:52Z</time>
      </trkpt>
      <trkpt lat="59.340095148601" lon="17.760075902941">
        <ele>0</ele>
        <time>2013-08-29T19:32:53Z</time>
      </trkpt>
      <trkpt lat="59.340047120314" lon="17.759916143927">
        <ele>0</ele>
        <time>2013-08-29T19:32:54Z</time>
      </trkpt>
      <trkpt lat="59.340004037348" lon="17.759758228931">
        <ele>0</ele>
        <time>2013-08-29T19:32:55Z</time>
      </trkpt>
      <trkpt lat="59.339963888047" lon="17.759592099673">
        <ele>0</ele>
        <time>2013-08-29T19:32:56Z</time>
      </trkpt>
      <trkpt lat="59.33992507985" lon="17.759430245184">
        <ele>0</ele>
        <time>2013-08-29T19:32:57Z</time>
      </trkpt>
      <trkpt lat="59.339880823418" lon="17.759266714315">
        <ele>0</ele>
        <time>2013-08-29T19:32:58Z</time>
      </trkpt>
      <trkpt lat="59.33983036438" lon="17.759110475699">
        <ele>0</ele>
        <time>2013-08-29T19:32:59Z</time>
      </trkpt>
      <trkpt lat="59.339775211478" lon="17.75895951768">
        <ele>0</ele>
        <time>2013-08-29T19:33:00Z</time>
      </trkpt>
      <trkpt lat="59.339578404466" lon="17.758560706878">
        <ele>0</ele>
        <time>2013-08-29T19:33:03Z</time>
      </trkpt>
      <trkpt lat="59.339506655402" lon="17.758444701382">
        <ele>0</ele>
        <time>2013-08-29T19:33:04Z</time>
      </trkpt>
      <trkpt lat="59.339083872366" lon="17.757738023393">
        <ele>0</ele>
        <time>2013-08-29T19:33:10Z</time>
      </trkpt>
      <trkpt lat="59.338781285776" lon="17.757361759902">
        <ele>0</ele>
        <time>2013-08-29T19:33:14Z</time>
      </trkpt>
      <trkpt lat="59.33870132245" lon="17.757276264522">
        <ele>0</ele>
        <time>2013-08-29T19:33:15Z</time>
      </trkpt>
      <trkpt lat="59.338623286961" lon="17.757184650355">
        <ele>0</ele>
        <time>2013-08-29T19:33:16Z</time>
      </trkpt>
      <trkpt lat="59.338549945336" lon="17.757082055899">
        <ele>0</ele>
        <time>2013-08-29T19:33:17Z</time>
      </trkpt>
      <trkpt lat="59.338477106625" lon="17.756967726783">
        <ele>0</ele>
        <time>2013-08-29T19:33:18Z</time>
      </trkpt>
      <trkpt lat="59.338410386701" lon="17.756855157866">
        <ele>0</ele>
        <time>2013-08-29T19:33:19Z</time>
      </trkpt>
      <trkpt lat="59.338344002053" lon="17.756743678596">
        <ele>0</ele>
        <time>2013-08-29T19:33:20Z</time>
      </trkpt>
      <trkpt lat="59.338284574382" lon="17.756613842965">
        <ele>0</ele>
        <time>2013-08-29T19:33:21Z</time>
      </trkpt>
      <trkpt lat="59.338106626645" lon="17.756215618896">
        <ele>0</ele>
        <time>2013-08-29T19:33:24Z</time>
      </trkpt>
      <trkpt lat="59.338048707716" lon="17.756083352514">
        <ele>0</ele>
        <time>2013-08-29T19:33:25Z</time>
      </trkpt>
      <trkpt lat="59.337994812099" lon="17.75594622463">
        <ele>0</ele>
        <time>2013-08-29T19:33:26Z</time>
      </trkpt>
      <trkpt lat="59.337941419396" lon="17.755795518068">
        <ele>0</ele>
        <time>2013-08-29T19:33:27Z</time>
      </trkpt>
      <trkpt lat="59.337888613426" lon="17.755643973316">
        <ele>0</ele>
        <time>2013-08-29T19:33:28Z</time>
      </trkpt>
      <trkpt lat="59.337837232379" lon="17.755492512383">
        <ele>0</ele>
        <time>2013-08-29T19:33:29Z</time>
      </trkpt>
      <trkpt lat="59.337599354057" lon="17.754666392319">
        <ele>0</ele>
        <time>2013-08-29T19:33:34Z</time>
      </trkpt>
      <trkpt lat="59.337529365192" lon="17.754501939441">
        <ele>0</ele>
        <time>2013-08-29T19:33:35Z</time>
      </trkpt>
      <trkpt lat="59.337451329703" lon="17.754361710254">
        <ele>0</ele>
        <time>2013-08-29T19:33:36Z</time>
      </trkpt>
      <trkpt lat="59.337364912314" lon="17.7542304497">
        <ele>0</ele>
        <time>2013-08-29T19:33:37Z</time>
      </trkpt>
      <trkpt lat="59.337278411106" lon="17.754104888838">
        <ele>0</ele>
        <time>2013-08-29T19:33:38Z</time>
      </trkpt>
      <trkpt lat="59.337190149699" lon="17.75397647813">
        <ele>0</ele>
        <time>2013-08-29T19:33:39Z</time>
      </trkpt>
      <trkpt lat="59.337100631007" lon="17.753840523712">
        <ele>0</ele>
        <time>2013-08-29T19:33:40Z</time>
      </trkpt>
      <trkpt lat="59.337018320749" lon="17.753680848517">
        <ele>0</ele>
        <time>2013-08-29T19:33:41Z</time>
      </trkpt>
      <trkpt lat="59.336954450671" lon="17.753491920491">
        <ele>0</ele>
        <time>2013-08-29T19:33:42Z</time>
      </trkpt>
      <trkpt lat="59.336854370785" lon="17.752829666572">
        <ele>0</ele>
        <time>2013-08-29T19:33:45Z</time>
      </trkpt>
      <trkpt lat="59.336830230913" lon="17.752594386639">
        <ele>0</ele>
        <time>2013-08-29T19:33:46Z</time>
      </trkpt>
      <trkpt lat="59.336807348326" lon="17.752353407014">
        <ele>0</ele>
        <time>2013-08-29T19:33:47Z</time>
      </trkpt>
      <trkpt lat="59.336780861522" lon="17.752111840656">
        <ele>0</ele>
        <time>2013-08-29T19:33:48Z</time>
      </trkpt>
      <trkpt lat="59.336749764673" lon="17.751874381429">
        <ele>0</ele>
        <time>2013-08-29T19:33:49Z</time>
      </trkpt>
      <trkpt lat="59.336706178793" lon="17.751633150347">
        <ele>0</ele>
        <time>2013-08-29T19:33:50Z</time>
      </trkpt>
      <trkpt lat="59.336651864081" lon="17.751415304766">
        <ele>0</ele>
        <time>2013-08-29T19:33:51Z</time>
      </trkpt>
      <trkpt lat="59.336582881044" lon="17.751227047292">
        <ele>0</ele>
        <time>2013-08-29T19:33:52Z</time>
      </trkpt>
      <trkpt lat="59.336503504451" lon="17.75104700408">
        <ele>0</ele>
        <time>2013-08-29T19:33:53Z</time>
      </trkpt>
      <trkpt lat="59.336431084835" lon="17.750856064398">
        <ele>0</ele>
        <time>2013-08-29T19:33:54Z</time>
      </trkpt>
      <trkpt lat="59.3363669633" lon="17.750647438907">
        <ele>0</ele>
        <time>2013-08-29T19:33:55Z</time>
      </trkpt>
      <trkpt lat="59.336303177041" lon="17.750432359353">
        <ele>0</ele>
        <time>2013-08-29T19:33:56Z</time>
      </trkpt>
      <trkpt lat="59.336227237027" lon="17.750208394985">
        <ele>0</ele>
        <time>2013-08-29T19:33:57Z</time>
      </trkpt>
      <trkpt lat="59.336143753303" lon="17.750007313204">
        <ele>0</ele>
        <time>2013-08-29T19:33:58Z</time>
      </trkpt>
      <trkpt lat="59.336052558231" lon="17.749806315242">
        <ele>0</ele>
        <time>2013-08-29T19:33:59Z</time>
      </trkpt>
      <trkpt lat="59.335960105874" lon="17.749613280085">
        <ele>0</ele>
        <time>2013-08-29T19:34:00Z</time>
      </trkpt>
      <trkpt lat="59.335865558042" lon="17.749425609344">
        <ele>0</ele>
        <time>2013-08-29T19:34:01Z</time>
      </trkpt>
      <trkpt lat="59.335764556147" lon="17.749246488141">
        <ele>0</ele>
        <time>2013-08-29T19:34:02Z</time>
      </trkpt>
      <trkpt lat="59.335659866216" lon="17.749058733581">
        <ele>0</ele>
        <time>2013-08-29T19:34:03Z</time>
      </trkpt>
      <trkpt lat="59.335554002819" lon="17.748861172198">
        <ele>0</ele>
        <time>2013-08-29T19:34:04Z</time>
      </trkpt>
      <trkpt lat="59.335140607511" lon="17.748142508092">
        <ele>0</ele>
        <time>2013-08-29T19:34:08Z</time>
      </trkpt>
      <trkpt lat="59.33503759396" lon="17.747966739649">
        <ele>0</ele>
        <time>2013-08-29T19:34:09Z</time>
      </trkpt>
      <trkpt lat="59.334930473278" lon="17.74781075249">
        <ele>0</ele>
        <time>2013-08-29T19:34:10Z</time>
      </trkpt>
      <trkpt lat="59.334826705356" lon="17.747682174144">
        <ele>0</ele>
        <time>2013-08-29T19:34:11Z</time>
      </trkpt>
      <trkpt lat="59.334711705688" lon="17.747552506151">
        <ele>0</ele>
        <time>2013-08-29T19:34:12Z</time>
      </trkpt>
      <trkpt lat="59.334597628029" lon="17.747449241143">
        <ele>0</ele>
        <time>2013-08-29T19:34:13Z</time>
      </trkpt>
      <trkpt lat="59.334367209598" lon="17.747300797694">
        <ele>0</ele>
        <time>2013-08-29T19:34:15Z</time>
      </trkpt>
      <trkpt lat="59.334255981785" lon="17.747240028919">
        <ele>0</ele>
        <time>2013-08-29T19:34:16Z</time>
      </trkpt>
      <trkpt lat="59.334150034569" lon="17.747174901556">
        <ele>0</ele>
        <time>2013-08-29T19:34:17Z</time>
      </trkpt>
      <trkpt lat="59.334039393489" lon="17.747099380637">
        <ele>0</ele>
        <time>2013-08-29T19:34:18Z</time>
      </trkpt>
      <trkpt lat="59.333938307775" lon="17.747032241618">
        <ele>0</ele>
        <time>2013-08-29T19:34:19Z</time>
      </trkpt>
      <trkpt lat="59.333839149898" lon="17.746972394852">
        <ele>0</ele>
        <time>2013-08-29T19:34:20Z</time>
      </trkpt>
      <trkpt lat="59.33374426679" lon="17.746912380448">
        <ele>0</ele>
        <time>2013-08-29T19:34:21Z</time>
      </trkpt>
      <trkpt lat="59.333654245184" lon="17.746855718804">
        <ele>0</ele>
        <time>2013-08-29T19:34:22Z</time>
      </trkpt>
      <trkpt lat="59.333569839451" lon="17.746801655549">
        <ele>0</ele>
        <time>2013-08-29T19:34:23Z</time>
      </trkpt>
      <trkpt lat="59.333492223057" lon="17.746753962538">
        <ele>0</ele>
        <time>2013-08-29T19:34:24Z</time>
      </trkpt>
      <trkpt lat="59.333420809269" lon="17.746709957563">
        <ele>0</ele>
        <time>2013-08-29T19:34:25Z</time>
      </trkpt>
      <trkpt lat="59.333353251155" lon="17.746678441619">
        <ele>0</ele>
        <time>2013-08-29T19:34:26Z</time>
      </trkpt>
      <trkpt lat="59.33328577686" lon="17.746651116625">
        <ele>0</ele>
        <time>2013-08-29T19:34:27Z</time>
      </trkpt>
      <trkpt lat="59.333229031397" lon="17.746620774147">
        <ele>0</ele>
        <time>2013-08-29T19:34:28Z</time>
      </trkpt>
      <trkpt lat="59.333175554875" lon="17.746585989262">
        <ele>0</ele>
        <time>2013-08-29T19:34:29Z</time>
      </trkpt>
      <trkpt lat="59.333125850208" lon="17.746548019255">
        <ele>0</ele>
        <time>2013-08-29T19:34:30Z</time>
      </trkpt>
      <trkpt lat="59.333079498301" lon="17.746505439203">
        <ele>0</ele>
        <time>2013-08-29T19:34:31Z</time>
      </trkpt>
      <trkpt lat="59.333008168332" lon="17.746383650196">
        <ele>0</ele>
        <time>2013-08-29T19:34:33Z</time>
      </trkpt>
      <trkpt lat="59.332950584679" lon="17.746056756096">
        <ele>0</ele>
        <time>2013-08-29T19:34:37Z</time>
      </trkpt>
      <trkpt lat="59.332947734833" lon="17.745991461095">
        <ele>0</ele>
        <time>2013-08-29T19:34:38Z</time>
      </trkpt>
      <trkpt lat="59.33294630991" lon="17.745934967089">
        <ele>0</ele>
        <time>2013-08-29T19:34:39Z</time>
      </trkpt>
      <trkpt lat="59.332947315738" lon="17.745883921318">
        <ele>0</ele>
        <time>2013-08-29T19:34:40Z</time>
      </trkpt>
      <trkpt lat="59.332948573023" lon="17.745842179456">
        <ele>0</ele>
        <time>2013-08-29T19:34:41Z</time>
      </trkpt>
      <trkpt lat="59.332950584679" lon="17.745813764815">
        <ele>0</ele>
        <time>2013-08-29T19:34:42Z</time>
      </trkpt>
      <trkpt lat="59.332510702567" lon="17.745824745104">
        <ele>0</ele>
        <time>2013-08-29T19:35:58Z</time>
      </trkpt>
      <trkpt lat="59.332458902425" lon="17.745849052614">
        <ele>0</ele>
        <time>2013-08-29T19:35:59Z</time>
      </trkpt>
      <trkpt lat="59.332147766297" lon="17.745967237404">
        <ele>0</ele>
        <time>2013-08-29T19:36:04Z</time>
      </trkpt>
      <trkpt lat="59.331779465611" lon="17.746021384478">
        <ele>0</ele>
        <time>2013-08-29T19:36:09Z</time>
      </trkpt>
      <trkpt lat="59.331225170564" lon="17.746114423568">
        <ele>0</ele>
        <time>2013-08-29T19:36:16Z</time>
      </trkpt>
      <trkpt lat="59.330679425055" lon="17.746189190116">
        <ele>0</ele>
        <time>2013-08-29T19:36:23Z</time>
      </trkpt>
      <trkpt lat="59.33011155133" lon="17.746246857588">
        <ele>0</ele>
        <time>2013-08-29T19:36:30Z</time>
      </trkpt>
      <trkpt lat="59.32951224548" lon="17.746310895304">
        <ele>0</ele>
        <time>2013-08-29T19:36:37Z</time>
      </trkpt>
      <trkpt lat="59.329180154602" lon="17.746345512551">
        <ele>0</ele>
        <time>2013-08-29T19:36:41Z</time>
      </trkpt>
      <trkpt lat="59.328677072964" lon="17.746417261615">
        <ele>0</ele>
        <time>2013-08-29T19:36:47Z</time>
      </trkpt>
      <trkpt lat="59.328600965312" lon="17.746428996275">
        <ele>0</ele>
        <time>2013-08-29T19:36:48Z</time>
      </trkpt>
      <trkpt lat="59.328519157968" lon="17.746438551641">
        <ele>0</ele>
        <time>2013-08-29T19:36:49Z</time>
      </trkpt>
      <trkpt lat="59.328441541574" lon="17.746450286301">
        <ele>0</ele>
        <time>2013-08-29T19:36:50Z</time>
      </trkpt>
      <trkpt lat="59.328363254628" lon="17.746464703169">
        <ele>0</ele>
        <time>2013-08-29T19:36:51Z</time>
      </trkpt>
      <trkpt lat="59.327882385025" lon="17.746575344249">
        <ele>0</ele>
        <time>2013-08-29T19:36:57Z</time>
      </trkpt>
      <trkpt lat="59.327313756929" lon="17.746719093834">
        <ele>0</ele>
        <time>2013-08-29T19:37:04Z</time>
      </trkpt>
      <trkpt lat="59.327151818621" lon="17.746767289759">
        <ele>0</ele>
        <time>2013-08-29T19:37:06Z</time>
      </trkpt>
      <trkpt lat="59.326720318409" lon="17.746884384902">
        <ele>0</ele>
        <time>2013-08-29T19:37:11Z</time>
      </trkpt>
      <trkpt lat="59.326630632079" lon="17.746905674928">
        <ele>0</ele>
        <time>2013-08-29T19:37:12Z</time>
      </trkpt>
      <trkpt lat="59.326536503342" lon="17.746931239723">
        <ele>0</ele>
        <time>2013-08-29T19:37:13Z</time>
      </trkpt>
      <trkpt lat="59.326445475908" lon="17.746956217785">
        <ele>0</ele>
        <time>2013-08-29T19:37:14Z</time>
      </trkpt>
      <trkpt lat="59.326355119026" lon="17.746981028209">
        <ele>0</ele>
        <time>2013-08-29T19:37:15Z</time>
      </trkpt>
      <trkpt lat="59.32608488657" lon="17.747048670142">
        <ele>0</ele>
        <time>2013-08-29T19:37:18Z</time>
      </trkpt>
      <trkpt lat="59.325994948783" lon="17.747073312928">
        <ele>0</ele>
        <time>2013-08-29T19:37:19Z</time>
      </trkpt>
      <trkpt lat="59.325901155322" lon="17.747100218827">
        <ele>0</ele>
        <time>2013-08-29T19:37:20Z</time>
      </trkpt>
      <trkpt lat="59.325811888087" lon="17.747123520509">
        <ele>0</ele>
        <time>2013-08-29T19:37:21Z</time>
      </trkpt>
      <trkpt lat="59.325720944472" lon="17.747147576562">
        <ele>0</ele>
        <time>2013-08-29T19:37:22Z</time>
      </trkpt>
      <trkpt lat="59.325632431608" lon="17.747174314823">
        <ele>0</ele>
        <time>2013-08-29T19:37:23Z</time>
      </trkpt>
      <trkpt lat="59.325541655631" lon="17.747196778315">
        <ele>0</ele>
        <time>2013-08-29T19:37:24Z</time>
      </trkpt>
      <trkpt lat="59.325448532722" lon="17.747219241807">
        <ele>0</ele>
        <time>2013-08-29T19:37:25Z</time>
      </trkpt>
      <trkpt lat="59.325356331822" lon="17.74723743053">
        <ele>0</ele>
        <time>2013-08-29T19:37:26Z</time>
      </trkpt>
      <trkpt lat="59.325267064587" lon="17.747261905678">
        <ele>0</ele>
        <time>2013-08-29T19:37:27Z</time>
      </trkpt>
      <trkpt lat="59.325178970818" lon="17.747293002527">
        <ele>0</ele>
        <time>2013-08-29T19:37:28Z</time>
      </trkpt>
      <trkpt lat="59.3249172879" lon="17.747456533396">
        <ele>0</ele>
        <time>2013-08-29T19:37:31Z</time>
      </trkpt>
      <trkpt lat="59.324835061461" lon="17.747549404848">
        <ele>0</ele>
        <time>2013-08-29T19:37:32Z</time>
      </trkpt>
      <trkpt lat="59.324616293871" lon="17.747901360829">
        <ele>0</ele>
        <time>2013-08-29T19:37:35Z</time>
      </trkpt>
      <trkpt lat="59.324550495956" lon="17.748032789021">
        <ele>0</ele>
        <time>2013-08-29T19:37:36Z</time>
      </trkpt>
      <trkpt lat="59.324232821946" lon="17.748765367081">
        <ele>0</ele>
        <time>2013-08-29T19:37:42Z</time>
      </trkpt>
      <trkpt lat="59.324086222515" lon="17.749095446303">
        <ele>0</ele>
        <time>2013-08-29T19:37:45Z</time>
      </trkpt>
      <trkpt lat="59.324037439857" lon="17.749203069899">
        <ele>0</ele>
        <time>2013-08-29T19:37:46Z</time>
      </trkpt>
      <trkpt lat="59.323988070466" lon="17.749312537513">
        <ele>0</ele>
        <time>2013-08-29T19:37:47Z</time>
      </trkpt>
      <trkpt lat="59.323939287808" lon="17.749419490557">
        <ele>0</ele>
        <time>2013-08-29T19:37:48Z</time>
      </trkpt>
      <trkpt lat="59.323890086055" lon="17.749529963999">
        <ele>0</ele>
        <time>2013-08-29T19:37:49Z</time>
      </trkpt>
      <trkpt lat="59.323840129931" lon="17.749638593423">
        <ele>0</ele>
        <time>2013-08-29T19:37:50Z</time>
      </trkpt>
      <trkpt lat="59.323596971012" lon="17.75020797589">
        <ele>0</ele>
        <time>2013-08-29T19:37:55Z</time>
      </trkpt>
      <trkpt lat="59.323509547795" lon="17.750466306048">
        <ele>0</ele>
        <time>2013-08-29T19:37:57Z</time>
      </trkpt>
      <trkpt lat="59.323314500982" lon="17.751266777498">
        <ele>0</ele>
        <time>2013-08-29T19:38:03Z</time>
      </trkpt>
      <trkpt lat="59.323131691743" lon="17.752349970435">
        <ele>0</ele>
        <time>2013-08-29T19:38:11Z</time>
      </trkpt>
      <trkpt lat="59.323045693449" lon="17.753072490215">
        <ele>0</ele>
        <time>2013-08-29T19:38:16Z</time>
      </trkpt>
      <trkpt lat="59.323045022897" lon="17.753225124614">
        <ele>0</ele>
        <time>2013-08-29T19:38:17Z</time>
      </trkpt>
      <trkpt lat="59.323059104489" lon="17.753531566878">
        <ele>0</ele>
        <time>2013-08-29T19:38:19Z</time>
      </trkpt>
      <trkpt lat="59.323068324579" lon="17.753687051123">
        <ele>0</ele>
        <time>2013-08-29T19:38:20Z</time>
      </trkpt>
      <trkpt lat="59.323074191909" lon="17.753843708834">
        <ele>0</ele>
        <time>2013-08-29T19:38:21Z</time>
      </trkpt>
      <trkpt lat="59.323078382859" lon="17.754002042925">
        <ele>0</ele>
        <time>2013-08-29T19:38:22Z</time>
      </trkpt>
      <trkpt lat="59.323069330407" lon="17.754958250077">
        <ele>0</ele>
        <time>2013-08-29T19:38:28Z</time>
      </trkpt>
      <trkpt lat="59.323085758931" lon="17.756157867605">
        <ele>0</ele>
        <time>2013-08-29T19:38:36Z</time>
      </trkpt>
      <trkpt lat="59.323085172198" lon="17.756310502004">
        <ele>0</ele>
        <time>2013-08-29T19:38:37Z</time>
      </trkpt>
      <trkpt lat="59.323087351492" lon="17.756465231878">
        <ele>0</ele>
        <time>2013-08-29T19:38:38Z</time>
      </trkpt>
      <trkpt lat="59.323092296813" lon="17.756607388902">
        <ele>0</ele>
        <time>2013-08-29T19:38:39Z</time>
      </trkpt>
      <trkpt lat="59.323093218822" lon="17.756751138487">
        <ele>0</ele>
        <time>2013-08-29T19:38:40Z</time>
      </trkpt>
      <trkpt lat="59.323094057012" lon="17.756897402642">
        <ele>0</ele>
        <time>2013-08-29T19:38:41Z</time>
      </trkpt>
      <trkpt lat="59.323096655401" lon="17.757043247702">
        <ele>0</ele>
        <time>2013-08-29T19:38:42Z</time>
      </trkpt>
      <trkpt lat="59.323098164143" lon="17.757185740002">
        <ele>0</ele>
        <time>2013-08-29T19:38:43Z</time>
      </trkpt>
      <trkpt lat="59.323095481935" lon="17.758326265135">
        <ele>0</ele>
        <time>2013-08-29T19:38:51Z</time>
      </trkpt>
      <trkpt lat="59.3230816518" lon="17.758771846939">
        <ele>0</ele>
        <time>2013-08-29T19:38:54Z</time>
      </trkpt>
      <trkpt lat="59.323032366228" lon="17.759174345777">
        <ele>0</ele>
        <time>2013-08-29T19:38:57Z</time>
      </trkpt>
      <trkpt lat="59.322969669616" lon="17.759542395006">
        <ele>0</ele>
        <time>2013-08-29T19:39:00Z</time>
      </trkpt>
      <trkpt lat="59.322948714866" lon="17.759652365534">
        <ele>0</ele>
        <time>2013-08-29T19:39:01Z</time>
      </trkpt>
      <trkpt lat="59.322930861419" lon="17.759764012442">
        <ele>0</ele>
        <time>2013-08-29T19:39:02Z</time>
      </trkpt>
      <trkpt lat="59.32291569018" lon="17.759875072617">
        <ele>0</ele>
        <time>2013-08-29T19:39:03Z</time>
      </trkpt>
      <trkpt lat="59.322896579448" lon="17.759976912702">
        <ele>0</ele>
        <time>2013-08-29T19:39:04Z</time>
      </trkpt>
      <trkpt lat="59.322878055449" lon="17.760075819122">
        <ele>0</ele>
        <time>2013-08-29T19:39:05Z</time>
      </trkpt>
      <trkpt lat="59.322857184518" lon="17.76017740775">
        <ele>0</ele>
        <time>2013-08-29T19:39:06Z</time>
      </trkpt>
      <trkpt lat="59.322832374094" lon="17.760282852052">
        <ele>0</ele>
        <time>2013-08-29T19:39:07Z</time>
      </trkpt>
      <trkpt lat="59.322803456539" lon="17.760390140372">
        <ele>0</ele>
        <time>2013-08-29T19:39:08Z</time>
      </trkpt>
      <trkpt lat="59.322774790441" lon="17.760488040964">
        <ele>0</ele>
        <time>2013-08-29T19:39:09Z</time>
      </trkpt>
      <trkpt lat="59.322739754099" lon="17.760591557429">
        <ele>0</ele>
        <time>2013-08-29T19:39:10Z</time>
      </trkpt>
      <trkpt lat="59.322702203187" lon="17.76068786546">
        <ele>0</ele>
        <time>2013-08-29T19:39:11Z</time>
      </trkpt>
      <trkpt lat="59.322665825741" lon="17.76078006636">
        <ele>0</ele>
        <time>2013-08-29T19:39:12Z</time>
      </trkpt>
      <trkpt lat="59.322624502974" lon="17.760872015803">
        <ele>0</ele>
        <time>2013-08-29T19:39:13Z</time>
      </trkpt>
      <trkpt lat="59.322588209347" lon="17.760958265554">
        <ele>0</ele>
        <time>2013-08-29T19:39:14Z</time>
      </trkpt>
      <trkpt lat="59.322470276014" lon="17.761193964582">
        <ele>0</ele>
        <time>2013-08-29T19:39:17Z</time>
      </trkpt>
      <trkpt lat="59.322288556422" lon="17.761567545865">
        <ele>0</ele>
        <time>2013-08-29T19:39:21Z</time>
      </trkpt>
      <trkpt lat="59.322143549552" lon="17.76188899173">
        <ele>0</ele>
        <time>2013-08-29T19:39:24Z</time>
      </trkpt>
      <trkpt lat="59.322095353627" lon="17.761988317245">
        <ele>0</ele>
        <time>2013-08-29T19:39:25Z</time>
      </trkpt>
      <trkpt lat="59.322042966752" lon="17.762087810398">
        <ele>0</ele>
        <time>2013-08-29T19:39:26Z</time>
      </trkpt>
      <trkpt lat="59.321991920981" lon="17.762188309379">
        <ele>0</ele>
        <time>2013-08-29T19:39:27Z</time>
      </trkpt>
      <trkpt lat="59.321940288477" lon="17.76229299931">
        <ele>0</ele>
        <time>2013-08-29T19:39:28Z</time>
      </trkpt>
      <trkpt lat="59.321540723304" lon="17.763140074124">
        <ele>0</ele>
        <time>2013-08-29T19:39:36Z</time>
      </trkpt>
      <trkpt lat="59.321485821859" lon="17.763248368272">
        <ele>0</ele>
        <time>2013-08-29T19:39:37Z</time>
      </trkpt>
      <trkpt lat="59.321260432568" lon="17.763698392483">
        <ele>0</ele>
        <time>2013-08-29T19:39:41Z</time>
      </trkpt>
      <trkpt lat="59.321189521694" lon="17.763791766849">
        <ele>0</ele>
        <time>2013-08-29T19:39:42Z</time>
      </trkpt>
      <trkpt lat="59.321118275544" lon="17.763898216979">
        <ele>0</ele>
        <time>2013-08-29T19:39:43Z</time>
      </trkpt>
      <trkpt lat="59.321053399638" lon="17.764023610203">
        <ele>0</ele>
        <time>2013-08-29T19:39:44Z</time>
      </trkpt>
      <trkpt lat="59.320987266447" lon="17.764162246829">
        <ele>0</ele>
        <time>2013-08-29T19:39:45Z</time>
      </trkpt>
      <trkpt lat="59.320925491844" lon="17.764296441048">
        <ele>0</ele>
        <time>2013-08-29T19:39:46Z</time>
      </trkpt>
      <trkpt lat="59.320861537947" lon="17.764425438489">
        <ele>0</ele>
        <time>2013-08-29T19:39:47Z</time>
      </trkpt>
      <trkpt lat="59.320798673697" lon="17.764552340455">
        <ele>0</ele>
        <time>2013-08-29T19:39:48Z</time>
      </trkpt>
      <trkpt lat="59.320736982913" lon="17.764676895489">
        <ele>0</ele>
        <time>2013-08-29T19:39:49Z</time>
      </trkpt>
      <trkpt lat="59.32049248289" lon="17.765159860567">
        <ele>0</ele>
        <time>2013-08-29T19:39:53Z</time>
      </trkpt>
      <trkpt lat="59.320309506013" lon="17.765524054122">
        <ele>0</ele>
        <time>2013-08-29T19:39:56Z</time>
      </trkpt>
      <trkpt lat="59.320247396134" lon="17.765643663835">
        <ele>0</ele>
        <time>2013-08-29T19:39:57Z</time>
      </trkpt>
      <trkpt lat="59.320184196608" lon="17.765763189729">
        <ele>0</ele>
        <time>2013-08-29T19:39:58Z</time>
      </trkpt>
      <trkpt lat="59.320119907435" lon="17.765881542157">
        <ele>0</ele>
        <time>2013-08-29T19:39:59Z</time>
      </trkpt>
      <trkpt lat="59.320053522787" lon="17.766012215978">
        <ele>0</ele>
        <time>2013-08-29T19:40:00Z</time>
      </trkpt>
      <trkpt lat="59.319724449393" lon="17.766668686386">
        <ele>0</ele>
        <time>2013-08-29T19:40:05Z</time>
      </trkpt>
      <trkpt lat="59.31965596927" lon="17.766802629148">
        <ele>0</ele>
        <time>2013-08-29T19:40:06Z</time>
      </trkpt>
      <trkpt lat="59.319583130559" lon="17.76694327743">
        <ele>0</ele>
        <time>2013-08-29T19:40:07Z</time>
      </trkpt>
      <trkpt lat="59.319511884409" lon="17.767073951251">
        <ele>0</ele>
        <time>2013-08-29T19:40:08Z</time>
      </trkpt>
      <trkpt lat="59.319441308811" lon="17.767198673923">
        <ele>0</ele>
        <time>2013-08-29T19:40:09Z</time>
      </trkpt>
      <trkpt lat="59.319030008978" lon="17.7679683838">
        <ele>0</ele>
        <time>2013-08-29T19:40:15Z</time>
      </trkpt>
      <trkpt lat="59.318599346956" lon="17.768685622983">
        <ele>0</ele>
        <time>2013-08-29T19:40:21Z</time>
      </trkpt>
      <trkpt lat="59.318523490761" lon="17.768791989294">
        <ele>0</ele>
        <time>2013-08-29T19:40:22Z</time>
      </trkpt>
      <trkpt lat="59.318440509951" lon="17.768895924854">
        <ele>0</ele>
        <time>2013-08-29T19:40:23Z</time>
      </trkpt>
      <trkpt lat="59.318363312652" lon="17.768984689175">
        <ele>0</ele>
        <time>2013-08-29T19:40:24Z</time>
      </trkpt>
      <trkpt lat="59.318284355154" lon="17.76907060365">
        <ele>0</ele>
        <time>2013-08-29T19:40:25Z</time>
      </trkpt>
      <trkpt lat="59.318205313837" lon="17.769157607772">
        <ele>0</ele>
        <time>2013-08-29T19:40:26Z</time>
      </trkpt>
      <trkpt lat="59.317712625755" lon="17.769593047477">
        <ele>0</ele>
        <time>2013-08-29T19:40:32Z</time>
      </trkpt>
      <trkpt lat="59.317634422628" lon="17.769658761573">
        <ele>0</ele>
        <time>2013-08-29T19:40:33Z</time>
      </trkpt>
      <trkpt lat="59.317172999033" lon="17.770047849371">
        <ele>0</ele>
        <time>2013-08-29T19:40:39Z</time>
      </trkpt>
      <trkpt lat="59.316956075461" lon="17.7702314968">
        <ele>0</ele>
        <time>2013-08-29T19:40:42Z</time>
      </trkpt>
      <trkpt lat="59.316883739664" lon="17.770288326082">
        <ele>0</ele>
        <time>2013-08-29T19:40:43Z</time>
      </trkpt>
      <trkpt lat="59.316810146582" lon="17.770350855056">
        <ele>0</ele>
        <time>2013-08-29T19:40:44Z</time>
      </trkpt>
      <trkpt lat="59.316738648975" lon="17.770406427053">
        <ele>0</ele>
        <time>2013-08-29T19:40:45Z</time>
      </trkpt>
      <trkpt lat="59.316667402825" lon="17.770453784788">
        <ele>0</ele>
        <time>2013-08-29T19:40:46Z</time>
      </trkpt>
      <trkpt lat="59.31613221851" lon="17.770781936173">
        <ele>0</ele>
        <time>2013-08-29T19:40:53Z</time>
      </trkpt>
      <trkpt lat="59.315547916261" lon="17.77112500734">
        <ele>0</ele>
        <time>2013-08-29T19:41:00Z</time>
      </trkpt>
      <trkpt lat="59.315458397569" lon="17.771162809709">
        <ele>0</ele>
        <time>2013-08-29T19:41:01Z</time>
      </trkpt>
      <trkpt lat="59.315368962696" lon="17.771197510775">
        <ele>0</ele>
        <time>2013-08-29T19:41:02Z</time>
      </trkpt>
      <trkpt lat="59.315280030737" lon="17.771230367823">
        <ele>0</ele>
        <time>2013-08-29T19:41:03Z</time>
      </trkpt>
      <trkpt lat="59.315190176769" lon="17.771281078318">
        <ele>0</ele>
        <time>2013-08-29T19:41:04Z</time>
      </trkpt>
      <trkpt lat="59.315101747724" lon="17.771349893717">
        <ele>0</ele>
        <time>2013-08-29T19:41:05Z</time>
      </trkpt>
      <trkpt lat="59.315011642299" lon="17.771420553134">
        <ele>0</ele>
        <time>2013-08-29T19:41:06Z</time>
      </trkpt>
      <trkpt lat="59.314823133368" lon="17.771579976872">
        <ele>0</ele>
        <time>2013-08-29T19:41:08Z</time>
      </trkpt>
      <trkpt lat="59.314727579708" lon="17.771649881918">
        <ele>0</ele>
        <time>2013-08-29T19:41:09Z</time>
      </trkpt>
      <trkpt lat="59.314633870066" lon="17.771725570475">
        <ele>0</ele>
        <time>2013-08-29T19:41:10Z</time>
      </trkpt>
      <trkpt lat="59.314541752985" lon="17.771802683955">
        <ele>0</ele>
        <time>2013-08-29T19:41:11Z</time>
      </trkpt>
      <trkpt lat="59.314449552085" lon="17.7718743492">
        <ele>0</ele>
        <time>2013-08-29T19:41:12Z</time>
      </trkpt>
      <trkpt lat="59.314060967201" lon="17.772127063485">
        <ele>0</ele>
        <time>2013-08-29T19:41:16Z</time>
      </trkpt>
      <trkpt lat="59.313961222591" lon="17.772193280495">
        <ele>0</ele>
        <time>2013-08-29T19:41:17Z</time>
      </trkpt>
      <trkpt lat="59.313865082198" lon="17.772255390374">
        <ele>0</ele>
        <time>2013-08-29T19:41:18Z</time>
      </trkpt>
      <trkpt lat="59.313766762511" lon="17.772318422262">
        <ele>0</ele>
        <time>2013-08-29T19:41:19Z</time>
      </trkpt>
      <trkpt lat="59.313670370661" lon="17.772379274856">
        <ele>0</ele>
        <time>2013-08-29T19:41:20Z</time>
      </trkpt>
      <trkpt lat="59.313285389994" lon="17.772629642209">
        <ele>0</ele>
        <time>2013-08-29T19:41:24Z</time>
      </trkpt>
      <trkpt lat="59.312703686134" lon="17.773009929012">
        <ele>0</ele>
        <time>2013-08-29T19:41:30Z</time>
      </trkpt>
      <trkpt lat="59.312604444438" lon="17.77307799004">
        <ele>0</ele>
        <time>2013-08-29T19:41:31Z</time>
      </trkpt>
      <trkpt lat="59.312495982652" lon="17.773145380516">
        <ele>0</ele>
        <time>2013-08-29T19:41:32Z</time>
      </trkpt>
      <trkpt lat="59.312394980757" lon="17.773210340241">
        <ele>0</ele>
        <time>2013-08-29T19:41:33Z</time>
      </trkpt>
      <trkpt lat="59.312291967206" lon="17.773276138156">
        <ele>0</ele>
        <time>2013-08-29T19:41:34Z</time>
      </trkpt>
      <trkpt lat="59.3117157954" lon="17.773657514606">
        <ele>0</ele>
        <time>2013-08-29T19:41:40Z</time>
      </trkpt>
      <trkpt lat="59.311165775122" lon="17.774012404252">
        <ele>0</ele>
        <time>2013-08-29T19:41:46Z</time>
      </trkpt>
      <trkpt lat="59.310576276095" lon="17.774382297499">
        <ele>0</ele>
        <time>2013-08-29T19:41:52Z</time>
      </trkpt>
      <trkpt lat="59.310382318929" lon="17.774503332135">
        <ele>0</ele>
        <time>2013-08-29T19:41:54Z</time>
      </trkpt>
      <trkpt lat="59.309826766597" lon="17.774890073001">
        <ele>0</ele>
        <time>2013-08-29T19:42:00Z</time>
      </trkpt>
      <trkpt lat="59.309736493534" lon="17.774960900056">
        <ele>0</ele>
        <time>2013-08-29T19:42:01Z</time>
      </trkpt>
      <trkpt lat="59.309183288134" lon="17.775404973118">
        <ele>0</ele>
        <time>2013-08-29T19:42:07Z</time>
      </trkpt>
      <trkpt lat="59.308998718696" lon="17.775586441253">
        <ele>0</ele>
        <time>2013-08-29T19:42:09Z</time>
      </trkpt>
      <trkpt lat="59.308483483303" lon="17.776096563687">
        <ele>0</ele>
        <time>2013-08-29T19:42:15Z</time>
      </trkpt>
      <trkpt lat="59.308396060086" lon="17.776174850633">
        <ele>0</ele>
        <time>2013-08-29T19:42:16Z</time>
      </trkpt>
      <trkpt lat="59.308300757883" lon="17.776264620782">
        <ele>0</ele>
        <time>2013-08-29T19:42:17Z</time>
      </trkpt>
      <trkpt lat="59.308211658286" lon="17.776347936868">
        <ele>0</ele>
        <time>2013-08-29T19:42:18Z</time>
      </trkpt>
      <trkpt lat="59.308122223413" lon="17.776441059777">
        <ele>0</ele>
        <time>2013-08-29T19:42:19Z</time>
      </trkpt>
      <trkpt lat="59.308033878187" lon="17.776532673944">
        <ele>0</ele>
        <time>2013-08-29T19:42:20Z</time>
      </trkpt>
      <trkpt lat="59.307856349545" lon="17.776730235327">
        <ele>0</ele>
        <time>2013-08-29T19:42:22Z</time>
      </trkpt>
      <trkpt lat="59.307311526045" lon="17.77729911488">
        <ele>0</ele>
        <time>2013-08-29T19:42:28Z</time>
      </trkpt>
      <trkpt lat="59.307227539407" lon="17.777387711563">
        <ele>0</ele>
        <time>2013-08-29T19:42:29Z</time>
      </trkpt>
      <trkpt lat="59.306842726378" lon="17.777866318053">
        <ele>0</ele>
        <time>2013-08-29T19:42:35Z</time>
      </trkpt>
      <trkpt lat="59.306696462223" lon="17.778037057356">
        <ele>0</ele>
        <time>2013-08-29T19:42:37Z</time>
      </trkpt>
      <trkpt lat="59.306463948317" lon="17.778288262899">
        <ele>0</ele>
        <time>2013-08-29T19:42:40Z</time>
      </trkpt>
      <trkpt lat="59.306111740879" lon="17.778637117577">
        <ele>0</ele>
        <time>2013-08-29T19:42:45Z</time>
      </trkpt>
      <trkpt lat="59.305724664737" lon="17.779085549227">
        <ele>0</ele>
        <time>2013-08-29T19:42:50Z</time>
      </trkpt>
      <trkpt lat="59.30533800769" lon="17.779736403762">
        <ele>0</ele>
        <time>2013-08-29T19:42:56Z</time>
      </trkpt>
      <trkpt lat="59.305225438773" lon="17.779922481942">
        <ele>0</ele>
        <time>2013-08-29T19:42:58Z</time>
      </trkpt>
      <trkpt lat="59.30504464119" lon="17.780198497909">
        <ele>0</ele>
        <time>2013-08-29T19:43:01Z</time>
      </trkpt>
      <trkpt lat="59.304635185375" lon="17.780914563626">
        <ele>0</ele>
        <time>2013-08-29T19:43:08Z</time>
      </trkpt>
      <trkpt lat="59.304577601722" lon="17.781025791439">
        <ele>0</ele>
        <time>2013-08-29T19:43:09Z</time>
      </trkpt>
      <trkpt lat="59.304169654649" lon="17.781840260662">
        <ele>0</ele>
        <time>2013-08-29T19:43:16Z</time>
      </trkpt>
      <trkpt lat="59.303774448064" lon="17.782719521972">
        <ele>0</ele>
        <time>2013-08-29T19:43:23Z</time>
      </trkpt>
      <trkpt lat="59.303666321554" lon="17.782988329505">
        <ele>0</ele>
        <time>2013-08-29T19:43:25Z</time>
      </trkpt>
      <trkpt lat="59.303315371401" lon="17.783916038197">
        <ele>0</ele>
        <time>2013-08-29T19:43:32Z</time>
      </trkpt>
      <trkpt lat="59.303265415277" lon="17.78405744085">
        <ele>0</ele>
        <time>2013-08-29T19:43:33Z</time>
      </trkpt>
      <trkpt lat="59.302987052378" lon="17.784903509836">
        <ele>0</ele>
        <time>2013-08-29T19:43:39Z</time>
      </trkpt>
      <trkpt lat="59.302740875975" lon="17.78574974646">
        <ele>0</ele>
        <time>2013-08-29T19:43:45Z</time>
      </trkpt>
      <trkpt lat="59.302532418122" lon="17.786487605117">
        <ele>0</ele>
        <time>2013-08-29T19:43:50Z</time>
      </trkpt>
      <trkpt lat="59.302454717909" lon="17.786791029897">
        <ele>0</ele>
        <time>2013-08-29T19:43:52Z</time>
      </trkpt>
      <trkpt lat="59.302372659108" lon="17.787282879789">
        <ele>0</ele>
        <time>2013-08-29T19:43:55Z</time>
      </trkpt>
      <trkpt lat="59.30225765944" lon="17.788170774456">
        <ele>0</ele>
        <time>2013-08-29T19:44:01Z</time>
      </trkpt>
      <trkpt lat="59.302133104406" lon="17.789317837471">
        <ele>0</ele>
        <time>2013-08-29T19:44:09Z</time>
      </trkpt>
      <trkpt lat="59.302051297062" lon="17.790472276558">
        <ele>0</ele>
        <time>2013-08-29T19:44:17Z</time>
      </trkpt>
      <trkpt lat="59.302037131651" lon="17.790750052724">
        <ele>0</ele>
        <time>2013-08-29T19:44:19Z</time>
      </trkpt>
      <trkpt lat="59.302028582113" lon="17.790891539196">
        <ele>0</ele>
        <time>2013-08-29T19:44:20Z</time>
      </trkpt>
      <trkpt lat="59.302018859109" lon="17.791028750899">
        <ele>0</ele>
        <time>2013-08-29T19:44:21Z</time>
      </trkpt>
      <trkpt lat="59.302001592395" lon="17.791162023109">
        <ele>0</ele>
        <time>2013-08-29T19:44:22Z</time>
      </trkpt>
      <trkpt lat="59.301991869391" lon="17.791294624767">
        <ele>0</ele>
        <time>2013-08-29T19:44:23Z</time>
      </trkpt>
      <trkpt lat="59.301980637645" lon="17.791562175015">
        <ele>0</ele>
        <time>2013-08-29T19:44:25Z</time>
      </trkpt>
      <trkpt lat="59.301978374532" lon="17.791686478592">
        <ele>0</ele>
        <time>2013-08-29T19:44:26Z</time>
      </trkpt>
      <trkpt lat="59.301976781971" lon="17.791821678639">
        <ele>0</ele>
        <time>2013-08-29T19:44:27Z</time>
      </trkpt>
      <trkpt lat="59.301973010116" lon="17.791953945021">
        <ele>0</ele>
        <time>2013-08-29T19:44:28Z</time>
      </trkpt>
      <trkpt lat="59.301969741175" lon="17.792088809792">
        <ele>0</ele>
        <time>2013-08-29T19:44:29Z</time>
      </trkpt>
      <trkpt lat="59.301969489718" lon="17.792652492567">
        <ele>0</ele>
        <time>2013-08-29T19:44:33Z</time>
      </trkpt>
      <trkpt lat="59.301971417555" lon="17.792791464469">
        <ele>0</ele>
        <time>2013-08-29T19:44:34Z</time>
      </trkpt>
      <trkpt lat="59.301976614333" lon="17.792927418887">
        <ele>0</ele>
        <time>2013-08-29T19:44:35Z</time>
      </trkpt>
      <trkpt lat="59.301982816939" lon="17.793065552599">
        <ele>0</ele>
        <time>2013-08-29T19:44:36Z</time>
      </trkpt>
      <trkpt lat="59.301991366477" lon="17.79320377013">
        <ele>0</ele>
        <time>2013-08-29T19:44:37Z</time>
      </trkpt>
      <trkpt lat="59.302006705354" lon="17.793338048168">
        <ele>0</ele>
        <time>2013-08-29T19:44:38Z</time>
      </trkpt>
      <trkpt lat="59.302075017839" lon="17.793802740704">
        <ele>0</ele>
        <time>2013-08-29T19:44:41Z</time>
      </trkpt>
      <trkpt lat="59.30208247773" lon="17.794463988795">
        <ele>0</ele>
        <time>2013-08-29T19:44:45Z</time>
      </trkpt>
      <trkpt lat="59.30207074307" lon="17.794802701374">
        <ele>0</ele>
        <time>2013-08-29T19:44:47Z</time>
      </trkpt>
      <trkpt lat="59.302071748898" lon="17.795125069248">
        <ele>0</ele>
        <time>2013-08-29T19:44:49Z</time>
      </trkpt>
      <trkpt lat="59.30207996316" lon="17.796259224137">
        <ele>0</ele>
        <time>2013-08-29T19:44:56Z</time>
      </trkpt>
      <trkpt lat="59.302072670907" lon="17.796589051902">
        <ele>0</ele>
        <time>2013-08-29T19:44:58Z</time>
      </trkpt>
      <trkpt lat="59.302041657877" lon="17.796925585187">
        <ele>0</ele>
        <time>2013-08-29T19:45:00Z</time>
      </trkpt>
      <trkpt lat="59.302027660104" lon="17.797093558463">
        <ele>0</ele>
        <time>2013-08-29T19:45:01Z</time>
      </trkpt>
      <trkpt lat="59.302016679815" lon="17.797259603902">
        <ele>0</ele>
        <time>2013-08-29T19:45:02Z</time>
      </trkpt>
      <trkpt lat="59.302012740322" lon="17.797423721504">
        <ele>0</ele>
        <time>2013-08-29T19:45:03Z</time>
      </trkpt>
      <trkpt lat="59.302013410874" lon="17.79758666564">
        <ele>0</ele>
        <time>2013-08-29T19:45:04Z</time>
      </trkpt>
      <trkpt lat="59.302019194385" lon="17.797747765758">
        <ele>0</ele>
        <time>2013-08-29T19:45:05Z</time>
      </trkpt>
      <trkpt lat="59.302097397512" lon="17.798914023324">
        <ele>0</ele>
        <time>2013-08-29T19:45:12Z</time>
      </trkpt>
      <trkpt lat="59.302119106633" lon="17.799245359831">
        <ele>0</ele>
        <time>2013-08-29T19:45:14Z</time>
      </trkpt>
      <trkpt lat="59.302131176569" lon="17.79941140527">
        <ele>0</ele>
        <time>2013-08-29T19:45:15Z</time>
      </trkpt>
      <trkpt lat="59.302146263989" lon="17.799575019958">
        <ele>0</ele>
        <time>2013-08-29T19:45:16Z</time>
      </trkpt>
      <trkpt lat="59.302163279246" lon="17.79974165213">
        <ele>0</ele>
        <time>2013-08-29T19:45:17Z</time>
      </trkpt>
      <trkpt lat="59.302178115209" lon="17.799906021189">
        <ele>0</ele>
        <time>2013-08-29T19:45:18Z</time>
      </trkpt>
      <trkpt lat="59.302291773773" lon="17.801098011188">
        <ele>0</ele>
        <time>2013-08-29T19:45:25Z</time>
      </trkpt>
      <trkpt lat="59.302368384339" lon="17.802181287944">
        <ele>0</ele>
        <time>2013-08-29T19:45:31Z</time>
      </trkpt>
      <trkpt lat="59.302374084031" lon="17.802360576785">
        <ele>0</ele>
        <time>2013-08-29T19:45:32Z</time>
      </trkpt>
      <trkpt lat="59.302375592773" lon="17.802531483726">
        <ele>0</ele>
        <time>2013-08-29T19:45:33Z</time>
      </trkpt>
      <trkpt lat="59.302376179506" lon="17.802696188061">
        <ele>0</ele>
        <time>2013-08-29T19:45:34Z</time>
      </trkpt>
      <trkpt lat="59.302371318004" lon="17.802846391709">
        <ele>0</ele>
        <time>2013-08-29T19:45:35Z</time>
      </trkpt>
      <trkpt lat="59.302354638023" lon="17.803136824544">
        <ele>0</ele>
        <time>2013-08-29T19:45:37Z</time>
      </trkpt>
      <trkpt lat="59.302278446552" lon="17.803969566309">
        <ele>0</ele>
        <time>2013-08-29T19:45:42Z</time>
      </trkpt>
      <trkpt lat="59.302171912603" lon="17.80510690632">
        <ele>0</ele>
        <time>2013-08-29T19:45:48Z</time>
      </trkpt>
      <trkpt lat="59.302091027268" lon="17.805894218187">
        <ele>0</ele>
        <time>2013-08-29T19:45:52Z</time>
      </trkpt>
      <trkpt lat="59.302071665079" lon="17.806091444294">
        <ele>0</ele>
        <time>2013-08-29T19:45:53Z</time>
      </trkpt>
      <trkpt lat="59.302052973442" lon="17.806276265189">
        <ele>0</ele>
        <time>2013-08-29T19:45:54Z</time>
      </trkpt>
      <trkpt lat="59.302034868538" lon="17.806466115224">
        <ele>0</ele>
        <time>2013-08-29T19:45:55Z</time>
      </trkpt>
      <trkpt lat="59.30201374615" lon="17.806650600843">
        <ele>0</ele>
        <time>2013-08-29T19:45:56Z</time>
      </trkpt>
      <trkpt lat="59.301922634897" lon="17.807360966868">
        <ele>0</ele>
        <time>2013-08-29T19:46:00Z</time>
      </trkpt>
      <trkpt lat="59.301888688202" lon="17.80752089352">
        <ele>0</ele>
        <time>2013-08-29T19:46:01Z</time>
      </trkpt>
      <trkpt lat="59.301852562213" lon="17.807681071629">
        <ele>0</ele>
        <time>2013-08-29T19:46:02Z</time>
      </trkpt>
      <trkpt lat="59.30180503684" lon="17.807833706028">
        <ele>0</ele>
        <time>2013-08-29T19:46:03Z</time>
      </trkpt>
      <trkpt lat="59.301745441531" lon="17.8079835744">
        <ele>0</ele>
        <time>2013-08-29T19:46:04Z</time>
      </trkpt>
      <trkpt lat="59.301451572117" lon="17.808488835332">
        <ele>0</ele>
        <time>2013-08-29T19:46:08Z</time>
      </trkpt>
      <trkpt lat="59.301029124357" lon="17.809092164494">
        <ele>0</ele>
        <time>2013-08-29T19:46:13Z</time>
      </trkpt>
      <trkpt lat="59.300752437838" lon="17.80939760093">
        <ele>0</ele>
        <time>2013-08-29T19:46:16Z</time>
      </trkpt>
      <trkpt lat="59.300658812015" lon="17.809483766862">
        <ele>0</ele>
        <time>2013-08-29T19:46:17Z</time>
      </trkpt>
      <trkpt lat="59.300563593631" lon="17.809564736016">
        <ele>0</ele>
        <time>2013-08-29T19:46:18Z</time>
      </trkpt>
      <trkpt lat="59.300466028315" lon="17.809637155632">
        <ele>0</ele>
        <time>2013-08-29T19:46:19Z</time>
      </trkpt>
      <trkpt lat="59.300367876266" lon="17.809700690434">
        <ele>0</ele>
        <time>2013-08-29T19:46:20Z</time>
      </trkpt>
      <trkpt lat="59.300158747861" lon="17.809810325686">
        <ele>0</ele>
        <time>2013-08-29T19:46:22Z</time>
      </trkpt>
      <trkpt lat="59.300049196428" lon="17.809834800834">
        <ele>0</ele>
        <time>2013-08-29T19:46:23Z</time>
      </trkpt>
      <trkpt lat="59.299943584488" lon="17.809862964018">
        <ele>0</ele>
        <time>2013-08-29T19:46:24Z</time>
      </trkpt>
      <trkpt lat="59.299829087734" lon="17.809899592921">
        <ele>0</ele>
        <time>2013-08-29T19:46:25Z</time>
      </trkpt>
      <trkpt lat="59.299713166057" lon="17.809942005335">
        <ele>0</ele>
        <time>2013-08-29T19:46:26Z</time>
      </trkpt>
      <trkpt lat="59.299487609128" lon="17.810070751319">
        <ele>0</ele>
        <time>2013-08-29T19:46:28Z</time>
      </trkpt>
      <trkpt lat="59.299372274184" lon="17.810119953072">
        <ele>0</ele>
        <time>2013-08-29T19:46:29Z</time>
      </trkpt>
      <trkpt lat="59.299251407186" lon="17.810154737957">
        <ele>0</ele>
        <time>2013-08-29T19:46:30Z</time>
      </trkpt>
      <trkpt lat="59.299123834668" lon="17.810190863946">
        <ele>0</ele>
        <time>2013-08-29T19:46:31Z</time>
      </trkpt>
      <trkpt lat="59.2990004531" lon="17.810222966623">
        <ele>0</ele>
        <time>2013-08-29T19:46:32Z</time>
      </trkpt>
      <trkpt lat="59.298875730428" lon="17.810258924974">
        <ele>0</ele>
        <time>2013-08-29T19:46:33Z</time>
      </trkpt>
      <trkpt lat="59.298754611973" lon="17.810295470058">
        <ele>0</ele>
        <time>2013-08-29T19:46:34Z</time>
      </trkpt>
      <trkpt lat="59.298632655328" lon="17.810325561079">
        <ele>0</ele>
        <time>2013-08-29T19:46:35Z</time>
      </trkpt>
      <trkpt lat="59.298512794158" lon="17.810357579937">
        <ele>0</ele>
        <time>2013-08-29T19:46:36Z</time>
      </trkpt>
      <trkpt lat="59.298392346255" lon="17.810389766433">
        <ele>0</ele>
        <time>2013-08-29T19:46:37Z</time>
      </trkpt>
      <trkpt lat="59.297817599372" lon="17.810543574298">
        <ele>0</ele>
        <time>2013-08-29T19:46:42Z</time>
      </trkpt>
      <trkpt lat="59.297610147347" lon="17.810599816847">
        <ele>0</ele>
        <time>2013-08-29T19:46:44Z</time>
      </trkpt>
      <trkpt lat="59.297140090395" lon="17.810726886451">
        <ele>0</ele>
        <time>2013-08-29T19:46:49Z</time>
      </trkpt>
      <trkpt lat="59.296538186156" lon="17.810855045702">
        <ele>0</ele>
        <time>2013-08-29T19:46:56Z</time>
      </trkpt>
      <trkpt lat="59.296450092387" lon="17.810875832814">
        <ele>0</ele>
        <time>2013-08-29T19:46:57Z</time>
      </trkpt>
      <trkpt lat="59.296364932283" lon="17.81089879922">
        <ele>0</ele>
        <time>2013-08-29T19:46:58Z</time>
      </trkpt>
      <trkpt lat="59.296283376396" lon="17.810921178893">
        <ele>0</ele>
        <time>2013-08-29T19:46:59Z</time>
      </trkpt>
      <trkpt lat="59.296199725034" lon="17.810947330421">
        <ele>0</ele>
        <time>2013-08-29T19:47:00Z</time>
      </trkpt>
      <trkpt lat="59.296116576586" lon="17.810978762546">
        <ele>0</ele>
        <time>2013-08-29T19:47:01Z</time>
      </trkpt>
      <trkpt lat="59.29603912783" lon="17.811006422816">
        <ele>0</ele>
        <time>2013-08-29T19:47:02Z</time>
      </trkpt>
      <trkpt lat="59.295959583599" lon="17.811032741982">
        <ele>0</ele>
        <time>2013-08-29T19:47:03Z</time>
      </trkpt>
      <trkpt lat="59.295880542282" lon="17.811054618741">
        <ele>0</ele>
        <time>2013-08-29T19:47:04Z</time>
      </trkpt>
      <trkpt lat="59.295551636526" lon="17.811156458826">
        <ele>0</ele>
        <time>2013-08-29T19:47:08Z</time>
      </trkpt>
      <trkpt lat="59.295033383649" lon="17.811319738238">
        <ele>0</ele>
        <time>2013-08-29T19:47:15Z</time>
      </trkpt>
      <trkpt lat="59.294964484431" lon="17.811338346056">
        <ele>0</ele>
        <time>2013-08-29T19:47:16Z</time>
      </trkpt>
      <trkpt lat="59.294899440887" lon="17.811355528951">
        <ele>0</ele>
        <time>2013-08-29T19:47:17Z</time>
      </trkpt>
      <trkpt lat="59.294839007388" lon="17.811372041294">
        <ele>0</ele>
        <time>2013-08-29T19:47:18Z</time>
      </trkpt>
      <trkpt lat="59.294780837002" lon="17.811391487302">
        <ele>0</ele>
        <time>2013-08-29T19:47:19Z</time>
      </trkpt>
      <trkpt lat="59.29465527614" lon="17.811427445653">
        <ele>0</ele>
        <time>2013-08-29T19:47:21Z</time>
      </trkpt>
      <trkpt lat="59.294217238046" lon="17.811551330135">
        <ele>0</ele>
        <time>2013-08-29T19:47:28Z</time>
      </trkpt>
      <trkpt lat="59.293998218999" lon="17.811638753352">
        <ele>0</ele>
        <time>2013-08-29T19:47:33Z</time>
      </trkpt>
      <trkpt lat="59.293951531816" lon="17.81173196008">
        <ele>0</ele>
        <time>2013-08-29T19:47:36Z</time>
      </trkpt>
      <trkpt lat="59.293952789101" lon="17.811789040819">
        <ele>0</ele>
        <time>2013-08-29T19:47:37Z</time>
      </trkpt>
      <trkpt lat="59.293976509878" lon="17.812040078724">
        <ele>0</ele>
        <time>2013-08-29T19:47:42Z</time>
      </trkpt>
      <trkpt lat="59.293879447476" lon="17.812201514118">
        <ele>0</ele>
        <time>2013-08-29T19:47:45Z</time>
      </trkpt>
      <trkpt lat="59.293852206301" lon="17.812506280002">
        <ele>0</ele>
        <time>2013-08-29T19:47:49Z</time>
      </trkpt>
      <trkpt lat="59.293823875479" lon="17.813053618072">
        <ele>0</ele>
        <time>2013-08-29T19:47:56Z</time>
      </trkpt>
      <trkpt lat="59.293782217436" lon="17.813511269812">
        <ele>0</ele>
        <time>2013-08-29T19:48:01Z</time>
      </trkpt>
      <trkpt lat="59.293728405638" lon="17.814123986702">
        <ele>0</ele>
        <time>2013-08-29T19:48:08Z</time>
      </trkpt>
      <trkpt lat="59.293669732338" lon="17.814748857347">
        <ele>0</ele>
        <time>2013-08-29T19:48:14Z</time>
      </trkpt>
      <trkpt lat="59.293579543094" lon="17.815396023846">
        <ele>0</ele>
        <time>2013-08-29T19:48:20Z</time>
      </trkpt>
      <trkpt lat="59.293564036579" lon="17.815537677956">
        <ele>0</ele>
        <time>2013-08-29T19:48:21Z</time>
      </trkpt>
      <trkpt lat="59.293542411277" lon="17.815684696482">
        <ele>0</ele>
        <time>2013-08-29T19:48:22Z</time>
      </trkpt>
      <trkpt lat="59.293523971097" lon="17.815836492691">
        <ele>0</ele>
        <time>2013-08-29T19:48:23Z</time>
      </trkpt>
      <trkpt lat="59.293502429614" lon="17.81600253813">
        <ele>0</ele>
        <time>2013-08-29T19:48:24Z</time>
      </trkpt>
      <trkpt lat="59.293482983606" lon="17.816166404275">
        <ele>0</ele>
        <time>2013-08-29T19:48:25Z</time>
      </trkpt>
      <trkpt lat="59.293423555935" lon="17.81703015907">
        <ele>0</ele>
        <time>2013-08-29T19:48:30Z</time>
      </trkpt>
      <trkpt lat="59.293389273964" lon="17.817562325901">
        <ele>0</ele>
        <time>2013-08-29T19:48:33Z</time>
      </trkpt>
      <trkpt lat="59.2933761982" lon="17.817745386597">
        <ele>0</ele>
        <time>2013-08-29T19:48:34Z</time>
      </trkpt>
      <trkpt lat="59.293365720825" lon="17.817933811709">
        <ele>0</ele>
        <time>2013-08-29T19:48:35Z</time>
      </trkpt>
      <trkpt lat="59.293352393604" lon="17.818123577925">
        <ele>0</ele>
        <time>2013-08-29T19:48:36Z</time>
      </trkpt>
      <trkpt lat="59.293337892917" lon="17.818320636394">
        <ele>0</ele>
        <time>2013-08-29T19:48:37Z</time>
      </trkpt>
      <trkpt lat="59.293265892396" lon="17.819503154846">
        <ele>0</ele>
        <time>2013-08-29T19:48:43Z</time>
      </trkpt>
      <trkpt lat="59.293209733666" lon="17.820282503908">
        <ele>0</ele>
        <time>2013-08-29T19:48:48Z</time>
      </trkpt>
      <trkpt lat="59.29319263459" lon="17.820738563087">
        <ele>0</ele>
        <time>2013-08-29T19:48:52Z</time>
      </trkpt>
      <trkpt lat="59.293202860508" lon="17.820879798102">
        <ele>0</ele>
        <time>2013-08-29T19:48:53Z</time>
      </trkpt>
      <trkpt lat="59.293241165791" lon="17.821505506937">
        <ele>0</ele>
        <time>2013-08-29T19:48:57Z</time>
      </trkpt>
      <trkpt lat="59.293323308411" lon="17.822245880164">
        <ele>0</ele>
        <time>2013-08-29T19:49:02Z</time>
      </trkpt>
      <trkpt lat="59.293342502962" lon="17.822384768247">
        <ele>0</ele>
        <time>2013-08-29T19:49:03Z</time>
      </trkpt>
      <trkpt lat="59.29336446354" lon="17.822532708782">
        <ele>0</ele>
        <time>2013-08-29T19:49:04Z</time>
      </trkpt>
      <trkpt lat="59.293384244824" lon="17.822689366493">
        <ele>0</ele>
        <time>2013-08-29T19:49:05Z</time>
      </trkpt>
      <trkpt lat="59.293443840133" lon="17.82314475512">
        <ele>0</ele>
        <time>2013-08-29T19:49:08Z</time>
      </trkpt>
      <trkpt lat="59.293528413504" lon="17.82392427182">
        <ele>0</ele>
        <time>2013-08-29T19:49:13Z</time>
      </trkpt>
      <trkpt lat="59.293559929448" lon="17.824786014959">
        <ele>0</ele>
        <time>2013-08-29T19:49:18Z</time>
      </trkpt>
      <trkpt lat="59.293564623312" lon="17.824980558858">
        <ele>0</ele>
        <time>2013-08-29T19:49:19Z</time>
      </trkpt>
      <trkpt lat="59.293567137882" lon="17.825151214342">
        <ele>0</ele>
        <time>2013-08-29T19:49:20Z</time>
      </trkpt>
      <trkpt lat="59.293571831746" lon="17.825315415763">
        <ele>0</ele>
        <time>2013-08-29T19:49:21Z</time>
      </trkpt>
      <trkpt lat="59.293578537266" lon="17.825463523936">
        <ele>0</ele>
        <time>2013-08-29T19:49:22Z</time>
      </trkpt>
      <trkpt lat="59.29358239294" lon="17.825606602969">
        <ele>0</ele>
        <time>2013-08-29T19:49:23Z</time>
      </trkpt>
      <trkpt lat="59.293584236958" lon="17.825756052246">
        <ele>0</ele>
        <time>2013-08-29T19:49:24Z</time>
      </trkpt>
      <trkpt lat="59.293583901682" lon="17.825907596998">
        <ele>0</ele>
        <time>2013-08-29T19:49:25Z</time>
      </trkpt>
      <trkpt lat="59.293584488415" lon="17.826055453714">
        <ele>0</ele>
        <time>2013-08-29T19:49:26Z</time>
      </trkpt>
      <trkpt lat="59.293590607202" lon="17.826208758665">
        <ele>0</ele>
        <time>2013-08-29T19:49:27Z</time>
      </trkpt>
      <trkpt lat="59.293599827292" lon="17.826363739996">
        <ele>0</ele>
        <time>2013-08-29T19:49:28Z</time>
      </trkpt>
      <trkpt lat="59.293714994598" lon="17.827169156767">
        <ele>0</ele>
        <time>2013-08-29T19:49:33Z</time>
      </trkpt>
      <trkpt lat="59.293935354749" lon="17.828050597371">
        <ele>0</ele>
        <time>2013-08-29T19:49:39Z</time>
      </trkpt>
      <trkpt lat="59.294151440131" lon="17.828785438544">
        <ele>0</ele>
        <time>2013-08-29T19:49:44Z</time>
      </trkpt>
      <trkpt lat="59.294238947167" lon="17.829075619922">
        <ele>0</ele>
        <time>2013-08-29T19:49:46Z</time>
      </trkpt>
      <trkpt lat="59.294282784504" lon="17.829220291516">
        <ele>0</ele>
        <time>2013-08-29T19:49:47Z</time>
      </trkpt>
      <trkpt lat="59.294326957117" lon="17.82936663949">
        <ele>0</ele>
        <time>2013-08-29T19:49:48Z</time>
      </trkpt>
      <trkpt lat="59.294369201893" lon="17.829519022432">
        <ele>0</ele>
        <time>2013-08-29T19:49:49Z</time>
      </trkpt>
      <trkpt lat="59.294411614307" lon="17.829688336812">
        <ele>0</ele>
        <time>2013-08-29T19:49:50Z</time>
      </trkpt>
      <trkpt lat="59.294558465195" lon="17.830610178174">
        <ele>0</ele>
        <time>2013-08-29T19:49:55Z</time>
      </trkpt>
      <trkpt lat="59.294613031364" lon="17.831740645027">
        <ele>0</ele>
        <time>2013-08-29T19:50:01Z</time>
      </trkpt>
      <trkpt lat="59.294655862873" lon="17.832127050617">
        <ele>0</ele>
        <time>2013-08-29T19:50:03Z</time>
      </trkpt>
      <trkpt lat="59.294678577822" lon="17.832333580633">
        <ele>0</ele>
        <time>2013-08-29T19:50:04Z</time>
      </trkpt>
      <trkpt lat="59.294702801513" lon="17.832538518088">
        <ele>0</ele>
        <time>2013-08-29T19:50:05Z</time>
      </trkpt>
      <trkpt lat="59.294730461783" lon="17.832746053932">
        <ele>0</ele>
        <time>2013-08-29T19:50:06Z</time>
      </trkpt>
      <trkpt lat="59.294758457329" lon="17.832955182337">
        <ele>0</ele>
        <time>2013-08-29T19:50:07Z</time>
      </trkpt>
      <trkpt lat="59.294875887748" lon="17.833751881932">
        <ele>0</ele>
        <time>2013-08-29T19:50:11Z</time>
      </trkpt>
      <trkpt lat="59.294893070643" lon="17.833947096383">
        <ele>0</ele>
        <time>2013-08-29T19:50:12Z</time>
      </trkpt>
      <trkpt lat="59.294919389809" lon="17.834507677855">
        <ele>0</ele>
        <time>2013-08-29T19:50:15Z</time>
      </trkpt>
      <trkpt lat="59.294924418949" lon="17.83530437745">
        <ele>0</ele>
        <time>2013-08-29T19:50:19Z</time>
      </trkpt>
      <trkpt lat="59.294919473628" lon="17.835507806163">
        <ele>0</ele>
        <time>2013-08-29T19:50:20Z</time>
      </trkpt>
      <trkpt lat="59.294913773936" lon="17.835700757501">
        <ele>0</ele>
        <time>2013-08-29T19:50:21Z</time>
      </trkpt>
      <trkpt lat="59.294912349013" lon="17.835892535373">
        <ele>0</ele>
        <time>2013-08-29T19:50:22Z</time>
      </trkpt>
      <trkpt lat="59.294910337357" lon="17.836076601897">
        <ele>0</ele>
        <time>2013-08-29T19:50:23Z</time>
      </trkpt>
      <trkpt lat="59.294907655149" lon="17.836434089932">
        <ele>0</ele>
        <time>2013-08-29T19:50:25Z</time>
      </trkpt>
      <trkpt lat="59.294916539963" lon="17.836768192466">
        <ele>0</ele>
        <time>2013-08-29T19:50:27Z</time>
      </trkpt>
      <trkpt lat="59.294933639039" lon="17.836937842122">
        <ele>0</ele>
        <time>2013-08-29T19:50:28Z</time>
      </trkpt>
      <trkpt lat="59.294953085047" lon="17.837105815398">
        <ele>0</ele>
        <time>2013-08-29T19:50:29Z</time>
      </trkpt>
      <trkpt lat="59.294987450837" lon="17.837269681543">
        <ele>0</ele>
        <time>2013-08-29T19:50:30Z</time>
      </trkpt>
      <trkpt lat="59.295032377821" lon="17.837431284575">
        <ele>0</ele>
        <time>2013-08-29T19:50:31Z</time>
      </trkpt>
      <trkpt lat="59.295138492675" lon="17.837748288033">
        <ele>0</ele>
        <time>2013-08-29T19:50:33Z</time>
      </trkpt>
      <trkpt lat="59.295201859839" lon="17.837887511392">
        <ele>0</ele>
        <time>2013-08-29T19:50:34Z</time>
      </trkpt>
      <trkpt lat="59.295566556308" lon="17.838488409803">
        <ele>0</ele>
        <time>2013-08-29T19:50:39Z</time>
      </trkpt>
      <trkpt lat="59.296022950763" lon="17.839287037235">
        <ele>0</ele>
        <time>2013-08-29T19:50:45Z</time>
      </trkpt>
      <trkpt lat="59.29608271371" lon="17.839446293335">
        <ele>0</ele>
        <time>2013-08-29T19:50:46Z</time>
      </trkpt>
      <trkpt lat="59.296136693146" lon="17.839626420366">
        <ele>0</ele>
        <time>2013-08-29T19:50:47Z</time>
      </trkpt>
      <trkpt lat="59.296212214065" lon="17.840000169287">
        <ele>0</ele>
        <time>2013-08-29T19:50:49Z</time>
      </trkpt>
      <trkpt lat="59.296374822925" lon="17.841100712757">
        <ele>0</ele>
        <time>2013-08-29T19:50:55Z</time>
      </trkpt>
      <trkpt lat="59.296398459883" lon="17.841282851444">
        <ele>0</ele>
        <time>2013-08-29T19:50:56Z</time>
      </trkpt>
      <trkpt lat="59.296419749909" lon="17.841451830548">
        <ele>0</ele>
        <time>2013-08-29T19:50:57Z</time>
      </trkpt>
      <trkpt lat="59.296438022451" lon="17.841623240403">
        <ele>0</ele>
        <time>2013-08-29T19:50:58Z</time>
      </trkpt>
      <trkpt lat="59.296451349672" lon="17.841797500104">
        <ele>0</ele>
        <time>2013-08-29T19:50:59Z</time>
      </trkpt>
      <trkpt lat="59.296469622214" lon="17.841960192783">
        <ele>0</ele>
        <time>2013-08-29T19:51:00Z</time>
      </trkpt>
      <trkpt lat="59.296481356874" lon="17.842113497734">
        <ele>0</ele>
        <time>2013-08-29T19:51:01Z</time>
      </trkpt>
      <trkpt lat="59.296493175353" lon="17.842288008892">
        <ele>0</ele>
        <time>2013-08-29T19:51:02Z</time>
      </trkpt>
      <trkpt lat="59.296507340764" lon="17.842452126494">
        <ele>0</ele>
        <time>2013-08-29T19:51:03Z</time>
      </trkpt>
      <trkpt lat="59.296519075424" lon="17.842624123082">
        <ele>0</ele>
        <time>2013-08-29T19:51:04Z</time>
      </trkpt>
      <trkpt lat="59.296535839224" lon="17.842794275652">
        <ele>0</ele>
        <time>2013-08-29T19:51:05Z</time>
      </trkpt>
      <trkpt lat="59.296570707928" lon="17.843137095362">
        <ele>0</ele>
        <time>2013-08-29T19:51:07Z</time>
      </trkpt>
      <trkpt lat="59.296646145028" lon="17.844113251436">
        <ele>0</ele>
        <time>2013-08-29T19:51:13Z</time>
      </trkpt>
      <trkpt lat="59.296745973457" lon="17.845089658967">
        <ele>0</ele>
        <time>2013-08-29T19:51:19Z</time>
      </trkpt>
      <trkpt lat="59.296864074428" lon="17.846211660101">
        <ele>0</ele>
        <time>2013-08-29T19:51:26Z</time>
      </trkpt>
      <trkpt lat="59.296890477413" lon="17.846531429586">
        <ele>0</ele>
        <time>2013-08-29T19:51:28Z</time>
      </trkpt>
      <trkpt lat="59.296874887079" lon="17.84669789412">
        <ele>0</ele>
        <time>2013-08-29T19:51:29Z</time>
      </trkpt>
      <trkpt lat="59.296824930955" lon="17.846847846311">
        <ele>0</ele>
        <time>2013-08-29T19:51:30Z</time>
      </trkpt>
      <trkpt lat="59.296754774452" lon="17.846965444368">
        <ele>0</ele>
        <time>2013-08-29T19:51:31Z</time>
      </trkpt>
      <trkpt lat="59.296682187198" lon="17.847076253086">
        <ele>0</ele>
        <time>2013-08-29T19:51:32Z</time>
      </trkpt>
      <trkpt lat="59.296626950477" lon="17.84722176287">
        <ele>0</ele>
        <time>2013-08-29T19:51:33Z</time>
      </trkpt>
      <trkpt lat="59.296604319347" lon="17.84740532648">
        <ele>0</ele>
        <time>2013-08-29T19:51:34Z</time>
      </trkpt>
      <trkpt lat="59.296612868885" lon="17.847579753819">
        <ele>0</ele>
        <time>2013-08-29T19:51:35Z</time>
      </trkpt>
      <trkpt lat="59.296689311813" lon="17.847874209966">
        <ele>0</ele>
        <time>2013-08-29T19:51:37Z</time>
      </trkpt>
      <trkpt lat="59.296735244625" lon="17.848022318139">
        <ele>0</ele>
        <time>2013-08-29T19:51:38Z</time>
      </trkpt>
      <trkpt lat="59.296788721147" lon="17.848173276158">
        <ele>0</ele>
        <time>2013-08-29T19:51:39Z</time>
      </trkpt>
      <trkpt lat="59.296840605108" lon="17.848334543914">
        <ele>0</ele>
        <time>2013-08-29T19:51:40Z</time>
      </trkpt>
      <trkpt lat="59.296888298119" lon="17.84850838452">
        <ele>0</ele>
        <time>2013-08-29T19:51:41Z</time>
      </trkpt>
      <trkpt lat="59.296940517356" lon="17.848661018919">
        <ele>0</ele>
        <time>2013-08-29T19:51:42Z</time>
      </trkpt>
      <trkpt lat="59.296987875091" lon="17.848794877862">
        <ele>0</ele>
        <time>2013-08-29T19:51:43Z</time>
      </trkpt>
      <trkpt lat="59.297073873385" lon="17.849033845831">
        <ele>0</ele>
        <time>2013-08-29T19:51:45Z</time>
      </trkpt>
      <trkpt lat="59.297116788713" lon="17.849154042277">
        <ele>0</ele>
        <time>2013-08-29T19:51:46Z</time>
      </trkpt>
      <trkpt lat="59.297156686557" lon="17.849271807972">
        <ele>0</ele>
        <time>2013-08-29T19:51:47Z</time>
      </trkpt>
      <trkpt lat="59.297196081487" lon="17.849380521215">
        <ele>0</ele>
        <time>2013-08-29T19:51:48Z</time>
      </trkpt>
      <trkpt lat="59.297234889684" lon="17.849498203091">
        <ele>0</ele>
        <time>2013-08-29T19:51:49Z</time>
      </trkpt>
      <trkpt lat="59.297270345121" lon="17.84961311894">
        <ele>0</ele>
        <time>2013-08-29T19:51:50Z</time>
      </trkpt>
      <trkpt lat="59.297301777246" lon="17.849727280418">
        <ele>0</ele>
        <time>2013-08-29T19:51:51Z</time>
      </trkpt>
      <trkpt lat="59.297334634294" lon="17.849849739977">
        <ele>0</ele>
        <time>2013-08-29T19:51:52Z</time>
      </trkpt>
      <trkpt lat="59.297354080302" lon="17.849979491789">
        <ele>0</ele>
        <time>2013-08-29T19:51:53Z</time>
      </trkpt>
      <trkpt lat="59.297379477459" lon="17.850108824506">
        <ele>0</ele>
        <time>2013-08-29T19:51:54Z</time>
      </trkpt>
      <trkpt lat="59.297421722235" lon="17.850374866012">
        <ele>0</ele>
        <time>2013-08-29T19:51:56Z</time>
      </trkpt>
      <trkpt lat="59.297537057179" lon="17.851115658334">
        <ele>0</ele>
        <time>2013-08-29T19:52:01Z</time>
      </trkpt>
      <trkpt lat="59.297644513137" lon="17.851856366837">
        <ele>0</ele>
        <time>2013-08-29T19:52:06Z</time>
      </trkpt>
      <trkpt lat="59.297688434293" lon="17.852008582141">
        <ele>0</ele>
        <time>2013-08-29T19:52:07Z</time>
      </trkpt>
      <trkpt lat="59.297822125598" lon="17.852658011753">
        <ele>0</ele>
        <time>2013-08-29T19:52:11Z</time>
      </trkpt>
      <trkpt lat="59.297983644811" lon="17.853406934518">
        <ele>0</ele>
        <time>2013-08-29T19:52:15Z</time>
      </trkpt>
      <trkpt lat="59.298038127161" lon="17.853576751812">
        <ele>0</ele>
        <time>2013-08-29T19:52:16Z</time>
      </trkpt>
      <trkpt lat="59.298103003067" lon="17.853744389812">
        <ele>0</ele>
        <time>2013-08-29T19:52:17Z</time>
      </trkpt>
      <trkpt lat="59.298176428511" lon="17.853910602889">
        <ele>0</ele>
        <time>2013-08-29T19:52:18Z</time>
      </trkpt>
      <trkpt lat="59.298266617755" lon="17.854060638899">
        <ele>0</ele>
        <time>2013-08-29T19:52:19Z</time>
      </trkpt>
      <trkpt lat="59.298368625478" lon="17.854161808432">
        <ele>0</ele>
        <time>2013-08-29T19:52:20Z</time>
      </trkpt>
      <trkpt lat="59.298485888259" lon="17.854236323523">
        <ele>0</ele>
        <time>2013-08-29T19:52:21Z</time>
      </trkpt>
      <trkpt lat="59.298606000886" lon="17.854247806726">
        <ele>0</ele>
        <time>2013-08-29T19:52:22Z</time>
      </trkpt>
      <trkpt lat="59.298719827088" lon="17.85423070765">
        <ele>0</ele>
        <time>2013-08-29T19:52:23Z</time>
      </trkpt>
      <trkpt lat="59.298833318014" lon="17.854147391564">
        <ele>0</ele>
        <time>2013-08-29T19:52:24Z</time>
      </trkpt>
      <trkpt lat="59.298927195294" lon="17.854032978629">
        <ele>0</ele>
        <time>2013-08-29T19:52:25Z</time>
      </trkpt>
      <trkpt lat="59.299004560231" lon="17.853906663396">
        <ele>0</ele>
        <time>2013-08-29T19:52:26Z</time>
      </trkpt>
      <trkpt lat="59.299077901856" lon="17.853768613503">
        <ele>0</ele>
        <time>2013-08-29T19:52:27Z</time>
      </trkpt>
      <trkpt lat="59.299145040875" lon="17.853642801184">
        <ele>0</ele>
        <time>2013-08-29T19:52:28Z</time>
      </trkpt>
      <trkpt lat="59.299437820642" lon="17.852956155936">
        <ele>0</ele>
        <time>2013-08-29T19:52:33Z</time>
      </trkpt>
      <trkpt lat="59.299582073141" lon="17.852244029712">
        <ele>0</ele>
        <time>2013-08-29T19:52:37Z</time>
      </trkpt>
      <trkpt lat="59.299660024811" lon="17.851935659611">
        <ele>0</ele>
        <time>2013-08-29T19:52:39Z</time>
      </trkpt>
      <trkpt lat="59.299762703086" lon="17.851795933338">
        <ele>0</ele>
        <time>2013-08-29T19:52:41Z</time>
      </trkpt>
      <trkpt lat="59.299989936395" lon="17.852059963188">
        <ele>0</ele>
        <time>2013-08-29T19:52:44Z</time>
      </trkpt>
      <trkpt lat="59.300243572689" lon="17.852400352147">
        <ele>0</ele>
        <time>2013-08-29T19:52:47Z</time>
      </trkpt>
      <trkpt lat="59.3004589037" lon="17.852716685053">
        <ele>0</ele>
        <time>2013-08-29T19:52:50Z</time>
      </trkpt>
      <trkpt lat="59.300584296924" lon="17.852894213695">
        <ele>0</ele>
        <time>2013-08-29T19:52:52Z</time>
      </trkpt>
      <trkpt lat="59.300872718103" lon="17.853128739257">
        <ele>0</ele>
        <time>2013-08-29T19:52:56Z</time>
      </trkpt>
      <trkpt lat="59.300962488252" lon="17.853154555509">
        <ele>0</ele>
        <time>2013-08-29T19:52:57Z</time>
      </trkpt>
      <trkpt lat="59.30130463741" lon="17.853317667283">
        <ele>0</ele>
        <time>2013-08-29T19:53:01Z</time>
      </trkpt>
      <trkpt lat="59.301381583252" lon="17.853383465198">
        <ele>0</ele>
        <time>2013-08-29T19:53:02Z</time>
      </trkpt>
      <trkpt lat="59.301927077304" lon="17.853825275147">
        <ele>0</ele>
        <time>2013-08-29T19:53:09Z</time>
      </trkpt>
      <trkpt lat="59.302141570125" lon="17.85398679436">
        <ele>0</ele>
        <time>2013-08-29T19:53:12Z</time>
      </trkpt>
      <trkpt lat="59.302212732456" lon="17.854062566736">
        <ele>0</ele>
        <time>2013-08-29T19:53:13Z</time>
      </trkpt>
      <trkpt lat="59.302293533972" lon="17.854128699927">
        <ele>0</ele>
        <time>2013-08-29T19:53:14Z</time>
      </trkpt>
      <trkpt lat="59.30237500604" lon="17.854183098458">
        <ele>0</ele>
        <time>2013-08-29T19:53:15Z</time>
      </trkpt>
      <trkpt lat="59.302518168892" lon="17.854242358491">
        <ele>0</ele>
        <time>2013-08-29T19:53:17Z</time>
      </trkpt>
      <trkpt lat="59.302580446409" lon="17.854253254961">
        <ele>0</ele>
        <time>2013-08-29T19:53:18Z</time>
      </trkpt>
      <trkpt lat="59.302624619022" lon="17.854258200282">
        <ele>0</ele>
        <time>2013-08-29T19:53:19Z</time>
      </trkpt>
      <trkpt lat="59.302680023381" lon="17.854285441457">
        <ele>0</ele>
        <time>2013-08-29T19:53:20Z</time>
      </trkpt>
      <trkpt lat="59.302730063324" lon="17.854324668749">
        <ele>0</ele>
        <time>2013-08-29T19:53:21Z</time>
      </trkpt>
      <trkpt lat="59.30276895534" lon="17.854385186067">
        <ele>0</ele>
        <time>2013-08-29T19:53:22Z</time>
      </trkpt>
      <trkpt lat="59.302808266451" lon="17.854684084621">
        <ele>0</ele>
        <time>2013-08-29T19:53:25Z</time>
      </trkpt>
      <trkpt lat="59.302871465977" lon="17.854964878271">
        <ele>0</ele>
        <time>2013-08-29T19:53:28Z</time>
      </trkpt>
      <trkpt lat="59.302988980215" lon="17.855080297034">
        <ele>0</ele>
        <time>2013-08-29T19:53:30Z</time>
      </trkpt>
      <trkpt lat="59.303121917149" lon="17.855183059128">
        <ele>0</ele>
        <time>2013-08-29T19:53:32Z</time>
      </trkpt>
      <trkpt lat="59.303250579314" lon="17.855290012172">
        <ele>0</ele>
        <time>2013-08-29T19:53:34Z</time>
      </trkpt>
      <trkpt lat="59.303312856831" lon="17.855349858938">
        <ele>0</ele>
        <time>2013-08-29T19:53:35Z</time>
      </trkpt>
      <trkpt lat="59.303372871235" lon="17.855406436763">
        <ele>0</ele>
        <time>2013-08-29T19:53:36Z</time>
      </trkpt>
      <trkpt lat="59.303432047449" lon="17.855454297412">
        <ele>0</ele>
        <time>2013-08-29T19:53:37Z</time>
      </trkpt>
      <trkpt lat="59.303491307482" lon="17.855493189428">
        <ele>0</ele>
        <time>2013-08-29T19:53:38Z</time>
      </trkpt>
      <trkpt lat="59.303785595991" lon="17.85574280241">
        <ele>0</ele>
        <time>2013-08-29T19:53:44Z</time>
      </trkpt>
      <trkpt lat="59.304075106817" lon="17.856012448133">
        <ele>0</ele>
        <time>2013-08-29T19:53:49Z</time>
      </trkpt>
      <trkpt lat="59.304195889996" lon="17.856121077557">
        <ele>0</ele>
        <time>2013-08-29T19:53:51Z</time>
      </trkpt>
      <trkpt lat="59.30453166891" lon="17.856431626952">
        <ele>0</ele>
        <time>2013-08-29T19:53:56Z</time>
      </trkpt>
      <trkpt lat="59.304907513306" lon="17.856753072817">
        <ele>0</ele>
        <time>2013-08-29T19:54:01Z</time>
      </trkpt>
      <trkpt lat="59.304979513827" lon="17.856821301483">
        <ele>0</ele>
        <time>2013-08-29T19:54:02Z</time>
      </trkpt>
      <trkpt lat="59.305057716954" lon="17.856885506837">
        <ele>0</ele>
        <time>2013-08-29T19:54:03Z</time>
      </trkpt>
      <trkpt lat="59.305135249529" lon="17.856953735503">
        <ele>0</ele>
        <time>2013-08-29T19:54:04Z</time>
      </trkpt>
      <trkpt lat="59.305656436071" lon="17.857411973976">
        <ele>0</ele>
        <time>2013-08-29T19:54:11Z</time>
      </trkpt>
      <trkpt lat="59.305728688049" lon="17.857472575113">
        <ele>0</ele>
        <time>2013-08-29T19:54:12Z</time>
      </trkpt>
      <trkpt lat="59.306231769687" lon="17.857921425858">
        <ele>0</ele>
        <time>2013-08-29T19:54:19Z</time>
      </trkpt>
      <trkpt lat="59.306302093828" lon="17.85798412247">
        <ele>0</ele>
        <time>2013-08-29T19:54:20Z</time>
      </trkpt>
      <trkpt lat="59.306774413893" lon="17.858423082573">
        <ele>0</ele>
        <time>2013-08-29T19:54:27Z</time>
      </trkpt>
      <trkpt lat="59.306980943909" lon="17.858614944264">
        <ele>0</ele>
        <time>2013-08-29T19:54:30Z</time>
      </trkpt>
      <trkpt lat="59.307048082928" lon="17.858673282288">
        <ele>0</ele>
        <time>2013-08-29T19:54:31Z</time>
      </trkpt>
      <trkpt lat="59.307117568879" lon="17.858729860113">
        <ele>0</ele>
        <time>2013-08-29T19:54:32Z</time>
      </trkpt>
      <trkpt lat="59.307185797545" lon="17.858788868689">
        <ele>0</ele>
        <time>2013-08-29T19:54:33Z</time>
      </trkpt>
      <trkpt lat="59.307257295152" lon="17.858850056559">
        <ele>0</ele>
        <time>2013-08-29T19:54:34Z</time>
      </trkpt>
      <trkpt lat="59.307325775275" lon="17.858918788139">
        <ele>0</ele>
        <time>2013-08-29T19:54:35Z</time>
      </trkpt>
      <trkpt lat="59.307807985982" lon="17.859345259211">
        <ele>0</ele>
        <time>2013-08-29T19:54:42Z</time>
      </trkpt>
      <trkpt lat="59.308303272453" lon="17.859779776907">
        <ele>0</ele>
        <time>2013-08-29T19:54:49Z</time>
      </trkpt>
      <trkpt lat="59.308720774892" lon="17.860128128671">
        <ele>0</ele>
        <time>2013-08-29T19:54:55Z</time>
      </trkpt>
      <trkpt lat="59.308791769585" lon="17.860185628505">
        <ele>0</ele>
        <time>2013-08-29T19:54:56Z</time>
      </trkpt>
      <trkpt lat="59.30886259664" lon="17.86023298624">
        <ele>0</ele>
        <time>2013-08-29T19:54:57Z</time>
      </trkpt>
      <trkpt lat="59.308931412039" lon="17.860273638455">
        <ele>0</ele>
        <time>2013-08-29T19:54:58Z</time>
      </trkpt>
      <trkpt lat="59.30899586885" lon="17.860317224335">
        <ele>0</ele>
        <time>2013-08-29T19:54:59Z</time>
      </trkpt>
      <trkpt lat="59.309188401093" lon="17.860426021397">
        <ele>0</ele>
        <time>2013-08-29T19:55:02Z</time>
      </trkpt>
      <trkpt lat="59.30954572149" lon="17.860537165391">
        <ele>0</ele>
        <time>2013-08-29T19:55:08Z</time>
      </trkpt>
      <trkpt lat="59.309609675387" lon="17.860550744069">
        <ele>0</ele>
        <time>2013-08-29T19:55:09Z</time>
      </trkpt>
      <trkpt lat="59.309670108886" lon="17.860558455417">
        <ele>0</ele>
        <time>2013-08-29T19:55:10Z</time>
      </trkpt>
      <trkpt lat="59.309727357263" lon="17.860563484557">
        <ele>0</ele>
        <time>2013-08-29T19:55:11Z</time>
      </trkpt>
      <trkpt lat="59.309782426346" lon="17.860565328575">
        <ele>0</ele>
        <time>2013-08-29T19:55:12Z</time>
      </trkpt>
      <trkpt lat="59.309954255296" lon="17.860586534782">
        <ele>0</ele>
        <time>2013-08-29T19:55:15Z</time>
      </trkpt>
      <trkpt lat="59.310068668231" lon="17.860581924737">
        <ele>0</ele>
        <time>2013-08-29T19:55:17Z</time>
      </trkpt>
      <trkpt lat="59.310124156409" lon="17.86057496776">
        <ele>0</ele>
        <time>2013-08-29T19:55:18Z</time>
      </trkpt>
      <trkpt lat="59.31017604037" lon="17.860568178421">
        <ele>0</ele>
        <time>2013-08-29T19:55:19Z</time>
      </trkpt>
      <trkpt lat="59.310231612367" lon="17.860556359942">
        <ele>0</ele>
        <time>2013-08-29T19:55:20Z</time>
      </trkpt>
      <trkpt lat="59.310285172708" lon="17.860557030494">
        <ele>0</ele>
        <time>2013-08-29T19:55:21Z</time>
      </trkpt>
      <trkpt lat="59.310342421085" lon="17.860550576431">
        <ele>0</ele>
        <time>2013-08-29T19:55:22Z</time>
      </trkpt>
      <trkpt lat="59.310448200663" lon="17.860544876739">
        <ele>0</ele>
        <time>2013-08-29T19:55:24Z</time>
      </trkpt>
      <trkpt lat="59.310504275574" lon="17.86054311654">
        <ele>0</ele>
        <time>2013-08-29T19:55:25Z</time>
      </trkpt>
      <trkpt lat="59.310560266666" lon="17.860541523979">
        <ele>0</ele>
        <time>2013-08-29T19:55:26Z</time>
      </trkpt>
      <trkpt lat="59.310614497559" lon="17.860554683562">
        <ele>0</ele>
        <time>2013-08-29T19:55:27Z</time>
      </trkpt>
      <trkpt lat="59.310670907746" lon="17.860560047978">
        <ele>0</ele>
        <time>2013-08-29T19:55:28Z</time>
      </trkpt>
      <trkpt lat="59.310732011797" lon="17.860560886168">
        <ele>0</ele>
        <time>2013-08-29T19:55:29Z</time>
      </trkpt>
      <trkpt lat="59.310845167447" lon="17.860549319146">
        <ele>0</ele>
        <time>2013-08-29T19:55:31Z</time>
      </trkpt>
      <trkpt lat="59.310957568726" lon="17.860532890622">
        <ele>0</ele>
        <time>2013-08-29T19:55:33Z</time>
      </trkpt>
      <trkpt lat="59.311007021936" lon="17.86052635274">
        <ele>0</ele>
        <time>2013-08-29T19:55:34Z</time>
      </trkpt>
      <trkpt lat="59.311058235345" lon="17.860521239781">
        <ele>0</ele>
        <time>2013-08-29T19:55:35Z</time>
      </trkpt>
      <trkpt lat="59.311111711867" lon="17.86051629446">
        <ele>0</ele>
        <time>2013-08-29T19:55:36Z</time>
      </trkpt>
      <trkpt lat="59.311166445674" lon="17.860506906732">
        <ele>0</ele>
        <time>2013-08-29T19:55:37Z</time>
      </trkpt>
      <trkpt lat="59.311456710871" lon="17.860442282283">
        <ele>0</ele>
        <time>2013-08-29T19:55:42Z</time>
      </trkpt>
      <trkpt lat="59.311857868605" lon="17.860322504932">
        <ele>0</ele>
        <time>2013-08-29T19:55:49Z</time>
      </trkpt>
      <trkpt lat="59.312300684382" lon="17.860193926586">
        <ele>0</ele>
        <time>2013-08-29T19:55:56Z</time>
      </trkpt>
      <trkpt lat="59.312364051546" lon="17.860176073139">
        <ele>0</ele>
        <time>2013-08-29T19:55:57Z</time>
      </trkpt>
      <trkpt lat="59.312430687651" lon="17.860162494461">
        <ele>0</ele>
        <time>2013-08-29T19:55:58Z</time>
      </trkpt>
      <trkpt lat="59.312493803358" lon="17.860150927439">
        <ele>0</ele>
        <time>2013-08-29T19:55:59Z</time>
      </trkpt>
      <trkpt lat="59.312563456947" lon="17.860133073992">
        <ele>0</ele>
        <time>2013-08-29T19:56:00Z</time>
      </trkpt>
      <trkpt lat="59.312631015061" lon="17.8601189924">
        <ele>0</ele>
        <time>2013-08-29T19:56:01Z</time>
      </trkpt>
      <trkpt lat="59.312771830981" lon="17.860079765108">
        <ele>0</ele>
        <time>2013-08-29T19:56:03Z</time>
      </trkpt>
      <trkpt lat="59.312972326029" lon="17.859929812917">
        <ele>0</ele>
        <time>2013-08-29T19:56:06Z</time>
      </trkpt>
      <trkpt lat="59.3130317537" lon="17.859848089392">
        <ele>0</ele>
        <time>2013-08-29T19:56:07Z</time>
      </trkpt>
      <trkpt lat="59.313365520958" lon="17.859325142651">
        <ele>0</ele>
        <time>2013-08-29T19:56:13Z</time>
      </trkpt>
      <trkpt lat="59.313424613353" lon="17.859235875416">
        <ele>0</ele>
        <time>2013-08-29T19:56:14Z</time>
      </trkpt>
      <trkpt lat="59.31348605268" lon="17.859141243765">
        <ele>0</ele>
        <time>2013-08-29T19:56:15Z</time>
      </trkpt>
      <trkpt lat="59.31354724055" lon="17.859058933507">
        <ele>0</ele>
        <time>2013-08-29T19:56:16Z</time>
      </trkpt>
      <trkpt lat="59.313616642682" lon="17.858994225239">
        <ele>0</ele>
        <time>2013-08-29T19:56:17Z</time>
      </trkpt>
      <trkpt lat="59.313693588524" lon="17.858988525547">
        <ele>0</ele>
        <time>2013-08-29T19:56:18Z</time>
      </trkpt>
      <trkpt lat="59.313775982601" lon="17.859026663192">
        <ele>0</ele>
        <time>2013-08-29T19:56:19Z</time>
      </trkpt>
      <trkpt lat="59.313860304515" lon="17.859094472763">
        <ele>0</ele>
        <time>2013-08-29T19:56:20Z</time>
      </trkpt>
      <trkpt lat="59.313949990845" lon="17.85916261761">
        <ele>0</ele>
        <time>2013-08-29T19:56:21Z</time>
      </trkpt>
      <trkpt lat="59.314033474569" lon="17.85928666973">
        <ele>0</ele>
        <time>2013-08-29T19:56:22Z</time>
      </trkpt>
      <trkpt lat="59.31409876957" lon="17.85946185144">
        <ele>0</ele>
        <time>2013-08-29T19:56:23Z</time>
      </trkpt>
      <trkpt lat="59.314134392645" lon="17.85967642808">
        <ele>0</ele>
        <time>2013-08-29T19:56:24Z</time>
      </trkpt>
      <trkpt lat="59.314147552228" lon="17.859901146819">
        <ele>0</ele>
        <time>2013-08-29T19:56:25Z</time>
      </trkpt>
      <trkpt lat="59.314167836426" lon="17.860119579133">
        <ele>0</ele>
        <time>2013-08-29T19:56:26Z</time>
      </trkpt>
      <trkpt lat="59.314215613256" lon="17.860317727249">
        <ele>0</ele>
        <time>2013-08-29T19:56:27Z</time>
      </trkpt>
      <trkpt lat="59.31429322965" lon="17.860473630589">
        <ele>0</ele>
        <time>2013-08-29T19:56:28Z</time>
      </trkpt>
      <trkpt lat="59.314388615672" lon="17.860599862003">
        <ele>0</ele>
        <time>2013-08-29T19:56:29Z</time>
      </trkpt>
      <trkpt lat="59.314485007522" lon="17.860710167807">
        <ele>0</ele>
        <time>2013-08-29T19:56:30Z</time>
      </trkpt>
      <trkpt lat="59.314588691625" lon="17.860821730896">
        <ele>0</ele>
        <time>2013-08-29T19:56:31Z</time>
      </trkpt>
      <trkpt lat="59.314686592217" lon="17.860933210166">
        <ele>0</ele>
        <time>2013-08-29T19:56:32Z</time>
      </trkpt>
      <trkpt lat="59.314785917732" lon="17.861035636984">
        <ele>0</ele>
        <time>2013-08-29T19:56:33Z</time>
      </trkpt>
      <trkpt lat="59.314885075609" lon="17.861129262807">
        <ele>0</ele>
        <time>2013-08-29T19:56:34Z</time>
      </trkpt>
      <trkpt lat="59.315069645047" lon="17.861272090383">
        <ele>0</ele>
        <time>2013-08-29T19:56:36Z</time>
      </trkpt>
      <trkpt lat="59.31558236587" lon="17.861722701327">
        <ele>0</ele>
        <time>2013-08-29T19:56:42Z</time>
      </trkpt>
      <trkpt lat="59.315941530285" lon="17.862067113598">
        <ele>0</ele>
        <time>2013-08-29T19:56:46Z</time>
      </trkpt>
      <trkpt lat="59.316020571602" lon="17.862144729992">
        <ele>0</ele>
        <time>2013-08-29T19:56:47Z</time>
      </trkpt>
      <trkpt lat="59.316103468593" lon="17.862219328902">
        <ele>0</ele>
        <time>2013-08-29T19:56:48Z</time>
      </trkpt>
      <trkpt lat="59.316187119955" lon="17.862300549513">
        <ele>0</ele>
        <time>2013-08-29T19:56:49Z</time>
      </trkpt>
      <trkpt lat="59.316272782973" lon="17.862388894739">
        <ele>0</ele>
        <time>2013-08-29T19:56:50Z</time>
      </trkpt>
      <trkpt lat="59.316707300669" lon="17.862828944489">
        <ele>0</ele>
        <time>2013-08-29T19:56:55Z</time>
      </trkpt>
      <trkpt lat="59.317201916588" lon="17.863300007269">
        <ele>0</ele>
        <time>2013-08-29T19:57:01Z</time>
      </trkpt>
      <trkpt lat="59.31727550967" lon="17.863373432713">
        <ele>0</ele>
        <time>2013-08-29T19:57:02Z</time>
      </trkpt>
      <trkpt lat="59.317695610498" lon="17.863879531835">
        <ele>0</ele>
        <time>2013-08-29T19:57:08Z</time>
      </trkpt>
      <trkpt lat="59.318152172591" lon="17.864484872653">
        <ele>0</ele>
        <time>2013-08-29T19:57:15Z</time>
      </trkpt>
      <trkpt lat="59.318624408837" lon="17.86511628118">
        <ele>0</ele>
        <time>2013-08-29T19:57:22Z</time>
      </trkpt>
      <trkpt lat="59.318692721322" lon="17.86521602579">
        <ele>0</ele>
        <time>2013-08-29T19:57:23Z</time>
      </trkpt>
      <trkpt lat="59.319201586471" lon="17.865856067674">
        <ele>0</ele>
        <time>2013-08-29T19:57:30Z</time>
      </trkpt>
      <trkpt lat="59.319572904641" lon="17.866254627019">
        <ele>0</ele>
        <time>2013-08-29T19:57:36Z</time>
      </trkpt>
      <trkpt lat="59.319744482134" lon="17.866449087099">
        <ele>0</ele>
        <time>2013-08-29T19:57:40Z</time>
      </trkpt>
      <trkpt lat="59.320040614661" lon="17.866361160968">
        <ele>0</ele>
        <time>2013-08-29T19:58:13Z</time>
      </trkpt>
      <trkpt lat="59.320057294642" lon="17.866057149455">
        <ele>0</ele>
        <time>2013-08-29T19:58:17Z</time>
      </trkpt>
      <trkpt lat="59.32008847531" lon="17.865543925718">
        <ele>0</ele>
        <time>2013-08-29T19:58:23Z</time>
      </trkpt>
      <trkpt lat="59.320108340413" lon="17.865062217925">
        <ele>0</ele>
        <time>2013-08-29T19:58:27Z</time>
      </trkpt>
      <trkpt lat="59.320108005137" lon="17.864925090041">
        <ele>0</ele>
        <time>2013-08-29T19:58:28Z</time>
      </trkpt>
      <trkpt lat="59.320108508051" lon="17.864805228871">
        <ele>0</ele>
        <time>2013-08-29T19:58:29Z</time>
      </trkpt>
      <trkpt lat="59.320112363725" lon="17.864683439864">
        <ele>0</ele>
        <time>2013-08-29T19:58:30Z</time>
      </trkpt>
      <trkpt lat="59.320118482512" lon="17.864570116576">
        <ele>0</ele>
        <time>2013-08-29T19:58:31Z</time>
      </trkpt>
      <trkpt lat="59.320132145009" lon="17.864312289332">
        <ele>0</ele>
        <time>2013-08-29T19:58:33Z</time>
      </trkpt>
      <trkpt lat="59.320177826364" lon="17.863393297816">
        <ele>0</ele>
        <time>2013-08-29T19:58:40Z</time>
      </trkpt>
      <trkpt lat="59.320194841621" lon="17.862974621911">
        <ele>0</ele>
        <time>2013-08-29T19:58:43Z</time>
      </trkpt>
      <trkpt lat="59.320201211865" lon="17.862823580073">
        <ele>0</ele>
        <time>2013-08-29T19:58:44Z</time>
      </trkpt>
      <trkpt lat="59.320206157186" lon="17.862677818832">
        <ele>0</ele>
        <time>2013-08-29T19:58:45Z</time>
      </trkpt>
      <trkpt lat="59.320213030344" lon="17.86252878865">
        <ele>0</ele>
        <time>2013-08-29T19:58:46Z</time>
      </trkpt>
      <trkpt lat="59.320218562398" lon="17.86239467825">
        <ele>0</ele>
        <time>2013-08-29T19:58:47Z</time>
      </trkpt>
      <trkpt lat="59.320261477726" lon="17.861502341176">
        <ele>0</ele>
        <time>2013-08-29T19:58:53Z</time>
      </trkpt>
      <trkpt lat="59.320303135769" lon="17.860568597516">
        <ele>0</ele>
        <time>2013-08-29T19:58:59Z</time>
      </trkpt>
      <trkpt lat="59.320341524871" lon="17.859604595197">
        <ele>0</ele>
        <time>2013-08-29T19:59:05Z</time>
      </trkpt>
      <trkpt lat="59.320394666117" lon="17.858482510244">
        <ele>0</ele>
        <time>2013-08-29T19:59:12Z</time>
      </trkpt>
      <trkpt lat="59.320439257825" lon="17.857746244148">
        <ele>0</ele>
        <time>2013-08-29T19:59:17Z</time>
      </trkpt>
      <trkpt lat="59.320468007742" lon="17.856961446851">
        <ele>0</ele>
        <time>2013-08-29T19:59:22Z</time>
      </trkpt>
      <trkpt lat="59.320498685496" lon="17.856332385256">
        <ele>0</ele>
        <time>2013-08-29T19:59:26Z</time>
      </trkpt>
      <trkpt lat="59.32050757031" lon="17.856174554079">
        <ele>0</ele>
        <time>2013-08-29T19:59:27Z</time>
      </trkpt>
      <trkpt lat="59.320513772916" lon="17.856016722902">
        <ele>0</ele>
        <time>2013-08-29T19:59:28Z</time>
      </trkpt>
      <trkpt lat="59.320518215323" lon="17.855864423779">
        <ele>0</ele>
        <time>2013-08-29T19:59:29Z</time>
      </trkpt>
      <trkpt lat="59.320523663558" lon="17.855713549579">
        <ele>0</ele>
        <time>2013-08-29T19:59:30Z</time>
      </trkpt>
      <trkpt lat="59.320552078199" lon="17.855232093243">
        <ele>0</ele>
        <time>2013-08-29T19:59:33Z</time>
      </trkpt>
      <trkpt lat="59.320559286633" lon="17.855056157162">
        <ele>0</ele>
        <time>2013-08-29T19:59:34Z</time>
      </trkpt>
      <trkpt lat="59.320567836171" lon="17.854892961569">
        <ele>0</ele>
        <time>2013-08-29T19:59:35Z</time>
      </trkpt>
      <trkpt lat="59.320572613854" lon="17.854736052401">
        <ele>0</ele>
        <time>2013-08-29T19:59:36Z</time>
      </trkpt>
      <trkpt lat="59.320575547519" lon="17.854574030274">
        <ele>0</ele>
        <time>2013-08-29T19:59:37Z</time>
      </trkpt>
      <trkpt lat="59.320583594143" lon="17.854427430843">
        <ele>0</ele>
        <time>2013-08-29T19:59:38Z</time>
      </trkpt>
      <trkpt lat="59.320597340459" lon="17.854096681069">
        <ele>0</ele>
        <time>2013-08-29T19:59:40Z</time>
      </trkpt>
      <trkpt lat="59.320650397886" lon="17.853053972709">
        <ele>0</ele>
        <time>2013-08-29T19:59:46Z</time>
      </trkpt>
      <trkpt lat="59.320658025415" lon="17.852874683868">
        <ele>0</ele>
        <time>2013-08-29T19:59:47Z</time>
      </trkpt>
      <trkpt lat="59.320670430627" lon="17.852701346176">
        <ele>0</ele>
        <time>2013-08-29T19:59:48Z</time>
      </trkpt>
      <trkpt lat="59.320679483079" lon="17.852529768683">
        <ele>0</ele>
        <time>2013-08-29T19:59:49Z</time>
      </trkpt>
      <trkpt lat="59.320694067585" lon="17.852032722013">
        <ele>0</ele>
        <time>2013-08-29T19:59:52Z</time>
      </trkpt>
      <trkpt lat="59.320719380923" lon="17.851250355467">
        <ele>0</ele>
        <time>2013-08-29T19:59:56Z</time>
      </trkpt>
      <trkpt lat="59.320730025936" lon="17.851049106048">
        <ele>0</ele>
        <time>2013-08-29T19:59:57Z</time>
      </trkpt>
      <trkpt lat="59.320741844415" lon="17.850849197733">
        <ele>0</ele>
        <time>2013-08-29T19:59:58Z</time>
      </trkpt>
      <trkpt lat="59.320752740885" lon="17.850646271934">
        <ele>0</ele>
        <time>2013-08-29T19:59:59Z</time>
      </trkpt>
      <trkpt lat="59.32076489464" lon="17.850447788542">
        <ele>0</ele>
        <time>2013-08-29T20:00:00Z</time>
      </trkpt>
      <trkpt lat="59.320774785282" lon="17.850255507756">
        <ele>0</ele>
        <time>2013-08-29T20:00:01Z</time>
      </trkpt>
      <trkpt lat="59.320787609589" lon="17.850054342156">
        <ele>0</ele>
        <time>2013-08-29T20:00:02Z</time>
      </trkpt>
      <trkpt lat="59.320819209352" lon="17.849409941684">
        <ele>0</ele>
        <time>2013-08-29T20:00:05Z</time>
      </trkpt>
      <trkpt lat="59.320823400302" lon="17.84919989127">
        <ele>0</ele>
        <time>2013-08-29T20:00:06Z</time>
      </trkpt>
      <trkpt lat="59.320834129134" lon="17.848992606883">
        <ele>0</ele>
        <time>2013-08-29T20:00:07Z</time>
      </trkpt>
      <trkpt lat="59.320844271233" lon="17.848785909229">
        <ele>0</ele>
        <time>2013-08-29T20:00:08Z</time>
      </trkpt>
      <trkpt lat="59.320852820771" lon="17.848574182435">
        <ele>0</ele>
        <time>2013-08-29T20:00:09Z</time>
      </trkpt>
      <trkpt lat="59.320865645078" lon="17.84836505403">
        <ele>0</ele>
        <time>2013-08-29T20:00:10Z</time>
      </trkpt>
      <trkpt lat="59.320877631195" lon="17.848157015272">
        <ele>0</ele>
        <time>2013-08-29T20:00:11Z</time>
      </trkpt>
      <trkpt lat="59.320894059719" lon="17.847950820532">
        <ele>0</ele>
        <time>2013-08-29T20:00:12Z</time>
      </trkpt>
      <trkpt lat="59.320907303121" lon="17.847746302172">
        <ele>0</ele>
        <time>2013-08-29T20:00:13Z</time>
      </trkpt>
      <trkpt lat="59.320920546523" lon="17.847336930176">
        <ele>0</ele>
        <time>2013-08-29T20:00:15Z</time>
      </trkpt>
      <trkpt lat="59.320957510702" lon="17.846360690283">
        <ele>0</ele>
        <time>2013-08-29T20:00:20Z</time>
      </trkpt>
      <trkpt lat="59.321006460998" lon="17.845228211774">
        <ele>0</ele>
        <time>2013-08-29T20:00:26Z</time>
      </trkpt>
      <trkpt lat="59.32099707327" lon="17.845057053376">
        <ele>0</ele>
        <time>2013-08-29T20:00:27Z</time>
      </trkpt>
      <trkpt lat="59.321032361069" lon="17.844533184626">
        <ele>0</ele>
        <time>2013-08-29T20:00:30Z</time>
      </trkpt>
      <trkpt lat="59.321094973862" lon="17.84332417937">
        <ele>0</ele>
        <time>2013-08-29T20:00:37Z</time>
      </trkpt>
      <trkpt lat="59.321098913355" lon="17.843165426184">
        <ele>0</ele>
        <time>2013-08-29T20:00:38Z</time>
      </trkpt>
      <trkpt lat="59.321145935814" lon="17.842167644808">
        <ele>0</ele>
        <time>2013-08-29T20:00:44Z</time>
      </trkpt>
      <trkpt lat="59.32115549118" lon="17.842006712328">
        <ele>0</ele>
        <time>2013-08-29T20:00:45Z</time>
      </trkpt>
      <trkpt lat="59.321165465641" lon="17.841841337441">
        <ele>0</ele>
        <time>2013-08-29T20:00:46Z</time>
      </trkpt>
      <trkpt lat="59.321176865025" lon="17.841666658645">
        <ele>0</ele>
        <time>2013-08-29T20:00:47Z</time>
      </trkpt>
      <trkpt lat="59.321195891938" lon="17.841497344265">
        <ele>0</ele>
        <time>2013-08-29T20:00:48Z</time>
      </trkpt>
      <trkpt lat="59.321226988787" lon="17.841327526971">
        <ele>0</ele>
        <time>2013-08-29T20:00:49Z</time>
      </trkpt>
      <trkpt lat="59.321283650431" lon="17.841192913657">
        <ele>0</ele>
        <time>2013-08-29T20:00:50Z</time>
      </trkpt>
      <trkpt lat="59.321488839343" lon="17.840920418088">
        <ele>0</ele>
        <time>2013-08-29T20:00:53Z</time>
      </trkpt>
      <trkpt lat="59.321561258959" lon="17.840839951848">
        <ele>0</ele>
        <time>2013-08-29T20:00:54Z</time>
      </trkpt>
      <trkpt lat="59.321638204801" lon="17.840759904703">
        <ele>0</ele>
        <time>2013-08-29T20:00:55Z</time>
      </trkpt>
      <trkpt lat="59.321722275258" lon="17.840699638842">
        <ele>0</ele>
        <time>2013-08-29T20:00:56Z</time>
      </trkpt>
      <trkpt lat="59.321803663507" lon="17.84066963164">
        <ele>0</ele>
        <time>2013-08-29T20:00:57Z</time>
      </trkpt>
      <trkpt lat="59.321883794471" lon="17.840671140382">
        <ele>0</ele>
        <time>2013-08-29T20:00:58Z</time>
      </trkpt>
      <trkpt lat="59.32213868805" lon="17.840725371275">
        <ele>0</ele>
        <time>2013-08-29T20:01:01Z</time>
      </trkpt>
      <trkpt lat="59.322219405747" lon="17.84074590693">
        <ele>0</ele>
        <time>2013-08-29T20:01:02Z</time>
      </trkpt>
      <trkpt lat="59.322806306385" lon="17.840833581604">
        <ele>0</ele>
        <time>2013-08-29T20:01:09Z</time>
      </trkpt>
      <trkpt lat="59.323063295439" lon="17.840876832208">
        <ele>0</ele>
        <time>2013-08-29T20:01:12Z</time>
      </trkpt>
      <trkpt lat="59.323151724484" lon="17.840886555212">
        <ele>0</ele>
        <time>2013-08-29T20:01:13Z</time>
      </trkpt>
      <trkpt lat="59.323234956751" lon="17.840898708967">
        <ele>0</ele>
        <time>2013-08-29T20:01:14Z</time>
      </trkpt>
      <trkpt lat="59.323312489326" lon="17.840912120007">
        <ele>0</ele>
        <time>2013-08-29T20:01:15Z</time>
      </trkpt>
      <trkpt lat="59.323392033557" lon="17.840929638178">
        <ele>0</ele>
        <time>2013-08-29T20:01:16Z</time>
      </trkpt>
      <trkpt lat="59.323873238436" lon="17.841011780798">
        <ele>0</ele>
        <time>2013-08-29T20:01:22Z</time>
      </trkpt>
      <trkpt lat="59.323950268097" lon="17.841028041684">
        <ele>0</ele>
        <time>2013-08-29T20:01:23Z</time>
      </trkpt>
      <trkpt lat="59.324033416545" lon="17.841040782172">
        <ele>0</ele>
        <time>2013-08-29T20:01:24Z</time>
      </trkpt>
      <trkpt lat="59.324116145898" lon="17.841050002262">
        <ele>0</ele>
        <time>2013-08-29T20:01:25Z</time>
      </trkpt>
      <trkpt lat="59.324203904391" lon="17.841065005863">
        <ele>0</ele>
        <time>2013-08-29T20:01:26Z</time>
      </trkpt>
      <trkpt lat="59.324709249142" lon="17.841144633913">
        <ele>0</ele>
        <time>2013-08-29T20:01:32Z</time>
      </trkpt>
      <trkpt lat="59.32526346037" lon="17.841235912804">
        <ele>0</ele>
        <time>2013-08-29T20:01:39Z</time>
      </trkpt>
      <trkpt lat="59.325736786263" lon="17.841309673524">
        <ele>0</ele>
        <time>2013-08-29T20:01:45Z</time>
      </trkpt>
      <trkpt lat="59.325812139544" lon="17.841324425668">
        <ele>0</ele>
        <time>2013-08-29T20:01:46Z</time>
      </trkpt>
      <trkpt lat="59.325887492825" lon="17.841341776201">
        <ele>0</ele>
        <time>2013-08-29T20:01:47Z</time>
      </trkpt>
      <trkpt lat="59.325958822794" lon="17.841352085938">
        <ele>0</ele>
        <time>2013-08-29T20:01:48Z</time>
      </trkpt>
      <trkpt lat="59.326037864111" lon="17.84136616753">
        <ele>0</ele>
        <time>2013-08-29T20:01:49Z</time>
      </trkpt>
      <trkpt lat="59.326341288891" lon="17.841404556632">
        <ele>0</ele>
        <time>2013-08-29T20:01:53Z</time>
      </trkpt>
      <trkpt lat="59.326557541911" lon="17.841435402024">
        <ele>0</ele>
        <time>2013-08-29T20:01:56Z</time>
      </trkpt>
      <trkpt lat="59.326627446957" lon="17.841449735073">
        <ele>0</ele>
        <time>2013-08-29T20:01:57Z</time>
      </trkpt>
      <trkpt lat="59.326696513813" lon="17.841466834149">
        <ele>0</ele>
        <time>2013-08-29T20:01:58Z</time>
      </trkpt>
      <trkpt lat="59.326761976452" lon="17.841474042583">
        <ele>0</ele>
        <time>2013-08-29T20:01:59Z</time>
      </trkpt>
      <trkpt lat="59.326826014168" lon="17.841484436139">
        <ele>0</ele>
        <time>2013-08-29T20:02:00Z</time>
      </trkpt>
      <trkpt lat="59.326960711301" lon="17.841498517731">
        <ele>0</ele>
        <time>2013-08-29T20:02:02Z</time>
      </trkpt>
      <trkpt lat="59.327036483677" lon="17.841515868264">
        <ele>0</ele>
        <time>2013-08-29T20:02:03Z</time>
      </trkpt>
      <trkpt lat="59.327116530822" lon="17.841531793874">
        <ele>0</ele>
        <time>2013-08-29T20:02:04Z</time>
      </trkpt>
      <trkpt lat="59.327194398673" lon="17.84154637838">
        <ele>0</ele>
        <time>2013-08-29T20:02:05Z</time>
      </trkpt>
      <trkpt lat="59.32727427818" lon="17.841550988425">
        <ele>0</ele>
        <time>2013-08-29T20:02:06Z</time>
      </trkpt>
      <trkpt lat="59.327352313669" lon="17.841560459972">
        <ele>0</ele>
        <time>2013-08-29T20:02:07Z</time>
      </trkpt>
      <trkpt lat="59.327633191138" lon="17.841655426899">
        <ele>0</ele>
        <time>2013-08-29T20:02:11Z</time>
      </trkpt>
      <trkpt lat="59.327700665433" lon="17.841716447131">
        <ele>0</ele>
        <time>2013-08-29T20:02:12Z</time>
      </trkpt>
      <trkpt lat="59.327891772753" lon="17.84208030541">
        <ele>0</ele>
        <time>2013-08-29T20:02:16Z</time>
      </trkpt>
      <trkpt lat="59.327931251502" lon="17.84216999174">
        <ele>0</ele>
        <time>2013-08-29T20:02:17Z</time>
      </trkpt>
      <trkpt lat="59.32796410855" lon="17.842261438269">
        <ele>0</ele>
        <time>2013-08-29T20:02:18Z</time>
      </trkpt>
      <trkpt lat="59.328008784077" lon="17.842348945305">
        <ele>0</ele>
        <time>2013-08-29T20:02:19Z</time>
      </trkpt>
      <trkpt lat="59.328054381613" lon="17.842440140377">
        <ele>0</ele>
        <time>2013-08-29T20:02:20Z</time>
      </trkpt>
      <trkpt lat="59.328093357448" lon="17.842531838363">
        <ele>0</ele>
        <time>2013-08-29T20:02:21Z</time>
      </trkpt>
      <trkpt lat="59.32814264302" lon="17.84261171787">
        <ele>0</ele>
        <time>2013-08-29T20:02:22Z</time>
      </trkpt>
      <trkpt lat="59.328332325417" lon="17.842777930947">
        <ele>0</ele>
        <time>2013-08-29T20:02:25Z</time>
      </trkpt>
      <trkpt lat="59.328618148207" lon="17.842800394439">
        <ele>0</ele>
        <time>2013-08-29T20:02:29Z</time>
      </trkpt>
      <trkpt lat="59.328822331291" lon="17.842789078874">
        <ele>0</ele>
        <time>2013-08-29T20:02:32Z</time>
      </trkpt>
      <trkpt lat="59.328885614636" lon="17.842788156865">
        <ele>0</ele>
        <time>2013-08-29T20:02:33Z</time>
      </trkpt>
      <trkpt lat="59.328948730343" lon="17.842791593444">
        <ele>0</ele>
        <time>2013-08-29T20:02:34Z</time>
      </trkpt>
      <trkpt lat="59.329015534086" lon="17.842801567905">
        <ele>0</ele>
        <time>2013-08-29T20:02:35Z</time>
      </trkpt>
      <trkpt lat="59.329078565974" lon="17.842795532937">
        <ele>0</ele>
        <time>2013-08-29T20:02:36Z</time>
      </trkpt>
      <trkpt lat="59.329519873009" lon="17.842743565157">
        <ele>0</ele>
        <time>2013-08-29T20:02:42Z</time>
      </trkpt>
      <trkpt lat="59.329748363603" lon="17.842779691146">
        <ele>0</ele>
        <time>2013-08-29T20:02:45Z</time>
      </trkpt>
      <trkpt lat="59.329907368246" lon="17.842909526777">
        <ele>0</ele>
        <time>2013-08-29T20:02:47Z</time>
      </trkpt>
      <trkpt lat="59.330189000086" lon="17.8431624087">
        <ele>0</ele>
        <time>2013-08-29T20:02:51Z</time>
      </trkpt>
      <trkpt lat="59.33024901449" lon="17.843228122796">
        <ele>0</ele>
        <time>2013-08-29T20:02:52Z</time>
      </trkpt>
      <trkpt lat="59.330308861256" lon="17.843301464421">
        <ele>0</ele>
        <time>2013-08-29T20:02:53Z</time>
      </trkpt>
      <trkpt lat="59.330364768529" lon="17.843379332272">
        <ele>0</ele>
        <time>2013-08-29T20:02:54Z</time>
      </trkpt>
      <trkpt lat="59.330422184544" lon="17.84345158425">
        <ele>0</ele>
        <time>2013-08-29T20:02:55Z</time>
      </trkpt>
      <trkpt lat="59.330647657654" lon="17.843818879108">
        <ele>0</ele>
        <time>2013-08-29T20:02:59Z</time>
      </trkpt>
      <trkpt lat="59.33094219762" lon="17.844513738618">
        <ele>0</ele>
        <time>2013-08-29T20:03:04Z</time>
      </trkpt>
      <trkpt lat="59.331065243912" lon="17.845065183819">
        <ele>0</ele>
        <time>2013-08-29T20:03:07Z</time>
      </trkpt>
      <trkpt lat="59.331108075421" lon="17.8452662656">
        <ele>0</ele>
        <time>2013-08-29T20:03:08Z</time>
      </trkpt>
      <trkpt lat="59.331161551943" lon="17.845669183533">
        <ele>0</ele>
        <time>2013-08-29T20:03:10Z</time>
      </trkpt>
      <trkpt lat="59.331218548863" lon="17.846038573866">
        <ele>0</ele>
        <time>2013-08-29T20:03:12Z</time>
      </trkpt>
      <trkpt lat="59.331364393923" lon="17.846745838588">
        <ele>0</ele>
        <time>2013-08-29T20:03:16Z</time>
      </trkpt>
      <trkpt lat="59.331377972601" lon="17.846924373058">
        <ele>0</ele>
        <time>2013-08-29T20:03:17Z</time>
      </trkpt>
      <trkpt lat="59.331291136117" lon="17.847385293739">
        <ele>0</ele>
        <time>2013-08-29T20:03:20Z</time>
      </trkpt>
      <trkpt lat="59.331243359287" lon="17.847532479903">
        <ele>0</ele>
        <time>2013-08-29T20:03:21Z</time>
      </trkpt>
      <trkpt lat="59.331101788996" lon="17.848020641759">
        <ele>0</ele>
        <time>2013-08-29T20:03:24Z</time>
      </trkpt>
      <trkpt lat="59.331069099586" lon="17.848215185658">
        <ele>0</ele>
        <time>2013-08-29T20:03:25Z</time>
      </trkpt>
      <trkpt lat="59.331069434862" lon="17.848798565898">
        <ele>0</ele>
        <time>2013-08-29T20:03:28Z</time>
      </trkpt>
      <trkpt lat="59.331084187006" lon="17.84897357997">
        <ele>0</ele>
        <time>2013-08-29T20:03:29Z</time>
      </trkpt>
      <trkpt lat="59.331157444812" lon="17.849597612425">
        <ele>0</ele>
        <time>2013-08-29T20:03:32Z</time>
      </trkpt>
      <trkpt lat="59.331187871109" lon="17.849835490747">
        <ele>0</ele>
        <time>2013-08-29T20:03:33Z</time>
      </trkpt>
      <trkpt lat="59.331216956302" lon="17.850072530879">
        <ele>0</ele>
        <time>2013-08-29T20:03:34Z</time>
      </trkpt>
      <trkpt lat="59.331259201078" lon="17.850297417256">
        <ele>0</ele>
        <time>2013-08-29T20:03:35Z</time>
      </trkpt>
      <trkpt lat="59.331300440026" lon="17.850537977786">
        <ele>0</ele>
        <time>2013-08-29T20:03:36Z</time>
      </trkpt>
      <trkpt lat="59.331324160803" lon="17.850774095909">
        <ele>0</ele>
        <time>2013-08-29T20:03:37Z</time>
      </trkpt>
      <trkpt lat="59.331342181888" lon="17.850999149924">
        <ele>0</ele>
        <time>2013-08-29T20:03:38Z</time>
      </trkpt>
      <trkpt lat="59.331367243769" lon="17.851206601949">
        <ele>0</ele>
        <time>2013-08-29T20:03:39Z</time>
      </trkpt>
      <trkpt lat="59.331393479116" lon="17.851410617395">
        <ele>0</ele>
        <time>2013-08-29T20:03:40Z</time>
      </trkpt>
      <trkpt lat="59.331418121902" lon="17.851611782995">
        <ele>0</ele>
        <time>2013-08-29T20:03:41Z</time>
      </trkpt>
      <trkpt lat="59.331556171795" lon="17.852599338453">
        <ele>0</ele>
        <time>2013-08-29T20:03:46Z</time>
      </trkpt>
      <trkpt lat="59.331706207805" lon="17.853657134233">
        <ele>0</ele>
        <time>2013-08-29T20:03:51Z</time>
      </trkpt>
      <trkpt lat="59.331726072908" lon="17.853886043922">
        <ele>0</ele>
        <time>2013-08-29T20:03:52Z</time>
      </trkpt>
      <trkpt lat="59.331749206952" lon="17.854110595023">
        <ele>0</ele>
        <time>2013-08-29T20:03:53Z</time>
      </trkpt>
      <trkpt lat="59.331775693756" lon="17.854337073961">
        <ele>0</ele>
        <time>2013-08-29T20:03:54Z</time>
      </trkpt>
      <trkpt lat="59.331794385393" lon="17.854571180428">
        <ele>0</ele>
        <time>2013-08-29T20:03:55Z</time>
      </trkpt>
      <trkpt lat="59.331792038461" lon="17.854809310207">
        <ele>0</ele>
        <time>2013-08-29T20:03:56Z</time>
      </trkpt>
      <trkpt lat="59.331765803114" lon="17.855055821886">
        <ele>0</ele>
        <time>2013-08-29T20:03:57Z</time>
      </trkpt>
      <trkpt lat="59.331664465943" lon="17.855818323329">
        <ele>0</ele>
        <time>2013-08-29T20:04:00Z</time>
      </trkpt>
      <trkpt lat="59.331535887597" lon="17.857020287789">
        <ele>0</ele>
        <time>2013-08-29T20:04:05Z</time>
      </trkpt>
      <trkpt lat="59.331507053861" lon="17.857285994019">
        <ele>0</ele>
        <time>2013-08-29T20:04:06Z</time>
      </trkpt>
      <trkpt lat="59.33136799814" lon="17.858561886837">
        <ele>0</ele>
        <time>2013-08-29T20:04:11Z</time>
      </trkpt>
      <trkpt lat="59.331336230739" lon="17.858817870063">
        <ele>0</ele>
        <time>2013-08-29T20:04:12Z</time>
      </trkpt>
      <trkpt lat="59.331303289872" lon="17.859094221306">
        <ele>0</ele>
        <time>2013-08-29T20:04:13Z</time>
      </trkpt>
      <trkpt lat="59.331271690109" lon="17.859346600315">
        <ele>0</ele>
        <time>2013-08-29T20:04:14Z</time>
      </trkpt>
      <trkpt lat="59.331241347631" lon="17.859598392591">
        <ele>0</ele>
        <time>2013-08-29T20:04:15Z</time>
      </trkpt>
      <trkpt lat="59.331211424248" lon="17.859844820451">
        <ele>0</ele>
        <time>2013-08-29T20:04:16Z</time>
      </trkpt>
      <trkpt lat="59.331166581083" lon="17.860327366434">
        <ele>0</ele>
        <time>2013-08-29T20:04:18Z</time>
      </trkpt>
      <trkpt lat="59.331139842822" lon="17.860561891996">
        <ele>0</ele>
        <time>2013-08-29T20:04:19Z</time>
      </trkpt>
      <trkpt lat="59.331111931095" lon="17.860796333739">
        <ele>0</ele>
        <time>2013-08-29T20:04:20Z</time>
      </trkpt>
      <trkpt lat="59.331076559477" lon="17.86103932502">
        <ele>0</ele>
        <time>2013-08-29T20:04:21Z</time>
      </trkpt>
      <trkpt lat="59.330988633346" lon="17.861724712983">
        <ele>0</ele>
        <time>2013-08-29T20:04:24Z</time>
      </trkpt>
      <trkpt lat="59.330959967248" lon="17.861945743686">
        <ele>0</ele>
        <time>2013-08-29T20:04:25Z</time>
      </trkpt>
      <trkpt lat="59.330925936734" lon="17.862149256218">
        <ele>0</ele>
        <time>2013-08-29T20:04:26Z</time>
      </trkpt>
      <trkpt lat="59.330901713043" lon="17.862348913076">
        <ele>0</ele>
        <time>2013-08-29T20:04:27Z</time>
      </trkpt>
      <trkpt lat="59.330873885135" lon="17.862571117245">
        <ele>0</ele>
        <time>2013-08-29T20:04:28Z</time>
      </trkpt>
      <trkpt lat="59.330829628703" lon="17.862975376282">
        <ele>0</ele>
        <time>2013-08-29T20:04:30Z</time>
      </trkpt>
      <trkpt lat="59.330679173598" lon="17.86414984811">
        <ele>0</ele>
        <time>2013-08-29T20:04:36Z</time>
      </trkpt>
      <trkpt lat="59.330655871916" lon="17.864333244082">
        <ele>0</ele>
        <time>2013-08-29T20:04:37Z</time>
      </trkpt>
      <trkpt lat="59.330597450073" lon="17.864878319039">
        <ele>0</ele>
        <time>2013-08-29T20:04:40Z</time>
      </trkpt>
      <trkpt lat="59.330520839507" lon="17.865670240951">
        <ele>0</ele>
        <time>2013-08-29T20:04:44Z</time>
      </trkpt>
      <trkpt lat="59.330410449884" lon="17.866905733011">
        <ele>0</ele>
        <time>2013-08-29T20:04:50Z</time>
      </trkpt>
      <trkpt lat="59.330370132945" lon="17.867328013133">
        <ele>0</ele>
        <time>2013-08-29T20:04:52Z</time>
      </trkpt>
      <trkpt lat="59.330273322" lon="17.868389496949">
        <ele>0</ele>
        <time>2013-08-29T20:04:57Z</time>
      </trkpt>
      <trkpt lat="59.330252702526" lon="17.8686098571">
        <ele>0</ele>
        <time>2013-08-29T20:04:58Z</time>
      </trkpt>
      <trkpt lat="59.330122112524" lon="17.869508899694">
        <ele>0</ele>
        <time>2013-08-29T20:05:02Z</time>
      </trkpt>
      <trkpt lat="59.329920695467" lon="17.870074342668">
        <ele>0</ele>
        <time>2013-08-29T20:05:05Z</time>
      </trkpt>
      <trkpt lat="59.329822711056" lon="17.870235191329">
        <ele>0</ele>
        <time>2013-08-29T20:05:06Z</time>
      </trkpt>
      <trkpt lat="59.329633196297" lon="17.870566779293">
        <ele>0</ele>
        <time>2013-08-29T20:05:08Z</time>
      </trkpt>
      <trkpt lat="59.329165653915" lon="17.871399688696">
        <ele>0</ele>
        <time>2013-08-29T20:05:13Z</time>
      </trkpt>
      <trkpt lat="59.329070770807" lon="17.871571601465">
        <ele>0</ele>
        <time>2013-08-29T20:05:14Z</time>
      </trkpt>
      <trkpt lat="59.328882680971" lon="17.871936465572">
        <ele>0</ele>
        <time>2013-08-29T20:05:16Z</time>
      </trkpt>
      <trkpt lat="59.32880900407" lon="17.872161435768">
        <ele>0</ele>
        <time>2013-08-29T20:05:17Z</time>
      </trkpt>
      <trkpt lat="59.328743206155" lon="17.872404678506">
        <ele>0</ele>
        <time>2013-08-29T20:05:18Z</time>
      </trkpt>
      <trkpt lat="59.328675815679" lon="17.87264406557">
        <ele>0</ele>
        <time>2013-08-29T20:05:19Z</time>
      </trkpt>
      <trkpt lat="59.328608928117" lon="17.872884961376">
        <ele>0</ele>
        <time>2013-08-29T20:05:20Z</time>
      </trkpt>
      <trkpt lat="59.328540531813" lon="17.873114876893">
        <ele>0</ele>
        <time>2013-08-29T20:05:21Z</time>
      </trkpt>
      <trkpt lat="59.328405164128" lon="17.873572528633">
        <ele>0</ele>
        <time>2013-08-29T20:05:23Z</time>
      </trkpt>
      <trkpt lat="59.328335510539" lon="17.873808646756">
        <ele>0</ele>
        <time>2013-08-29T20:05:24Z</time>
      </trkpt>
      <trkpt lat="59.328266527502" lon="17.874042753223">
        <ele>0</ele>
        <time>2013-08-29T20:05:25Z</time>
      </trkpt>
      <trkpt lat="59.328197795922" lon="17.874279960993">
        <ele>0</ele>
        <time>2013-08-29T20:05:26Z</time>
      </trkpt>
      <trkpt lat="59.328130489265" lon="17.874520605342">
        <ele>0</ele>
        <time>2013-08-29T20:05:27Z</time>
      </trkpt>
      <trkpt lat="59.328063769341" lon="17.874777175301">
        <ele>0</ele>
        <time>2013-08-29T20:05:28Z</time>
      </trkpt>
      <trkpt lat="59.327998139064" lon="17.875024944265">
        <ele>0</ele>
        <time>2013-08-29T20:05:29Z</time>
      </trkpt>
      <trkpt lat="59.327930078036" lon="17.875270533935">
        <ele>0</ele>
        <time>2013-08-29T20:05:30Z</time>
      </trkpt>
      <trkpt lat="59.327860759723" lon="17.875517045614">
        <ele>0</ele>
        <time>2013-08-29T20:05:31Z</time>
      </trkpt>
      <trkpt lat="59.327787837193" lon="17.875761461818">
        <ele>0</ele>
        <time>2013-08-29T20:05:32Z</time>
      </trkpt>
      <trkpt lat="59.327714076473" lon="17.875999172502">
        <ele>0</ele>
        <time>2013-08-29T20:05:33Z</time>
      </trkpt>
      <trkpt lat="59.327644506703" lon="17.876225986716">
        <ele>0</ele>
        <time>2013-08-29T20:05:34Z</time>
      </trkpt>
      <trkpt lat="59.327353403316" lon="17.87711916198">
        <ele>0</ele>
        <time>2013-08-29T20:05:38Z</time>
      </trkpt>
      <trkpt lat="59.327269835773" lon="17.877326111091">
        <ele>0</ele>
        <time>2013-08-29T20:05:39Z</time>
      </trkpt>
      <trkpt lat="59.327177970149" lon="17.877516212583">
        <ele>0</ele>
        <time>2013-08-29T20:05:40Z</time>
      </trkpt>
      <trkpt lat="59.327075040417" lon="17.877676809787">
        <ele>0</ele>
        <time>2013-08-29T20:05:41Z</time>
      </trkpt>
      <trkpt lat="59.326964231699" lon="17.877803460296">
        <ele>0</ele>
        <time>2013-08-29T20:05:42Z</time>
      </trkpt>
      <trkpt lat="59.326750241792" lon="17.877957184342">
        <ele>0</ele>
        <time>2013-08-29T20:05:44Z</time>
      </trkpt>
      <trkpt lat="59.326665668421" lon="17.878008146294">
        <ele>0</ele>
        <time>2013-08-29T20:05:45Z</time>
      </trkpt>
      <trkpt lat="59.326519571904" lon="17.878094060769">
        <ele>0</ele>
        <time>2013-08-29T20:05:47Z</time>
      </trkpt>
      <trkpt lat="59.32643105904" lon="17.878224483133">
        <ele>0</ele>
        <time>2013-08-29T20:05:49Z</time>
      </trkpt>
      <trkpt lat="59.326409769014" lon="17.878323557191">
        <ele>0</ele>
        <time>2013-08-29T20:05:50Z</time>
      </trkpt>
      <trkpt lat="59.326401890028" lon="17.878452219356">
        <ele>0</ele>
        <time>2013-08-29T20:05:51Z</time>
      </trkpt>
      <trkpt lat="59.32640675153" lon="17.878553975622">
        <ele>0</ele>
        <time>2013-08-29T20:05:52Z</time>
      </trkpt>
      <trkpt lat="59.326416893629" lon="17.878663275598">
        <ele>0</ele>
        <time>2013-08-29T20:05:53Z</time>
      </trkpt>
      <trkpt lat="59.326425443167" lon="17.878768049348">
        <ele>0</ele>
        <time>2013-08-29T20:05:54Z</time>
      </trkpt>
      <trkpt lat="59.326457462025" lon="17.879263000543">
        <ele>0</ele>
        <time>2013-08-29T20:05:59Z</time>
      </trkpt>
      <trkpt lat="59.326462826441" lon="17.879939419873">
        <ele>0</ele>
        <time>2013-08-29T20:06:06Z</time>
      </trkpt>
      <trkpt lat="59.326463664631" lon="17.880034805895">
        <ele>0</ele>
        <time>2013-08-29T20:06:07Z</time>
      </trkpt>
      <trkpt lat="59.326445895003" lon="17.880418529277">
        <ele>0</ele>
        <time>2013-08-29T20:06:11Z</time>
      </trkpt>
      <trkpt lat="59.326302480694" lon="17.881321930459">
        <ele>0</ele>
        <time>2013-08-29T20:06:20Z</time>
      </trkpt>
      <trkpt lat="59.326186223741" lon="17.881780671846">
        <ele>0</ele>
        <time>2013-08-29T20:06:25Z</time>
      </trkpt>
      <trkpt lat="59.326163005878" lon="17.881866586321">
        <ele>0</ele>
        <time>2013-08-29T20:06:26Z</time>
      </trkpt>
      <trkpt lat="59.325993942955" lon="17.882454408968">
        <ele>0</ele>
        <time>2013-08-29T20:06:33Z</time>
      </trkpt>
      <trkpt lat="59.325829741534" lon="17.883021612141">
        <ele>0</ele>
        <time>2013-08-29T20:06:40Z</time>
      </trkpt>
      <trkpt lat="59.325674676384" lon="17.883546738176">
        <ele>0</ele>
        <time>2013-08-29T20:06:47Z</time>
      </trkpt>
      <trkpt lat="59.325610135754" lon="17.883779922634">
        <ele>0</ele>
        <time>2013-08-29T20:06:50Z</time>
      </trkpt>
      <trkpt lat="59.325588594271" lon="17.883863322539">
        <ele>0</ele>
        <time>2013-08-29T20:06:51Z</time>
      </trkpt>
      <trkpt lat="59.325567136607" lon="17.883941777123">
        <ele>0</ele>
        <time>2013-08-29T20:06:52Z</time>
      </trkpt>
      <trkpt lat="59.325543583468" lon="17.884018555327">
        <ele>0</ele>
        <time>2013-08-29T20:06:53Z</time>
      </trkpt>
      <trkpt lat="59.325519359777" lon="17.884094243884">
        <ele>0</ele>
        <time>2013-08-29T20:06:54Z</time>
      </trkpt>
      <trkpt lat="59.325366054826" lon="17.884570251985">
        <ele>0</ele>
        <time>2013-08-29T20:07:00Z</time>
      </trkpt>
      <trkpt lat="59.325275781763" lon="17.884814416732">
        <ele>0</ele>
        <time>2013-08-29T20:07:03Z</time>
      </trkpt>
      <trkpt lat="59.325205541441" lon="17.884957495765">
        <ele>0</ele>
        <time>2013-08-29T20:07:05Z</time>
      </trkpt>
      <trkpt lat="59.324955090269" lon="17.885442472499">
        <ele>0</ele>
        <time>2013-08-29T20:07:11Z</time>
      </trkpt>
      <trkpt lat="59.324786194984" lon="17.885767522581">
        <ele>0</ele>
        <time>2013-08-29T20:07:15Z</time>
      </trkpt>
      <trkpt lat="59.324750823366" lon="17.885856957454">
        <ele>0</ele>
        <time>2013-08-29T20:07:16Z</time>
      </trkpt>
      <trkpt lat="59.324643283589" lon="17.886143702253">
        <ele>0</ele>
        <time>2013-08-29T20:07:19Z</time>
      </trkpt>
      <trkpt lat="59.324586454307" lon="17.88635517759">
        <ele>0</ele>
        <time>2013-08-29T20:07:21Z</time>
      </trkpt>
      <trkpt lat="59.324422252886" lon="17.887130670978">
        <ele>0</ele>
        <time>2013-08-29T20:07:28Z</time>
      </trkpt>
      <trkpt lat="59.324246232986" lon="17.887984199855">
        <ele>0</ele>
        <time>2013-08-29T20:07:36Z</time>
      </trkpt>
      <trkpt lat="59.3241042436" lon="17.88873060805">
        <ele>0</ele>
        <time>2013-08-29T20:07:43Z</time>
      </trkpt>
      <trkpt lat="59.324009360492" lon="17.889277443206">
        <ele>0</ele>
        <time>2013-08-29T20:07:48Z</time>
      </trkpt>
      <trkpt lat="59.32399695528" lon="17.889391185589">
        <ele>0</ele>
        <time>2013-08-29T20:07:49Z</time>
      </trkpt>
      <trkpt lat="59.323979772385" lon="17.889505347067">
        <ele>0</ele>
        <time>2013-08-29T20:07:50Z</time>
      </trkpt>
      <trkpt lat="59.323958817635" lon="17.889620346735">
        <ele>0</ele>
        <time>2013-08-29T20:07:51Z</time>
      </trkpt>
      <trkpt lat="59.323935515953" lon="17.889744985588">
        <ele>0</ele>
        <time>2013-08-29T20:07:52Z</time>
      </trkpt>
      <trkpt lat="59.323908861511" lon="17.889866439319">
        <ele>0</ele>
        <time>2013-08-29T20:07:53Z</time>
      </trkpt>
      <trkpt lat="59.3238779323" lon="17.889983199186">
        <ele>0</ele>
        <time>2013-08-29T20:07:54Z</time>
      </trkpt>
      <trkpt lat="59.323795119128" lon="17.890271536546">
        <ele>0</ele>
        <time>2013-08-29T20:07:57Z</time>
      </trkpt>
      <trkpt lat="59.323774248197" lon="17.890368179853">
        <ele>0</ele>
        <time>2013-08-29T20:07:58Z</time>
      </trkpt>
      <trkpt lat="59.323714317612" lon="17.890715944884">
        <ele>0</ele>
        <time>2013-08-29T20:08:01Z</time>
      </trkpt>
      <trkpt lat="59.323695877432" lon="17.890853827139">
        <ele>0</ele>
        <time>2013-08-29T20:08:02Z</time>
      </trkpt>
      <trkpt lat="59.323676347605" lon="17.890988775729">
        <ele>0</ele>
        <time>2013-08-29T20:08:03Z</time>
      </trkpt>
      <trkpt lat="59.323660505814" lon="17.891125233061">
        <ele>0</ele>
        <time>2013-08-29T20:08:04Z</time>
      </trkpt>
      <trkpt lat="59.323643406738" lon="17.891533599229">
        <ele>0</ele>
        <time>2013-08-29T20:08:07Z</time>
      </trkpt>
      <trkpt lat="59.323650279896" lon="17.891825959901">
        <ele>0</ele>
        <time>2013-08-29T20:08:09Z</time>
      </trkpt>
      <trkpt lat="59.323695039242" lon="17.892239774304">
        <ele>0</ele>
        <time>2013-08-29T20:08:12Z</time>
      </trkpt>
      <trkpt lat="59.323797046965" lon="17.893191790506">
        <ele>0</ele>
        <time>2013-08-29T20:08:19Z</time>
      </trkpt>
      <trkpt lat="59.323921266723" lon="17.894244557146">
        <ele>0</ele>
        <time>2013-08-29T20:08:26Z</time>
      </trkpt>
      <trkpt lat="59.324048587784" lon="17.895328420635">
        <ele>0</ele>
        <time>2013-08-29T20:08:33Z</time>
      </trkpt>
      <trkpt lat="59.324067866154" lon="17.895484491613">
        <ele>0</ele>
        <time>2013-08-29T20:08:34Z</time>
      </trkpt>
      <trkpt lat="59.324225362055" lon="17.896584113074">
        <ele>0</ele>
        <time>2013-08-29T20:08:41Z</time>
      </trkpt>
      <trkpt lat="59.324432059709" lon="17.897450717715">
        <ele>0</ele>
        <time>2013-08-29T20:08:47Z</time>
      </trkpt>
      <trkpt lat="59.324687120926" lon="17.89842092264">
        <ele>0</ele>
        <time>2013-08-29T20:08:54Z</time>
      </trkpt>
      <trkpt lat="59.324944612894" lon="17.89934041707">
        <ele>0</ele>
        <time>2013-08-29T20:09:01Z</time>
      </trkpt>
      <trkpt lat="59.325196237532" lon="17.900165112211">
        <ele>0</ele>
        <time>2013-08-29T20:09:08Z</time>
      </trkpt>
      <trkpt lat="59.325247115665" lon="17.900258821853">
        <ele>0</ele>
        <time>2013-08-29T20:09:09Z</time>
      </trkpt>
      <trkpt lat="59.325295060133" lon="17.900346664165">
        <ele>0</ele>
        <time>2013-08-29T20:09:10Z</time>
      </trkpt>
      <trkpt lat="59.325332694864" lon="17.900445235309">
        <ele>0</ele>
        <time>2013-08-29T20:09:11Z</time>
      </trkpt>
      <trkpt lat="59.325363707894" lon="17.90055411619">
        <ele>0</ele>
        <time>2013-08-29T20:09:12Z</time>
      </trkpt>
      <trkpt lat="59.325392122535" lon="17.900662913252">
        <ele>0</ele>
        <time>2013-08-29T20:09:13Z</time>
      </trkpt>
      <trkpt lat="59.325437636252" lon="17.900877154616">
        <ele>0</ele>
        <time>2013-08-29T20:09:15Z</time>
      </trkpt>
      <trkpt lat="59.325458255726" lon="17.901085277193">
        <ele>0</ele>
        <time>2013-08-29T20:09:17Z</time>
      </trkpt>
      <trkpt lat="59.325507206022" lon="17.901303206593">
        <ele>0</ele>
        <time>2013-08-29T20:09:20Z</time>
      </trkpt>
      <trkpt lat="59.325610722487" lon="17.901681146464">
        <ele>0</ele>
        <time>2013-08-29T20:12:01Z</time>
      </trkpt>
      <trkpt lat="59.325656906756" lon="17.90186253078">
        <ele>0</ele>
        <time>2013-08-29T20:12:05Z</time>
      </trkpt>
      <trkpt lat="59.325689763804" lon="17.901976440801">
        <ele>0</ele>
        <time>2013-08-29T20:12:07Z</time>
      </trkpt>
      <trkpt lat="59.32571273021" lon="17.902063444923">
        <ele>0</ele>
        <time>2013-08-29T20:12:08Z</time>
      </trkpt>
      <trkpt lat="59.325833345751" lon="17.902523275957">
        <ele>0</ele>
        <time>2013-08-29T20:12:12Z</time>
      </trkpt>
      <trkpt lat="59.326056807205" lon="17.903250908696">
        <ele>0</ele>
        <time>2013-08-29T20:12:19Z</time>
      </trkpt>
      <trkpt lat="59.326132160486" lon="17.903478142005">
        <ele>0</ele>
        <time>2013-08-29T20:12:21Z</time>
      </trkpt>
      <trkpt lat="59.326177422746" lon="17.903741585122">
        <ele>0</ele>
        <time>2013-08-29T20:12:23Z</time>
      </trkpt>
      <trkpt lat="59.326306839282" lon="17.904313817435">
        <ele>0</ele>
        <time>2013-08-29T20:12:28Z</time>
      </trkpt>
      <trkpt lat="59.32633801995" lon="17.904432756596">
        <ele>0</ele>
        <time>2013-08-29T20:12:29Z</time>
      </trkpt>
      <trkpt lat="59.326367608057" lon="17.904537614165">
        <ele>0</ele>
        <time>2013-08-29T20:12:30Z</time>
      </trkpt>
      <trkpt lat="59.326391496472" lon="17.90463023416">
        <ele>0</ele>
        <time>2013-08-29T20:12:31Z</time>
      </trkpt>
      <trkpt lat="59.326414043783" lon="17.904720171947">
        <ele>0</ele>
        <time>2013-08-29T20:12:32Z</time>
      </trkpt>
      <trkpt lat="59.326452516704" lon="17.904888899594">
        <ele>0</ele>
        <time>2013-08-29T20:12:34Z</time>
      </trkpt>
      <trkpt lat="59.326562822508" lon="17.905316292675">
        <ele>0</ele>
        <time>2013-08-29T20:12:39Z</time>
      </trkpt>
      <trkpt lat="59.326644713671" lon="17.905600941999">
        <ele>0</ele>
        <time>2013-08-29T20:12:42Z</time>
      </trkpt>
      <trkpt lat="59.326673966502" lon="17.905714684382">
        <ele>0</ele>
        <time>2013-08-29T20:12:43Z</time>
      </trkpt>
      <trkpt lat="59.326697352003" lon="17.905806969101">
        <ele>0</ele>
        <time>2013-08-29T20:12:44Z</time>
      </trkpt>
      <trkpt lat="59.326720653685" lon="17.905887100065">
        <ele>0</ele>
        <time>2013-08-29T20:12:45Z</time>
      </trkpt>
      <trkpt lat="59.326739596779" lon="17.905976199662">
        <ele>0</ele>
        <time>2013-08-29T20:12:46Z</time>
      </trkpt>
      <trkpt lat="59.326856691922" lon="17.906420272724">
        <ele>0</ele>
        <time>2013-08-29T20:12:51Z</time>
      </trkpt>
      <trkpt lat="59.326874713007" lon="17.906500487507">
        <ele>0</ele>
        <time>2013-08-29T20:12:52Z</time>
      </trkpt>
      <trkpt lat="59.326900613078" lon="17.906582127213">
        <ele>0</ele>
        <time>2013-08-29T20:12:53Z</time>
      </trkpt>
      <trkpt lat="59.326918215068" lon="17.906654295372">
        <ele>0</ele>
        <time>2013-08-29T20:12:54Z</time>
      </trkpt>
      <trkpt lat="59.326937158162" lon="17.906728056092">
        <ele>0</ele>
        <time>2013-08-29T20:12:55Z</time>
      </trkpt>
      <trkpt lat="59.326953838143" lon="17.906804666658">
        <ele>0</ele>
        <time>2013-08-29T20:12:56Z</time>
      </trkpt>
      <trkpt lat="59.327082165032" lon="17.907323673906">
        <ele>0</ele>
        <time>2013-08-29T20:13:02Z</time>
      </trkpt>
      <trkpt lat="59.327154249372" lon="17.907584350996">
        <ele>0</ele>
        <time>2013-08-29T20:13:05Z</time>
      </trkpt>
      <trkpt lat="59.327182244918" lon="17.90767034929">
        <ele>0</ele>
        <time>2013-08-29T20:13:06Z</time>
      </trkpt>
      <trkpt lat="59.327206217152" lon="17.907761041448">
        <ele>0</ele>
        <time>2013-08-29T20:13:07Z</time>
      </trkpt>
      <trkpt lat="59.327227088083" lon="17.907841172412">
        <ele>0</ele>
        <time>2013-08-29T20:13:08Z</time>
      </trkpt>
      <trkpt lat="59.327249300118" lon="17.907934798235">
        <ele>0</ele>
        <time>2013-08-29T20:13:09Z</time>
      </trkpt>
      <trkpt lat="59.327339070267" lon="17.908300081437">
        <ele>0</ele>
        <time>2013-08-29T20:13:13Z</time>
      </trkpt>
      <trkpt lat="59.327414507367" lon="17.908555226473">
        <ele>0</ele>
        <time>2013-08-29T20:13:16Z</time>
      </trkpt>
      <trkpt lat="59.327434707746" lon="17.908644158432">
        <ele>0</ele>
        <time>2013-08-29T20:13:17Z</time>
      </trkpt>
      <trkpt lat="59.327459937265" lon="17.908738790083">
        <ele>0</ele>
        <time>2013-08-29T20:13:18Z</time>
      </trkpt>
      <trkpt lat="59.327513413787" lon="17.908915983449">
        <ele>0</ele>
        <time>2013-08-29T20:13:19Z</time>
      </trkpt>
      <trkpt lat="59.327624893057" lon="17.90933248006">
        <ele>0</ele>
        <time>2013-08-29T20:13:25Z</time>
      </trkpt>
      <trkpt lat="59.327716339586" lon="17.909624924551">
        <ele>0</ele>
        <time>2013-08-29T20:13:28Z</time>
      </trkpt>
      <trkpt lat="59.3277419882" lon="17.909720310573">
        <ele>0</ele>
        <time>2013-08-29T20:13:29Z</time>
      </trkpt>
      <trkpt lat="59.32777048666" lon="17.909822066839">
        <ele>0</ele>
        <time>2013-08-29T20:13:30Z</time>
      </trkpt>
      <trkpt lat="59.327797057283" lon="17.909910579703">
        <ele>0</ele>
        <time>2013-08-29T20:13:31Z</time>
      </trkpt>
      <trkpt lat="59.327818598766" lon="17.909999260205">
        <ele>0</ele>
        <time>2013-08-29T20:13:32Z</time>
      </trkpt>
      <trkpt lat="59.327843325371" lon="17.910103698679">
        <ele>0</ele>
        <time>2013-08-29T20:13:33Z</time>
      </trkpt>
      <trkpt lat="59.327872159107" lon="17.910208137153">
        <ele>0</ele>
        <time>2013-08-29T20:13:34Z</time>
      </trkpt>
      <trkpt lat="59.328020937832" lon="17.910744327296">
        <ele>0</ele>
        <time>2013-08-29T20:13:39Z</time>
      </trkpt>
      <trkpt lat="59.328251691539" lon="17.911598191449">
        <ele>0</ele>
        <time>2013-08-29T20:13:47Z</time>
      </trkpt>
      <trkpt lat="59.328280357637" lon="17.911706401778">
        <ele>0</ele>
        <time>2013-08-29T20:13:48Z</time>
      </trkpt>
      <trkpt lat="59.32830692826" lon="17.911806900759">
        <ele>0</ele>
        <time>2013-08-29T20:13:49Z</time>
      </trkpt>
      <trkpt lat="59.328336684005" lon="17.911907148283">
        <ele>0</ele>
        <time>2013-08-29T20:13:50Z</time>
      </trkpt>
      <trkpt lat="59.328369541053" lon="17.912006892893">
        <ele>0</ele>
        <time>2013-08-29T20:13:51Z</time>
      </trkpt>
      <trkpt lat="59.32848965368" lon="17.912439901847">
        <ele>0</ele>
        <time>2013-08-29T20:13:55Z</time>
      </trkpt>
      <trkpt lat="59.328744379621" lon="17.913374902792">
        <ele>0</ele>
        <time>2013-08-29T20:14:04Z</time>
      </trkpt>
      <trkpt lat="59.328903468083" lon="17.913974041004">
        <ele>0</ele>
        <time>2013-08-29T20:14:10Z</time>
      </trkpt>
      <trkpt lat="59.329087953702" lon="17.914670576894">
        <ele>0</ele>
        <time>2013-08-29T20:14:17Z</time>
      </trkpt>
      <trkpt lat="59.32924905382" lon="17.915260746473">
        <ele>0</ele>
        <time>2013-08-29T20:14:23Z</time>
      </trkpt>
      <trkpt lat="59.32939741345" lon="17.915720661326">
        <ele>0</ele>
        <time>2013-08-29T20:14:28Z</time>
      </trkpt>
      <trkpt lat="59.329504953227" lon="17.915951079757">
        <ele>0</ele>
        <time>2013-08-29T20:14:31Z</time>
      </trkpt>
      <trkpt lat="59.329694635624" lon="17.916243859524">
        <ele>0</ele>
        <time>2013-08-29T20:14:35Z</time>
      </trkpt>
      <trkpt lat="59.329814161518" lon="17.916551056159">
        <ele>0</ele>
        <time>2013-08-29T20:14:38Z</time>
      </trkpt>
      <trkpt lat="59.329905188952" lon="17.916770159025">
        <ele>0</ele>
        <time>2013-08-29T20:14:40Z</time>
      </trkpt>
      <trkpt lat="59.329946260262" lon="17.916871244739">
        <ele>0</ele>
        <time>2013-08-29T20:14:41Z</time>
      </trkpt>
      <trkpt lat="59.329986325744" lon="17.916965205838">
        <ele>0</ele>
        <time>2013-08-29T20:14:42Z</time>
      </trkpt>
      <trkpt lat="59.330027480873" lon="17.917060675679">
        <ele>0</ele>
        <time>2013-08-29T20:14:43Z</time>
      </trkpt>
      <trkpt lat="59.330066372889" lon="17.917149859095">
        <ele>0</ele>
        <time>2013-08-29T20:14:44Z</time>
      </trkpt>
      <trkpt lat="59.330107779475" lon="17.917236276484">
        <ele>0</ele>
        <time>2013-08-29T20:14:45Z</time>
      </trkpt>
      <trkpt lat="59.330145749482" lon="17.917334428533">
        <ele>0</ele>
        <time>2013-08-29T20:14:46Z</time>
      </trkpt>
      <trkpt lat="59.330417658318" lon="17.917922334999">
        <ele>0</ele>
        <time>2013-08-29T20:14:53Z</time>
      </trkpt>
      <trkpt lat="59.330553026003" lon="17.918163482262">
        <ele>0</ele>
        <time>2013-08-29T20:14:56Z</time>
      </trkpt>
      <trkpt lat="59.330670372603" lon="17.918308070037">
        <ele>0</ele>
        <time>2013-08-29T20:14:58Z</time>
      </trkpt>
      <trkpt lat="59.330733991224" lon="17.918387865725">
        <ele>0</ele>
        <time>2013-08-29T20:14:59Z</time>
      </trkpt>
      <trkpt lat="59.330786461918" lon="17.918456764943">
        <ele>0</ele>
        <time>2013-08-29T20:15:00Z</time>
      </trkpt>
      <trkpt lat="59.330826778857" lon="17.918511917845">
        <ele>0</ele>
        <time>2013-08-29T20:15:01Z</time>
      </trkpt>
      <trkpt lat="59.330858043344" lon="17.918551899508">
        <ele>0</ele>
        <time>2013-08-29T20:15:02Z</time>
      </trkpt>
      <trkpt lat="59.330873968954" lon="17.918575285009">
        <ele>0</ele>
        <time>2013-08-29T20:15:03Z</time>
      </trkpt>
      <trkpt lat="59.330898276464" lon="17.918614931396">
        <ele>0</ele>
        <time>2013-08-29T20:15:05Z</time>
      </trkpt>
      <trkpt lat="59.330901210129" lon="17.918651308842">
        <ele>0</ele>
        <time>2013-08-29T20:15:06Z</time>
      </trkpt>
      <trkpt lat="59.330949657511" lon="17.91874367738">
        <ele>0</ele>
        <time>2013-08-29T20:15:09Z</time>
      </trkpt>
      <trkpt lat="59.331051246139" lon="17.918698582758">
        <ele>0</ele>
        <time>2013-08-29T20:15:13Z</time>
      </trkpt>
      <trkpt lat="59.331119139529" lon="17.918488783801">
        <ele>0</ele>
        <time>2013-08-29T20:15:16Z</time>
      </trkpt>
      <trkpt lat="59.331161551943" lon="17.918318966507">
        <ele>0</ele>
        <time>2013-08-29T20:15:18Z</time>
      </trkpt>
      <trkpt lat="59.331206730384" lon="17.918149316851">
        <ele>0</ele>
        <time>2013-08-29T20:15:20Z</time>
      </trkpt>
      <trkpt lat="59.331309743935" lon="17.917791409721">
        <ele>0</ele>
        <time>2013-08-29T20:15:24Z</time>
      </trkpt>
      <trkpt lat="59.331367076131" lon="17.917616563287">
        <ele>0</ele>
        <time>2013-08-29T20:15:26Z</time>
      </trkpt>
      <trkpt lat="59.331506383309" lon="17.917134184942">
        <ele>0</ele>
        <time>2013-08-29T20:15:31Z</time>
      </trkpt>
      <trkpt lat="59.331531612828" lon="17.917035613798">
        <ele>0</ele>
        <time>2013-08-29T20:15:32Z</time>
      </trkpt>
      <trkpt lat="59.331560195107" lon="17.91693737793">
        <ele>0</ele>
        <time>2013-08-29T20:15:33Z</time>
      </trkpt>
      <trkpt lat="59.331578300011" lon="17.91684014789">
        <ele>0</ele>
        <time>2013-08-29T20:15:34Z</time>
      </trkpt>
      <trkpt lat="59.33158257478" lon="17.916750377741">
        <ele>0</ele>
        <time>2013-08-29T20:15:35Z</time>
      </trkpt>
      <trkpt lat="59.331599254761" lon="17.916636719177">
        <ele>0</ele>
        <time>2013-08-29T20:15:36Z</time>
      </trkpt>
      <trkpt lat="59.331606211738" lon="17.916525323726">
        <ele>0</ele>
        <time>2013-08-29T20:15:37Z</time>
      </trkpt>
      <trkpt lat="59.331622388805" lon="17.916415939931">
        <ele>0</ele>
        <time>2013-08-29T20:15:38Z</time>
      </trkpt>
      <trkpt lat="59.33164292446" lon="17.916298593331">
        <ele>0</ele>
        <time>2013-08-29T20:15:39Z</time>
      </trkpt>
      <trkpt lat="59.331656670776" lon="17.916183090749">
        <ele>0</ele>
        <time>2013-08-29T20:15:40Z</time>
      </trkpt>
      <trkpt lat="59.331672596386" lon="17.916071611479">
        <ele>0</ele>
        <time>2013-08-29T20:15:41Z</time>
      </trkpt>
      <trkpt lat="59.331700508113" lon="17.915848904396">
        <ele>0</ele>
        <time>2013-08-29T20:15:43Z</time>
      </trkpt>
      <trkpt lat="59.331708890013" lon="17.915728456493">
        <ele>0</ele>
        <time>2013-08-29T20:15:44Z</time>
      </trkpt>
      <trkpt lat="59.331714589705" lon="17.915615300843">
        <ele>0</ele>
        <time>2013-08-29T20:15:45Z</time>
      </trkpt>
      <trkpt lat="59.331720959949" lon="17.91549066199">
        <ele>0</ele>
        <time>2013-08-29T20:15:46Z</time>
      </trkpt>
      <trkpt lat="59.331733197523" lon="17.915370046449">
        <ele>0</ele>
        <time>2013-08-29T20:15:47Z</time>
      </trkpt>
      <trkpt lat="59.331758510861" lon="17.915036279191">
        <ele>0</ele>
        <time>2013-08-29T20:15:50Z</time>
      </trkpt>
      <trkpt lat="59.331810059546" lon="17.914564545859">
        <ele>0</ele>
        <time>2013-08-29T20:15:54Z</time>
      </trkpt>
      <trkpt lat="59.331824476414" lon="17.914427669432">
        <ele>0</ele>
        <time>2013-08-29T20:15:55Z</time>
      </trkpt>
      <trkpt lat="59.331903098636" lon="17.913630466923">
        <ele>0</ele>
        <time>2013-08-29T20:16:00Z</time>
      </trkpt>
      <trkpt lat="59.331928998707" lon="17.913459559982">
        <ele>0</ele>
        <time>2013-08-29T20:16:01Z</time>
      </trkpt>
      <trkpt lat="59.331958335357" lon="17.913289155955">
        <ele>0</ele>
        <time>2013-08-29T20:16:02Z</time>
      </trkpt>
      <trkpt lat="59.331993623156" lon="17.913122439964">
        <ele>0</ele>
        <time>2013-08-29T20:16:03Z</time>
      </trkpt>
      <trkpt lat="59.332033521" lon="17.912960836932">
        <ele>0</ele>
        <time>2013-08-29T20:16:04Z</time>
      </trkpt>
      <trkpt lat="59.332074927586" lon="17.912773417648">
        <ele>0</ele>
        <time>2013-08-29T20:16:05Z</time>
      </trkpt>
      <trkpt lat="59.332120357484" lon="17.912592536246">
        <ele>0</ele>
        <time>2013-08-29T20:16:06Z</time>
      </trkpt>
      <trkpt lat="59.332167882857" lon="17.912413079767">
        <ele>0</ele>
        <time>2013-08-29T20:16:07Z</time>
      </trkpt>
      <trkpt lat="59.332216665515" lon="17.912226498673">
        <ele>0</ele>
        <time>2013-08-29T20:16:08Z</time>
      </trkpt>
      <trkpt lat="59.332260754309" lon="17.912028266738">
        <ele>0</ele>
        <time>2013-08-29T20:16:09Z</time>
      </trkpt>
      <trkpt lat="59.332309201691" lon="17.91183699178">
        <ele>0</ele>
        <time>2013-08-29T20:16:10Z</time>
      </trkpt>
      <trkpt lat="59.332356559426" lon="17.91164001713">
        <ele>0</ele>
        <time>2013-08-29T20:16:11Z</time>
      </trkpt>
      <trkpt lat="59.332401737867" lon="17.911423009739">
        <ele>0</ele>
        <time>2013-08-29T20:16:12Z</time>
      </trkpt>
      <trkpt lat="59.332453202733" lon="17.911221089768">
        <ele>0</ele>
        <time>2013-08-29T20:16:13Z</time>
      </trkpt>
      <trkpt lat="59.332503913228" lon="17.911023612204">
        <ele>0</ele>
        <time>2013-08-29T20:16:14Z</time>
      </trkpt>
      <trkpt lat="59.33255906613" lon="17.91083703111">
        <ele>0</ele>
        <time>2013-08-29T20:16:15Z</time>
      </trkpt>
      <trkpt lat="59.332620505457" lon="17.910662100857">
        <ele>0</ele>
        <time>2013-08-29T20:16:16Z</time>
      </trkpt>
      <trkpt lat="59.332678424386" lon="17.910483147292">
        <ele>0</ele>
        <time>2013-08-29T20:16:17Z</time>
      </trkpt>
      <trkpt lat="59.332741456274" lon="17.910320622251">
        <ele>0</ele>
        <time>2013-08-29T20:16:18Z</time>
      </trkpt>
      <trkpt lat="59.332813959709" lon="17.910180309245">
        <ele>0</ele>
        <time>2013-08-29T20:16:19Z</time>
      </trkpt>
      <trkpt lat="59.332881434004" lon="17.910031362882">
        <ele>0</ele>
        <time>2013-08-29T20:16:20Z</time>
      </trkpt>
      <trkpt lat="59.332952931611" lon="17.909899012681">
        <ele>0</ele>
        <time>2013-08-29T20:16:21Z</time>
      </trkpt>
      <trkpt lat="59.333018561888" lon="17.909778732416">
        <ele>0</ele>
        <time>2013-08-29T20:16:22Z</time>
      </trkpt>
      <trkpt lat="59.333087209649" lon="17.909659960893">
        <ele>0</ele>
        <time>2013-08-29T20:16:23Z</time>
      </trkpt>
      <trkpt lat="59.333153845754" lon="17.909545212682">
        <ele>0</ele>
        <time>2013-08-29T20:16:24Z</time>
      </trkpt>
      <trkpt lat="59.333382336348" lon="17.909192083235">
        <ele>0</ele>
        <time>2013-08-29T20:16:27Z</time>
      </trkpt>
      <trkpt lat="59.333907881478" lon="17.908557824862">
        <ele>0</ele>
        <time>2013-08-29T20:16:33Z</time>
      </trkpt>
      <trkpt lat="59.334002680767" lon="17.908466378333">
        <ele>0</ele>
        <time>2013-08-29T20:16:34Z</time>
      </trkpt>
      <trkpt lat="59.334097647694" lon="17.908370573216">
        <ele>0</ele>
        <time>2013-08-29T20:16:35Z</time>
      </trkpt>
      <trkpt lat="59.3341876693" lon="17.908291783356">
        <ele>0</ele>
        <time>2013-08-29T20:16:36Z</time>
      </trkpt>
      <trkpt lat="59.334273332318" lon="17.908203773406">
        <ele>0</ele>
        <time>2013-08-29T20:16:37Z</time>
      </trkpt>
      <trkpt lat="59.334352373635" lon="17.908117775112">
        <ele>0</ele>
        <time>2013-08-29T20:16:38Z</time>
      </trkpt>
      <trkpt lat="59.334720506683" lon="17.907688286556">
        <ele>0</ele>
        <time>2013-08-29T20:16:43Z</time>
      </trkpt>
      <trkpt lat="59.334784544399" lon="17.907626511953">
        <ele>0</ele>
        <time>2013-08-29T20:16:44Z</time>
      </trkpt>
      <trkpt lat="59.334847827744" lon="17.907549817568">
        <ele>0</ele>
        <time>2013-08-29T20:16:45Z</time>
      </trkpt>
      <trkpt lat="59.334913709478" lon="17.907481672721">
        <ele>0</ele>
        <time>2013-08-29T20:16:46Z</time>
      </trkpt>
      <trkpt lat="59.334981183773" lon="17.907406738535">
        <ele>0</ele>
        <time>2013-08-29T20:16:47Z</time>
      </trkpt>
      <trkpt lat="59.335045724403" lon="17.907332726358">
        <ele>0</ele>
        <time>2013-08-29T20:16:48Z</time>
      </trkpt>
      <trkpt lat="59.33517002798" lon="17.907187468031">
        <ele>0</ele>
        <time>2013-08-29T20:16:50Z</time>
      </trkpt>
      <trkpt lat="59.335239262474" lon="17.907104319583">
        <ele>0</ele>
        <time>2013-08-29T20:16:51Z</time>
      </trkpt>
      <trkpt lat="59.335306066217" lon="17.907018991841">
        <ele>0</ele>
        <time>2013-08-29T20:16:52Z</time>
      </trkpt>
      <trkpt lat="59.335373959607" lon="17.906930143701">
        <ele>0</ele>
        <time>2013-08-29T20:16:53Z</time>
      </trkpt>
      <trkpt lat="59.335447720327" lon="17.906852024393">
        <ele>0</ele>
        <time>2013-08-29T20:16:54Z</time>
      </trkpt>
      <trkpt lat="59.335731280004" lon="17.906473665427">
        <ele>0</ele>
        <time>2013-08-29T20:16:58Z</time>
      </trkpt>
      <trkpt lat="59.336010481093" lon="17.906110729157">
        <ele>0</ele>
        <time>2013-08-29T20:17:02Z</time>
      </trkpt>
      <trkpt lat="59.336078374483" lon="17.906019198809">
        <ele>0</ele>
        <time>2013-08-29T20:17:03Z</time>
      </trkpt>
      <trkpt lat="59.336142663656" lon="17.905928674289">
        <ele>0</ele>
        <time>2013-08-29T20:17:04Z</time>
      </trkpt>
      <trkpt lat="59.336209048304" lon="17.905833791181">
        <ele>0</ele>
        <time>2013-08-29T20:17:05Z</time>
      </trkpt>
      <trkpt lat="59.336275684409" lon="17.905743099023">
        <ele>0</ele>
        <time>2013-08-29T20:17:06Z</time>
      </trkpt>
      <trkpt lat="59.3367692945" lon="17.905086041882">
        <ele>0</ele>
        <time>2013-08-29T20:17:13Z</time>
      </trkpt>
      <trkpt lat="59.336845066876" lon="17.904988560385">
        <ele>0</ele>
        <time>2013-08-29T20:17:14Z</time>
      </trkpt>
      <trkpt lat="59.336919833424" lon="17.904887893766">
        <ele>0</ele>
        <time>2013-08-29T20:17:15Z</time>
      </trkpt>
      <trkpt lat="59.336994348515" lon="17.90477607922">
        <ele>0</ele>
        <time>2013-08-29T20:17:16Z</time>
      </trkpt>
      <trkpt lat="59.337066516674" lon="17.904664264674">
        <ele>0</ele>
        <time>2013-08-29T20:17:17Z</time>
      </trkpt>
      <trkpt lat="59.337139187747" lon="17.904534093767">
        <ele>0</ele>
        <time>2013-08-29T20:17:18Z</time>
      </trkpt>
      <trkpt lat="59.33721688796" lon="17.904422949773">
        <ele>0</ele>
        <time>2013-08-29T20:17:19Z</time>
      </trkpt>
      <trkpt lat="59.337302048064" lon="17.904310464675">
        <ele>0</ele>
        <time>2013-08-29T20:17:20Z</time>
      </trkpt>
      <trkpt lat="59.337389890376" lon="17.904187753659">
        <ele>0</ele>
        <time>2013-08-29T20:17:21Z</time>
      </trkpt>
      <trkpt lat="59.337474044652" lon="17.904076944941">
        <ele>0</ele>
        <time>2013-08-29T20:17:22Z</time>
      </trkpt>
      <trkpt lat="59.337552834512" lon="17.903960352712">
        <ele>0</ele>
        <time>2013-08-29T20:17:23Z</time>
      </trkpt>
      <trkpt lat="59.337753245741" lon="17.903588280171">
        <ele>0</ele>
        <time>2013-08-29T20:17:26Z</time>
      </trkpt>
      <trkpt lat="59.337910238728" lon="17.902987297941">
        <ele>0</ele>
        <time>2013-08-29T20:17:30Z</time>
      </trkpt>
      <trkpt lat="59.337941000301" lon="17.902661828764">
        <ele>0</ele>
        <time>2013-08-29T20:17:32Z</time>
      </trkpt>
      <trkpt lat="59.337951310038" lon="17.902325630755">
        <ele>0</ele>
        <time>2013-08-29T20:17:34Z</time>
      </trkpt>
      <trkpt lat="59.337938234274" lon="17.90214919176">
        <ele>0</ele>
        <time>2013-08-29T20:17:35Z</time>
      </trkpt>
      <trkpt lat="59.337892385281" lon="17.901788434784">
        <ele>0</ele>
        <time>2013-08-29T20:17:37Z</time>
      </trkpt>
      <trkpt lat="59.337856510749" lon="17.901441507943">
        <ele>0</ele>
        <time>2013-08-29T20:17:39Z</time>
      </trkpt>
      <trkpt lat="59.337777217975" lon="17.900730471366">
        <ele>0</ele>
        <time>2013-08-29T20:17:43Z</time>
      </trkpt>
      <trkpt lat="59.337648723448" lon="17.899668736093">
        <ele>0</ele>
        <time>2013-08-29T20:17:49Z</time>
      </trkpt>
      <trkpt lat="59.337627265784" lon="17.899494727849">
        <ele>0</ele>
        <time>2013-08-29T20:17:50Z</time>
      </trkpt>
      <trkpt lat="59.337515367419" lon="17.898427460522">
        <ele>0</ele>
        <time>2013-08-29T20:17:56Z</time>
      </trkpt>
      <trkpt lat="59.337492233375" lon="17.898255044839">
        <ele>0</ele>
        <time>2013-08-29T20:17:57Z</time>
      </trkpt>
      <trkpt lat="59.337336832949" lon="17.897258772205">
        <ele>0</ele>
        <time>2013-08-29T20:18:03Z</time>
      </trkpt>
      <trkpt lat="59.337312693077" lon="17.897092978223">
        <ele>0</ele>
        <time>2013-08-29T20:18:04Z</time>
      </trkpt>
      <trkpt lat="59.337291822146" lon="17.896924250576">
        <ele>0</ele>
        <time>2013-08-29T20:18:05Z</time>
      </trkpt>
      <trkpt lat="59.337273968699" lon="17.896750242332">
        <ele>0</ele>
        <time>2013-08-29T20:18:06Z</time>
      </trkpt>
      <trkpt lat="59.33725460651" lon="17.896576401726">
        <ele>0</ele>
        <time>2013-08-29T20:18:07Z</time>
      </trkpt>
      <trkpt lat="59.337209008974" lon="17.896057059202">
        <ele>0</ele>
        <time>2013-08-29T20:18:10Z</time>
      </trkpt>
      <trkpt lat="59.33716072923" lon="17.895402935726">
        <ele>0</ele>
        <time>2013-08-29T20:18:14Z</time>
      </trkpt>
      <trkpt lat="59.337149665122" lon="17.895240326866">
        <ele>0</ele>
        <time>2013-08-29T20:18:15Z</time>
      </trkpt>
      <trkpt lat="59.337139690661" lon="17.895065564251">
        <ele>0</ele>
        <time>2013-08-29T20:18:16Z</time>
      </trkpt>
      <trkpt lat="59.337140696489" lon="17.894897758613">
        <ele>0</ele>
        <time>2013-08-29T20:18:17Z</time>
      </trkpt>
      <trkpt lat="59.337143797792" lon="17.89472953388">
        <ele>0</ele>
        <time>2013-08-29T20:18:18Z</time>
      </trkpt>
      <trkpt lat="59.337158717574" lon="17.894236929617">
        <ele>0</ele>
        <time>2013-08-29T20:18:21Z</time>
      </trkpt>
      <trkpt lat="59.33723365176" lon="17.893298995007">
        <ele>0</ele>
        <time>2013-08-29T20:18:27Z</time>
      </trkpt>
      <trkpt lat="59.337368097436" lon="17.892701700813">
        <ele>0</ele>
        <time>2013-08-29T20:18:31Z</time>
      </trkpt>
      <trkpt lat="59.337413527334" lon="17.892567506594">
        <ele>0</ele>
        <time>2013-08-29T20:18:32Z</time>
      </trkpt>
      <trkpt lat="59.337666073981" lon="17.891670643294">
        <ele>0</ele>
        <time>2013-08-29T20:18:38Z</time>
      </trkpt>
      <trkpt lat="59.337704798359" lon="17.891504933131">
        <ele>0</ele>
        <time>2013-08-29T20:18:39Z</time>
      </trkpt>
      <trkpt lat="59.337736062846" lon="17.891327991222">
        <ele>0</ele>
        <time>2013-08-29T20:18:40Z</time>
      </trkpt>
      <trkpt lat="59.337764980401" lon="17.891150797856">
        <ele>0</ele>
        <time>2013-08-29T20:18:41Z</time>
      </trkpt>
      <trkpt lat="59.337786940979" lon="17.890971006101">
        <ele>0</ele>
        <time>2013-08-29T20:18:42Z</time>
      </trkpt>
      <trkpt lat="59.337810997032" lon="17.890792974545">
        <ele>0</ele>
        <time>2013-08-29T20:18:43Z</time>
      </trkpt>
      <trkpt lat="59.33788660177" lon="17.8902519229">
        <ele>0</ele>
        <time>2013-08-29T20:18:46Z</time>
      </trkpt>
      <trkpt lat="59.337918201533" lon="17.890078333751">
        <ele>0</ele>
        <time>2013-08-29T20:18:47Z</time>
      </trkpt>
      <trkpt lat="59.337954159884" lon="17.889911031027">
        <ele>0</ele>
        <time>2013-08-29T20:18:48Z</time>
      </trkpt>
      <trkpt lat="59.337994393004" lon="17.889751858746">
        <ele>0</ele>
        <time>2013-08-29T20:18:49Z</time>
      </trkpt>
      <trkpt lat="59.338038565617" lon="17.889590674809">
        <ele>0</ele>
        <time>2013-08-29T20:18:50Z</time>
      </trkpt>
      <trkpt lat="59.338141662987" lon="17.88931985562">
        <ele>0</ele>
        <time>2013-08-29T20:18:52Z</time>
      </trkpt>
      <trkpt lat="59.338255908284" lon="17.889093376682">
        <ele>0</ele>
        <time>2013-08-29T20:18:54Z</time>
      </trkpt>
      <trkpt lat="59.338379541309" lon="17.888893887462">
        <ele>0</ele>
        <time>2013-08-29T20:18:56Z</time>
      </trkpt>
      <trkpt lat="59.338437376419" lon="17.888796908879">
        <ele>0</ele>
        <time>2013-08-29T20:18:57Z</time>
      </trkpt>
      <trkpt lat="59.338498983384" lon="17.888703115418">
        <ele>0</ele>
        <time>2013-08-29T20:18:58Z</time>
      </trkpt>
      <trkpt lat="59.338550280612" lon="17.888623068273">
        <ele>0</ele>
        <time>2013-08-29T20:18:59Z</time>
      </trkpt>
      <trkpt lat="59.338603589496" lon="17.888551486847">
        <ele>0</ele>
        <time>2013-08-29T20:19:00Z</time>
      </trkpt>
      <trkpt lat="59.33866025114" lon="17.888474792462">
        <ele>0</ele>
        <time>2013-08-29T20:19:01Z</time>
      </trkpt>
      <trkpt lat="59.338713308567" lon="17.888394912955">
        <ele>0</ele>
        <time>2013-08-29T20:19:02Z</time>
      </trkpt>
      <trkpt lat="59.33876586308" lon="17.888318386208">
        <ele>0</ele>
        <time>2013-08-29T20:19:03Z</time>
      </trkpt>
      <trkpt lat="59.338817244127" lon="17.888249067895">
        <ele>0</ele>
        <time>2013-08-29T20:19:04Z</time>
      </trkpt>
      <trkpt lat="59.338870133916" lon="17.888175558632">
        <ele>0</ele>
        <time>2013-08-29T20:19:05Z</time>
      </trkpt>
      <trkpt lat="59.338917910746" lon="17.888114370762">
        <ele>0</ele>
        <time>2013-08-29T20:19:06Z</time>
      </trkpt>
      <trkpt lat="59.338974488571" lon="17.88804329225">
        <ele>0</ele>
        <time>2013-08-29T20:19:07Z</time>
      </trkpt>
      <trkpt lat="59.339028719464" lon="17.887981685285">
        <ele>0</ele>
        <time>2013-08-29T20:19:08Z</time>
      </trkpt>
      <trkpt lat="59.339089320601" lon="17.887908259841">
        <ele>0</ele>
        <time>2013-08-29T20:19:09Z</time>
      </trkpt>
      <trkpt lat="59.339151933394" lon="17.887838354795">
        <ele>0</ele>
        <time>2013-08-29T20:19:10Z</time>
      </trkpt>
      <trkpt lat="59.339210606694" lon="17.887778675667">
        <ele>0</ele>
        <time>2013-08-29T20:19:11Z</time>
      </trkpt>
      <trkpt lat="59.339260814275" lon="17.887719331815">
        <ele>0</ele>
        <time>2013-08-29T20:19:12Z</time>
      </trkpt>
      <trkpt lat="59.339321834507" lon="17.887641547783">
        <ele>0</ele>
        <time>2013-08-29T20:19:13Z</time>
      </trkpt>
      <trkpt lat="59.339387045689" lon="17.887561165362">
        <ele>0</ele>
        <time>2013-08-29T20:19:14Z</time>
      </trkpt>
      <trkpt lat="59.33945569345" lon="17.887482878416">
        <ele>0</ele>
        <time>2013-08-29T20:19:15Z</time>
      </trkpt>
      <trkpt lat="59.339535237681" lon="17.887418756881">
        <ele>0</ele>
        <time>2013-08-29T20:19:16Z</time>
      </trkpt>
      <trkpt lat="59.339618134672" lon="17.887369471309">
        <ele>0</ele>
        <time>2013-08-29T20:19:17Z</time>
      </trkpt>
      <trkpt lat="59.339699271464" lon="17.887320018099">
        <ele>0</ele>
        <time>2013-08-29T20:19:18Z</time>
      </trkpt>
      <trkpt lat="59.339954248862" lon="17.887155984316">
        <ele>0</ele>
        <time>2013-08-29T20:19:21Z</time>
      </trkpt>
      <trkpt lat="59.340122222138" lon="17.887079457569">
        <ele>0</ele>
        <time>2013-08-29T20:19:23Z</time>
      </trkpt>
      <trkpt lat="59.340206124957" lon="17.887051378204">
        <ele>0</ele>
        <time>2013-08-29T20:19:24Z</time>
      </trkpt>
      <trkpt lat="59.340286758835" lon="17.887020951907">
        <ele>0</ele>
        <time>2013-08-29T20:19:25Z</time>
      </trkpt>
      <trkpt lat="59.340370829292" lon="17.8869997457">
        <ele>0</ele>
        <time>2013-08-29T20:19:26Z</time>
      </trkpt>
      <trkpt lat="59.340454648292" lon="17.886995051836">
        <ele>0</ele>
        <time>2013-08-29T20:19:27Z</time>
      </trkpt>
      <trkpt lat="59.340535785084" lon="17.887001086804">
        <ele>0</ele>
        <time>2013-08-29T20:19:28Z</time>
      </trkpt>
      <trkpt lat="59.340619855541" lon="17.887017012414">
        <ele>0</ele>
        <time>2013-08-29T20:19:29Z</time>
      </trkpt>
      <trkpt lat="59.340695292641" lon="17.887037883345">
        <ele>0</ele>
        <time>2013-08-29T20:19:30Z</time>
      </trkpt>
      <trkpt lat="59.340876174043" lon="17.887082558872">
        <ele>0</ele>
        <time>2013-08-29T20:19:32Z</time>
      </trkpt>
      <trkpt lat="59.341214467527" lon="17.887380954512">
        <ele>0</ele>
        <time>2013-08-29T20:19:36Z</time>
      </trkpt>
      <trkpt lat="59.341444550682" lon="17.887650684054">
        <ele>0</ele>
        <time>2013-08-29T20:19:39Z</time>
      </trkpt>
      <trkpt lat="59.341514371909" lon="17.887746070076">
        <ele>0</ele>
        <time>2013-08-29T20:19:40Z</time>
      </trkpt>
      <trkpt lat="59.341589641371" lon="17.887841204641">
        <ele>0</ele>
        <time>2013-08-29T20:19:41Z</time>
      </trkpt>
      <trkpt lat="59.341667593041" lon="17.887935249559">
        <ele>0</ele>
        <time>2013-08-29T20:19:42Z</time>
      </trkpt>
      <trkpt lat="59.3417481431" lon="17.888033569246">
        <ele>0</ele>
        <time>2013-08-29T20:19:43Z</time>
      </trkpt>
      <trkpt lat="59.342004042507" lon="17.888325846099">
        <ele>0</ele>
        <time>2013-08-29T20:19:46Z</time>
      </trkpt>
      <trkpt lat="59.342370331537" lon="17.888805542236">
        <ele>0</ele>
        <time>2013-08-29T20:19:51Z</time>
      </trkpt>
      <trkpt lat="59.342446774465" lon="17.888896066756">
        <ele>0</ele>
        <time>2013-08-29T20:19:52Z</time>
      </trkpt>
      <trkpt lat="59.342513494389" lon="17.888978377014">
        <ele>0</ele>
        <time>2013-08-29T20:19:53Z</time>
      </trkpt>
      <trkpt lat="59.342581220141" lon="17.889053562657">
        <ele>0</ele>
        <time>2013-08-29T20:19:54Z</time>
      </trkpt>
      <trkpt lat="59.342644671124" lon="17.889130676137">
        <ele>0</ele>
        <time>2013-08-29T20:19:55Z</time>
      </trkpt>
      <trkpt lat="59.342706613365" lon="17.889204688314">
        <ele>0</ele>
        <time>2013-08-29T20:19:56Z</time>
      </trkpt>
      <trkpt lat="59.343063347029" lon="17.889636523802">
        <ele>0</ele>
        <time>2013-08-29T20:20:02Z</time>
      </trkpt>
      <trkpt lat="59.343125708365" lon="17.889700226242">
        <ele>0</ele>
        <time>2013-08-29T20:20:03Z</time>
      </trkpt>
      <trkpt lat="59.34330801469" lon="17.889918239461">
        <ele>0</ele>
        <time>2013-08-29T20:20:06Z</time>
      </trkpt>
      <trkpt lat="59.343709172424" lon="17.890320403023">
        <ele>0</ele>
        <time>2013-08-29T20:20:12Z</time>
      </trkpt>
      <trkpt lat="59.344150311821" lon="17.890809738345">
        <ele>0</ele>
        <time>2013-08-29T20:20:19Z</time>
      </trkpt>
      <trkpt lat="59.344216947926" lon="17.890893557345">
        <ele>0</ele>
        <time>2013-08-29T20:20:20Z</time>
      </trkpt>
      <trkpt lat="59.344286014782" lon="17.890963378572">
        <ele>0</ele>
        <time>2013-08-29T20:20:21Z</time>
      </trkpt>
      <trkpt lat="59.344353489077" lon="17.891033535075">
        <ele>0</ele>
        <time>2013-08-29T20:20:22Z</time>
      </trkpt>
      <trkpt lat="59.344420041363" lon="17.891106709062">
        <ele>0</ele>
        <time>2013-08-29T20:20:23Z</time>
      </trkpt>
      <trkpt lat="59.344545350768" lon="17.891242160566">
        <ele>0</ele>
        <time>2013-08-29T20:20:25Z</time>
      </trkpt>
      <trkpt lat="59.34500367306" lon="17.891715905554">
        <ele>0</ele>
        <time>2013-08-29T20:20:32Z</time>
      </trkpt>
      <trkpt lat="59.345508095802" lon="17.892249832584">
        <ele>0</ele>
        <time>2013-08-29T20:20:40Z</time>
      </trkpt>
      <trkpt lat="59.345569870405" lon="17.892313115929">
        <ele>0</ele>
        <time>2013-08-29T20:20:41Z</time>
      </trkpt>
      <trkpt lat="59.345810179478" lon="17.892568177146">
        <ele>0</ele>
        <time>2013-08-29T20:20:45Z</time>
      </trkpt>
      <trkpt lat="59.345874301013" lon="17.892640010029">
        <ele>0</ele>
        <time>2013-08-29T20:20:46Z</time>
      </trkpt>
      <trkpt lat="59.345926436431" lon="17.892700611166">
        <ele>0</ele>
        <time>2013-08-29T20:20:47Z</time>
      </trkpt>
      <trkpt lat="59.345970860501" lon="17.892756686077">
        <ele>0</ele>
        <time>2013-08-29T20:20:48Z</time>
      </trkpt>
      <trkpt lat="59.346014614019" lon="17.892811587522">
        <ele>0</ele>
        <time>2013-08-29T20:20:49Z</time>
      </trkpt>
      <trkpt lat="59.346088458558" lon="17.892908901381">
        <ele>0</ele>
        <time>2013-08-29T20:20:51Z</time>
      </trkpt>
      <trkpt lat="59.346164901486" lon="17.892994899675">
        <ele>0</ele>
        <time>2013-08-29T20:20:53Z</time>
      </trkpt>
      <trkpt lat="59.346324911957" lon="17.89311937089">
        <ele>0</ele>
        <time>2013-08-29T20:20:57Z</time>
      </trkpt>
      <trkpt lat="59.346367324371" lon="17.893132949568">
        <ele>0</ele>
        <time>2013-08-29T20:20:58Z</time>
      </trkpt>
      <trkpt lat="59.346464805868" lon="17.893129177713">
        <ele>0</ele>
        <time>2013-08-29T20:21:00Z</time>
      </trkpt>
      <trkpt lat="59.346510906318" lon="17.893125322039">
        <ele>0</ele>
        <time>2013-08-29T20:21:01Z</time>
      </trkpt>
      <trkpt lat="59.346562287365" lon="17.893163627322">
        <ele>0</ele>
        <time>2013-08-29T20:21:02Z</time>
      </trkpt>
      <trkpt lat="59.346600927924" lon="17.89323168835">
        <ele>0</ele>
        <time>2013-08-29T20:21:03Z</time>
      </trkpt>
      <trkpt lat="59.346642585967" lon="17.893291618935">
        <ele>0</ele>
        <time>2013-08-29T20:21:04Z</time>
      </trkpt>
      <trkpt lat="59.346688267322" lon="17.893340736869">
        <ele>0</ele>
        <time>2013-08-29T20:21:05Z</time>
      </trkpt>
      <trkpt lat="59.34686194029" lon="17.893507704317">
        <ele>0</ele>
        <time>2013-08-29T20:21:09Z</time>
      </trkpt>
      <trkpt lat="59.346906951093" lon="17.893495802019">
        <ele>0</ele>
        <time>2013-08-29T20:21:10Z</time>
      </trkpt>
      <trkpt lat="59.346972162275" lon="17.893341994154">
        <ele>0</ele>
        <time>2013-08-29T20:21:12Z</time>
      </trkpt>
      <trkpt lat="59.347004684047" lon="17.893258594249">
        <ele>0</ele>
        <time>2013-08-29T20:21:13Z</time>
      </trkpt>
      <trkpt lat="59.347083473907" lon="17.893074863001">
        <ele>0</ele>
        <time>2013-08-29T20:21:15Z</time>
      </trkpt>
      <trkpt lat="59.347168969287" lon="17.892926503371">
        <ele>0</ele>
        <time>2013-08-29T20:21:17Z</time>
      </trkpt>
      <trkpt lat="59.34740676379" lon="17.89251335952">
        <ele>0</ele>
        <time>2013-08-29T20:21:22Z</time>
      </trkpt>
      <trkpt lat="59.347461581416" lon="17.892435324031">
        <ele>0</ele>
        <time>2013-08-29T20:21:23Z</time>
      </trkpt>
      <trkpt lat="59.347617568575" lon="17.892172383828">
        <ele>0</ele>
        <time>2013-08-29T20:21:26Z</time>
      </trkpt>
      <trkpt lat="59.347667021785" lon="17.892085966439">
        <ele>0</ele>
        <time>2013-08-29T20:21:27Z</time>
      </trkpt>
      <trkpt lat="59.347724605438" lon="17.892000722516">
        <ele>0</ele>
        <time>2013-08-29T20:21:28Z</time>
      </trkpt>
      <trkpt lat="59.347772969001" lon="17.891905085037">
        <ele>0</ele>
        <time>2013-08-29T20:21:29Z</time>
      </trkpt>
      <trkpt lat="59.347826780799" lon="17.891811375395">
        <ele>0</ele>
        <time>2013-08-29T20:21:30Z</time>
      </trkpt>
      <trkpt lat="59.347984528157" lon="17.891526474614">
        <ele>0</ele>
        <time>2013-08-29T20:21:33Z</time>
      </trkpt>
      <trkpt lat="59.348368000082" lon="17.890850893474">
        <ele>0</ele>
        <time>2013-08-29T20:21:40Z</time>
      </trkpt>
      <trkpt lat="59.348767397617" lon="17.890133235196">
        <ele>0</ele>
        <time>2013-08-29T20:21:47Z</time>
      </trkpt>
      <trkpt lat="59.348879547439" lon="17.88993424889">
        <ele>0</ele>
        <time>2013-08-29T20:21:49Z</time>
      </trkpt>
      <trkpt lat="59.349296127869" lon="17.889195468224">
        <ele>0</ele>
        <time>2013-08-29T20:21:56Z</time>
      </trkpt>
      <trkpt lat="59.349356309911" lon="17.88908432423">
        <ele>0</ele>
        <time>2013-08-29T20:21:57Z</time>
      </trkpt>
      <trkpt lat="59.349758808749" lon="17.888345962659">
        <ele>0</ele>
        <time>2013-08-29T20:22:04Z</time>
      </trkpt>
      <trkpt lat="59.350177484654" lon="17.887585472872">
        <ele>0</ele>
        <time>2013-08-29T20:22:11Z</time>
      </trkpt>
      <trkpt lat="59.35060110588" lon="17.886827330017">
        <ele>0</ele>
        <time>2013-08-29T20:22:18Z</time>
      </trkpt>
      <trkpt lat="59.350656007325" lon="17.886704032268">
        <ele>0</ele>
        <time>2013-08-29T20:22:19Z</time>
      </trkpt>
      <trkpt lat="59.350983655796" lon="17.886088214075">
        <ele>0</ele>
        <time>2013-08-29T20:22:25Z</time>
      </trkpt>
      <trkpt lat="59.351215834426" lon="17.885628969774">
        <ele>0</ele>
        <time>2013-08-29T20:22:30Z</time>
      </trkpt>
      <trkpt lat="59.351365870436" lon="17.885155811519">
        <ele>0</ele>
        <time>2013-08-29T20:22:35Z</time>
      </trkpt>
      <trkpt lat="59.351394787991" lon="17.884950790245">
        <ele>0</ele>
        <time>2013-08-29T20:22:37Z</time>
      </trkpt>
      <trkpt lat="59.351416580931" lon="17.884749121731">
        <ele>0</ele>
        <time>2013-08-29T20:22:39Z</time>
      </trkpt>
      <trkpt lat="59.351502663044" lon="17.88451954149">
        <ele>0</ele>
        <time>2013-08-29T20:22:42Z</time>
      </trkpt>
      <trkpt lat="59.351533424617" lon="17.884453995032">
        <ele>0</ele>
        <time>2013-08-29T20:22:43Z</time>
      </trkpt>
      <trkpt lat="59.351556726299" lon="17.884386436918">
        <ele>0</ele>
        <time>2013-08-29T20:22:44Z</time>
      </trkpt>
      <trkpt lat="59.351659823669" lon="17.884315609863">
        <ele>0</ele>
        <time>2013-08-29T20:22:46Z</time>
      </trkpt>
      <trkpt lat="59.351879597087" lon="17.88418175092">
        <ele>0</ele>
        <time>2013-08-29T20:22:50Z</time>
      </trkpt>
      <trkpt lat="59.351930307582" lon="17.884112851702">
        <ele>0</ele>
        <time>2013-08-29T20:22:51Z</time>
      </trkpt>
      <trkpt lat="59.352207580834" lon="17.883737845496">
        <ele>0</ele>
        <time>2013-08-29T20:22:56Z</time>
      </trkpt>
      <trkpt lat="59.352451075029" lon="17.883299304488">
        <ele>0</ele>
        <time>2013-08-29T20:23:01Z</time>
      </trkpt>
      <trkpt lat="59.352779142595" lon="17.88270569833">
        <ele>0</ele>
        <time>2013-08-29T20:23:07Z</time>
      </trkpt>
      <trkpt lat="59.353038897676" lon="17.882349886675">
        <ele>0</ele>
        <time>2013-08-29T20:23:11Z</time>
      </trkpt>
      <trkpt lat="59.353108802722" lon="17.882268917521">
        <ele>0</ele>
        <time>2013-08-29T20:23:12Z</time>
      </trkpt>
      <trkpt lat="59.353178121035" lon="17.882187026358">
        <ele>0</ele>
        <time>2013-08-29T20:23:13Z</time>
      </trkpt>
      <trkpt lat="59.353243667493" lon="17.882082587884">
        <ele>0</ele>
        <time>2013-08-29T20:23:14Z</time>
      </trkpt>
      <trkpt lat="59.353300580594" lon="17.881980161066">
        <ele>0</ele>
        <time>2013-08-29T20:23:15Z</time>
      </trkpt>
      <trkpt lat="59.353432008786" lon="17.881762650761">
        <ele>0</ele>
        <time>2013-08-29T20:23:17Z</time>
      </trkpt>
      <trkpt lat="59.353717412481" lon="17.881139288858">
        <ele>0</ele>
        <time>2013-08-29T20:23:22Z</time>
      </trkpt>
      <trkpt lat="59.35399577538" lon="17.880521459009">
        <ele>0</ele>
        <time>2013-08-29T20:23:27Z</time>
      </trkpt>
      <trkpt lat="59.35442576685" lon="17.879757532643">
        <ele>0</ele>
        <time>2013-08-29T20:23:34Z</time>
      </trkpt>
      <trkpt lat="59.354498018828" lon="17.879678407507">
        <ele>0</ele>
        <time>2013-08-29T20:23:35Z</time>
      </trkpt>
      <trkpt lat="59.354765569076" lon="17.879348412104">
        <ele>0</ele>
        <time>2013-08-29T20:23:39Z</time>
      </trkpt>
      <trkpt lat="59.35482474529" lon="17.879237687205">
        <ele>0</ele>
        <time>2013-08-29T20:23:40Z</time>
      </trkpt>
      <trkpt lat="59.354964052468" lon="17.878904087585">
        <ele>0</ele>
        <time>2013-08-29T20:23:43Z</time>
      </trkpt>
      <trkpt lat="59.355037813188" lon="17.878666376901">
        <ele>0</ele>
        <time>2013-08-29T20:23:45Z</time>
      </trkpt>
      <trkpt lat="59.355124398215" lon="17.878458170505">
        <ele>0</ele>
        <time>2013-08-29T20:23:47Z</time>
      </trkpt>
      <trkpt lat="59.355262448108" lon="17.87826161495">
        <ele>0</ele>
        <time>2013-08-29T20:23:50Z</time>
      </trkpt>
      <trkpt lat="59.355291533301" lon="17.878224818409">
        <ele>0</ele>
        <time>2013-08-29T20:23:51Z</time>
      </trkpt>
      <trkpt lat="59.355333610439" lon="17.878173353543">
        <ele>0</ele>
        <time>2013-08-29T20:23:53Z</time>
      </trkpt>
      <trkpt lat="59.355350709515" lon="17.8781400774">
        <ele>0</ele>
        <time>2013-08-29T20:23:54Z</time>
      </trkpt>
      <trkpt lat="59.355376944862" lon="17.878100933927">
        <ele>0</ele>
        <time>2013-08-29T20:23:55Z</time>
      </trkpt>
      <trkpt lat="59.355403683123" lon="17.878064137386">
        <ele>0</ele>
        <time>2013-08-29T20:23:56Z</time>
      </trkpt>
      <trkpt lat="59.355470822142" lon="17.877994148521">
        <ele>0</ele>
        <time>2013-08-29T20:23:58Z</time>
      </trkpt>
      <trkpt lat="59.355624797645" lon="17.877747469204">
        <ele>0</ele>
        <time>2013-08-29T20:24:02Z</time>
      </trkpt>
      <trkpt lat="59.355747341023" lon="17.877525432673">
        <ele>0</ele>
        <time>2013-08-29T20:24:05Z</time>
      </trkpt>
      <trkpt lat="59.35578531103" lon="17.877450917582">
        <ele>0</ele>
        <time>2013-08-29T20:24:06Z</time>
      </trkpt>
      <trkpt lat="59.35591942143" lon="17.877215218554">
        <ele>0</ele>
        <time>2013-08-29T20:24:09Z</time>
      </trkpt>
      <trkpt lat="59.35606275192" lon="17.876973400739">
        <ele>0</ele>
        <time>2013-08-29T20:24:12Z</time>
      </trkpt>
      <trkpt lat="59.356203819297" lon="17.876716327866">
        <ele>0</ele>
        <time>2013-08-29T20:24:15Z</time>
      </trkpt>
      <trkpt lat="59.356306162296" lon="17.876524466175">
        <ele>0</ele>
        <time>2013-08-29T20:24:17Z</time>
      </trkpt>
      <trkpt lat="59.356620902641" lon="17.875980480865">
        <ele>0</ele>
        <time>2013-08-29T20:24:23Z</time>
      </trkpt>
      <trkpt lat="59.356673876249" lon="17.875895823675">
        <ele>0</ele>
        <time>2013-08-29T20:24:24Z</time>
      </trkpt>
      <trkpt lat="59.356725927848" lon="17.875805047698">
        <ele>0</ele>
        <time>2013-08-29T20:24:25Z</time>
      </trkpt>
      <trkpt lat="59.356779320551" lon="17.875705303088">
        <ele>0</ele>
        <time>2013-08-29T20:24:26Z</time>
      </trkpt>
      <trkpt lat="59.356832126521" lon="17.875608408324">
        <ele>0</ele>
        <time>2013-08-29T20:24:27Z</time>
      </trkpt>
      <trkpt lat="59.357049553007" lon="17.875204065468">
        <ele>0</ele>
        <time>2013-08-29T20:24:31Z</time>
      </trkpt>
      <trkpt lat="59.357154242938" lon="17.874970713372">
        <ele>0</ele>
        <time>2013-08-29T20:24:33Z</time>
      </trkpt>
      <trkpt lat="59.357289191528" lon="17.874574500959">
        <ele>0</ele>
        <time>2013-08-29T20:24:36Z</time>
      </trkpt>
      <trkpt lat="59.357395390201" lon="17.874335197714">
        <ele>0</ele>
        <time>2013-08-29T20:24:38Z</time>
      </trkpt>
      <trkpt lat="59.357518185036" lon="17.874107126215">
        <ele>0</ele>
        <time>2013-08-29T20:24:40Z</time>
      </trkpt>
      <trkpt lat="59.357948847058" lon="17.873337583976">
        <ele>0</ele>
        <time>2013-08-29T20:24:47Z</time>
      </trkpt>
      <trkpt lat="59.358013974421" lon="17.873230128018">
        <ele>0</ele>
        <time>2013-08-29T20:24:48Z</time>
      </trkpt>
      <trkpt lat="59.358366014221" lon="17.8726164053">
        <ele>0</ele>
        <time>2013-08-29T20:24:54Z</time>
      </trkpt>
      <trkpt lat="59.358436757457" lon="17.872212481539">
        <ele>0</ele>
        <time>2013-08-29T20:24:57Z</time>
      </trkpt>
      <trkpt lat="59.358509679987" lon="17.871962533281">
        <ele>0</ele>
        <time>2013-08-29T20:24:59Z</time>
      </trkpt>
      <trkpt lat="59.358614956651" lon="17.871792045435">
        <ele>0</ele>
        <time>2013-08-29T20:25:01Z</time>
      </trkpt>
      <trkpt lat="59.358757448951" lon="17.871568081067">
        <ele>0</ele>
        <time>2013-08-29T20:25:04Z</time>
      </trkpt>
      <trkpt lat="59.358872197162" lon="17.871446124422">
        <ele>0</ele>
        <time>2013-08-29T20:25:06Z</time>
      </trkpt>
      <trkpt lat="59.358938833267" lon="17.871414524659">
        <ele>0</ele>
        <time>2013-08-29T20:25:07Z</time>
      </trkpt>
      <trkpt lat="59.359053916754" lon="17.871280246621">
        <ele>0</ele>
        <time>2013-08-29T20:25:09Z</time>
      </trkpt>
      <trkpt lat="59.359327334332" lon="17.870834078084">
        <ele>0</ele>
        <time>2013-08-29T20:25:14Z</time>
      </trkpt>
      <trkpt lat="59.35939036622" lon="17.870732908551">
        <ele>0</ele>
        <time>2013-08-29T20:25:15Z</time>
      </trkpt>
      <trkpt lat="59.359453565746" lon="17.870616903055">
        <ele>0</ele>
        <time>2013-08-29T20:25:16Z</time>
      </trkpt>
      <trkpt lat="59.359510311209" lon="17.870519086282">
        <ele>0</ele>
        <time>2013-08-29T20:25:17Z</time>
      </trkpt>
      <trkpt lat="59.359575019477" lon="17.870410708315">
        <ele>0</ele>
        <time>2013-08-29T20:25:18Z</time>
      </trkpt>
      <trkpt lat="59.35963427951" lon="17.870304928737">
        <ele>0</ele>
        <time>2013-08-29T20:25:19Z</time>
      </trkpt>
      <trkpt lat="59.360058487469" lon="17.869560699836">
        <ele>0</ele>
        <time>2013-08-29T20:25:26Z</time>
      </trkpt>
      <trkpt lat="59.360473642976" lon="17.868817476763">
        <ele>0</ele>
        <time>2013-08-29T20:25:33Z</time>
      </trkpt>
      <trkpt lat="59.360529298792" lon="17.868713625022">
        <ele>0</ele>
        <time>2013-08-29T20:25:34Z</time>
      </trkpt>
      <trkpt lat="59.360586966264" lon="17.868610276195">
        <ele>0</ele>
        <time>2013-08-29T20:25:35Z</time>
      </trkpt>
      <trkpt lat="59.360640694243" lon="17.868503574608">
        <ele>0</ele>
        <time>2013-08-29T20:25:36Z</time>
      </trkpt>
      <trkpt lat="59.360695008955" lon="17.868410535518">
        <ele>0</ele>
        <time>2013-08-29T20:25:37Z</time>
      </trkpt>
      <trkpt lat="59.360856276711" lon="17.868103087426">
        <ele>0</ele>
        <time>2013-08-29T20:25:40Z</time>
      </trkpt>
      <trkpt lat="59.3612444425" lon="17.867364390579">
        <ele>0</ele>
        <time>2013-08-29T20:25:47Z</time>
      </trkpt>
      <trkpt lat="59.361307642026" lon="17.867270261842">
        <ele>0</ele>
        <time>2013-08-29T20:25:48Z</time>
      </trkpt>
      <trkpt lat="59.361653646858" lon="17.866601889136">
        <ele>0</ele>
        <time>2013-08-29T20:25:54Z</time>
      </trkpt>
      <trkpt lat="59.361696394548" lon="17.866446404891">
        <ele>0</ele>
        <time>2013-08-29T20:25:55Z</time>
      </trkpt>
      <trkpt lat="59.361779794453" lon="17.866159743911">
        <ele>0</ele>
        <time>2013-08-29T20:25:57Z</time>
      </trkpt>
      <trkpt lat="59.362050697461" lon="17.865514169973">
        <ele>0</ele>
        <time>2013-08-29T20:26:02Z</time>
      </trkpt>
      <trkpt lat="59.362464428045" lon="17.864620491795">
        <ele>0</ele>
        <time>2013-08-29T20:26:09Z</time>
      </trkpt>
      <trkpt lat="59.362533075806" lon="17.864479675875">
        <ele>0</ele>
        <time>2013-08-29T20:26:10Z</time>
      </trkpt>
      <trkpt lat="59.362731140103" lon="17.864068878956">
        <ele>0</ele>
        <time>2013-08-29T20:26:13Z</time>
      </trkpt>
      <trkpt lat="59.362794591086" lon="17.863930745244">
        <ele>0</ele>
        <time>2013-08-29T20:26:14Z</time>
      </trkpt>
      <trkpt lat="59.362856952422" lon="17.86378691184">
        <ele>0</ele>
        <time>2013-08-29T20:26:15Z</time>
      </trkpt>
      <trkpt lat="59.362920654862" lon="17.86365447782">
        <ele>0</ele>
        <time>2013-08-29T20:26:16Z</time>
      </trkpt>
      <trkpt lat="59.362985195492" lon="17.863521624705">
        <ele>0</ele>
        <time>2013-08-29T20:26:17Z</time>
      </trkpt>
      <trkpt lat="59.363393226384" lon="17.862777647261">
        <ele>0</ele>
        <time>2013-08-29T20:26:23Z</time>
      </trkpt>
      <trkpt lat="59.363463550525" lon="17.862662396136">
        <ele>0</ele>
        <time>2013-08-29T20:26:24Z</time>
      </trkpt>
      <trkpt lat="59.363537478883" lon="17.862538595473">
        <ele>0</ele>
        <time>2013-08-29T20:26:25Z</time>
      </trkpt>
      <trkpt lat="59.363610149956" lon="17.862417225561">
        <ele>0</ele>
        <time>2013-08-29T20:26:26Z</time>
      </trkpt>
      <trkpt lat="59.363683994495" lon="17.862302309712">
        <ele>0</ele>
        <time>2013-08-29T20:26:27Z</time>
      </trkpt>
      <trkpt lat="59.363821709112" lon="17.862094103316">
        <ele>0</ele>
        <time>2013-08-29T20:26:29Z</time>
      </trkpt>
      <trkpt lat="59.36428623401" lon="17.861441907677">
        <ele>0</ele>
        <time>2013-08-29T20:26:36Z</time>
      </trkpt>
      <trkpt lat="59.364784035051" lon="17.86085743779">
        <ele>0</ele>
        <time>2013-08-29T20:26:43Z</time>
      </trkpt>
      <trkpt lat="59.364921162935" lon="17.860701282993">
        <ele>0</ele>
        <time>2013-08-29T20:26:45Z</time>
      </trkpt>
      <trkpt lat="59.365372109155" lon="17.860179174442">
        <ele>0</ele>
        <time>2013-08-29T20:26:52Z</time>
      </trkpt>
      <trkpt lat="59.365423993116" lon="17.860098624383">
        <ele>0</ele>
        <time>2013-08-29T20:26:53Z</time>
      </trkpt>
      <trkpt lat="59.365625493992" lon="17.859656562977">
        <ele>0</ele>
        <time>2013-08-29T20:26:58Z</time>
      </trkpt>
      <trkpt lat="59.36570193692" lon="17.859514908867">
        <ele>0</ele>
        <time>2013-08-29T20:27:00Z</time>
      </trkpt>
      <trkpt lat="59.365732027941" lon="17.859453637178">
        <ele>0</ele>
        <time>2013-08-29T20:27:01Z</time>
      </trkpt>
      <trkpt lat="59.365754575252" lon="17.859405608891">
        <ele>0</ele>
        <time>2013-08-29T20:27:02Z</time>
      </trkpt>
      <trkpt lat="59.365781062056" lon="17.859354060206">
        <ele>0</ele>
        <time>2013-08-29T20:27:03Z</time>
      </trkpt>
      <trkpt lat="59.365811907448" lon="17.859309636136">
        <ele>0</ele>
        <time>2013-08-29T20:27:04Z</time>
      </trkpt>
      <trkpt lat="59.365884578521" lon="17.859215842675">
        <ele>0</ele>
        <time>2013-08-29T20:27:06Z</time>
      </trkpt>
      <trkpt lat="59.366099406618" lon="17.8589622902">
        <ele>0</ele>
        <time>2013-08-29T20:27:12Z</time>
      </trkpt>
      <trkpt lat="59.366138550091" lon="17.858925074564">
        <ele>0</ele>
        <time>2013-08-29T20:27:13Z</time>
      </trkpt>
      <trkpt lat="59.366254723225" lon="17.858835052958">
        <ele>0</ele>
        <time>2013-08-29T20:27:16Z</time>
      </trkpt>
      <trkpt lat="59.366328400126" lon="17.858922308537">
        <ele>0</ele>
        <time>2013-08-29T20:27:19Z</time>
      </trkpt>
      <trkpt lat="59.366383720666" lon="17.859005205528">
        <ele>0</ele>
        <time>2013-08-29T20:27:22Z</time>
      </trkpt>
      <trkpt lat="59.36641104566" lon="17.859043762268">
        <ele>0</ele>
        <time>2013-08-29T20:27:23Z</time>
      </trkpt>
      <trkpt lat="59.366440885224" lon="17.859086593777">
        <ele>0</ele>
        <time>2013-08-29T20:27:24Z</time>
      </trkpt>
      <trkpt lat="59.366470892426" lon="17.859128000363">
        <ele>0</ele>
        <time>2013-08-29T20:27:25Z</time>
      </trkpt>
      <trkpt lat="59.366499558524" lon="17.859161611782">
        <ele>0</ele>
        <time>2013-08-29T20:27:26Z</time>
      </trkpt>
      <trkpt lat="59.366600644238" lon="17.859294800173">
        <ele>0</ele>
        <time>2013-08-29T20:27:29Z</time>
      </trkpt>
      <trkpt lat="59.366713883707" lon="17.859490685176">
        <ele>0</ele>
        <time>2013-08-29T20:27:33Z</time>
      </trkpt>
      <trkpt lat="59.366721343598" lon="17.85954147949">
        <ele>0</ele>
        <time>2013-08-29T20:27:34Z</time>
      </trkpt>
      <trkpt lat="59.366720756865" lon="17.859821770226">
        <ele>0</ele>
        <time>2013-08-29T20:27:39Z</time>
      </trkpt>
      <trkpt lat="59.36670022121" lon="17.860220161933">
        <ele>0</ele>
        <time>2013-08-29T20:27:43Z</time>
      </trkpt>
      <trkpt lat="59.366729390222" lon="17.860649315213">
        <ele>0</ele>
        <time>2013-08-29T20:27:47Z</time>
      </trkpt>
      <trkpt lat="59.366759145967" lon="17.86074931128">
        <ele>0</ele>
        <time>2013-08-29T20:27:48Z</time>
      </trkpt>
      <trkpt lat="59.366805665512" lon="17.860820976525">
        <ele>0</ele>
        <time>2013-08-29T20:27:49Z</time>
      </trkpt>
      <trkpt lat="59.366866266649" lon="17.86086330512">
        <ele>0</ele>
        <time>2013-08-29T20:27:50Z</time>
      </trkpt>
      <trkpt lat="59.366930304365" lon="17.86090270005">
        <ele>0</ele>
        <time>2013-08-29T20:27:51Z</time>
      </trkpt>
      <trkpt lat="59.367055110856" lon="17.860976796046">
        <ele>0</ele>
        <time>2013-08-29T20:27:53Z</time>
      </trkpt>
      <trkpt lat="59.367169859067" lon="17.86108710185">
        <ele>0</ele>
        <time>2013-08-29T20:27:55Z</time>
      </trkpt>
      <trkpt lat="59.367311680815" lon="17.861272677116">
        <ele>0</ele>
        <time>2013-08-29T20:27:58Z</time>
      </trkpt>
      <trkpt lat="59.367409497588" lon="17.861377367047">
        <ele>0</ele>
        <time>2013-08-29T20:28:00Z</time>
      </trkpt>
      <trkpt lat="59.367460878635" lon="17.861418438357">
        <ele>0</ele>
        <time>2013-08-29T20:28:01Z</time>
      </trkpt>
      <trkpt lat="59.367514187519" lon="17.861451379224">
        <ele>0</ele>
        <time>2013-08-29T20:28:02Z</time>
      </trkpt>
      <trkpt lat="59.367573950466" lon="17.861476105829">
        <ele>0</ele>
        <time>2013-08-29T20:28:03Z</time>
      </trkpt>
      <trkpt lat="59.367633545775" lon="17.861494629828">
        <ele>0</ele>
        <time>2013-08-29T20:28:04Z</time>
      </trkpt>
      <trkpt lat="59.367694146912" lon="17.861520026985">
        <ele>0</ele>
        <time>2013-08-29T20:28:05Z</time>
      </trkpt>
      <trkpt lat="59.367995392398" lon="17.861625806563">
        <ele>0</ele>
        <time>2013-08-29T20:28:10Z</time>
      </trkpt>
      <trkpt lat="59.368114583016" lon="17.86165790924">
        <ele>0</ele>
        <time>2013-08-29T20:28:12Z</time>
      </trkpt>
      <trkpt lat="59.368291441106" lon="17.861691017745">
        <ele>0</ele>
        <time>2013-08-29T20:28:15Z</time>
      </trkpt>
      <trkpt lat="59.368467796282" lon="17.861720857309">
        <ele>0</ele>
        <time>2013-08-29T20:28:18Z</time>
      </trkpt>
      <trkpt lat="59.368573156765" lon="17.861734938901">
        <ele>0</ele>
        <time>2013-08-29T20:28:20Z</time>
      </trkpt>
      <trkpt lat="59.368848334542" lon="17.861773747098">
        <ele>0</ele>
        <time>2013-08-29T20:28:25Z</time>
      </trkpt>
      <trkpt lat="59.368909187136" lon="17.861771651623">
        <ele>0</ele>
        <time>2013-08-29T20:28:26Z</time>
      </trkpt>
      <trkpt lat="59.369345213574" lon="17.861678361076">
        <ele>0</ele>
        <time>2013-08-29T20:28:33Z</time>
      </trkpt>
      <trkpt lat="59.36941176586" lon="17.861654891756">
        <ele>0</ele>
        <time>2013-08-29T20:28:34Z</time>
      </trkpt>
      <trkpt lat="59.369480748897" lon="17.861634523739">
        <ele>0</ele>
        <time>2013-08-29T20:28:35Z</time>
      </trkpt>
      <trkpt lat="59.36954922902" lon="17.8616193525">
        <ele>0</ele>
        <time>2013-08-29T20:28:36Z</time>
      </trkpt>
      <trkpt lat="59.369618631152" lon="17.861618346672">
        <ele>0</ele>
        <time>2013-08-29T20:28:37Z</time>
      </trkpt>
      <trkpt lat="59.369684848162" lon="17.861637373585">
        <ele>0</ele>
        <time>2013-08-29T20:28:38Z</time>
      </trkpt>
      <trkpt lat="59.369750562258" lon="17.861668386615">
        <ele>0</ele>
        <time>2013-08-29T20:28:39Z</time>
      </trkpt>
      <trkpt lat="59.370279711605" lon="17.861917329045">
        <ele>0</ele>
        <time>2013-08-29T20:28:47Z</time>
      </trkpt>
      <trkpt lat="59.370411223616" lon="17.861987234091">
        <ele>0</ele>
        <time>2013-08-29T20:28:49Z</time>
      </trkpt>
      <trkpt lat="59.370669134679" lon="17.862112962591">
        <ele>0</ele>
        <time>2013-08-29T20:28:53Z</time>
      </trkpt>
      <trkpt lat="59.371103820013" lon="17.862330556715">
        <ele>0</ele>
        <time>2013-08-29T20:29:00Z</time>
      </trkpt>
      <trkpt lat="59.371163499141" lon="17.862350337999">
        <ele>0</ele>
        <time>2013-08-29T20:29:01Z</time>
      </trkpt>
      <trkpt lat="59.371276151877" lon="17.862396103173">
        <ele>0</ele>
        <time>2013-08-29T20:29:03Z</time>
      </trkpt>
      <trkpt lat="59.371332394426" lon="17.862410100946">
        <ele>0</ele>
        <time>2013-08-29T20:29:04Z</time>
      </trkpt>
      <trkpt lat="59.371388385518" lon="17.86242652947">
        <ele>0</ele>
        <time>2013-08-29T20:29:05Z</time>
      </trkpt>
      <trkpt lat="59.371442113497" lon="17.862443880003">
        <ele>0</ele>
        <time>2013-08-29T20:29:06Z</time>
      </trkpt>
      <trkpt lat="59.371492321078" lon="17.862459637975">
        <ele>0</ele>
        <time>2013-08-29T20:29:07Z</time>
      </trkpt>
      <trkpt lat="59.371535655501" lon="17.86246424802">
        <ele>0</ele>
        <time>2013-08-29T20:29:08Z</time>
      </trkpt>
      <trkpt lat="59.371815275685" lon="17.862547899382">
        <ele>0</ele>
        <time>2013-08-29T20:29:23Z</time>
      </trkpt>
      <trkpt lat="59.37184419324" lon="17.862568937951">
        <ele>0</ele>
        <time>2013-08-29T20:29:24Z</time>
      </trkpt>
      <trkpt lat="59.371874703356" lon="17.862708748043">
        <ele>0</ele>
        <time>2013-08-29T20:29:26Z</time>
      </trkpt>
      <trkpt lat="59.371853748606" lon="17.862892646929">
        <ele>0</ele>
        <time>2013-08-29T20:29:28Z</time>
      </trkpt>
      <trkpt lat="59.371849557656" lon="17.862993732643">
        <ele>0</ele>
        <time>2013-08-29T20:29:29Z</time>
      </trkpt>
      <trkpt lat="59.371867830198" lon="17.863095321271">
        <ele>0</ele>
        <time>2013-08-29T20:29:30Z</time>
      </trkpt>
      <trkpt lat="59.371959528184" lon="17.863225156902">
        <ele>0</ele>
        <time>2013-08-29T20:29:32Z</time>
      </trkpt>
      <trkpt lat="59.372071175092" lon="17.863271592628">
        <ele>0</ele>
        <time>2013-08-29T20:29:34Z</time>
      </trkpt>
      <trkpt lat="59.372227497527" lon="17.863339569837">
        <ele>0</ele>
        <time>2013-08-29T20:29:37Z</time>
      </trkpt>
      <trkpt lat="59.372380802478" lon="17.863397404947">
        <ele>0</ele>
        <time>2013-08-29T20:29:40Z</time>
      </trkpt>
      <trkpt lat="59.372429752774" lon="17.863402266449">
        <ele>0</ele>
        <time>2013-08-29T20:29:41Z</time>
      </trkpt>
      <trkpt lat="59.372533017782" lon="17.863409223426">
        <ele>0</ele>
        <time>2013-08-29T20:29:43Z</time>
      </trkpt>
      <trkpt lat="59.372587500132" lon="17.863405367752">
        <ele>0</ele>
        <time>2013-08-29T20:29:44Z</time>
      </trkpt>
      <trkpt lat="59.372643658862" lon="17.863402937001">
        <ele>0</ele>
        <time>2013-08-29T20:29:45Z</time>
      </trkpt>
      <trkpt lat="59.372697722117" lon="17.863414671661">
        <ele>0</ele>
        <time>2013-08-29T20:29:46Z</time>
      </trkpt>
      <trkpt lat="59.372747510603" lon="17.863439565904">
        <ele>0</ele>
        <time>2013-08-29T20:29:47Z</time>
      </trkpt>
      <trkpt lat="59.37283744839" lon="17.863530677157">
        <ele>0</ele>
        <time>2013-08-29T20:29:49Z</time>
      </trkpt>
      <trkpt lat="59.372880950451" lon="17.863571413191">
        <ele>0</ele>
        <time>2013-08-29T20:29:50Z</time>
      </trkpt>
      <trkpt lat="59.372924703969" lon="17.863608293551">
        <ele>0</ele>
        <time>2013-08-29T20:29:51Z</time>
      </trkpt>
      <trkpt lat="59.372968960401" lon="17.863648275214">
        <ele>0</ele>
        <time>2013-08-29T20:29:52Z</time>
      </trkpt>
      <trkpt lat="59.37301598286" lon="17.863692783103">
        <ele>0</ele>
        <time>2013-08-29T20:29:53Z</time>
      </trkpt>
      <trkpt lat="59.373105417733" lon="17.863791354247">
        <ele>0</ele>
        <time>2013-08-29T20:29:55Z</time>
      </trkpt>
      <trkpt lat="59.373149757984" lon="17.863834353394">
        <ele>0</ele>
        <time>2013-08-29T20:29:56Z</time>
      </trkpt>
      <trkpt lat="59.373199797927" lon="17.863888500468">
        <ele>0</ele>
        <time>2013-08-29T20:29:57Z</time>
      </trkpt>
      <trkpt lat="59.373248580585" lon="17.863942060809">
        <ele>0</ele>
        <time>2013-08-29T20:29:58Z</time>
      </trkpt>
      <trkpt lat="59.373298704347" lon="17.863997046073">
        <ele>0</ele>
        <time>2013-08-29T20:29:59Z</time>
      </trkpt>
      <trkpt lat="59.373417392051" lon="17.864096371588">
        <ele>0</ele>
        <time>2013-08-29T20:30:01Z</time>
      </trkpt>
      <trkpt lat="59.373877558361" lon="17.864447740836">
        <ele>0</ele>
        <time>2013-08-29T20:30:08Z</time>
      </trkpt>
      <trkpt lat="59.374012423132" lon="17.86455553207">
        <ele>0</ele>
        <time>2013-08-29T20:30:10Z</time>
      </trkpt>
      <trkpt lat="59.374079729789" lon="17.864609092411">
        <ele>0</ele>
        <time>2013-08-29T20:30:11Z</time>
      </trkpt>
      <trkpt lat="59.374149886292" lon="17.864665083503">
        <ele>0</ele>
        <time>2013-08-29T20:30:12Z</time>
      </trkpt>
      <trkpt lat="59.374215684207" lon="17.864722164242">
        <ele>0</ele>
        <time>2013-08-29T20:30:13Z</time>
      </trkpt>
      <trkpt lat="59.374281398303" lon="17.864784106483">
        <ele>0</ele>
        <time>2013-08-29T20:30:14Z</time>
      </trkpt>
      <trkpt lat="59.374344597829" lon="17.864861387601">
        <ele>0</ele>
        <time>2013-08-29T20:30:15Z</time>
      </trkpt>
      <trkpt lat="59.374405618061" lon="17.86494612861">
        <ele>0</ele>
        <time>2013-08-29T20:30:16Z</time>
      </trkpt>
      <trkpt lat="59.37459010368" lon="17.865220384378">
        <ele>0</ele>
        <time>2013-08-29T20:30:19Z</time>
      </trkpt>
      <trkpt lat="59.374654141396" lon="17.865303281369">
        <ele>0</ele>
        <time>2013-08-29T20:30:20Z</time>
      </trkpt>
      <trkpt lat="59.374716251275" lon="17.86537528189">
        <ele>0</ele>
        <time>2013-08-29T20:30:21Z</time>
      </trkpt>
      <trkpt lat="59.374780791905" lon="17.865440241615">
        <ele>0</ele>
        <time>2013-08-29T20:30:22Z</time>
      </trkpt>
      <trkpt lat="59.374848685295" lon="17.865481564382">
        <ele>0</ele>
        <time>2013-08-29T20:30:23Z</time>
      </trkpt>
      <trkpt lat="59.374920434359" lon="17.86549011392">
        <ele>0</ele>
        <time>2013-08-29T20:30:24Z</time>
      </trkpt>
      <trkpt lat="59.375200306" lon="17.865555157464">
        <ele>0</ele>
        <time>2013-08-29T20:30:28Z</time>
      </trkpt>
      <trkpt lat="59.375253866341" lon="17.865630510745">
        <ele>0</ele>
        <time>2013-08-29T20:30:29Z</time>
      </trkpt>
      <trkpt lat="59.375358304815" lon="17.865771410484">
        <ele>0</ele>
        <time>2013-08-29T20:30:31Z</time>
      </trkpt>
      <trkpt lat="59.375460396357" lon="17.865886829247">
        <ele>0</ele>
        <time>2013-08-29T20:30:33Z</time>
      </trkpt>
      <trkpt lat="59.375510855395" lon="17.865945418728">
        <ele>0</ele>
        <time>2013-08-29T20:30:34Z</time>
      </trkpt>
      <trkpt lat="59.375560560062" lon="17.866004008209">
        <ele>0</ele>
        <time>2013-08-29T20:30:35Z</time>
      </trkpt>
      <trkpt lat="59.375609426539" lon="17.866056981817">
        <ele>0</ele>
        <time>2013-08-29T20:30:36Z</time>
      </trkpt>
      <trkpt lat="59.375658879749" lon="17.866105680656">
        <ele>0</ele>
        <time>2013-08-29T20:30:37Z</time>
      </trkpt>
      <trkpt lat="59.375705483113" lon="17.866155217685">
        <ele>0</ele>
        <time>2013-08-29T20:30:38Z</time>
      </trkpt>
      <trkpt lat="59.375752002658" lon="17.866200815221">
        <ele>0</ele>
        <time>2013-08-29T20:30:39Z</time>
      </trkpt>
      <trkpt lat="59.375803551343" lon="17.866234091364">
        <ele>0</ele>
        <time>2013-08-29T20:30:40Z</time>
      </trkpt>
      <trkpt lat="59.375863146652" lon="17.866252531544">
        <ele>0</ele>
        <time>2013-08-29T20:30:41Z</time>
      </trkpt>
      <trkpt lat="59.375927184368" lon="17.866266948412">
        <ele>0</ele>
        <time>2013-08-29T20:30:42Z</time>
      </trkpt>
      <trkpt lat="59.37599491012" lon="17.866279018348">
        <ele>0</ele>
        <time>2013-08-29T20:30:43Z</time>
      </trkpt>
      <trkpt lat="59.376297161434" lon="17.86637859532">
        <ele>0</ele>
        <time>2013-08-29T20:30:47Z</time>
      </trkpt>
      <trkpt lat="59.376379387873" lon="17.86640709378">
        <ele>0</ele>
        <time>2013-08-29T20:30:48Z</time>
      </trkpt>
      <trkpt lat="59.376465050891" lon="17.866436681887">
        <ele>0</ele>
        <time>2013-08-29T20:30:49Z</time>
      </trkpt>
      <trkpt lat="59.376552725565" lon="17.866463336329">
        <ele>0</ele>
        <time>2013-08-29T20:30:50Z</time>
      </trkpt>
      <trkpt lat="59.376635706375" lon="17.866495355187">
        <ele>0</ele>
        <time>2013-08-29T20:30:51Z</time>
      </trkpt>
      <trkpt lat="59.376719273918" lon="17.866526871131">
        <ele>0</ele>
        <time>2013-08-29T20:30:52Z</time>
      </trkpt>
      <trkpt lat="59.376800578348" lon="17.86655545341">
        <ele>0</ele>
        <time>2013-08-29T20:30:53Z</time>
      </trkpt>
      <trkpt lat="59.37688003876" lon="17.866576659617">
        <ele>0</ele>
        <time>2013-08-29T20:30:54Z</time>
      </trkpt>
      <trkpt lat="59.377262421038" lon="17.866663496101">
        <ele>0</ele>
        <time>2013-08-29T20:30:59Z</time>
      </trkpt>
      <trkpt lat="59.377548327647" lon="17.866729126378">
        <ele>0</ele>
        <time>2013-08-29T20:31:03Z</time>
      </trkpt>
      <trkpt lat="59.377692580146" lon="17.866751170775">
        <ele>0</ele>
        <time>2013-08-29T20:31:05Z</time>
      </trkpt>
      <trkpt lat="59.377885447665" lon="17.866800959261">
        <ele>0</ele>
        <time>2013-08-29T20:31:08Z</time>
      </trkpt>
      <trkpt lat="59.378004554464" lon="17.866835660327">
        <ele>0</ele>
        <time>2013-08-29T20:31:10Z</time>
      </trkpt>
      <trkpt lat="59.378065155601" lon="17.86686390733">
        <ele>0</ele>
        <time>2013-08-29T20:31:11Z</time>
      </trkpt>
      <trkpt lat="59.378200523286" lon="17.866932135996">
        <ele>0</ele>
        <time>2013-08-29T20:31:13Z</time>
      </trkpt>
      <trkpt lat="59.378273278178" lon="17.866943954475">
        <ele>0</ele>
        <time>2013-08-29T20:31:14Z</time>
      </trkpt>
      <trkpt lat="59.378491459035" lon="17.86684462896">
        <ele>0</ele>
        <time>2013-08-29T20:31:17Z</time>
      </trkpt>
      <trkpt lat="59.378715423403" lon="17.866831385558">
        <ele>0</ele>
        <time>2013-08-29T20:31:20Z</time>
      </trkpt>
      <trkpt lat="59.37878943558" lon="17.866847311168">
        <ele>0</ele>
        <time>2013-08-29T20:31:21Z</time>
      </trkpt>
      <trkpt lat="59.379310622122" lon="17.866951162909">
        <ele>0</ele>
        <time>2013-08-29T20:31:28Z</time>
      </trkpt>
      <trkpt lat="59.379730974407" lon="17.867024588353">
        <ele>0</ele>
        <time>2013-08-29T20:31:34Z</time>
      </trkpt>
      <trkpt lat="59.379941276278" lon="17.867039424316">
        <ele>0</ele>
        <time>2013-08-29T20:31:37Z</time>
      </trkpt>
      <trkpt lat="59.380075470497" lon="17.867055685202">
        <ele>0</ele>
        <time>2013-08-29T20:31:39Z</time>
      </trkpt>
      <trkpt lat="59.380425331003" lon="17.867108155896">
        <ele>0</ele>
        <time>2013-08-29T20:31:44Z</time>
      </trkpt>
      <trkpt lat="59.380711069974" lon="17.867170852508">
        <ele>0</ele>
        <time>2013-08-29T20:31:48Z</time>
      </trkpt>
      <trkpt lat="59.380857166491" lon="17.86718074315">
        <ele>0</ele>
        <time>2013-08-29T20:31:50Z</time>
      </trkpt>
      <trkpt lat="59.381335772981" lon="17.867233968215">
        <ele>0</ele>
        <time>2013-08-29T20:31:57Z</time>
      </trkpt>
      <trkpt lat="59.381767692288" lon="17.867317116663">
        <ele>0</ele>
        <time>2013-08-29T20:32:03Z</time>
      </trkpt>
      <trkpt lat="59.382188547487" lon="17.867427422467">
        <ele>0</ele>
        <time>2013-08-29T20:32:09Z</time>
      </trkpt>
      <trkpt lat="59.382589118488" lon="17.86747494784">
        <ele>0</ele>
        <time>2013-08-29T20:32:15Z</time>
      </trkpt>
      <trkpt lat="59.382732197521" lon="17.867503278662">
        <ele>0</ele>
        <time>2013-08-29T20:32:17Z</time>
      </trkpt>
      <trkpt lat="59.382938895175" lon="17.867508726897">
        <ele>0</ele>
        <time>2013-08-29T20:32:20Z</time>
      </trkpt>
      <trkpt lat="59.382992539335" lon="17.867513169304">
        <ele>0</ele>
        <time>2013-08-29T20:32:21Z</time>
      </trkpt>
      <trkpt lat="59.383034784111" lon="17.867512750209">
        <ele>0</ele>
        <time>2013-08-29T20:32:22Z</time>
      </trkpt>
      <trkpt lat="59.383061103277" lon="17.867512414933">
        <ele>0</ele>
        <time>2013-08-29T20:32:23Z</time>
      </trkpt>
      <trkpt lat="59.383074430498" lon="17.867516270607">
        <ele>0</ele>
        <time>2013-08-29T20:32:24Z</time>
      </trkpt>
      <trkpt lat="59.383079878733" lon="17.867510487096">
        <ele>0</ele>
        <time>2013-08-29T20:32:26Z</time>
      </trkpt>
      <trkpt lat="59.383144084087" lon="17.867490202898">
        <ele>0</ele>
        <time>2013-08-29T20:32:36Z</time>
      </trkpt>
      <trkpt lat="59.383185071578" lon="17.867489532346">
        <ele>0</ele>
        <time>2013-08-29T20:32:37Z</time>
      </trkpt>
      <trkpt lat="59.383322031824" lon="17.867564298894">
        <ele>0</ele>
        <time>2013-08-29T20:32:40Z</time>
      </trkpt>
      <trkpt lat="59.383691841252" lon="17.867758926612">
        <ele>0</ele>
        <time>2013-08-29T20:32:46Z</time>
      </trkpt>
      <trkpt lat="59.383758561176" lon="17.867767224693">
        <ele>0</ele>
        <time>2013-08-29T20:32:47Z</time>
      </trkpt>
      <trkpt lat="59.384020998465" lon="17.867776277145">
        <ele>0</ele>
        <time>2013-08-29T20:32:51Z</time>
      </trkpt>
      <trkpt lat="59.384276394958" lon="17.867772840566">
        <ele>0</ele>
        <time>2013-08-29T20:32:56Z</time>
      </trkpt>
      <trkpt lat="59.384434058497" lon="17.867794465868">
        <ele>0</ele>
        <time>2013-08-29T20:32:59Z</time>
      </trkpt>
      <trkpt lat="59.384499102041" lon="17.867798824456">
        <ele>0</ele>
        <time>2013-08-29T20:33:00Z</time>
      </trkpt>
      <trkpt lat="59.384864133786" lon="17.867820449758">
        <ele>0</ele>
        <time>2013-08-29T20:33:05Z</time>
      </trkpt>
      <trkpt lat="59.385152303508" lon="17.867845008725">
        <ele>0</ele>
        <time>2013-08-29T20:33:09Z</time>
      </trkpt>
      <trkpt lat="59.385287000641" lon="17.867919356178">
        <ele>0</ele>
        <time>2013-08-29T20:33:11Z</time>
      </trkpt>
      <trkpt lat="59.385408119096" lon="17.86803234419">
        <ele>0</ele>
        <time>2013-08-29T20:33:13Z</time>
      </trkpt>
      <trkpt lat="59.385463691093" lon="17.868073918414">
        <ele>0</ele>
        <time>2013-08-29T20:33:14Z</time>
      </trkpt>
      <trkpt lat="59.385518843995" lon="17.868091352766">
        <ele>0</ele>
        <time>2013-08-29T20:33:15Z</time>
      </trkpt>
      <trkpt lat="59.385577265838" lon="17.868086575083">
        <ele>0</ele>
        <time>2013-08-29T20:33:16Z</time>
      </trkpt>
      <trkpt lat="59.385642057925" lon="17.868067631989">
        <ele>0</ele>
        <time>2013-08-29T20:33:17Z</time>
      </trkpt>
      <trkpt lat="59.385699054845" lon="17.868045252316">
        <ele>0</ele>
        <time>2013-08-29T20:33:18Z</time>
      </trkpt>
      <trkpt lat="59.38574892715" lon="17.868029410525">
        <ele>0</ele>
        <time>2013-08-29T20:33:19Z</time>
      </trkpt>
      <trkpt lat="59.385800308197" lon="17.868015412752">
        <ele>0</ele>
        <time>2013-08-29T20:33:20Z</time>
      </trkpt>
      <trkpt lat="59.385852611253" lon="17.867996888753">
        <ele>0</ele>
        <time>2013-08-29T20:33:21Z</time>
      </trkpt>
      <trkpt lat="59.385909105259" lon="17.867969144664">
        <ele>0</ele>
        <time>2013-08-29T20:33:22Z</time>
      </trkpt>
      <trkpt lat="59.385973394432" lon="17.867951123579">
        <ele>0</ele>
        <time>2013-08-29T20:33:23Z</time>
      </trkpt>
      <trkpt lat="59.38622082812" lon="17.86800552211">
        <ele>0</ele>
        <time>2013-08-29T20:33:26Z</time>
      </trkpt>
      <trkpt lat="59.386320153635" lon="17.86802647686">
        <ele>0</ele>
        <time>2013-08-29T20:33:27Z</time>
      </trkpt>
      <trkpt lat="59.386418389503" lon="17.868061094107">
        <ele>0</ele>
        <time>2013-08-29T20:33:28Z</time>
      </trkpt>
      <trkpt lat="59.386515954819" lon="17.868112978068">
        <ele>0</ele>
        <time>2013-08-29T20:33:29Z</time>
      </trkpt>
      <trkpt lat="59.386616872895" lon="17.868161593088">
        <ele>0</ele>
        <time>2013-08-29T20:33:30Z</time>
      </trkpt>
      <trkpt lat="59.386723993577" lon="17.868194533955">
        <ele>0</ele>
        <time>2013-08-29T20:33:31Z</time>
      </trkpt>
      <trkpt lat="59.386834969933" lon="17.868195875059">
        <ele>0</ele>
        <time>2013-08-29T20:33:32Z</time>
      </trkpt>
      <trkpt lat="59.386943096443" lon="17.868179111259">
        <ele>0</ele>
        <time>2013-08-29T20:33:33Z</time>
      </trkpt>
      <trkpt lat="59.387042338139" lon="17.868170226445">
        <ele>0</ele>
        <time>2013-08-29T20:33:34Z</time>
      </trkpt>
      <trkpt lat="59.387143172396" lon="17.868168885341">
        <ele>0</ele>
        <time>2013-08-29T20:33:35Z</time>
      </trkpt>
      <trkpt lat="59.387236127667" lon="17.868168717703">
        <ele>0</ele>
        <time>2013-08-29T20:33:36Z</time>
      </trkpt>
      <trkpt lat="59.387324389074" lon="17.868170058807">
        <ele>0</ele>
        <time>2013-08-29T20:33:37Z</time>
      </trkpt>
      <trkpt lat="59.38768682243" lon="17.86817232192">
        <ele>0</ele>
        <time>2013-08-29T20:33:42Z</time>
      </trkpt>
      <trkpt lat="59.387786483221" lon="17.868177434879">
        <ele>0</ele>
        <time>2013-08-29T20:33:44Z</time>
      </trkpt>
      <trkpt lat="59.387818837355" lon="17.868173327748">
        <ele>0</ele>
        <time>2013-08-29T20:33:45Z</time>
      </trkpt>
      <trkpt lat="59.387839289191" lon="17.868155306663">
        <ele>0</ele>
        <time>2013-08-29T20:33:46Z</time>
      </trkpt>
      <trkpt lat="59.387845743254" lon="17.867103042937">
        <ele>0</ele>
        <time>2013-08-29T20:34:05Z</time>
      </trkpt>
      <trkpt lat="59.387862926149" lon="17.866998269187">
        <ele>0</ele>
        <time>2013-08-29T20:34:06Z</time>
      </trkpt>
      <trkpt lat="59.387891508428" lon="17.866693251846">
        <ele>0</ele>
        <time>2013-08-29T20:34:09Z</time>
      </trkpt>
      <trkpt lat="59.387931490091" lon="17.866467694917">
        <ele>0</ele>
        <time>2013-08-29T20:34:11Z</time>
      </trkpt>
      <trkpt lat="59.388008938847" lon="17.866236019201">
        <ele>0</ele>
        <time>2013-08-29T20:34:13Z</time>
      </trkpt>
      <trkpt lat="59.388100301557" lon="17.866014569403">
        <ele>0</ele>
        <time>2013-08-29T20:34:15Z</time>
      </trkpt>
      <trkpt lat="59.38819979471" lon="17.865802423514">
        <ele>0</ele>
        <time>2013-08-29T20:34:17Z</time>
      </trkpt>
      <trkpt lat="59.388423675259" lon="17.865449461705">
        <ele>0</ele>
        <time>2013-08-29T20:34:21Z</time>
      </trkpt>
      <trkpt lat="59.388488467346" lon="17.865375868623">
        <ele>0</ele>
        <time>2013-08-29T20:34:22Z</time>
      </trkpt>
      <trkpt lat="59.388682256874" lon="17.865213008306">
        <ele>0</ele>
        <time>2013-08-29T20:34:25Z</time>
      </trkpt>
      <trkpt lat="59.388952154054" lon="17.865047717238">
        <ele>0</ele>
        <time>2013-08-29T20:34:29Z</time>
      </trkpt>
      <trkpt lat="59.389092634698" lon="17.864966580446">
        <ele>0</ele>
        <time>2013-08-29T20:34:31Z</time>
      </trkpt>
      <trkpt lat="59.389585741875" lon="17.864655863413">
        <ele>0</ele>
        <time>2013-08-29T20:34:38Z</time>
      </trkpt>
      <trkpt lat="59.390045824366" lon="17.864394515771">
        <ele>0</ele>
        <time>2013-08-29T20:34:45Z</time>
      </trkpt>
      <trkpt lat="59.390101983096" lon="17.86434849914">
        <ele>0</ele>
        <time>2013-08-29T20:34:46Z</time>
      </trkpt>
      <trkpt lat="59.390389566085" lon="17.864051025509">
        <ele>0</ele>
        <time>2013-08-29T20:34:51Z</time>
      </trkpt>
      <trkpt lat="59.390621996172" lon="17.863787582392">
        <ele>0</ele>
        <time>2013-08-29T20:34:55Z</time>
      </trkpt>
      <trkpt lat="59.39072609937" lon="17.86361173013">
        <ele>0</ele>
        <time>2013-08-29T20:34:57Z</time>
      </trkpt>
      <trkpt lat="59.390883595271" lon="17.863343760787">
        <ele>0</ele>
        <time>2013-08-29T20:35:00Z</time>
      </trkpt>
      <trkpt lat="59.390986692641" lon="17.863179643185">
        <ele>0</ele>
        <time>2013-08-29T20:35:02Z</time>
      </trkpt>
      <trkpt lat="59.391159275962" lon="17.862857526768">
        <ele>0</ele>
        <time>2013-08-29T20:35:06Z</time>
      </trkpt>
      <trkpt lat="59.391196659236" lon="17.862759961452">
        <ele>0</ele>
        <time>2013-08-29T20:35:07Z</time>
      </trkpt>
      <trkpt lat="59.391406374374" lon="17.862232237028">
        <ele>0</ele>
        <time>2013-08-29T20:35:12Z</time>
      </trkpt>
      <trkpt lat="59.391650120026" lon="17.861690347193">
        <ele>0</ele>
        <time>2013-08-29T20:35:18Z</time>
      </trkpt>
      <trkpt lat="59.391681468332" lon="17.861605270908">
        <ele>0</ele>
        <time>2013-08-29T20:35:19Z</time>
      </trkpt>
      <trkpt lat="59.391714912113" lon="17.861524301754">
        <ele>0</ele>
        <time>2013-08-29T20:35:20Z</time>
      </trkpt>
      <trkpt lat="59.391749445541" lon="17.861440398935">
        <ele>0</ele>
        <time>2013-08-29T20:35:21Z</time>
      </trkpt>
      <trkpt lat="59.391785152435" lon="17.861357669582">
        <ele>0</ele>
        <time>2013-08-29T20:35:22Z</time>
      </trkpt>
      <trkpt lat="59.391823206261" lon="17.861270581641">
        <ele>0</ele>
        <time>2013-08-29T20:35:23Z</time>
      </trkpt>
      <trkpt lat="59.391860673354" lon="17.861192797609">
        <ele>0</ele>
        <time>2013-08-29T20:35:24Z</time>
      </trkpt>
      <trkpt lat="59.391928734382" lon="17.861025662523">
        <ele>0</ele>
        <time>2013-08-29T20:35:26Z</time>
      </trkpt>
      <trkpt lat="59.391960166507" lon="17.860947040301">
        <ele>0</ele>
        <time>2013-08-29T20:35:27Z</time>
      </trkpt>
      <trkpt lat="59.391997465962" lon="17.860868501898">
        <ele>0</ele>
        <time>2013-08-29T20:35:28Z</time>
      </trkpt>
      <trkpt lat="59.392033089037" lon="17.860792561884">
        <ele>0</ele>
        <time>2013-08-29T20:35:29Z</time>
      </trkpt>
      <trkpt lat="59.392107687947" lon="17.860650237222">
        <ele>0</ele>
        <time>2013-08-29T20:35:31Z</time>
      </trkpt>
      <trkpt lat="59.392151190008" lon="17.860583098203">
        <ele>0</ele>
        <time>2013-08-29T20:35:32Z</time>
      </trkpt>
      <trkpt lat="59.392197206639" lon="17.860521155962">
        <ele>0</ele>
        <time>2013-08-29T20:35:33Z</time>
      </trkpt>
      <trkpt lat="59.392321845492" lon="17.86032099619">
        <ele>0</ele>
        <time>2013-08-29T20:35:34Z</time>
      </trkpt>
      <trkpt lat="59.392630047955" lon="17.859842138243">
        <ele>0</ele>
        <time>2013-08-29T20:35:42Z</time>
      </trkpt>
      <trkpt lat="59.392941938454" lon="17.859398903371">
        <ele>0</ele>
        <time>2013-08-29T20:35:48Z</time>
      </trkpt>
      <trkpt lat="59.392996420804" lon="17.859312988896">
        <ele>0</ele>
        <time>2013-08-29T20:35:49Z</time>
      </trkpt>
      <trkpt lat="59.393050064964" lon="17.859232857932">
        <ele>0</ele>
        <time>2013-08-29T20:35:50Z</time>
      </trkpt>
      <trkpt lat="59.393106223694" lon="17.859150463855">
        <ele>0</ele>
        <time>2013-08-29T20:35:51Z</time>
      </trkpt>
      <trkpt lat="59.393164310261" lon="17.859061950991">
        <ele>0</ele>
        <time>2013-08-29T20:35:52Z</time>
      </trkpt>
      <trkpt lat="59.393228683253" lon="17.858965810598">
        <ele>0</ele>
        <time>2013-08-29T20:35:53Z</time>
      </trkpt>
      <trkpt lat="59.393292385693" lon="17.858874783164">
        <ele>0</ele>
        <time>2013-08-29T20:35:54Z</time>
      </trkpt>
      <trkpt lat="59.393357513056" lon="17.858780235332">
        <ele>0</ele>
        <time>2013-08-29T20:35:55Z</time>
      </trkpt>
      <trkpt lat="59.39342507117" lon="17.858687699156">
        <ele>0</ele>
        <time>2013-08-29T20:35:56Z</time>
      </trkpt>
      <trkpt lat="59.393492461646" lon="17.858594073333">
        <ele>0</ele>
        <time>2013-08-29T20:35:57Z</time>
      </trkpt>
      <trkpt lat="59.393559516846" lon="17.858495921284">
        <ele>0</ele>
        <time>2013-08-29T20:35:58Z</time>
      </trkpt>
      <trkpt lat="59.393622716372" lon="17.858404558574">
        <ele>0</ele>
        <time>2013-08-29T20:35:59Z</time>
      </trkpt>
      <trkpt lat="59.39368491007" lon="17.858309926923">
        <ele>0</ele>
        <time>2013-08-29T20:36:00Z</time>
      </trkpt>
      <trkpt lat="59.393746265578" lon="17.858227616665">
        <ele>0</ele>
        <time>2013-08-29T20:36:01Z</time>
      </trkpt>
      <trkpt lat="59.39386009178" lon="17.85805536862">
        <ele>0</ele>
        <time>2013-08-29T20:36:03Z</time>
      </trkpt>
      <trkpt lat="59.393919184175" lon="17.857964592643">
        <ele>0</ele>
        <time>2013-08-29T20:36:04Z</time>
      </trkpt>
      <trkpt lat="59.393979030941" lon="17.857877085607">
        <ele>0</ele>
        <time>2013-08-29T20:36:05Z</time>
      </trkpt>
      <trkpt lat="59.394039548259" lon="17.857791757865">
        <ele>0</ele>
        <time>2013-08-29T20:36:06Z</time>
      </trkpt>
      <trkpt lat="59.39409813774" lon="17.857709112331">
        <ele>0</ele>
        <time>2013-08-29T20:36:07Z</time>
      </trkpt>
      <trkpt lat="59.394213975598" lon="17.857551951706">
        <ele>0</ele>
        <time>2013-08-29T20:36:09Z</time>
      </trkpt>
      <trkpt lat="59.394339871736" lon="17.857480873194">
        <ele>0</ele>
        <time>2013-08-29T20:36:12Z</time>
      </trkpt>
      <trkpt lat="59.394417655768" lon="17.857379116928">
        <ele>0</ele>
        <time>2013-08-29T20:36:16Z</time>
      </trkpt>
      <trkpt lat="59.394496026533" lon="17.857135455095">
        <ele>0</ele>
        <time>2013-08-29T20:36:19Z</time>
      </trkpt>
      <trkpt lat="59.394528883581" lon="17.857050294991">
        <ele>0</ele>
        <time>2013-08-29T20:36:20Z</time>
      </trkpt>
      <trkpt lat="59.394569535796" lon="17.856985921999">
        <ele>0</ele>
        <time>2013-08-29T20:36:21Z</time>
      </trkpt>
      <trkpt lat="59.394656707556" lon="17.85683664036">
        <ele>0</ele>
        <time>2013-08-29T20:36:23Z</time>
      </trkpt>
      <trkpt lat="59.394699455246" lon="17.856753156636">
        <ele>0</ele>
        <time>2013-08-29T20:36:24Z</time>
      </trkpt>
      <trkpt lat="59.394749159913" lon="17.856697165544">
        <ele>0</ele>
        <time>2013-08-29T20:36:25Z</time>
      </trkpt>
      <trkpt lat="59.39480724648" lon="17.8566405039">
        <ele>0</ele>
        <time>2013-08-29T20:36:26Z</time>
      </trkpt>
      <trkpt lat="59.394865416866" lon="17.856583423161">
        <ele>0</ele>
        <time>2013-08-29T20:36:27Z</time>
      </trkpt>
      <trkpt lat="59.394919396302" lon="17.856522402929">
        <ele>0</ele>
        <time>2013-08-29T20:36:28Z</time>
      </trkpt>
      <trkpt lat="59.395090470881" lon="17.856294163792">
        <ele>0</ele>
        <time>2013-08-29T20:36:31Z</time>
      </trkpt>
      <trkpt lat="59.395426165976" lon="17.85579728476">
        <ele>0</ele>
        <time>2013-08-29T20:36:37Z</time>
      </trkpt>
      <trkpt lat="59.395670833637" lon="17.855458320724">
        <ele>0</ele>
        <time>2013-08-29T20:36:41Z</time>
      </trkpt>
      <trkpt lat="59.395733949344" lon="17.855370143136">
        <ele>0</ele>
        <time>2013-08-29T20:36:42Z</time>
      </trkpt>
      <trkpt lat="59.395795891585" lon="17.85528012153">
        <ele>0</ele>
        <time>2013-08-29T20:36:43Z</time>
      </trkpt>
      <trkpt lat="59.395858252921" lon="17.855186747164">
        <ele>0</ele>
        <time>2013-08-29T20:36:44Z</time>
      </trkpt>
      <trkpt lat="59.395982724136" lon="17.855004440839">
        <ele>0</ele>
        <time>2013-08-29T20:36:46Z</time>
      </trkpt>
      <trkpt lat="59.396463342282" lon="17.854304803646">
        <ele>0</ele>
        <time>2013-08-29T20:36:54Z</time>
      </trkpt>
      <trkpt lat="59.396519752469" lon="17.85422064937">
        <ele>0</ele>
        <time>2013-08-29T20:36:55Z</time>
      </trkpt>
      <trkpt lat="59.396842874714" lon="17.853752352617">
        <ele>0</ele>
        <time>2013-08-29T20:37:01Z</time>
      </trkpt>
      <trkpt lat="59.397211594495" lon="17.853202080882">
        <ele>0</ele>
        <time>2013-08-29T20:37:08Z</time>
      </trkpt>
      <trkpt lat="59.397308237802" lon="17.853062689885">
        <ele>0</ele>
        <time>2013-08-29T20:37:10Z</time>
      </trkpt>
      <trkpt lat="59.397463219133" lon="17.852838222603">
        <ele>0</ele>
        <time>2013-08-29T20:37:13Z</time>
      </trkpt>
      <trkpt lat="59.39780545211" lon="17.852386019098">
        <ele>0</ele>
        <time>2013-08-29T20:37:19Z</time>
      </trkpt>
      <trkpt lat="59.398194623727" lon="17.851841782331">
        <ele>0</ele>
        <time>2013-08-29T20:37:26Z</time>
      </trkpt>
      <trkpt lat="59.39860759994" lon="17.851236944427">
        <ele>0</ele>
        <time>2013-08-29T20:37:33Z</time>
      </trkpt>
      <trkpt lat="59.399011858977" lon="17.8506306816">
        <ele>0</ele>
        <time>2013-08-29T20:37:40Z</time>
      </trkpt>
      <trkpt lat="59.399119147297" lon="17.850457343908">
        <ele>0</ele>
        <time>2013-08-29T20:37:42Z</time>
      </trkpt>
      <trkpt lat="59.399331209367" lon="17.85006490335">
        <ele>0</ele>
        <time>2013-08-29T20:37:46Z</time>
      </trkpt>
      <trkpt lat="59.399634969423" lon="17.849492168123">
        <ele>0</ele>
        <time>2013-08-29T20:37:52Z</time>
      </trkpt>
      <trkpt lat="59.399726499771" lon="17.849288236496">
        <ele>0</ele>
        <time>2013-08-29T20:37:54Z</time>
      </trkpt>
      <trkpt lat="59.399844433104" lon="17.848943656587">
        <ele>0</ele>
        <time>2013-08-29T20:37:57Z</time>
      </trkpt>
      <trkpt lat="59.40017752981" lon="17.848049475495">
        <ele>0</ele>
        <time>2013-08-29T20:38:05Z</time>
      </trkpt>
      <trkpt lat="59.400220696595" lon="17.847942270994">
        <ele>0</ele>
        <time>2013-08-29T20:38:06Z</time>
      </trkpt>
      <trkpt lat="59.400558487165" lon="17.847054795422">
        <ele>0</ele>
        <time>2013-08-29T20:38:14Z</time>
      </trkpt>
      <trkpt lat="59.400601905407" lon="17.84693845465">
        <ele>0</ele>
        <time>2013-08-29T20:38:15Z</time>
      </trkpt>
      <trkpt lat="59.400895774821" lon="17.846159859959">
        <ele>0</ele>
        <time>2013-08-29T20:38:22Z</time>
      </trkpt>
      <trkpt lat="59.4012344874" lon="17.845397358516">
        <ele>0</ele>
        <time>2013-08-29T20:38:29Z</time>
      </trkpt>
      <trkpt lat="59.40151360467" lon="17.844777768468">
        <ele>0</ele>
        <time>2013-08-29T20:38:35Z</time>
      </trkpt>
      <trkpt lat="59.401853490715" lon="17.844092967238">
        <ele>0</ele>
        <time>2013-08-29T20:38:42Z</time>
      </trkpt>
      <trkpt lat="59.401908895074" lon="17.844017865414">
        <ele>0</ele>
        <time>2013-08-29T20:38:43Z</time>
      </trkpt>
      <trkpt lat="59.402006125114" lon="17.843849053948">
        <ele>0</ele>
        <time>2013-08-29T20:38:45Z</time>
      </trkpt>
      <trkpt lat="59.402085334069" lon="17.843660042103">
        <ele>0</ele>
        <time>2013-08-29T20:38:47Z</time>
      </trkpt>
      <trkpt lat="59.402148533595" lon="17.843450243146">
        <ele>0</ele>
        <time>2013-08-29T20:38:49Z</time>
      </trkpt>
      <trkpt lat="59.402172757286" lon="17.843341697541">
        <ele>0</ele>
        <time>2013-08-29T20:38:50Z</time>
      </trkpt>
      <trkpt lat="59.402197902986" lon="17.843228709529">
        <ele>0</ele>
        <time>2013-08-29T20:38:51Z</time>
      </trkpt>
      <trkpt lat="59.402223970695" lon="17.843128378186">
        <ele>0</ele>
        <time>2013-08-29T20:38:52Z</time>
      </trkpt>
      <trkpt lat="59.402258336485" lon="17.843030393775">
        <ele>0</ele>
        <time>2013-08-29T20:38:53Z</time>
      </trkpt>
      <trkpt lat="59.402385406089" lon="17.842810285081">
        <ele>0</ele>
        <time>2013-08-29T20:38:56Z</time>
      </trkpt>
      <trkpt lat="59.402430835987" lon="17.842758149663">
        <ele>0</ele>
        <time>2013-08-29T20:38:57Z</time>
      </trkpt>
      <trkpt lat="59.402482803767" lon="17.842711211023">
        <ele>0</ele>
        <time>2013-08-29T20:38:58Z</time>
      </trkpt>
      <trkpt lat="59.402538208126" lon="17.842669888256">
        <ele>0</ele>
        <time>2013-08-29T20:38:59Z</time>
      </trkpt>
      <trkpt lat="59.402598809263" lon="17.842635606285">
        <ele>0</ele>
        <time>2013-08-29T20:39:00Z</time>
      </trkpt>
      <trkpt lat="59.402656979649" lon="17.842626637652">
        <ele>0</ele>
        <time>2013-08-29T20:39:01Z</time>
      </trkpt>
      <trkpt lat="59.402817576853" lon="17.842659159424">
        <ele>0</ele>
        <time>2013-08-29T20:39:04Z</time>
      </trkpt>
      <trkpt lat="59.402926625372" lon="17.842648514411">
        <ele>0</ele>
        <time>2013-08-29T20:39:06Z</time>
      </trkpt>
      <trkpt lat="59.403088060766" lon="17.842609370938">
        <ele>0</ele>
        <time>2013-08-29T20:39:09Z</time>
      </trkpt>
      <trkpt lat="59.403141453469" lon="17.842590930758">
        <ele>0</ele>
        <time>2013-08-29T20:39:10Z</time>
      </trkpt>
      <trkpt lat="59.403193840344" lon="17.842572490578">
        <ele>0</ele>
        <time>2013-08-29T20:39:11Z</time>
      </trkpt>
      <trkpt lat="59.403250501988" lon="17.842553631303">
        <ele>0</ele>
        <time>2013-08-29T20:39:12Z</time>
      </trkpt>
      <trkpt lat="59.403308840012" lon="17.84253125163">
        <ele>0</ele>
        <time>2013-08-29T20:39:13Z</time>
      </trkpt>
      <trkpt lat="59.40336851914" lon="17.842503256084">
        <ele>0</ele>
        <time>2013-08-29T20:39:14Z</time>
      </trkpt>
      <trkpt lat="59.403431886304" lon="17.842469644665">
        <ele>0</ele>
        <time>2013-08-29T20:39:15Z</time>
      </trkpt>
      <trkpt lat="59.403780740982" lon="17.842219109674">
        <ele>0</ele>
        <time>2013-08-29T20:39:21Z</time>
      </trkpt>
      <trkpt lat="59.40402733648" lon="17.84198139899">
        <ele>0</ele>
        <time>2013-08-29T20:39:26Z</time>
      </trkpt>
      <trkpt lat="59.404284576991" lon="17.841743855944">
        <ele>0</ele>
        <time>2013-08-29T20:39:31Z</time>
      </trkpt>
      <trkpt lat="59.404426650196" lon="17.841601615101">
        <ele>0</ele>
        <time>2013-08-29T20:39:34Z</time>
      </trkpt>
      <trkpt lat="59.404473756474" lon="17.841556352841">
        <ele>0</ele>
        <time>2013-08-29T20:39:35Z</time>
      </trkpt>
      <trkpt lat="59.404523964055" lon="17.841507737821">
        <ele>0</ele>
        <time>2013-08-29T20:39:36Z</time>
      </trkpt>
      <trkpt lat="59.404573249627" lon="17.84146004481">
        <ele>0</ele>
        <time>2013-08-29T20:39:37Z</time>
      </trkpt>
      <trkpt lat="59.404900814279" lon="17.841120829317">
        <ele>0</ele>
        <time>2013-08-29T20:39:44Z</time>
      </trkpt>
      <trkpt lat="59.404942975236" lon="17.84107783017">
        <ele>0</ele>
        <time>2013-08-29T20:39:45Z</time>
      </trkpt>
      <trkpt lat="59.404981783433" lon="17.841035585394">
        <ele>0</ele>
        <time>2013-08-29T20:39:46Z</time>
      </trkpt>
      <trkpt lat="59.405021765096" lon="17.840989317306">
        <ele>0</ele>
        <time>2013-08-29T20:39:47Z</time>
      </trkpt>
      <trkpt lat="59.405067111175" lon="17.840948162177">
        <ele>0</ele>
        <time>2013-08-29T20:39:48Z</time>
      </trkpt>
      <trkpt lat="59.405158390066" lon="17.840856045096">
        <ele>0</ele>
        <time>2013-08-29T20:39:50Z</time>
      </trkpt>
      <trkpt lat="59.405410517618" lon="17.84062017843">
        <ele>0</ele>
        <time>2013-08-29T20:39:55Z</time>
      </trkpt>
      <trkpt lat="59.405663399541" lon="17.840341564074">
        <ele>0</ele>
        <time>2013-08-29T20:40:00Z</time>
      </trkpt>
      <trkpt lat="59.406025665259" lon="17.839947866231">
        <ele>0</ele>
        <time>2013-08-29T20:40:07Z</time>
      </trkpt>
      <trkpt lat="59.406130941923" lon="17.839837979522">
        <ele>0</ele>
        <time>2013-08-29T20:40:09Z</time>
      </trkpt>
      <trkpt lat="59.406273853318" lon="17.839642597433">
        <ele>0</ele>
        <time>2013-08-29T20:40:12Z</time>
      </trkpt>
      <trkpt lat="59.406320708139" lon="17.83956741179">
        <ele>0</ele>
        <time>2013-08-29T20:40:13Z</time>
      </trkpt>
      <trkpt lat="59.406558251185" lon="17.839228280116">
        <ele>0</ele>
        <time>2013-08-29T20:40:17Z</time>
      </trkpt>
      <trkpt lat="59.406792776747" lon="17.838927537544">
        <ele>0</ele>
        <time>2013-08-29T20:40:21Z</time>
      </trkpt>
      <trkpt lat="59.406851701504" lon="17.838914545599">
        <ele>0</ele>
        <time>2013-08-29T20:40:22Z</time>
      </trkpt>
      <trkpt lat="59.407007185749" lon="17.83901420639">
        <ele>0</ele>
        <time>2013-08-29T20:40:25Z</time>
      </trkpt>
      <trkpt lat="59.407054627303" lon="17.839037340434">
        <ele>0</ele>
        <time>2013-08-29T20:40:26Z</time>
      </trkpt>
      <trkpt lat="59.407110786033" lon="17.83904102847">
        <ele>0</ele>
        <time>2013-08-29T20:40:27Z</time>
      </trkpt>
      <trkpt lat="59.407168369686" lon="17.839018648797">
        <ele>0</ele>
        <time>2013-08-29T20:40:28Z</time>
      </trkpt>
      <trkpt lat="59.407226120977" lon="17.838979421505">
        <ele>0</ele>
        <time>2013-08-29T20:40:29Z</time>
      </trkpt>
      <trkpt lat="59.407285213372" lon="17.838932147589">
        <ele>0</ele>
        <time>2013-08-29T20:40:30Z</time>
      </trkpt>
      <trkpt lat="59.407401135049" lon="17.838858219231">
        <ele>0</ele>
        <time>2013-08-29T20:40:32Z</time>
      </trkpt>
      <trkpt lat="59.407525438626" lon="17.838776495706">
        <ele>0</ele>
        <time>2013-08-29T20:40:34Z</time>
      </trkpt>
      <trkpt lat="59.407587799962" lon="17.838724360288">
        <ele>0</ele>
        <time>2013-08-29T20:40:35Z</time>
      </trkpt>
      <trkpt lat="59.408039835829" lon="17.838247346359">
        <ele>0</ele>
        <time>2013-08-29T20:40:43Z</time>
      </trkpt>
      <trkpt lat="59.408160116094" lon="17.838162353893">
        <ele>0</ele>
        <time>2013-08-29T20:40:45Z</time>
      </trkpt>
      <trkpt lat="59.408335046347" lon="17.83804861151">
        <ele>0</ele>
        <time>2013-08-29T20:40:48Z</time>
      </trkpt>
      <trkpt lat="59.408645260466" lon="17.837809140627">
        <ele>0</ele>
        <time>2013-08-29T20:40:53Z</time>
      </trkpt>
      <trkpt lat="59.40898020119" lon="17.83738392684">
        <ele>0</ele>
        <time>2013-08-29T20:40:59Z</time>
      </trkpt>
      <trkpt lat="59.409360068898" lon="17.836784118076">
        <ele>0</ele>
        <time>2013-08-29T20:41:06Z</time>
      </trkpt>
      <trkpt lat="59.409544051603" lon="17.836368627293">
        <ele>0</ele>
        <time>2013-08-29T20:41:10Z</time>
      </trkpt>
      <trkpt lat="59.40957699247" lon="17.836260500783">
        <ele>0</ele>
        <time>2013-08-29T20:41:11Z</time>
      </trkpt>
      <trkpt lat="59.4097253521" lon="17.835765298131">
        <ele>0</ele>
        <time>2013-08-29T20:41:15Z</time>
      </trkpt>
      <trkpt lat="59.40979911282" lon="17.835501100643">
        <ele>0</ele>
        <time>2013-08-29T20:41:17Z</time>
      </trkpt>
      <trkpt lat="59.409835322628" lon="17.835366487329">
        <ele>0</ele>
        <time>2013-08-29T20:41:18Z</time>
      </trkpt>
      <trkpt lat="59.409869353142" lon="17.835230281454">
        <ele>0</ele>
        <time>2013-08-29T20:41:19Z</time>
      </trkpt>
      <trkpt lat="59.409904305665" lon="17.835093405027">
        <ele>0</ele>
        <time>2013-08-29T20:41:20Z</time>
      </trkpt>
      <trkpt lat="59.409931211564" lon="17.834965497233">
        <ele>0</ele>
        <time>2013-08-29T20:41:21Z</time>
      </trkpt>
      <trkpt lat="59.409963062784" lon="17.834834236679">
        <ele>0</ele>
        <time>2013-08-29T20:41:22Z</time>
      </trkpt>
      <trkpt lat="59.410099603935" lon="17.834142562291">
        <ele>0</ele>
        <time>2013-08-29T20:41:27Z</time>
      </trkpt>
      <trkpt lat="59.410215525612" lon="17.833542753527">
        <ele>0</ele>
        <time>2013-08-29T20:41:31Z</time>
      </trkpt>
      <trkpt lat="59.410300685716" lon="17.833122233604">
        <ele>0</ele>
        <time>2013-08-29T20:41:34Z</time>
      </trkpt>
      <trkpt lat="59.410353491686" lon="17.832861724152">
        <ele>0</ele>
        <time>2013-08-29T20:41:36Z</time>
      </trkpt>
      <trkpt lat="59.410506880456" lon="17.832085895488">
        <ele>0</ele>
        <time>2013-08-29T20:41:42Z</time>
      </trkpt>
      <trkpt lat="59.410564547928" lon="17.831829493167">
        <ele>0</ele>
        <time>2013-08-29T20:41:44Z</time>
      </trkpt>
      <trkpt lat="59.410591621465" lon="17.83170267502">
        <ele>0</ele>
        <time>2013-08-29T20:41:45Z</time>
      </trkpt>
      <trkpt lat="59.41061970083" lon="17.831581724203">
        <ele>0</ele>
        <time>2013-08-29T20:41:46Z</time>
      </trkpt>
      <trkpt lat="59.410648618385" lon="17.831460521929">
        <ele>0</ele>
        <time>2013-08-29T20:41:47Z</time>
      </trkpt>
      <trkpt lat="59.410682481261" lon="17.831333955239">
        <ele>0</ele>
        <time>2013-08-29T20:41:48Z</time>
      </trkpt>
      <trkpt lat="59.410842324094" lon="17.830826263556">
        <ele>0</ele>
        <time>2013-08-29T20:41:52Z</time>
      </trkpt>
      <trkpt lat="59.410971153897" lon="17.830485874597">
        <ele>0</ele>
        <time>2013-08-29T20:41:55Z</time>
      </trkpt>
      <trkpt lat="59.411016248519" lon="17.830370539653">
        <ele>0</ele>
        <time>2013-08-29T20:41:56Z</time>
      </trkpt>
      <trkpt lat="59.411065198815" lon="17.830257384003">
        <ele>0</ele>
        <time>2013-08-29T20:41:57Z</time>
      </trkpt>
      <trkpt lat="59.411114316749" lon="17.83015202352">
        <ele>0</ele>
        <time>2013-08-29T20:41:58Z</time>
      </trkpt>
      <trkpt lat="59.411165949253" lon="17.830049261426">
        <ele>0</ele>
        <time>2013-08-29T20:41:59Z</time>
      </trkpt>
      <trkpt lat="59.411413969674" lon="17.829635614661">
        <ele>0</ele>
        <time>2013-08-29T20:42:03Z</time>
      </trkpt>
      <trkpt lat="59.41148387472" lon="17.829537043517">
        <ele>0</ele>
        <time>2013-08-29T20:42:04Z</time>
      </trkpt>
      <trkpt lat="59.41155679725" lon="17.82943453288">
        <ele>0</ele>
        <time>2013-08-29T20:42:05Z</time>
      </trkpt>
      <trkpt lat="59.411628546314" lon="17.829332692795">
        <ele>0</ele>
        <time>2013-08-29T20:42:06Z</time>
      </trkpt>
      <trkpt lat="59.411701887939" lon="17.829246275406">
        <ele>0</ele>
        <time>2013-08-29T20:42:07Z</time>
      </trkpt>
      <trkpt lat="59.411782521817" lon="17.829163629872">
        <ele>0</ele>
        <time>2013-08-29T20:42:08Z</time>
      </trkpt>
      <trkpt lat="59.411857036908" lon="17.829076374293">
        <ele>0</ele>
        <time>2013-08-29T20:42:09Z</time>
      </trkpt>
      <trkpt lat="59.411932893103" lon="17.828989034895">
        <ele>0</ele>
        <time>2013-08-29T20:42:10Z</time>
      </trkpt>
      <trkpt lat="59.412011431506" lon="17.828923069342">
        <ele>0</ele>
        <time>2013-08-29T20:42:11Z</time>
      </trkpt>
      <trkpt lat="59.412089718452" lon="17.828847967518">
        <ele>0</ele>
        <time>2013-08-29T20:42:12Z</time>
      </trkpt>
      <trkpt lat="59.412171609615" lon="17.828795915919">
        <ele>0</ele>
        <time>2013-08-29T20:42:13Z</time>
      </trkpt>
      <trkpt lat="59.412414349439" lon="17.828623416417">
        <ele>0</ele>
        <time>2013-08-29T20:42:16Z</time>
      </trkpt>
      <trkpt lat="59.412497665525" lon="17.82857874089">
        <ele>0</ele>
        <time>2013-08-29T20:42:17Z</time>
      </trkpt>
      <trkpt lat="59.412585340199" lon="17.82854856605">
        <ele>0</ele>
        <time>2013-08-29T20:42:18Z</time>
      </trkpt>
      <trkpt lat="59.412672009045" lon="17.82849995103">
        <ele>0</ele>
        <time>2013-08-29T20:42:19Z</time>
      </trkpt>
      <trkpt lat="59.412764964316" lon="17.828476397891">
        <ele>0</ele>
        <time>2013-08-29T20:42:20Z</time>
      </trkpt>
      <trkpt lat="59.412855321198" lon="17.828449827268">
        <ele>0</ele>
        <time>2013-08-29T20:42:21Z</time>
      </trkpt>
      <trkpt lat="59.412946264813" lon="17.828421580265">
        <ele>0</ele>
        <time>2013-08-29T20:42:22Z</time>
      </trkpt>
      <trkpt lat="59.413043830129" lon="17.82839433909">
        <ele>0</ele>
        <time>2013-08-29T20:42:23Z</time>
      </trkpt>
      <trkpt lat="59.413137372133" lon="17.828366092087">
        <ele>0</ele>
        <time>2013-08-29T20:42:24Z</time>
      </trkpt>
      <trkpt lat="59.413228902481" lon="17.828364750983">
        <ele>0</ele>
        <time>2013-08-29T20:42:25Z</time>
      </trkpt>
      <trkpt lat="59.4133211872" lon="17.828346394622">
        <ele>0</ele>
        <time>2013-08-29T20:42:26Z</time>
      </trkpt>
      <trkpt lat="59.413412298453" lon="17.828329211727">
        <ele>0</ele>
        <time>2013-08-29T20:42:27Z</time>
      </trkpt>
      <trkpt lat="59.413502906792" lon="17.828325775148">
        <ele>0</ele>
        <time>2013-08-29T20:42:28Z</time>
      </trkpt>
      <trkpt lat="59.41359024619" lon="17.828300713267">
        <ele>0</ele>
        <time>2013-08-29T20:42:29Z</time>
      </trkpt>
      <trkpt lat="59.413677920864" lon="17.828277663042">
        <ele>0</ele>
        <time>2013-08-29T20:42:30Z</time>
      </trkpt>
      <trkpt lat="59.413772384877" lon="17.82826944878">
        <ele>0</ele>
        <time>2013-08-29T20:42:31Z</time>
      </trkpt>
      <trkpt lat="59.413859388999" lon="17.828253020256">
        <ele>0</ele>
        <time>2013-08-29T20:42:32Z</time>
      </trkpt>
      <trkpt lat="59.413943627094" lon="17.828229970031">
        <ele>0</ele>
        <time>2013-08-29T20:42:33Z</time>
      </trkpt>
      <trkpt lat="59.414026188809" lon="17.828203650865">
        <ele>0</ele>
        <time>2013-08-29T20:42:34Z</time>
      </trkpt>
      <trkpt lat="59.414107744696" lon="17.82818646797">
        <ele>0</ele>
        <time>2013-08-29T20:42:35Z</time>
      </trkpt>
      <trkpt lat="59.414185025814" lon="17.82816802779">
        <ele>0</ele>
        <time>2013-08-29T20:42:36Z</time>
      </trkpt>
      <trkpt lat="59.414406810888" lon="17.828131817982">
        <ele>0</ele>
        <time>2013-08-29T20:42:39Z</time>
      </trkpt>
      <trkpt lat="59.414695986438" lon="17.828126202109">
        <ele>0</ele>
        <time>2013-08-29T20:42:44Z</time>
      </trkpt>
      <trkpt lat="59.414829007191" lon="17.82813617657">
        <ele>0</ele>
        <time>2013-08-29T20:42:53Z</time>
      </trkpt>
      <trkpt lat="59.414898744599" lon="17.828155957854">
        <ele>0</ele>
        <time>2013-08-29T20:42:55Z</time>
      </trkpt>
      <trkpt lat="59.414940067366" lon="17.828158137148">
        <ele>0</ele>
        <time>2013-08-29T20:42:56Z</time>
      </trkpt>
      <trkpt lat="59.415092785584" lon="17.828086388084">
        <ele>0</ele>
        <time>2013-08-29T20:42:59Z</time>
      </trkpt>
      <trkpt lat="59.415224046138" lon="17.828036180503">
        <ele>0</ele>
        <time>2013-08-29T20:43:01Z</time>
      </trkpt>
      <trkpt lat="59.415349104086" lon="17.828061996755">
        <ele>0</ele>
        <time>2013-08-29T20:43:03Z</time>
      </trkpt>
      <trkpt lat="59.415734839124" lon="17.828179259536">
        <ele>0</ele>
        <time>2013-08-29T20:43:09Z</time>
      </trkpt>
      <trkpt lat="59.416125519483" lon="17.82830465276">
        <ele>0</ele>
        <time>2013-08-29T20:43:15Z</time>
      </trkpt>
      <trkpt lat="59.416194670158" lon="17.828328205899">
        <ele>0</ele>
        <time>2013-08-29T20:43:16Z</time>
      </trkpt>
      <trkpt lat="59.416461633673" lon="17.828446809784">
        <ele>0</ele>
        <time>2013-08-29T20:43:20Z</time>
      </trkpt>
      <trkpt lat="59.416858265181" lon="17.828676138568">
        <ele>0</ele>
        <time>2013-08-29T20:43:26Z</time>
      </trkpt>
      <trkpt lat="59.417362855561" lon="17.828978892796">
        <ele>0</ele>
        <time>2013-08-29T20:43:34Z</time>
      </trkpt>
      <trkpt lat="59.417795696877" lon="17.82922163262">
        <ele>0</ele>
        <time>2013-08-29T20:43:41Z</time>
      </trkpt>
      <trkpt lat="59.41796392161" lon="17.829321293411">
        <ele>0</ele>
        <time>2013-08-29T20:43:44Z</time>
      </trkpt>
      <trkpt lat="59.418016895218" lon="17.829332357519">
        <ele>0</ele>
        <time>2013-08-29T20:43:45Z</time>
      </trkpt>
      <trkpt lat="59.418069701188" lon="17.829324813809">
        <ele>0</ele>
        <time>2013-08-29T20:43:46Z</time>
      </trkpt>
      <trkpt lat="59.418125524642" lon="17.829307128">
        <ele>0</ele>
        <time>2013-08-29T20:43:47Z</time>
      </trkpt>
      <trkpt lat="59.418180342268" lon="17.82925264565">
        <ele>0</ele>
        <time>2013-08-29T20:43:48Z</time>
      </trkpt>
      <trkpt lat="59.418227448546" lon="17.829199504404">
        <ele>0</ele>
        <time>2013-08-29T20:43:49Z</time>
      </trkpt>
      <trkpt lat="59.418283188181" lon="17.829160780026">
        <ele>0</ele>
        <time>2013-08-29T20:43:50Z</time>
      </trkpt>
      <trkpt lat="59.41846599742" lon="17.829187685925">
        <ele>0</ele>
        <time>2013-08-29T20:43:53Z</time>
      </trkpt>
      <trkpt lat="59.418674119997" lon="17.829428497912">
        <ele>0</ele>
        <time>2013-08-29T20:43:57Z</time>
      </trkpt>
      <trkpt lat="59.418711922366" lon="17.829500246976">
        <ele>0</ele>
        <time>2013-08-29T20:43:58Z</time>
      </trkpt>
      <trkpt lat="59.41875349659" lon="17.829557411534">
        <ele>0</ele>
        <time>2013-08-29T20:43:59Z</time>
      </trkpt>
      <trkpt lat="59.418898754917" lon="17.829736029823">
        <ele>0</ele>
        <time>2013-08-29T20:44:02Z</time>
      </trkpt>
      <trkpt lat="59.418954243095" lon="17.829781878816">
        <ele>0</ele>
        <time>2013-08-29T20:44:03Z</time>
      </trkpt>
      <trkpt lat="59.419008976902" lon="17.829826638162">
        <ele>0</ele>
        <time>2013-08-29T20:44:04Z</time>
      </trkpt>
      <trkpt lat="59.419065387089" lon="17.829871397508">
        <ele>0</ele>
        <time>2013-08-29T20:44:05Z</time>
      </trkpt>
      <trkpt lat="59.419123389837" lon="17.829909618972">
        <ele>0</ele>
        <time>2013-08-29T20:44:06Z</time>
      </trkpt>
      <trkpt lat="59.419183571879" lon="17.829947756617">
        <ele>0</ele>
        <time>2013-08-29T20:44:07Z</time>
      </trkpt>
      <trkpt lat="59.419298823004" lon="17.830016404378">
        <ele>0</ele>
        <time>2013-08-29T20:44:09Z</time>
      </trkpt>
      <trkpt lat="59.419462521511" lon="17.830111371305">
        <ele>0</ele>
        <time>2013-08-29T20:44:12Z</time>
      </trkpt>
      <trkpt lat="59.419572659677" lon="17.830168116768">
        <ele>0</ele>
        <time>2013-08-29T20:44:14Z</time>
      </trkpt>
      <trkpt lat="59.419684809499" lon="17.830245565524">
        <ele>0</ele>
        <time>2013-08-29T20:44:16Z</time>
      </trkpt>
      <trkpt lat="59.419784302652" lon="17.830401301226">
        <ele>0</ele>
        <time>2013-08-29T20:44:18Z</time>
      </trkpt>
      <trkpt lat="59.419937942879" lon="17.83063817372">
        <ele>0</ele>
        <time>2013-08-29T20:44:21Z</time>
      </trkpt>
      <trkpt lat="59.420061492085" lon="17.830731799543">
        <ele>0</ele>
        <time>2013-08-29T20:44:23Z</time>
      </trkpt>
      <trkpt lat="59.420396432809" lon="17.830911675117">
        <ele>0</ele>
        <time>2013-08-29T20:44:28Z</time>
      </trkpt>
      <trkpt lat="59.420823993528" lon="17.831214177888">
        <ele>0</ele>
        <time>2013-08-29T20:44:34Z</time>
      </trkpt>
      <trkpt lat="59.421388179217" lon="17.831655233466">
        <ele>0</ele>
        <time>2013-08-29T20:44:42Z</time>
      </trkpt>
      <trkpt lat="59.421840466541" lon="17.83184349094">
        <ele>0</ele>
        <time>2013-08-29T20:44:48Z</time>
      </trkpt>
      <trkpt lat="59.422313205701" lon="17.831829828443">
        <ele>0</ele>
        <time>2013-08-29T20:44:54Z</time>
      </trkpt>
      <trkpt lat="59.422819723918" lon="17.831838377981">
        <ele>0</ele>
        <time>2013-08-29T20:45:01Z</time>
      </trkpt>
      <trkpt lat="59.423399499941" lon="17.831836366325">
        <ele>0</ele>
        <time>2013-08-29T20:45:09Z</time>
      </trkpt>
      <trkpt lat="59.423970642607" lon="17.831838713257">
        <ele>0</ele>
        <time>2013-08-29T20:45:17Z</time>
      </trkpt>
      <trkpt lat="59.424469281838" lon="17.831823961113">
        <ele>0</ele>
        <time>2013-08-29T20:45:24Z</time>
      </trkpt>
      <trkpt lat="59.42454287492" lon="17.831815160118">
        <ele>0</ele>
        <time>2013-08-29T20:45:25Z</time>
      </trkpt>
      <trkpt lat="59.425108234075" lon="17.831756067723">
        <ele>0</ele>
        <time>2013-08-29T20:45:33Z</time>
      </trkpt>
      <trkpt lat="59.42517738475" lon="17.831752044411">
        <ele>0</ele>
        <time>2013-08-29T20:45:34Z</time>
      </trkpt>
      <trkpt lat="59.425687507184" lon="17.831686246496">
        <ele>0</ele>
        <time>2013-08-29T20:45:41Z</time>
      </trkpt>
      <trkpt lat="59.42620332931" lon="17.83155096263">
        <ele>0</ele>
        <time>2013-08-29T20:45:48Z</time>
      </trkpt>
      <trkpt lat="59.426615551152" lon="17.831303864218">
        <ele>0</ele>
        <time>2013-08-29T20:45:54Z</time>
      </trkpt>
      <trkpt lat="59.427161883394" lon="17.830948555477">
        <ele>0</ele>
        <time>2013-08-29T20:46:02Z</time>
      </trkpt>
      <trkpt lat="59.427597406918" lon="17.830589977795">
        <ele>0</ele>
        <time>2013-08-29T20:46:09Z</time>
      </trkpt>
      <trkpt lat="59.42792664795" lon="17.830130984951">
        <ele>0</ele>
        <time>2013-08-29T20:46:15Z</time>
      </trkpt>
      <trkpt lat="59.428318669413" lon="17.829441070762">
        <ele>0</ele>
        <time>2013-08-29T20:46:23Z</time>
      </trkpt>
      <trkpt lat="59.428636846337" lon="17.828815781022">
        <ele>0</ele>
        <time>2013-08-29T20:46:30Z</time>
      </trkpt>
      <trkpt lat="59.428707170478" lon="17.82866088351">
        <ele>0</ele>
        <time>2013-08-29T20:46:32Z</time>
      </trkpt>
      <trkpt lat="59.428739189336" lon="17.828574633759">
        <ele>0</ele>
        <time>2013-08-29T20:46:33Z</time>
      </trkpt>
      <trkpt lat="59.428779841551" lon="17.828493999881">
        <ele>0</ele>
        <time>2013-08-29T20:46:35Z</time>
      </trkpt>
      <trkpt lat="59.428829965313" lon="17.82845636515">
        <ele>0</ele>
        <time>2013-08-29T20:46:36Z</time>
      </trkpt>
      <trkpt lat="59.42893750509" lon="17.828497939374">
        <ele>0</ele>
        <time>2013-08-29T20:46:38Z</time>
      </trkpt>
      <trkpt lat="59.429025179764" lon="17.828671612342">
        <ele>0</ele>
        <time>2013-08-29T20:46:40Z</time>
      </trkpt>
      <trkpt lat="59.429063401228" lon="17.828778565386">
        <ele>0</ele>
        <time>2013-08-29T20:46:41Z</time>
      </trkpt>
      <trkpt lat="59.429312930391" lon="17.829429336102">
        <ele>0</ele>
        <time>2013-08-29T20:46:47Z</time>
      </trkpt>
      <trkpt lat="59.429358527927" lon="17.829561267208">
        <ele>0</ele>
        <time>2013-08-29T20:46:48Z</time>
      </trkpt>
      <trkpt lat="59.429399934513" lon="17.829700742024">
        <ele>0</ele>
        <time>2013-08-29T20:46:49Z</time>
      </trkpt>
      <trkpt lat="59.429440335271" lon="17.829842982867">
        <ele>0</ele>
        <time>2013-08-29T20:46:50Z</time>
      </trkpt>
      <trkpt lat="59.429481741857" lon="17.829992348325">
        <ele>0</ele>
        <time>2013-08-29T20:46:51Z</time>
      </trkpt>
      <trkpt lat="59.429505965548" lon="17.830111455124">
        <ele>0</ele>
        <time>2013-08-29T20:46:52Z</time>
      </trkpt>
      <trkpt lat="59.429529434868" lon="17.830218659625">
        <ele>0</ele>
        <time>2013-08-29T20:46:53Z</time>
      </trkpt>
      <trkpt lat="59.429545528116" lon="17.830315722027">
        <ele>0</ele>
        <time>2013-08-29T20:46:54Z</time>
      </trkpt>
      <trkpt lat="59.429562962468" lon="17.830396942638">
        <ele>0</ele>
        <time>2013-08-29T20:46:55Z</time>
      </trkpt>
      <trkpt lat="59.42958710234" lon="17.830459220155">
        <ele>0</ele>
        <time>2013-08-29T20:46:56Z</time>
      </trkpt>
      <trkpt lat="59.429618450646" lon="17.830513702505">
        <ele>0</ele>
        <time>2013-08-29T20:46:57Z</time>
      </trkpt>
      <trkpt lat="59.429661282155" lon="17.830567262846">
        <ele>0</ele>
        <time>2013-08-29T20:46:58Z</time>
      </trkpt>
      <trkpt lat="59.429708220795" lon="17.830628534535">
        <ele>0</ele>
        <time>2013-08-29T20:46:59Z</time>
      </trkpt>
      <trkpt lat="59.429739904377" lon="17.830704306911">
        <ele>0</ele>
        <time>2013-08-29T20:47:00Z</time>
      </trkpt>
      <trkpt lat="59.429768486656" lon="17.830793909422">
        <ele>0</ele>
        <time>2013-08-29T20:47:01Z</time>
      </trkpt>
      <trkpt lat="59.429795224917" lon="17.830881751734">
        <ele>0</ele>
        <time>2013-08-29T20:47:02Z</time>
      </trkpt>
      <trkpt lat="59.429828081965" lon="17.830963810535">
        <ele>0</ele>
        <time>2013-08-29T20:47:03Z</time>
      </trkpt>
      <trkpt lat="59.429935370285" lon="17.831236892837">
        <ele>0</ele>
        <time>2013-08-29T20:47:06Z</time>
      </trkpt>
      <trkpt lat="59.429958839605" lon="17.831332614135">
        <ele>0</ele>
        <time>2013-08-29T20:47:07Z</time>
      </trkpt>
      <trkpt lat="59.430025140434" lon="17.83159873946">
        <ele>0</ele>
        <time>2013-08-29T20:47:10Z</time>
      </trkpt>
      <trkpt lat="59.430093285281" lon="17.831729161824">
        <ele>0</ele>
        <time>2013-08-29T20:47:12Z</time>
      </trkpt>
      <trkpt lat="59.430200154506" lon="17.831776268102">
        <ele>0</ele>
        <time>2013-08-29T20:47:14Z</time>
      </trkpt>
      <trkpt lat="59.430424621788" lon="17.831702255925">
        <ele>0</ele>
        <time>2013-08-29T20:47:18Z</time>
      </trkpt>
      <trkpt lat="59.430842878598" lon="17.83145876173">
        <ele>0</ele>
        <time>2013-08-29T20:47:25Z</time>
      </trkpt>
      <trkpt lat="59.431189637801" lon="17.83109666365">
        <ele>0</ele>
        <time>2013-08-29T20:47:31Z</time>
      </trkpt>
      <trkpt lat="59.431457188049" lon="17.830728027688">
        <ele>0</ele>
        <time>2013-08-29T20:47:36Z</time>
      </trkpt>
      <trkpt lat="59.431564057274" lon="17.830567346665">
        <ele>0</ele>
        <time>2013-08-29T20:47:38Z</time>
      </trkpt>
      <trkpt lat="59.431959263859" lon="17.83005144072">
        <ele>0</ele>
        <time>2013-08-29T20:47:45Z</time>
      </trkpt>
      <trkpt lat="59.432296300058" lon="17.829639805611">
        <ele>0</ele>
        <time>2013-08-29T20:47:51Z</time>
      </trkpt>
      <trkpt lat="59.432691255186" lon="17.829230936529">
        <ele>0</ele>
        <time>2013-08-29T20:47:58Z</time>
      </trkpt>
      <trkpt lat="59.433094005481" lon="17.828925583912">
        <ele>0</ele>
        <time>2013-08-29T20:48:05Z</time>
      </trkpt>
      <trkpt lat="59.433153516971" lon="17.828876382159">
        <ele>0</ele>
        <time>2013-08-29T20:48:06Z</time>
      </trkpt>
      <trkpt lat="59.433208502235" lon="17.828825839302">
        <ele>0</ele>
        <time>2013-08-29T20:48:07Z</time>
      </trkpt>
      <trkpt lat="59.433261894938" lon="17.82878325925">
        <ele>0</ele>
        <time>2013-08-29T20:48:08Z</time>
      </trkpt>
      <trkpt lat="59.433321993161" lon="17.82874721708">
        <ele>0</ele>
        <time>2013-08-29T20:48:09Z</time>
      </trkpt>
      <trkpt lat="59.433383181031" lon="17.828720897914">
        <ele>0</ele>
        <time>2013-08-29T20:48:10Z</time>
      </trkpt>
      <trkpt lat="59.43355844656" lon="17.828665577374">
        <ele>0</ele>
        <time>2013-08-29T20:48:13Z</time>
      </trkpt>
      <trkpt lat="59.433672608038" lon="17.828653423619">
        <ele>0</ele>
        <time>2013-08-29T20:48:15Z</time>
      </trkpt>
      <trkpt lat="59.433727174207" lon="17.82864914885">
        <ele>0</ele>
        <time>2013-08-29T20:48:16Z</time>
      </trkpt>
      <trkpt lat="59.433781908014" lon="17.828645963728">
        <ele>0</ele>
        <time>2013-08-29T20:48:17Z</time>
      </trkpt>
      <trkpt lat="59.433833037604" lon="17.828636743638">
        <ele>0</ele>
        <time>2013-08-29T20:48:18Z</time>
      </trkpt>
      <trkpt lat="59.433886430307" lon="17.828627272091">
        <ele>0</ele>
        <time>2013-08-29T20:48:19Z</time>
      </trkpt>
      <trkpt lat="59.434103689155" lon="17.828592906301">
        <ele>0</ele>
        <time>2013-08-29T20:48:23Z</time>
      </trkpt>
      <trkpt lat="59.434477773352" lon="17.828521660151">
        <ele>0</ele>
        <time>2013-08-29T20:48:30Z</time>
      </trkpt>
      <trkpt lat="59.434533680625" lon="17.82852006759">
        <ele>0</ele>
        <time>2013-08-29T20:48:31Z</time>
      </trkpt>
      <trkpt lat="59.43458774388" lon="17.828512440061">
        <ele>0</ele>
        <time>2013-08-29T20:48:32Z</time>
      </trkpt>
      <trkpt lat="59.434638286737" lon="17.828507997654">
        <ele>0</ele>
        <time>2013-08-29T20:48:33Z</time>
      </trkpt>
      <trkpt lat="59.434691260345" lon="17.828501208315">
        <ele>0</ele>
        <time>2013-08-29T20:48:34Z</time>
      </trkpt>
      <trkpt lat="59.434743982496" lon="17.828495592442">
        <ele>0</ele>
        <time>2013-08-29T20:48:35Z</time>
      </trkpt>
      <trkpt lat="59.434935508911" lon="17.828448989078">
        <ele>0</ele>
        <time>2013-08-29T20:48:39Z</time>
      </trkpt>
      <trkpt lat="59.43498420775" lon="17.828454604951">
        <ele>0</ele>
        <time>2013-08-29T20:48:40Z</time>
      </trkpt>
      <trkpt lat="59.435058890479" lon="17.828587374247">
        <ele>0</ele>
        <time>2013-08-29T20:48:42Z</time>
      </trkpt>
      <trkpt lat="59.435093088631" lon="17.828654848542">
        <ele>0</ele>
        <time>2013-08-29T20:48:43Z</time>
      </trkpt>
      <trkpt lat="59.435132232104" lon="17.828718886258">
        <ele>0</ele>
        <time>2013-08-29T20:48:44Z</time>
      </trkpt>
      <trkpt lat="59.435170034473" lon="17.828768842382">
        <ele>0</ele>
        <time>2013-08-29T20:48:45Z</time>
      </trkpt>
      <trkpt lat="59.435219906778" lon="17.828783678345">
        <ele>0</ele>
        <time>2013-08-29T20:48:46Z</time>
      </trkpt>
      <trkpt lat="59.435272796567" lon="17.828778565386">
        <ele>0</ele>
        <time>2013-08-29T20:48:47Z</time>
      </trkpt>
      <trkpt lat="59.435432220305" lon="17.828733638402">
        <ele>0</ele>
        <time>2013-08-29T20:48:50Z</time>
      </trkpt>
      <trkpt lat="59.435542609928" lon="17.828672869627">
        <ele>0</ele>
        <time>2013-08-29T20:48:52Z</time>
      </trkpt>
      <trkpt lat="59.435597595192" lon="17.828632217412">
        <ele>0</ele>
        <time>2013-08-29T20:48:53Z</time>
      </trkpt>
      <trkpt lat="59.435809405805" lon="17.828445636318">
        <ele>0</ele>
        <time>2013-08-29T20:48:57Z</time>
      </trkpt>
      <trkpt lat="59.435911581166" lon="17.828337425989">
        <ele>0</ele>
        <time>2013-08-29T20:48:59Z</time>
      </trkpt>
      <trkpt lat="59.436013924165" lon="17.828253858446">
        <ele>0</ele>
        <time>2013-08-29T20:49:01Z</time>
      </trkpt>
      <trkpt lat="59.436064383203" lon="17.828198454087">
        <ele>0</ele>
        <time>2013-08-29T20:49:02Z</time>
      </trkpt>
      <trkpt lat="59.436115009879" lon="17.828148162687">
        <ele>0</ele>
        <time>2013-08-29T20:49:03Z</time>
      </trkpt>
      <trkpt lat="59.436166977659" lon="17.828096446364">
        <ele>0</ele>
        <time>2013-08-29T20:49:04Z</time>
      </trkpt>
      <trkpt lat="59.436219615991" lon="17.828046322602">
        <ele>0</ele>
        <time>2013-08-29T20:49:05Z</time>
      </trkpt>
      <trkpt lat="59.436556819828" lon="17.827715824285">
        <ele>0</ele>
        <time>2013-08-29T20:49:12Z</time>
      </trkpt>
      <trkpt lat="59.436635022955" lon="17.827637872615">
        <ele>0</ele>
        <time>2013-08-29T20:49:14Z</time>
      </trkpt>
      <trkpt lat="59.436679614663" lon="17.827597974771">
        <ele>0</ele>
        <time>2013-08-29T20:49:15Z</time>
      </trkpt>
      <trkpt lat="59.436730744253" lon="17.827557071099">
        <ele>0</ele>
        <time>2013-08-29T20:49:16Z</time>
      </trkpt>
      <trkpt lat="59.436782544395" lon="17.827517005617">
        <ele>0</ele>
        <time>2013-08-29T20:49:17Z</time>
      </trkpt>
      <trkpt lat="59.4368407986" lon="17.827489512985">
        <ele>0</ele>
        <time>2013-08-29T20:49:18Z</time>
      </trkpt>
      <trkpt lat="59.43701178936" lon="17.827468474416">
        <ele>0</ele>
        <time>2013-08-29T20:49:21Z</time>
      </trkpt>
      <trkpt lat="59.437072893411" lon="17.827481047266">
        <ele>0</ele>
        <time>2013-08-29T20:49:22Z</time>
      </trkpt>
      <trkpt lat="59.437366008454" lon="17.827640051909">
        <ele>0</ele>
        <time>2013-08-29T20:49:27Z</time>
      </trkpt>
      <trkpt lat="59.437793652992" lon="17.827884887208">
        <ele>0</ele>
        <time>2013-08-29T20:49:34Z</time>
      </trkpt>
      <trkpt lat="59.438107555147" lon="17.828089070292">
        <ele>0</ele>
        <time>2013-08-29T20:49:39Z</time>
      </trkpt>
      <trkpt lat="59.438166647542" lon="17.828107761929">
        <ele>0</ele>
        <time>2013-08-29T20:49:40Z</time>
      </trkpt>
      <trkpt lat="59.438328334393" lon="17.827941632671">
        <ele>0</ele>
        <time>2013-08-29T20:49:43Z</time>
      </trkpt>
      <trkpt lat="59.438409471185" lon="17.827520777472">
        <ele>0</ele>
        <time>2013-08-29T20:49:46Z</time>
      </trkpt>
      <trkpt lat="59.438433946333" lon="17.82737426186">
        <ele>0</ele>
        <time>2013-08-29T20:49:47Z</time>
      </trkpt>
      <trkpt lat="59.438498067868" lon="17.827097742979">
        <ele>0</ele>
        <time>2013-08-29T20:49:49Z</time>
      </trkpt>
      <trkpt lat="59.438576187176" lon="17.826834635138">
        <ele>0</ele>
        <time>2013-08-29T20:49:51Z</time>
      </trkpt>
      <trkpt lat="59.438637542684" lon="17.826734639071">
        <ele>0</ele>
        <time>2013-08-29T20:49:52Z</time>
      </trkpt>
      <trkpt lat="59.438712393051" lon="17.82669448977">
        <ele>0</ele>
        <time>2013-08-29T20:49:53Z</time>
      </trkpt>
      <trkpt lat="59.438974243607" lon="17.826746876645">
        <ele>0</ele>
        <time>2013-08-29T20:49:56Z</time>
      </trkpt>
      <trkpt lat="59.439067282697" lon="17.826778727865">
        <ele>0</ele>
        <time>2013-08-29T20:49:57Z</time>
      </trkpt>
      <trkpt lat="59.43916174671" lon="17.82680010171">
        <ele>0</ele>
        <time>2013-08-29T20:49:58Z</time>
      </trkpt>
      <trkpt lat="59.439258892931" lon="17.826821727012">
        <ele>0</ele>
        <time>2013-08-29T20:49:59Z</time>
      </trkpt>
      <trkpt lat="59.439364001957" lon="17.82683782026">
        <ele>0</ele>
        <time>2013-08-29T20:50:00Z</time>
      </trkpt>
      <trkpt lat="59.439567765946" lon="17.826832539663">
        <ele>0</ele>
        <time>2013-08-29T20:50:02Z</time>
      </trkpt>
      <trkpt lat="59.44020529326" lon="17.826692310476">
        <ele>0</ele>
        <time>2013-08-29T20:50:08Z</time>
      </trkpt>
      <trkpt lat="59.440734861702" lon="17.826433561223">
        <ele>0</ele>
        <time>2013-08-29T20:50:13Z</time>
      </trkpt>
      <trkpt lat="59.440841814746" lon="17.82636256653">
        <ele>0</ele>
        <time>2013-08-29T20:50:14Z</time>
      </trkpt>
      <trkpt lat="59.441367778971" lon="17.826026117064">
        <ele>0</ele>
        <time>2013-08-29T20:50:19Z</time>
      </trkpt>
      <trkpt lat="59.441576488281" lon="17.825881613108">
        <ele>0</ele>
        <time>2013-08-29T20:50:21Z</time>
      </trkpt>
      <trkpt lat="59.442115276813" lon="17.825574248835">
        <ele>0</ele>
        <time>2013-08-29T20:50:26Z</time>
      </trkpt>
      <trkpt lat="59.442318789345" lon="17.825472324931">
        <ele>0</ele>
        <time>2013-08-29T20:50:28Z</time>
      </trkpt>
      <trkpt lat="59.442846178493" lon="17.825290689158">
        <ele>0</ele>
        <time>2013-08-29T20:50:33Z</time>
      </trkpt>
      <trkpt lat="59.443251108082" lon="17.825218940094">
        <ele>0</ele>
        <time>2013-08-29T20:50:37Z</time>
      </trkpt>
      <trkpt lat="59.443770450606" lon="17.825229082193">
        <ele>0</ele>
        <time>2013-08-29T20:50:42Z</time>
      </trkpt>
      <trkpt lat="59.444313513907" lon="17.825305022207">
        <ele>0</ele>
        <time>2013-08-29T20:50:47Z</time>
      </trkpt>
      <trkpt lat="59.444526665624" lon="17.825337208703">
        <ele>0</ele>
        <time>2013-08-29T20:50:49Z</time>
      </trkpt>
      <trkpt lat="59.445157235961" lon="17.825489926921">
        <ele>0</ele>
        <time>2013-08-29T20:50:55Z</time>
      </trkpt>
      <trkpt lat="59.445667693671" lon="17.825608530806">
        <ele>0</ele>
        <time>2013-08-29T20:51:00Z</time>
      </trkpt>
      <trkpt lat="59.446281081113" lon="17.825639040922">
        <ele>0</ele>
        <time>2013-08-29T20:51:06Z</time>
      </trkpt>
      <trkpt lat="59.446900084428" lon="17.825516078449">
        <ele>0</ele>
        <time>2013-08-29T20:51:12Z</time>
      </trkpt>
      <trkpt lat="59.447092616671" lon="17.825438378236">
        <ele>0</ele>
        <time>2013-08-29T20:51:14Z</time>
      </trkpt>
      <trkpt lat="59.447306522759" lon="17.825291778805">
        <ele>0</ele>
        <time>2013-08-29T20:51:16Z</time>
      </trkpt>
      <trkpt lat="59.447789068742" lon="17.824933536399">
        <ele>0</ele>
        <time>2013-08-29T20:51:21Z</time>
      </trkpt>
      <trkpt lat="59.448323414867" lon="17.824518129435">
        <ele>0</ele>
        <time>2013-08-29T20:51:27Z</time>
      </trkpt>
      <trkpt lat="59.448402372365" lon="17.824473873003">
        <ele>0</ele>
        <time>2013-08-29T20:51:28Z</time>
      </trkpt>
      <trkpt lat="59.448605298164" lon="17.824377481153">
        <ele>0</ele>
        <time>2013-08-29T20:51:31Z</time>
      </trkpt>
      <trkpt lat="59.448656260116" lon="17.824330374875">
        <ele>0</ele>
        <time>2013-08-29T20:51:32Z</time>
      </trkpt>
      <trkpt lat="59.448704958955" lon="17.824266085702">
        <ele>0</ele>
        <time>2013-08-29T20:51:33Z</time>
      </trkpt>
      <trkpt lat="59.448736139623" lon="17.824171202594">
        <ele>0</ele>
        <time>2013-08-29T20:51:34Z</time>
      </trkpt>
      <trkpt lat="59.448745694989" lon="17.824061567342">
        <ele>0</ele>
        <time>2013-08-29T20:51:35Z</time>
      </trkpt>
      <trkpt lat="59.448709736638" lon="17.823597293901">
        <ele>0</ele>
        <time>2013-08-29T20:51:39Z</time>
      </trkpt>
      <trkpt lat="59.448653829365" lon="17.822777460262">
        <ele>0</ele>
        <time>2013-08-29T20:51:45Z</time>
      </trkpt>
      <trkpt lat="59.448644944551" lon="17.821919824254">
        <ele>0</ele>
        <time>2013-08-29T20:51:54Z</time>
      </trkpt>
      <trkpt lat="59.448644106361" lon="17.821431997674">
        <ele>0</ele>
        <time>2013-08-29T20:51:58Z</time>
      </trkpt>
      <trkpt lat="59.448659780514" lon="17.821160424114">
        <ele>0</ele>
        <time>2013-08-29T20:52:00Z</time>
      </trkpt>
      <trkpt lat="59.448707473525" lon="17.820209581378">
        <ele>0</ele>
        <time>2013-08-29T20:52:07Z</time>
      </trkpt>
      <trkpt lat="59.448774780182" lon="17.819360159632">
        <ele>0</ele>
        <time>2013-08-29T20:52:13Z</time>
      </trkpt>
      <trkpt lat="59.448810235619" lon="17.819055393748">
        <ele>0</ele>
        <time>2013-08-29T20:52:15Z</time>
      </trkpt>
      <trkpt lat="59.448832866749" lon="17.818909632507">
        <ele>0</ele>
        <time>2013-08-29T20:52:16Z</time>
      </trkpt>
      <trkpt lat="59.448853570042" lon="17.818763200714">
        <ele>0</ele>
        <time>2013-08-29T20:52:17Z</time>
      </trkpt>
      <trkpt lat="59.448875446801" lon="17.818619451129">
        <ele>0</ele>
        <time>2013-08-29T20:52:18Z</time>
      </trkpt>
      <trkpt lat="59.448898748483" lon="17.818479305761">
        <ele>0</ele>
        <time>2013-08-29T20:52:19Z</time>
      </trkpt>
      <trkpt lat="59.449025901906" lon="17.817659807398">
        <ele>0</ele>
        <time>2013-08-29T20:52:24Z</time>
      </trkpt>
      <trkpt lat="59.449055238556" lon="17.817485212421">
        <ele>0</ele>
        <time>2013-08-29T20:52:25Z</time>
      </trkpt>
      <trkpt lat="59.449089185251" lon="17.817311623272">
        <ele>0</ele>
        <time>2013-08-29T20:52:26Z</time>
      </trkpt>
      <trkpt lat="59.449129921285" lon="17.817144069091">
        <ele>0</ele>
        <time>2013-08-29T20:52:27Z</time>
      </trkpt>
      <trkpt lat="59.449176021735" lon="17.816976850186">
        <ele>0</ele>
        <time>2013-08-29T20:52:28Z</time>
      </trkpt>
      <trkpt lat="59.449213991742" lon="17.816808625453">
        <ele>0</ele>
        <time>2013-08-29T20:52:29Z</time>
      </trkpt>
      <trkpt lat="59.449250033912" lon="17.81663118063">
        <ele>0</ele>
        <time>2013-08-29T20:52:30Z</time>
      </trkpt>
      <trkpt lat="59.449287165729" lon="17.816465554286">
        <ele>0</ele>
        <time>2013-08-29T20:52:31Z</time>
      </trkpt>
      <trkpt lat="59.449331757437" lon="17.816307974566">
        <ele>0</ele>
        <time>2013-08-29T20:52:32Z</time>
      </trkpt>
      <trkpt lat="59.449377354973" lon="17.816155507805">
        <ele>0</ele>
        <time>2013-08-29T20:52:33Z</time>
      </trkpt>
      <trkpt lat="59.449423371604" lon="17.816011255306">
        <ele>0</ele>
        <time>2013-08-29T20:52:34Z</time>
      </trkpt>
      <trkpt lat="59.449692179137" lon="17.815089246306">
        <ele>0</ele>
        <time>2013-08-29T20:52:40Z</time>
      </trkpt>
      <trkpt lat="59.449739453053" lon="17.814940802857">
        <ele>0</ele>
        <time>2013-08-29T20:52:41Z</time>
      </trkpt>
      <trkpt lat="59.44978580496" lon="17.814793281417">
        <ele>0</ele>
        <time>2013-08-29T20:52:42Z</time>
      </trkpt>
      <trkpt lat="59.449830648125" lon="17.81464802309">
        <ele>0</ele>
        <time>2013-08-29T20:52:43Z</time>
      </trkpt>
      <trkpt lat="59.449876245661" lon="17.814508129179">
        <ele>0</ele>
        <time>2013-08-29T20:52:44Z</time>
      </trkpt>
      <trkpt lat="59.449971212588" lon="17.814224820959">
        <ele>0</ele>
        <time>2013-08-29T20:52:46Z</time>
      </trkpt>
      <trkpt lat="59.450305315122" lon="17.813299794475">
        <ele>0</ele>
        <time>2013-08-29T20:52:53Z</time>
      </trkpt>
      <trkpt lat="59.450352505219" lon="17.813169707387">
        <ele>0</ele>
        <time>2013-08-29T20:52:54Z</time>
      </trkpt>
      <trkpt lat="59.45061561306" lon="17.812471411298">
        <ele>0</ele>
        <time>2013-08-29T20:52:59Z</time>
      </trkpt>
      <trkpt lat="59.450801607421" lon="17.812017112318">
        <ele>0</ele>
        <time>2013-08-29T20:53:02Z</time>
      </trkpt>
      <trkpt lat="59.450862376196" lon="17.811871518715">
        <ele>0</ele>
        <time>2013-08-29T20:53:03Z</time>
      </trkpt>
      <trkpt lat="59.450919456935" lon="17.811731708623">
        <ele>0</ele>
        <time>2013-08-29T20:53:04Z</time>
      </trkpt>
      <trkpt lat="59.450977543502" lon="17.811587623762">
        <ele>0</ele>
        <time>2013-08-29T20:53:05Z</time>
      </trkpt>
      <trkpt lat="59.451038144639" lon="17.811441862521">
        <ele>0</ele>
        <time>2013-08-29T20:53:06Z</time>
      </trkpt>
      <trkpt lat="59.45141943727" lon="17.810599146295">
        <ele>0</ele>
        <time>2013-08-29T20:53:12Z</time>
      </trkpt>
      <trkpt lat="59.451793353829" lon="17.809810241867">
        <ele>0</ele>
        <time>2013-08-29T20:53:18Z</time>
      </trkpt>
      <trkpt lat="59.451857559183" lon="17.809687111756">
        <ele>0</ele>
        <time>2013-08-29T20:53:19Z</time>
      </trkpt>
      <trkpt lat="59.452110273468" lon="17.809179420073">
        <ele>0</ele>
        <time>2013-08-29T20:53:23Z</time>
      </trkpt>
      <trkpt lat="59.452173053899" lon="17.809054865039">
        <ele>0</ele>
        <time>2013-08-29T20:53:24Z</time>
      </trkpt>
      <trkpt lat="59.452238600357" lon="17.808931902566">
        <ele>0</ele>
        <time>2013-08-29T20:53:25Z</time>
      </trkpt>
      <trkpt lat="59.452305236462" lon="17.808810281197">
        <ele>0</ele>
        <time>2013-08-29T20:53:26Z</time>
      </trkpt>
      <trkpt lat="59.452371285834" lon="17.80869016857">
        <ele>0</ele>
        <time>2013-08-29T20:53:27Z</time>
      </trkpt>
      <trkpt lat="59.452799265648" lon="17.807885170894">
        <ele>0</ele>
        <time>2013-08-29T20:53:34Z</time>
      </trkpt>
      <trkpt lat="59.452858693319" lon="17.807777966393">
        <ele>0</ele>
        <time>2013-08-29T20:53:35Z</time>
      </trkpt>
      <trkpt lat="59.453126578843" lon="17.807304221405">
        <ele>0</ele>
        <time>2013-08-29T20:53:40Z</time>
      </trkpt>
      <trkpt lat="59.453331767755" lon="17.80697187907">
        <ele>0</ele>
        <time>2013-08-29T20:53:44Z</time>
      </trkpt>
      <trkpt lat="59.453383651716" lon="17.806886467509">
        <ele>0</ele>
        <time>2013-08-29T20:53:45Z</time>
      </trkpt>
      <trkpt lat="59.453433104926" lon="17.806794769523">
        <ele>0</ele>
        <time>2013-08-29T20:53:46Z</time>
      </trkpt>
      <trkpt lat="59.453484485973" lon="17.806698293854">
        <ele>0</ele>
        <time>2013-08-29T20:53:47Z</time>
      </trkpt>
      <trkpt lat="59.4538392918" lon="17.806041655808">
        <ele>0</ele>
        <time>2013-08-29T20:53:54Z</time>
      </trkpt>
      <trkpt lat="59.45426593051" lon="17.805378815156">
        <ele>0</ele>
        <time>2013-08-29T20:54:01Z</time>
      </trkpt>
      <trkpt lat="59.454379840531" lon="17.805178403927">
        <ele>0</ele>
        <time>2013-08-29T20:54:03Z</time>
      </trkpt>
      <trkpt lat="59.454701956948" lon="17.804701641455">
        <ele>0</ele>
        <time>2013-08-29T20:54:08Z</time>
      </trkpt>
      <trkpt lat="59.454775214754" lon="17.804623857423">
        <ele>0</ele>
        <time>2013-08-29T20:54:09Z</time>
      </trkpt>
      <trkpt lat="59.454853166424" lon="17.80456543558">
        <ele>0</ele>
        <time>2013-08-29T20:54:10Z</time>
      </trkpt>
      <trkpt lat="59.455008315393" lon="17.80449586581">
        <ele>0</ele>
        <time>2013-08-29T20:54:12Z</time>
      </trkpt>
      <trkpt lat="59.45515860286" lon="17.804460158916">
        <ele>0</ele>
        <time>2013-08-29T20:54:14Z</time>
      </trkpt>
      <trkpt lat="59.45529438964" lon="17.804465858608">
        <ele>0</ele>
        <time>2013-08-29T20:54:16Z</time>
      </trkpt>
      <trkpt lat="59.455352308569" lon="17.804473737594">
        <ele>0</ele>
        <time>2013-08-29T20:54:17Z</time>
      </trkpt>
      <trkpt lat="59.455408634937" lon="17.804498799475">
        <ele>0</ele>
        <time>2013-08-29T20:54:18Z</time>
      </trkpt>
      <trkpt lat="59.455467140599" lon="17.804525034822">
        <ele>0</ele>
        <time>2013-08-29T20:54:19Z</time>
      </trkpt>
      <trkpt lat="59.455526400632" lon="17.804560490259">
        <ele>0</ele>
        <time>2013-08-29T20:54:20Z</time>
      </trkpt>
      <trkpt lat="59.455589516339" lon="17.804605081967">
        <ele>0</ele>
        <time>2013-08-29T20:54:21Z</time>
      </trkpt>
      <trkpt lat="59.455838123493" lon="17.804813875096">
        <ele>0</ele>
        <time>2013-08-29T20:54:25Z</time>
      </trkpt>
      <trkpt lat="59.455896126241" lon="17.804866513428">
        <ele>0</ele>
        <time>2013-08-29T20:54:26Z</time>
      </trkpt>
      <trkpt lat="59.455956727378" lon="17.804915631362">
        <ele>0</ele>
        <time>2013-08-29T20:54:27Z</time>
      </trkpt>
      <trkpt lat="59.456017244696" lon="17.804971370997">
        <ele>0</ele>
        <time>2013-08-29T20:54:28Z</time>
      </trkpt>
      <trkpt lat="59.456077594376" lon="17.805027026813">
        <ele>0</ele>
        <time>2013-08-29T20:54:29Z</time>
      </trkpt>
      <trkpt lat="59.456139117522" lon="17.805077318213">
        <ele>0</ele>
        <time>2013-08-29T20:54:30Z</time>
      </trkpt>
      <trkpt lat="59.456203574333" lon="17.805127358156">
        <ele>0</ele>
        <time>2013-08-29T20:54:31Z</time>
      </trkpt>
      <trkpt lat="59.456668685964" lon="17.80543966775">
        <ele>0</ele>
        <time>2013-08-29T20:54:38Z</time>
      </trkpt>
      <trkpt lat="59.457055175373" lon="17.80565424439">
        <ele>0</ele>
        <time>2013-08-29T20:54:44Z</time>
      </trkpt>
      <trkpt lat="59.457209234695" lon="17.805492892815">
        <ele>0</ele>
        <time>2013-08-29T20:54:47Z</time>
      </trkpt>
      <trkpt lat="59.457241169734" lon="17.805392058558">
        <ele>0</ele>
        <time>2013-08-29T20:54:48Z</time>
      </trkpt>
      <trkpt lat="59.457279475017" lon="17.805281920392">
        <ele>0</ele>
        <time>2013-08-29T20:54:49Z</time>
      </trkpt>
      <trkpt lat="59.457326497476" lon="17.805191312053">
        <ele>0</ele>
        <time>2013-08-29T20:54:50Z</time>
      </trkpt>
      <trkpt lat="59.457374358125" lon="17.805107995967">
        <ele>0</ele>
        <time>2013-08-29T20:54:51Z</time>
      </trkpt>
      <trkpt lat="59.457534955329" lon="17.804870201464">
        <ele>0</ele>
        <time>2013-08-29T20:54:54Z</time>
      </trkpt>
      <trkpt lat="59.457652134291" lon="17.804736761616">
        <ele>0</ele>
        <time>2013-08-29T20:54:56Z</time>
      </trkpt>
      <trkpt lat="59.457970311215" lon="17.804451274102">
        <ele>0</ele>
        <time>2013-08-29T20:55:01Z</time>
      </trkpt>
      <trkpt lat="59.458039210433" lon="17.804426463678">
        <ele>0</ele>
        <time>2013-08-29T20:55:02Z</time>
      </trkpt>
      <trkpt lat="59.458379347935" lon="17.804406347118">
        <ele>0</ele>
        <time>2013-08-29T20:55:07Z</time>
      </trkpt>
    </trkseg>
  </trk>
</gpx>